<?xml version="1.0" encoding="UTF-8" standalone="no" ?>
<gpx xmlns="http://www.topografix.com/GPX/1/1" xmlns:xsi="http://www.w3.org/2001/XMLSchema-instance" xsi:schemaLocation="http://www.topografix.com/GPX/1/1 http://www.topografix.com/GPX/1/1/gpx.xsd" version="1.1" creator="VisuGPX - https://www.visugpx.com">
  <metadata>
    <name>Grand Trail des Hospitaliers sur TraceDeTrail.fr</name>
  </metadata>
  <trk>
    <name><![CDATA[Grand Trail des Hospitaliers sur TraceDeTrail.fr]]></name>
    <trkseg>
      <trkpt lat="44.02249" lon="3.30229">
        <ele>489</ele>
        <time>2020-08-26T11:20:35.000Z</time>
      </trkpt>
      <trkpt lat="44.02225" lon="3.30269">
        <ele>489</ele>
        <time>2020-08-26T11:20:35.000Z</time>
      </trkpt>
      <trkpt lat="44.02216" lon="3.3027">
        <ele>490.4</ele>
        <time>2020-08-26T11:20:45.000Z</time>
      </trkpt>
      <trkpt lat="44.02206" lon="3.3027">
        <ele>490.7</ele>
        <time>2020-08-26T11:20:55.000Z</time>
      </trkpt>
      <trkpt lat="44.022" lon="3.30284">
        <ele>488</ele>
        <time>2020-08-26T11:20:35.000Z</time>
      </trkpt>
      <trkpt lat="44.02193" lon="3.30298">
        <ele>490.3</ele>
        <time>2020-08-26T11:20:45.000Z</time>
      </trkpt>
      <trkpt lat="44.0218" lon="3.30296">
        <ele>488</ele>
        <time>2020-08-26T11:20:35.000Z</time>
      </trkpt>
      <trkpt lat="44.02167" lon="3.30293">
        <ele>490.5</ele>
        <time>2020-08-26T11:20:45.000Z</time>
      </trkpt>
      <trkpt lat="44.02159" lon="3.30306">
        <ele>487</ele>
        <time>2020-08-26T11:20:35.000Z</time>
      </trkpt>
      <trkpt lat="44.02134" lon="3.30343">
        <ele>486</ele>
        <time>2020-08-26T11:20:35.000Z</time>
      </trkpt>
      <trkpt lat="44.02115" lon="3.30368">
        <ele>484</ele>
        <time>2020-08-26T11:20:45.000Z</time>
      </trkpt>
      <trkpt lat="44.02094" lon="3.30396">
        <ele>481</ele>
        <time>2020-08-26T11:20:35.000Z</time>
      </trkpt>
      <trkpt lat="44.02056" lon="3.30429">
        <ele>481</ele>
        <time>2020-08-26T11:20:35.000Z</time>
      </trkpt>
      <trkpt lat="44.02032" lon="3.3044">
        <ele>481</ele>
        <time>2020-08-26T11:20:45.000Z</time>
      </trkpt>
      <trkpt lat="44.02006" lon="3.30453">
        <ele>481</ele>
        <time>2020-08-26T11:20:35.000Z</time>
      </trkpt>
      <trkpt lat="44.01995" lon="3.30453">
        <ele>489.6</ele>
        <time>2020-08-26T11:20:45.000Z</time>
      </trkpt>
      <trkpt lat="44.01961" lon="3.30456">
        <ele>480</ele>
        <time>2020-08-26T11:20:35.000Z</time>
      </trkpt>
      <trkpt lat="44.0195" lon="3.30456">
        <ele>489</ele>
        <time>2020-08-26T11:20:45.000Z</time>
      </trkpt>
      <trkpt lat="44.01916" lon="3.30459">
        <ele>480</ele>
        <time>2020-08-26T11:20:35.000Z</time>
      </trkpt>
      <trkpt lat="44.01888" lon="3.30459">
        <ele>480</ele>
        <time>2020-08-26T11:20:35.000Z</time>
      </trkpt>
      <trkpt lat="44.01874" lon="3.3046">
        <ele>490</ele>
        <time>2020-08-26T11:20:45.000Z</time>
      </trkpt>
      <trkpt lat="44.01846" lon="3.3046">
        <ele>484</ele>
        <time>2020-08-26T11:20:35.000Z</time>
      </trkpt>
      <trkpt lat="44.01803" lon="3.30462">
        <ele>484</ele>
        <time>2020-08-26T11:20:35.000Z</time>
      </trkpt>
      <trkpt lat="44.01787" lon="3.30462">
        <ele>489</ele>
        <time>2020-08-26T11:20:45.000Z</time>
      </trkpt>
      <trkpt lat="44.01737" lon="3.30465">
        <ele>485</ele>
        <time>2020-08-26T11:20:35.000Z</time>
      </trkpt>
      <trkpt lat="44.01721" lon="3.30465">
        <ele>489</ele>
        <time>2020-08-26T11:20:45.000Z</time>
      </trkpt>
      <trkpt lat="44.01688" lon="3.30467">
        <ele>486</ele>
        <time>2020-08-26T11:20:35.000Z</time>
      </trkpt>
      <trkpt lat="44.01671" lon="3.30467">
        <ele>488.7</ele>
        <time>2020-08-26T11:20:45.000Z</time>
      </trkpt>
      <trkpt lat="44.01621" lon="3.3047">
        <ele>484</ele>
        <time>2020-08-26T11:20:35.000Z</time>
      </trkpt>
      <trkpt lat="44.01605" lon="3.3047">
        <ele>488.6</ele>
        <time>2020-08-26T11:20:45.000Z</time>
      </trkpt>
      <trkpt lat="44.01555" lon="3.30473">
        <ele>483</ele>
        <time>2020-08-26T11:20:35.000Z</time>
      </trkpt>
      <trkpt lat="44.01539" lon="3.30473">
        <ele>487.9</ele>
        <time>2020-08-26T11:20:45.000Z</time>
      </trkpt>
      <trkpt lat="44.01511" lon="3.30475">
        <ele>481</ele>
        <time>2020-08-26T11:20:35.000Z</time>
      </trkpt>
      <trkpt lat="44.01497" lon="3.30475">
        <ele>487.6</ele>
        <time>2020-08-26T11:20:45.000Z</time>
      </trkpt>
      <trkpt lat="44.01456" lon="3.30478">
        <ele>481</ele>
        <time>2020-08-26T11:20:35.000Z</time>
      </trkpt>
      <trkpt lat="44.01442" lon="3.30478">
        <ele>487.6</ele>
        <time>2020-08-26T11:20:45.000Z</time>
      </trkpt>
      <trkpt lat="44.01373" lon="3.30482">
        <ele>481</ele>
        <time>2020-08-26T11:20:35.000Z</time>
      </trkpt>
      <trkpt lat="44.01359" lon="3.30482">
        <ele>488.3</ele>
        <time>2020-08-26T11:20:45.000Z</time>
      </trkpt>
      <trkpt lat="44.01332" lon="3.30484">
        <ele>482</ele>
        <time>2020-08-26T11:20:35.000Z</time>
      </trkpt>
      <trkpt lat="44.01318" lon="3.30484">
        <ele>489.2</ele>
        <time>2020-08-26T11:20:45.000Z</time>
      </trkpt>
      <trkpt lat="44.01301" lon="3.30504">
        <ele>481</ele>
        <time>2020-08-26T11:20:35.000Z</time>
      </trkpt>
      <trkpt lat="44.01292" lon="3.30513">
        <ele>487.8</ele>
        <time>2020-08-26T11:20:45.000Z</time>
      </trkpt>
      <trkpt lat="44.01284" lon="3.30523">
        <ele>480</ele>
        <time>2020-08-26T11:20:35.000Z</time>
      </trkpt>
      <trkpt lat="44.0127" lon="3.30555">
        <ele>478</ele>
        <time>2020-08-26T11:20:45.000Z</time>
      </trkpt>
      <trkpt lat="44.01252" lon="3.30596">
        <ele>476</ele>
        <time>2020-08-26T11:20:35.000Z</time>
      </trkpt>
      <trkpt lat="44.01247" lon="3.30619">
        <ele>484.5</ele>
        <time>2020-08-26T11:20:45.000Z</time>
      </trkpt>
      <trkpt lat="44.01243" lon="3.30633">
        <ele>473</ele>
        <time>2020-08-26T11:20:35.000Z</time>
      </trkpt>
      <trkpt lat="44.0124" lon="3.30646">
        <ele>483</ele>
        <time>2020-08-26T11:20:45.000Z</time>
      </trkpt>
      <trkpt lat="44.01228" lon="3.30671">
        <ele>472</ele>
        <time>2020-08-26T11:20:35.000Z</time>
      </trkpt>
      <trkpt lat="44.0122" lon="3.30686">
        <ele>483.4</ele>
        <time>2020-08-26T11:20:45.000Z</time>
      </trkpt>
      <trkpt lat="44.01214" lon="3.30705">
        <ele>470</ele>
        <time>2020-08-26T11:20:35.000Z</time>
      </trkpt>
      <trkpt lat="44.01209" lon="3.30718">
        <ele>483.1</ele>
        <time>2020-08-26T11:20:45.000Z</time>
      </trkpt>
      <trkpt lat="44.01202" lon="3.30739">
        <ele>470</ele>
        <time>2020-08-26T11:20:35.000Z</time>
      </trkpt>
      <trkpt lat="44.01187" lon="3.30773">
        <ele>471</ele>
        <time>2020-08-26T11:20:35.000Z</time>
      </trkpt>
      <trkpt lat="44.01181" lon="3.30785">
        <ele>484.5</ele>
        <time>2020-08-26T11:20:45.000Z</time>
      </trkpt>
      <trkpt lat="44.0116" lon="3.30837">
        <ele>472</ele>
        <time>2020-08-26T11:20:35.000Z</time>
      </trkpt>
      <trkpt lat="44.01151" lon="3.30857">
        <ele>485.6</ele>
        <time>2020-08-26T11:20:45.000Z</time>
      </trkpt>
      <trkpt lat="44.01142" lon="3.30875">
        <ele>474</ele>
        <time>2020-08-26T11:20:35.000Z</time>
      </trkpt>
      <trkpt lat="44.01124" lon="3.30918">
        <ele>474</ele>
        <time>2020-08-26T11:20:35.000Z</time>
      </trkpt>
      <trkpt lat="44.0111" lon="3.30948">
        <ele>474</ele>
        <time>2020-08-26T11:20:45.000Z</time>
      </trkpt>
      <trkpt lat="44.01095" lon="3.30981">
        <ele>474</ele>
        <time>2020-08-26T11:20:35.000Z</time>
      </trkpt>
      <trkpt lat="44.0108" lon="3.31022">
        <ele>475</ele>
        <time>2020-08-26T11:20:35.000Z</time>
      </trkpt>
      <trkpt lat="44.01075" lon="3.31047">
        <ele>486.8</ele>
        <time>2020-08-26T11:20:45.000Z</time>
      </trkpt>
      <trkpt lat="44.01073" lon="3.31073">
        <ele>478</ele>
        <time>2020-08-26T11:20:35.000Z</time>
      </trkpt>
      <trkpt lat="44.01073" lon="3.31097">
        <ele>486.1</ele>
        <time>2020-08-26T11:20:45.000Z</time>
      </trkpt>
      <trkpt lat="44.01071" lon="3.31144">
        <ele>481</ele>
        <time>2020-08-26T11:20:35.000Z</time>
      </trkpt>
      <trkpt lat="44.01067" lon="3.31186">
        <ele>480</ele>
        <time>2020-08-26T11:20:35.000Z</time>
      </trkpt>
      <trkpt lat="44.01066" lon="3.31205">
        <ele>486.9</ele>
        <time>2020-08-26T11:20:45.000Z</time>
      </trkpt>
      <trkpt lat="44.01064" lon="3.31226">
        <ele>479</ele>
        <time>2020-08-26T11:20:35.000Z</time>
      </trkpt>
      <trkpt lat="44.01064" lon="3.31241">
        <ele>486.4</ele>
        <time>2020-08-26T11:20:45.000Z</time>
      </trkpt>
      <trkpt lat="44.0106" lon="3.31285">
        <ele>478</ele>
        <time>2020-08-26T11:20:35.000Z</time>
      </trkpt>
      <trkpt lat="44.01061" lon="3.31311">
        <ele>487.6</ele>
        <time>2020-08-26T11:20:45.000Z</time>
      </trkpt>
      <trkpt lat="44.01063" lon="3.31337">
        <ele>478</ele>
        <time>2020-08-26T11:20:35.000Z</time>
      </trkpt>
      <trkpt lat="44.01068" lon="3.31353">
        <ele>487.9</ele>
        <time>2020-08-26T11:20:45.000Z</time>
      </trkpt>
      <trkpt lat="44.01071" lon="3.3137">
        <ele>482</ele>
        <time>2020-08-26T11:20:35.000Z</time>
      </trkpt>
      <trkpt lat="44.01059" lon="3.31387">
        <ele>488.9</ele>
        <time>2020-08-26T11:20:45.000Z</time>
      </trkpt>
      <trkpt lat="44.01041" lon="3.314">
        <ele>482</ele>
        <time>2020-08-26T11:20:35.000Z</time>
      </trkpt>
      <trkpt lat="44.01014" lon="3.31417">
        <ele>482</ele>
        <time>2020-08-26T11:20:45.000Z</time>
      </trkpt>
      <trkpt lat="44.00969" lon="3.31444">
        <ele>482</ele>
        <time>2020-08-26T11:20:35.000Z</time>
      </trkpt>
      <trkpt lat="44.00957" lon="3.31453">
        <ele>492.7</ele>
        <time>2020-08-26T11:20:45.000Z</time>
      </trkpt>
      <trkpt lat="44.00947" lon="3.31463">
        <ele>485</ele>
        <time>2020-08-26T11:20:35.000Z</time>
      </trkpt>
      <trkpt lat="44.00928" lon="3.31486">
        <ele>487</ele>
        <time>2020-08-26T11:20:45.000Z</time>
      </trkpt>
      <trkpt lat="44.00909" lon="3.31509">
        <ele>487</ele>
        <time>2020-08-26T11:20:35.000Z</time>
      </trkpt>
      <trkpt lat="44.00902" lon="3.31519">
        <ele>496.8</ele>
        <time>2020-08-26T11:20:45.000Z</time>
      </trkpt>
      <trkpt lat="44.00876" lon="3.31564">
        <ele>490</ele>
        <time>2020-08-26T11:20:35.000Z</time>
      </trkpt>
      <trkpt lat="44.00869" lon="3.31574">
        <ele>504.6</ele>
        <time>2020-08-26T11:20:45.000Z</time>
      </trkpt>
      <trkpt lat="44.00861" lon="3.31587">
        <ele>494</ele>
        <time>2020-08-26T11:20:35.000Z</time>
      </trkpt>
      <trkpt lat="44.00848" lon="3.31597">
        <ele>508.3</ele>
        <time>2020-08-26T11:20:45.000Z</time>
      </trkpt>
      <trkpt lat="44.00837" lon="3.31609">
        <ele>497</ele>
        <time>2020-08-26T11:20:35.000Z</time>
      </trkpt>
      <trkpt lat="44.00819" lon="3.31619">
        <ele>497</ele>
        <time>2020-08-26T11:20:35.000Z</time>
      </trkpt>
      <trkpt lat="44.00786" lon="3.31656">
        <ele>503</ele>
        <time>2020-08-26T11:20:35.000Z</time>
      </trkpt>
      <trkpt lat="44.00781" lon="3.31667">
        <ele>523.7</ele>
        <time>2020-08-26T11:20:45.000Z</time>
      </trkpt>
      <trkpt lat="44.00769" lon="3.31688">
        <ele>512</ele>
        <time>2020-08-26T11:20:35.000Z</time>
      </trkpt>
      <trkpt lat="44.00762" lon="3.31704">
        <ele>529.2</ele>
        <time>2020-08-26T11:20:45.000Z</time>
      </trkpt>
      <trkpt lat="44.00747" lon="3.31733">
        <ele>518</ele>
        <time>2020-08-26T11:20:35.000Z</time>
      </trkpt>
      <trkpt lat="44.00742" lon="3.31746">
        <ele>534.7</ele>
        <time>2020-08-26T11:20:45.000Z</time>
      </trkpt>
      <trkpt lat="44.00735" lon="3.31756">
        <ele>521</ele>
        <time>2020-08-26T11:20:35.000Z</time>
      </trkpt>
      <trkpt lat="44.0073" lon="3.31769">
        <ele>536.3</ele>
        <time>2020-08-26T11:20:45.000Z</time>
      </trkpt>
      <trkpt lat="44.00709" lon="3.31808">
        <ele>527</ele>
        <time>2020-08-26T11:20:35.000Z</time>
      </trkpt>
      <trkpt lat="44.00697" lon="3.31821">
        <ele>540.7</ele>
        <time>2020-08-26T11:20:45.000Z</time>
      </trkpt>
      <trkpt lat="44.00685" lon="3.31831">
        <ele>534</ele>
        <time>2020-08-26T11:20:35.000Z</time>
      </trkpt>
      <trkpt lat="44.00679" lon="3.31841">
        <ele>544.8</ele>
        <time>2020-08-26T11:20:45.000Z</time>
      </trkpt>
      <trkpt lat="44.00684" lon="3.31862">
        <ele>539</ele>
        <time>2020-08-26T11:20:35.000Z</time>
      </trkpt>
      <trkpt lat="44.00691" lon="3.31882">
        <ele>551.8</ele>
        <time>2020-08-26T11:20:45.000Z</time>
      </trkpt>
      <trkpt lat="44.00698" lon="3.31897">
        <ele>538</ele>
        <time>2020-08-26T11:20:35.000Z</time>
      </trkpt>
      <trkpt lat="44.00712" lon="3.31917">
        <ele>538</ele>
        <time>2020-08-26T11:20:35.000Z</time>
      </trkpt>
      <trkpt lat="44.00725" lon="3.31937">
        <ele>538</ele>
        <time>2020-08-26T11:20:35.000Z</time>
      </trkpt>
      <trkpt lat="44.00732" lon="3.3195">
        <ele>550.9</ele>
        <time>2020-08-26T11:20:45.000Z</time>
      </trkpt>
      <trkpt lat="44.00727" lon="3.31975">
        <ele>538</ele>
        <time>2020-08-26T11:20:35.000Z</time>
      </trkpt>
      <trkpt lat="44.00721" lon="3.31989">
        <ele>547.8</ele>
        <time>2020-08-26T11:20:45.000Z</time>
      </trkpt>
      <trkpt lat="44.0071" lon="3.32007">
        <ele>538</ele>
        <time>2020-08-26T11:20:35.000Z</time>
      </trkpt>
      <trkpt lat="44.00692" lon="3.32024">
        <ele>534</ele>
        <time>2020-08-26T11:20:35.000Z</time>
      </trkpt>
      <trkpt lat="44.00678" lon="3.32032">
        <ele>544.4</ele>
        <time>2020-08-26T11:20:45.000Z</time>
      </trkpt>
      <trkpt lat="44.00663" lon="3.32042">
        <ele>533</ele>
        <time>2020-08-26T11:20:35.000Z</time>
      </trkpt>
      <trkpt lat="44.00648" lon="3.32051">
        <ele>537.9</ele>
        <time>2020-08-26T11:20:45.000Z</time>
      </trkpt>
      <trkpt lat="44.00633" lon="3.32066">
        <ele>538</ele>
        <time>2020-08-26T11:20:35.000Z</time>
      </trkpt>
      <trkpt lat="44.00619" lon="3.32065">
        <ele>536.7</ele>
        <time>2020-08-26T11:20:45.000Z</time>
      </trkpt>
      <trkpt lat="44.00606" lon="3.32049">
        <ele>543</ele>
        <time>2020-08-26T11:20:35.000Z</time>
      </trkpt>
      <trkpt lat="44.00592" lon="3.32038">
        <ele>542.5</ele>
        <time>2020-08-26T11:20:45.000Z</time>
      </trkpt>
      <trkpt lat="44.00575" lon="3.32028">
        <ele>543</ele>
        <time>2020-08-26T11:20:35.000Z</time>
      </trkpt>
      <trkpt lat="44.00545" lon="3.32013">
        <ele>544</ele>
        <time>2020-08-26T11:20:35.000Z</time>
      </trkpt>
      <trkpt lat="44.00517" lon="3.32011">
        <ele>545</ele>
        <time>2020-08-26T11:20:35.000Z</time>
      </trkpt>
      <trkpt lat="44.00498" lon="3.31997">
        <ele>545</ele>
        <time>2020-08-26T11:20:35.000Z</time>
      </trkpt>
      <trkpt lat="44.0049" lon="3.31985">
        <ele>560.2</ele>
        <time>2020-08-26T11:20:45.000Z</time>
      </trkpt>
      <trkpt lat="44.00473" lon="3.31976">
        <ele>544</ele>
        <time>2020-08-26T11:20:35.000Z</time>
      </trkpt>
      <trkpt lat="44.00455" lon="3.31977">
        <ele>557.9</ele>
        <time>2020-08-26T11:20:45.000Z</time>
      </trkpt>
      <trkpt lat="44.00443" lon="3.31982">
        <ele>544</ele>
        <time>2020-08-26T11:20:35.000Z</time>
      </trkpt>
      <trkpt lat="44.00433" lon="3.31984">
        <ele>556.7</ele>
        <time>2020-08-26T11:20:45.000Z</time>
      </trkpt>
      <trkpt lat="44.00424" lon="3.3199">
        <ele>544</ele>
        <time>2020-08-26T11:20:35.000Z</time>
      </trkpt>
      <trkpt lat="44.00398" lon="3.31993">
        <ele>541</ele>
        <time>2020-08-26T11:20:45.000Z</time>
      </trkpt>
      <trkpt lat="44.00367" lon="3.31996">
        <ele>539</ele>
        <time>2020-08-26T11:20:35.000Z</time>
      </trkpt>
      <trkpt lat="44.00359" lon="3.31972">
        <ele>549.7</ele>
        <time>2020-08-26T11:20:45.000Z</time>
      </trkpt>
      <trkpt lat="44.00352" lon="3.31944">
        <ele>541</ele>
        <time>2020-08-26T11:20:35.000Z</time>
      </trkpt>
      <trkpt lat="44.00351" lon="3.31931">
        <ele>549.5</ele>
        <time>2020-08-26T11:20:45.000Z</time>
      </trkpt>
      <trkpt lat="44.00348" lon="3.31915">
        <ele>540</ele>
        <time>2020-08-26T11:20:35.000Z</time>
      </trkpt>
      <trkpt lat="44.00346" lon="3.319">
        <ele>549.7</ele>
        <time>2020-08-26T11:20:45.000Z</time>
      </trkpt>
      <trkpt lat="44.00335" lon="3.31874">
        <ele>543</ele>
        <time>2020-08-26T11:20:35.000Z</time>
      </trkpt>
      <trkpt lat="44.00322" lon="3.31861">
        <ele>550.6</ele>
        <time>2020-08-26T11:20:45.000Z</time>
      </trkpt>
      <trkpt lat="44.0031" lon="3.31852">
        <ele>542</ele>
        <time>2020-08-26T11:20:35.000Z</time>
      </trkpt>
      <trkpt lat="44.00291" lon="3.31843">
        <ele>541</ele>
        <time>2020-08-26T11:20:35.000Z</time>
      </trkpt>
      <trkpt lat="44.00275" lon="3.31833">
        <ele>548.2</ele>
        <time>2020-08-26T11:20:45.000Z</time>
      </trkpt>
      <trkpt lat="44.00264" lon="3.3183">
        <ele>542</ele>
        <time>2020-08-26T11:20:35.000Z</time>
      </trkpt>
      <trkpt lat="44.00249" lon="3.31829">
        <ele>549.4</ele>
        <time>2020-08-26T11:20:45.000Z</time>
      </trkpt>
      <trkpt lat="44.00236" lon="3.31831">
        <ele>542</ele>
        <time>2020-08-26T11:20:35.000Z</time>
      </trkpt>
      <trkpt lat="44.00223" lon="3.31829">
        <ele>548.5</ele>
        <time>2020-08-26T11:20:45.000Z</time>
      </trkpt>
      <trkpt lat="44.00186" lon="3.3182">
        <ele>542</ele>
        <time>2020-08-26T11:20:35.000Z</time>
      </trkpt>
      <trkpt lat="44.00177" lon="3.31819">
        <ele>545.6</ele>
        <time>2020-08-26T11:20:45.000Z</time>
      </trkpt>
      <trkpt lat="44.00162" lon="3.31815">
        <ele>542</ele>
        <time>2020-08-26T11:20:35.000Z</time>
      </trkpt>
      <trkpt lat="44.00147" lon="3.31817">
        <ele>544.5</ele>
        <time>2020-08-26T11:20:45.000Z</time>
      </trkpt>
      <trkpt lat="44.00133" lon="3.31822">
        <ele>542</ele>
        <time>2020-08-26T11:20:35.000Z</time>
      </trkpt>
      <trkpt lat="44.00104" lon="3.3183">
        <ele>533</ele>
        <time>2020-08-26T11:20:35.000Z</time>
      </trkpt>
      <trkpt lat="44.00094" lon="3.31834">
        <ele>542.2</ele>
        <time>2020-08-26T11:20:45.000Z</time>
      </trkpt>
      <trkpt lat="44.00085" lon="3.31839">
        <ele>523</ele>
        <time>2020-08-26T11:20:35.000Z</time>
      </trkpt>
      <trkpt lat="44.00059" lon="3.31849">
        <ele>524</ele>
        <time>2020-08-26T11:20:35.000Z</time>
      </trkpt>
      <trkpt lat="44.00017" lon="3.31862">
        <ele>525</ele>
        <time>2020-08-26T11:20:35.000Z</time>
      </trkpt>
      <trkpt lat="43.99989" lon="3.31864">
        <ele>525</ele>
        <time>2020-08-26T11:20:45.000Z</time>
      </trkpt>
      <trkpt lat="43.99953" lon="3.31867">
        <ele>523</ele>
        <time>2020-08-26T11:20:35.000Z</time>
      </trkpt>
      <trkpt lat="43.99917" lon="3.31866">
        <ele>522</ele>
        <time>2020-08-26T11:20:35.000Z</time>
      </trkpt>
      <trkpt lat="43.99903" lon="3.31867">
        <ele>529.6</ele>
        <time>2020-08-26T11:20:45.000Z</time>
      </trkpt>
      <trkpt lat="43.99888" lon="3.31866">
        <ele>514</ele>
        <time>2020-08-26T11:20:35.000Z</time>
      </trkpt>
      <trkpt lat="43.99872" lon="3.31866">
        <ele>526.7</ele>
        <time>2020-08-26T11:20:45.000Z</time>
      </trkpt>
      <trkpt lat="43.99845" lon="3.3187">
        <ele>513</ele>
        <time>2020-08-26T11:20:35.000Z</time>
      </trkpt>
      <trkpt lat="43.99831" lon="3.31866">
        <ele>521.5</ele>
        <time>2020-08-26T11:20:45.000Z</time>
      </trkpt>
      <trkpt lat="43.99819" lon="3.3186">
        <ele>513</ele>
        <time>2020-08-26T11:20:35.000Z</time>
      </trkpt>
      <trkpt lat="43.99804" lon="3.31856">
        <ele>520.6</ele>
        <time>2020-08-26T11:20:45.000Z</time>
      </trkpt>
      <trkpt lat="43.99791" lon="3.31851">
        <ele>513</ele>
        <time>2020-08-26T11:20:35.000Z</time>
      </trkpt>
      <trkpt lat="43.99771" lon="3.31846">
        <ele>512</ele>
        <time>2020-08-26T11:20:35.000Z</time>
      </trkpt>
      <trkpt lat="43.99757" lon="3.31844">
        <ele>518.4</ele>
        <time>2020-08-26T11:20:45.000Z</time>
      </trkpt>
      <trkpt lat="43.99742" lon="3.31838">
        <ele>511</ele>
        <time>2020-08-26T11:20:35.000Z</time>
      </trkpt>
      <trkpt lat="43.99731" lon="3.31827">
        <ele>516.8</ele>
        <time>2020-08-26T11:20:45.000Z</time>
      </trkpt>
      <trkpt lat="43.99716" lon="3.31793">
        <ele>507</ele>
        <time>2020-08-26T11:20:35.000Z</time>
      </trkpt>
      <trkpt lat="43.99708" lon="3.31787">
        <ele>516.5</ele>
        <time>2020-08-26T11:20:45.000Z</time>
      </trkpt>
      <trkpt lat="43.99696" lon="3.31783">
        <ele>507</ele>
        <time>2020-08-26T11:20:35.000Z</time>
      </trkpt>
      <trkpt lat="43.99684" lon="3.3178">
        <ele>517.7</ele>
        <time>2020-08-26T11:20:45.000Z</time>
      </trkpt>
      <trkpt lat="43.99672" lon="3.31774">
        <ele>509</ele>
        <time>2020-08-26T11:20:35.000Z</time>
      </trkpt>
      <trkpt lat="43.99664" lon="3.31765">
        <ele>520.1</ele>
        <time>2020-08-26T11:20:45.000Z</time>
      </trkpt>
      <trkpt lat="43.99651" lon="3.31757">
        <ele>512</ele>
        <time>2020-08-26T11:20:35.000Z</time>
      </trkpt>
      <trkpt lat="43.99635" lon="3.31751">
        <ele>522.1</ele>
        <time>2020-08-26T11:20:45.000Z</time>
      </trkpt>
      <trkpt lat="43.99624" lon="3.31743">
        <ele>517</ele>
        <time>2020-08-26T11:20:35.000Z</time>
      </trkpt>
      <trkpt lat="43.99611" lon="3.31738">
        <ele>523</ele>
        <time>2020-08-26T11:20:45.000Z</time>
      </trkpt>
      <trkpt lat="43.99602" lon="3.31738">
        <ele>520</ele>
        <time>2020-08-26T11:20:35.000Z</time>
      </trkpt>
      <trkpt lat="43.99593" lon="3.31732">
        <ele>524.1</ele>
        <time>2020-08-26T11:20:45.000Z</time>
      </trkpt>
      <trkpt lat="43.99578" lon="3.31725">
        <ele>521</ele>
        <time>2020-08-26T11:20:35.000Z</time>
      </trkpt>
      <trkpt lat="43.99566" lon="3.31722">
        <ele>525.9</ele>
        <time>2020-08-26T11:20:45.000Z</time>
      </trkpt>
      <trkpt lat="43.99549" lon="3.31719">
        <ele>523</ele>
        <time>2020-08-26T11:20:35.000Z</time>
      </trkpt>
      <trkpt lat="43.99539" lon="3.31728">
        <ele>527.5</ele>
        <time>2020-08-26T11:20:45.000Z</time>
      </trkpt>
      <trkpt lat="43.99533" lon="3.31741">
        <ele>525</ele>
        <time>2020-08-26T11:20:35.000Z</time>
      </trkpt>
      <trkpt lat="43.99522" lon="3.31757">
        <ele>530.1</ele>
        <time>2020-08-26T11:20:45.000Z</time>
      </trkpt>
      <trkpt lat="43.99509" lon="3.31768">
        <ele>525</ele>
        <time>2020-08-26T11:20:35.000Z</time>
      </trkpt>
      <trkpt lat="43.99492" lon="3.31778">
        <ele>532.2</ele>
        <time>2020-08-26T11:20:45.000Z</time>
      </trkpt>
      <trkpt lat="43.99469" lon="3.31784">
        <ele>527</ele>
        <time>2020-08-26T11:20:35.000Z</time>
      </trkpt>
      <trkpt lat="43.9946" lon="3.31783">
        <ele>532.4</ele>
        <time>2020-08-26T11:20:45.000Z</time>
      </trkpt>
      <trkpt lat="43.99448" lon="3.31778">
        <ele>530</ele>
        <time>2020-08-26T11:20:35.000Z</time>
      </trkpt>
      <trkpt lat="43.99439" lon="3.31773">
        <ele>531.6</ele>
        <time>2020-08-26T11:20:45.000Z</time>
      </trkpt>
      <trkpt lat="43.9943" lon="3.31769">
        <ele>532.7</ele>
        <time>2020-08-26T11:20:55.000Z</time>
      </trkpt>
      <trkpt lat="43.99421" lon="3.31766">
        <ele>533</ele>
        <time>2020-08-26T11:20:35.000Z</time>
      </trkpt>
      <trkpt lat="43.99403" lon="3.31757">
        <ele>534.2</ele>
        <time>2020-08-26T11:20:45.000Z</time>
      </trkpt>
      <trkpt lat="43.99375" lon="3.31749">
        <ele>535</ele>
        <time>2020-08-26T11:20:35.000Z</time>
      </trkpt>
      <trkpt lat="43.99358" lon="3.31747">
        <ele>536.3</ele>
        <time>2020-08-26T11:20:45.000Z</time>
      </trkpt>
      <trkpt lat="43.99335" lon="3.31751">
        <ele>534</ele>
        <time>2020-08-26T11:20:35.000Z</time>
      </trkpt>
      <trkpt lat="43.99322" lon="3.31757">
        <ele>540</ele>
        <time>2020-08-26T11:20:45.000Z</time>
      </trkpt>
      <trkpt lat="43.99311" lon="3.31764">
        <ele>534</ele>
        <time>2020-08-26T11:20:35.000Z</time>
      </trkpt>
      <trkpt lat="43.99302" lon="3.31774">
        <ele>546.3</ele>
        <time>2020-08-26T11:20:45.000Z</time>
      </trkpt>
      <trkpt lat="43.99289" lon="3.31791">
        <ele>536</ele>
        <time>2020-08-26T11:20:35.000Z</time>
      </trkpt>
      <trkpt lat="43.99279" lon="3.31803">
        <ele>549.2</ele>
        <time>2020-08-26T11:20:45.000Z</time>
      </trkpt>
      <trkpt lat="43.9926" lon="3.31821">
        <ele>535</ele>
        <time>2020-08-26T11:20:35.000Z</time>
      </trkpt>
      <trkpt lat="43.99233" lon="3.31849">
        <ele>535</ele>
        <time>2020-08-26T11:20:35.000Z</time>
      </trkpt>
      <trkpt lat="43.99218" lon="3.31878">
        <ele>537</ele>
        <time>2020-08-26T11:20:35.000Z</time>
      </trkpt>
      <trkpt lat="43.99206" lon="3.31893">
        <ele>551.8</ele>
        <time>2020-08-26T11:20:45.000Z</time>
      </trkpt>
      <trkpt lat="43.99199" lon="3.31904">
        <ele>539</ele>
        <time>2020-08-26T11:20:35.000Z</time>
      </trkpt>
      <trkpt lat="43.99184" lon="3.31916">
        <ele>547.1</ele>
        <time>2020-08-26T11:20:45.000Z</time>
      </trkpt>
      <trkpt lat="43.99165" lon="3.31953">
        <ele>546</ele>
        <time>2020-08-26T11:20:35.000Z</time>
      </trkpt>
      <trkpt lat="43.99149" lon="3.3198">
        <ele>547</ele>
        <time>2020-08-26T11:20:35.000Z</time>
      </trkpt>
      <trkpt lat="43.9914" lon="3.31987">
        <ele>545.2</ele>
        <time>2020-08-26T11:20:45.000Z</time>
      </trkpt>
      <trkpt lat="43.99131" lon="3.31998">
        <ele>549</ele>
        <time>2020-08-26T11:20:35.000Z</time>
      </trkpt>
      <trkpt lat="43.99122" lon="3.3201">
        <ele>547.1</ele>
        <time>2020-08-26T11:20:45.000Z</time>
      </trkpt>
      <trkpt lat="43.99117" lon="3.32021">
        <ele>548</ele>
        <time>2020-08-26T11:20:35.000Z</time>
      </trkpt>
      <trkpt lat="43.99103" lon="3.32034">
        <ele>547.9</ele>
        <time>2020-08-26T11:20:45.000Z</time>
      </trkpt>
      <trkpt lat="43.99092" lon="3.32043">
        <ele>548</ele>
        <time>2020-08-26T11:20:35.000Z</time>
      </trkpt>
      <trkpt lat="43.99082" lon="3.32053">
        <ele>548.8</ele>
        <time>2020-08-26T11:20:45.000Z</time>
      </trkpt>
      <trkpt lat="43.99069" lon="3.32064">
        <ele>547</ele>
        <time>2020-08-26T11:20:35.000Z</time>
      </trkpt>
      <trkpt lat="43.9906" lon="3.32082">
        <ele>550.1</ele>
        <time>2020-08-26T11:20:45.000Z</time>
      </trkpt>
      <trkpt lat="43.9905" lon="3.321">
        <ele>547</ele>
        <time>2020-08-26T11:20:35.000Z</time>
      </trkpt>
      <trkpt lat="43.99051" lon="3.32117">
        <ele>552.3</ele>
        <time>2020-08-26T11:20:45.000Z</time>
      </trkpt>
      <trkpt lat="43.9905" lon="3.32137">
        <ele>548</ele>
        <time>2020-08-26T11:20:35.000Z</time>
      </trkpt>
      <trkpt lat="43.99053" lon="3.32163">
        <ele>555.6</ele>
        <time>2020-08-26T11:20:45.000Z</time>
      </trkpt>
      <trkpt lat="43.99043" lon="3.32176">
        <ele>548</ele>
        <time>2020-08-26T11:20:35.000Z</time>
      </trkpt>
      <trkpt lat="43.99029" lon="3.32188">
        <ele>557.2</ele>
        <time>2020-08-26T11:20:45.000Z</time>
      </trkpt>
      <trkpt lat="43.99017" lon="3.32196">
        <ele>549</ele>
        <time>2020-08-26T11:20:35.000Z</time>
      </trkpt>
      <trkpt lat="43.99002" lon="3.32201">
        <ele>558</ele>
        <time>2020-08-26T11:20:45.000Z</time>
      </trkpt>
      <trkpt lat="43.98982" lon="3.32212">
        <ele>550</ele>
        <time>2020-08-26T11:20:35.000Z</time>
      </trkpt>
      <trkpt lat="43.98959" lon="3.32236">
        <ele>552</ele>
        <time>2020-08-26T11:20:35.000Z</time>
      </trkpt>
      <trkpt lat="43.98944" lon="3.32245">
        <ele>561.3</ele>
        <time>2020-08-26T11:20:45.000Z</time>
      </trkpt>
      <trkpt lat="43.98928" lon="3.32256">
        <ele>563</ele>
        <time>2020-08-26T11:20:35.000Z</time>
      </trkpt>
      <trkpt lat="43.98892" lon="3.32286">
        <ele>563</ele>
        <time>2020-08-26T11:20:35.000Z</time>
      </trkpt>
      <trkpt lat="43.98884" lon="3.32293">
        <ele>568.2</ele>
        <time>2020-08-26T11:20:45.000Z</time>
      </trkpt>
      <trkpt lat="43.98872" lon="3.32307">
        <ele>563</ele>
        <time>2020-08-26T11:20:35.000Z</time>
      </trkpt>
      <trkpt lat="43.9885" lon="3.32325">
        <ele>564</ele>
        <time>2020-08-26T11:20:35.000Z</time>
      </trkpt>
      <trkpt lat="43.98842" lon="3.32335">
        <ele>576.5</ele>
        <time>2020-08-26T11:20:45.000Z</time>
      </trkpt>
      <trkpt lat="43.98829" lon="3.32345">
        <ele>564</ele>
        <time>2020-08-26T11:20:35.000Z</time>
      </trkpt>
      <trkpt lat="43.98814" lon="3.32359">
        <ele>579.4</ele>
        <time>2020-08-26T11:20:45.000Z</time>
      </trkpt>
      <trkpt lat="43.98792" lon="3.32375">
        <ele>568</ele>
        <time>2020-08-26T11:20:35.000Z</time>
      </trkpt>
      <trkpt lat="43.98776" lon="3.32395">
        <ele>574</ele>
        <time>2020-08-26T11:20:35.000Z</time>
      </trkpt>
      <trkpt lat="43.98766" lon="3.32406">
        <ele>584.4</ele>
        <time>2020-08-26T11:20:45.000Z</time>
      </trkpt>
      <trkpt lat="43.98758" lon="3.32416">
        <ele>573</ele>
        <time>2020-08-26T11:20:35.000Z</time>
      </trkpt>
      <trkpt lat="43.98746" lon="3.32425">
        <ele>585.7</ele>
        <time>2020-08-26T11:20:45.000Z</time>
      </trkpt>
      <trkpt lat="43.98737" lon="3.32435">
        <ele>573</ele>
        <time>2020-08-26T11:20:35.000Z</time>
      </trkpt>
      <trkpt lat="43.98714" lon="3.32447">
        <ele>579</ele>
        <time>2020-08-26T11:20:45.000Z</time>
      </trkpt>
      <trkpt lat="43.98691" lon="3.3246">
        <ele>583</ele>
        <time>2020-08-26T11:20:35.000Z</time>
      </trkpt>
      <trkpt lat="43.98684" lon="3.32469">
        <ele>583.8</ele>
        <time>2020-08-26T11:20:45.000Z</time>
      </trkpt>
      <trkpt lat="43.98669" lon="3.32477">
        <ele>589</ele>
        <time>2020-08-26T11:20:35.000Z</time>
      </trkpt>
      <trkpt lat="43.98654" lon="3.32486">
        <ele>585.1</ele>
        <time>2020-08-26T11:20:45.000Z</time>
      </trkpt>
      <trkpt lat="43.98646" lon="3.32493">
        <ele>595</ele>
        <time>2020-08-26T11:20:35.000Z</time>
      </trkpt>
      <trkpt lat="43.98614" lon="3.32496">
        <ele>601</ele>
        <time>2020-08-26T11:20:35.000Z</time>
      </trkpt>
      <trkpt lat="43.98597" lon="3.32494">
        <ele>589.1</ele>
        <time>2020-08-26T11:20:45.000Z</time>
      </trkpt>
      <trkpt lat="43.98587" lon="3.32496">
        <ele>606</ele>
        <time>2020-08-26T11:20:35.000Z</time>
      </trkpt>
      <trkpt lat="43.98572" lon="3.32505">
        <ele>590.1</ele>
        <time>2020-08-26T11:20:45.000Z</time>
      </trkpt>
      <trkpt lat="43.98561" lon="3.32516">
        <ele>614</ele>
        <time>2020-08-26T11:20:35.000Z</time>
      </trkpt>
      <trkpt lat="43.98546" lon="3.32533">
        <ele>599.5</ele>
        <time>2020-08-26T11:20:45.000Z</time>
      </trkpt>
      <trkpt lat="43.98527" lon="3.32552">
        <ele>617</ele>
        <time>2020-08-26T11:20:35.000Z</time>
      </trkpt>
      <trkpt lat="43.98518" lon="3.32562">
        <ele>610.6</ele>
        <time>2020-08-26T11:20:45.000Z</time>
      </trkpt>
      <trkpt lat="43.98509" lon="3.32576">
        <ele>622</ele>
        <time>2020-08-26T11:20:35.000Z</time>
      </trkpt>
      <trkpt lat="43.98502" lon="3.32585">
        <ele>619.4</ele>
        <time>2020-08-26T11:20:45.000Z</time>
      </trkpt>
      <trkpt lat="43.98491" lon="3.32597">
        <ele>622</ele>
        <time>2020-08-26T11:20:35.000Z</time>
      </trkpt>
      <trkpt lat="43.98481" lon="3.32601">
        <ele>622.4</ele>
        <time>2020-08-26T11:20:45.000Z</time>
      </trkpt>
      <trkpt lat="43.98472" lon="3.32607">
        <ele>626</ele>
        <time>2020-08-26T11:20:35.000Z</time>
      </trkpt>
      <trkpt lat="43.98458" lon="3.32611">
        <ele>626.4</ele>
        <time>2020-08-26T11:20:45.000Z</time>
      </trkpt>
      <trkpt lat="43.98432" lon="3.32623">
        <ele>628</ele>
        <time>2020-08-26T11:20:35.000Z</time>
      </trkpt>
      <trkpt lat="43.98417" lon="3.32628">
        <ele>628.7</ele>
        <time>2020-08-26T11:20:45.000Z</time>
      </trkpt>
      <trkpt lat="43.98401" lon="3.32631">
        <ele>630</ele>
        <time>2020-08-26T11:20:35.000Z</time>
      </trkpt>
      <trkpt lat="43.98387" lon="3.32631">
        <ele>627.5</ele>
        <time>2020-08-26T11:20:45.000Z</time>
      </trkpt>
      <trkpt lat="43.98376" lon="3.32645">
        <ele>634</ele>
        <time>2020-08-26T11:20:35.000Z</time>
      </trkpt>
      <trkpt lat="43.98364" lon="3.32659">
        <ele>628.7</ele>
        <time>2020-08-26T11:20:45.000Z</time>
      </trkpt>
      <trkpt lat="43.98328" lon="3.32684">
        <ele>636</ele>
        <time>2020-08-26T11:20:35.000Z</time>
      </trkpt>
      <trkpt lat="43.98319" lon="3.32692">
        <ele>634.8</ele>
        <time>2020-08-26T11:20:45.000Z</time>
      </trkpt>
      <trkpt lat="43.983" lon="3.32718">
        <ele>638</ele>
        <time>2020-08-26T11:20:35.000Z</time>
      </trkpt>
      <trkpt lat="43.9829" lon="3.3273">
        <ele>637.4</ele>
        <time>2020-08-26T11:20:45.000Z</time>
      </trkpt>
      <trkpt lat="43.98281" lon="3.32738">
        <ele>638</ele>
        <time>2020-08-26T11:20:35.000Z</time>
      </trkpt>
      <trkpt lat="43.98268" lon="3.32748">
        <ele>638.3</ele>
        <time>2020-08-26T11:20:45.000Z</time>
      </trkpt>
      <trkpt lat="43.9825" lon="3.3275">
        <ele>642</ele>
        <time>2020-08-26T11:20:35.000Z</time>
      </trkpt>
      <trkpt lat="43.98234" lon="3.32746">
        <ele>643.3</ele>
        <time>2020-08-26T11:20:45.000Z</time>
      </trkpt>
      <trkpt lat="43.98222" lon="3.32746">
        <ele>649</ele>
        <time>2020-08-26T11:20:35.000Z</time>
      </trkpt>
      <trkpt lat="43.98201" lon="3.32754">
        <ele>662</ele>
        <time>2020-08-26T11:20:35.000Z</time>
      </trkpt>
      <trkpt lat="43.98188" lon="3.32757">
        <ele>646.5</ele>
        <time>2020-08-26T11:20:45.000Z</time>
      </trkpt>
      <trkpt lat="43.98174" lon="3.32768">
        <ele>663</ele>
        <time>2020-08-26T11:20:35.000Z</time>
      </trkpt>
      <trkpt lat="43.98151" lon="3.32799">
        <ele>663</ele>
        <time>2020-08-26T11:20:35.000Z</time>
      </trkpt>
      <trkpt lat="43.98144" lon="3.32815">
        <ele>647</ele>
        <time>2020-08-26T11:20:45.000Z</time>
      </trkpt>
      <trkpt lat="43.98136" lon="3.32831">
        <ele>658</ele>
        <time>2020-08-26T11:20:35.000Z</time>
      </trkpt>
      <trkpt lat="43.98131" lon="3.32851">
        <ele>654.5</ele>
        <time>2020-08-26T11:20:45.000Z</time>
      </trkpt>
      <trkpt lat="43.98122" lon="3.32851">
        <ele>659</ele>
        <time>2020-08-26T11:20:35.000Z</time>
      </trkpt>
      <trkpt lat="43.98104" lon="3.32845">
        <ele>650.9</ele>
        <time>2020-08-26T11:20:45.000Z</time>
      </trkpt>
      <trkpt lat="43.98091" lon="3.32844">
        <ele>660</ele>
        <time>2020-08-26T11:20:35.000Z</time>
      </trkpt>
      <trkpt lat="43.98077" lon="3.32847">
        <ele>655.6</ele>
        <time>2020-08-26T11:20:45.000Z</time>
      </trkpt>
      <trkpt lat="43.98062" lon="3.32846">
        <ele>662</ele>
        <time>2020-08-26T11:20:35.000Z</time>
      </trkpt>
      <trkpt lat="43.98042" lon="3.32847">
        <ele>666</ele>
        <time>2020-08-26T11:20:35.000Z</time>
      </trkpt>
      <trkpt lat="43.9803" lon="3.32843">
        <ele>665.3</ele>
        <time>2020-08-26T11:20:45.000Z</time>
      </trkpt>
      <trkpt lat="43.98014" lon="3.32839">
        <ele>673</ele>
        <time>2020-08-26T11:20:35.000Z</time>
      </trkpt>
      <trkpt lat="43.97981" lon="3.32827">
        <ele>676</ele>
        <time>2020-08-26T11:20:35.000Z</time>
      </trkpt>
      <trkpt lat="43.97972" lon="3.32825">
        <ele>670.4</ele>
        <time>2020-08-26T11:20:45.000Z</time>
      </trkpt>
      <trkpt lat="43.97943" lon="3.32824">
        <ele>677</ele>
        <time>2020-08-26T11:20:35.000Z</time>
      </trkpt>
      <trkpt lat="43.97933" lon="3.32822">
        <ele>673.3</ele>
        <time>2020-08-26T11:20:45.000Z</time>
      </trkpt>
      <trkpt lat="43.97894" lon="3.32804">
        <ele>678</ele>
        <time>2020-08-26T11:20:35.000Z</time>
      </trkpt>
      <trkpt lat="43.97882" lon="3.32803">
        <ele>676</ele>
        <time>2020-08-26T11:20:45.000Z</time>
      </trkpt>
      <trkpt lat="43.97867" lon="3.32797">
        <ele>678</ele>
        <time>2020-08-26T11:20:35.000Z</time>
      </trkpt>
      <trkpt lat="43.97857" lon="3.32796">
        <ele>678.9</ele>
        <time>2020-08-26T11:20:45.000Z</time>
      </trkpt>
      <trkpt lat="43.97846" lon="3.32793">
        <ele>680</ele>
        <time>2020-08-26T11:20:35.000Z</time>
      </trkpt>
      <trkpt lat="43.97837" lon="3.32786">
        <ele>678.8</ele>
        <time>2020-08-26T11:20:45.000Z</time>
      </trkpt>
      <trkpt lat="43.97827" lon="3.32784">
        <ele>680</ele>
        <time>2020-08-26T11:20:35.000Z</time>
      </trkpt>
      <trkpt lat="43.97812" lon="3.32779">
        <ele>678.1</ele>
        <time>2020-08-26T11:20:45.000Z</time>
      </trkpt>
      <trkpt lat="43.978" lon="3.32778">
        <ele>681</ele>
        <time>2020-08-26T11:20:35.000Z</time>
      </trkpt>
      <trkpt lat="43.97785" lon="3.32779">
        <ele>676.6</ele>
        <time>2020-08-26T11:20:45.000Z</time>
      </trkpt>
      <trkpt lat="43.97772" lon="3.32773">
        <ele>681</ele>
        <time>2020-08-26T11:20:35.000Z</time>
      </trkpt>
      <trkpt lat="43.97745" lon="3.32771">
        <ele>687</ele>
        <time>2020-08-26T11:20:35.000Z</time>
      </trkpt>
      <trkpt lat="43.97718" lon="3.32755">
        <ele>690</ele>
        <time>2020-08-26T11:20:35.000Z</time>
      </trkpt>
      <trkpt lat="43.97692" lon="3.32735">
        <ele>690</ele>
        <time>2020-08-26T11:20:35.000Z</time>
      </trkpt>
      <trkpt lat="43.97675" lon="3.32726">
        <ele>691.3</ele>
        <time>2020-08-26T11:20:45.000Z</time>
      </trkpt>
      <trkpt lat="43.9766" lon="3.32714">
        <ele>690</ele>
        <time>2020-08-26T11:20:35.000Z</time>
      </trkpt>
      <trkpt lat="43.97647" lon="3.32709">
        <ele>694.4</ele>
        <time>2020-08-26T11:20:45.000Z</time>
      </trkpt>
      <trkpt lat="43.97636" lon="3.32711">
        <ele>690</ele>
        <time>2020-08-26T11:20:35.000Z</time>
      </trkpt>
      <trkpt lat="43.97625" lon="3.32708">
        <ele>693.8</ele>
        <time>2020-08-26T11:20:45.000Z</time>
      </trkpt>
      <trkpt lat="43.97614" lon="3.32694">
        <ele>693</ele>
        <time>2020-08-26T11:20:35.000Z</time>
      </trkpt>
      <trkpt lat="43.97612" lon="3.3267">
        <ele>701.3</ele>
        <time>2020-08-26T11:20:45.000Z</time>
      </trkpt>
      <trkpt lat="43.97608" lon="3.32654">
        <ele>706</ele>
        <time>2020-08-26T11:20:35.000Z</time>
      </trkpt>
      <trkpt lat="43.97598" lon="3.32638">
        <ele>708.2</ele>
        <time>2020-08-26T11:20:45.000Z</time>
      </trkpt>
      <trkpt lat="43.97597" lon="3.32625">
        <ele>722</ele>
        <time>2020-08-26T11:20:35.000Z</time>
      </trkpt>
      <trkpt lat="43.97606" lon="3.3261">
        <ele>715.6</ele>
        <time>2020-08-26T11:20:45.000Z</time>
      </trkpt>
      <trkpt lat="43.97599" lon="3.32602">
        <ele>722</ele>
        <time>2020-08-26T11:20:35.000Z</time>
      </trkpt>
      <trkpt lat="43.97582" lon="3.32592">
        <ele>723.7</ele>
        <time>2020-08-26T11:20:45.000Z</time>
      </trkpt>
      <trkpt lat="43.97572" lon="3.32588">
        <ele>730</ele>
        <time>2020-08-26T11:20:35.000Z</time>
      </trkpt>
      <trkpt lat="43.97574" lon="3.32576">
        <ele>730.8</ele>
        <time>2020-08-26T11:20:45.000Z</time>
      </trkpt>
      <trkpt lat="43.97588" lon="3.32568">
        <ele>738</ele>
        <time>2020-08-26T11:20:35.000Z</time>
      </trkpt>
      <trkpt lat="43.97604" lon="3.32557">
        <ele>735.2</ele>
        <time>2020-08-26T11:20:45.000Z</time>
      </trkpt>
      <trkpt lat="43.9762" lon="3.32541">
        <ele>738</ele>
        <time>2020-08-26T11:20:35.000Z</time>
      </trkpt>
      <trkpt lat="43.97631" lon="3.32527">
        <ele>741.2</ele>
        <time>2020-08-26T11:20:45.000Z</time>
      </trkpt>
      <trkpt lat="43.97639" lon="3.32508">
        <ele>738</ele>
        <time>2020-08-26T11:20:35.000Z</time>
      </trkpt>
      <trkpt lat="43.97643" lon="3.32477">
        <ele>739</ele>
        <time>2020-08-26T11:20:35.000Z</time>
      </trkpt>
      <trkpt lat="43.97642" lon="3.32461">
        <ele>751.5</ele>
        <time>2020-08-26T11:20:45.000Z</time>
      </trkpt>
      <trkpt lat="43.97643" lon="3.32449">
        <ele>739</ele>
        <time>2020-08-26T11:20:35.000Z</time>
      </trkpt>
      <trkpt lat="43.97645" lon="3.32434">
        <ele>752.1</ele>
        <time>2020-08-26T11:20:45.000Z</time>
      </trkpt>
      <trkpt lat="43.97651" lon="3.32407">
        <ele>739</ele>
        <time>2020-08-26T11:20:35.000Z</time>
      </trkpt>
      <trkpt lat="43.97654" lon="3.32383">
        <ele>748.5</ele>
        <time>2020-08-26T11:20:45.000Z</time>
      </trkpt>
      <trkpt lat="43.97656" lon="3.32357">
        <ele>737</ele>
        <time>2020-08-26T11:20:35.000Z</time>
      </trkpt>
      <trkpt lat="43.9766" lon="3.32339">
        <ele>743</ele>
        <time>2020-08-26T11:20:45.000Z</time>
      </trkpt>
      <trkpt lat="43.97664" lon="3.32301">
        <ele>735</ele>
        <time>2020-08-26T11:20:35.000Z</time>
      </trkpt>
      <trkpt lat="43.97659" lon="3.32289">
        <ele>736.4</ele>
        <time>2020-08-26T11:20:45.000Z</time>
      </trkpt>
      <trkpt lat="43.97648" lon="3.32283">
        <ele>730</ele>
        <time>2020-08-26T11:20:35.000Z</time>
      </trkpt>
      <trkpt lat="43.97635" lon="3.32273">
        <ele>732.4</ele>
        <time>2020-08-26T11:20:45.000Z</time>
      </trkpt>
      <trkpt lat="43.97624" lon="3.32262">
        <ele>728</ele>
        <time>2020-08-26T11:20:35.000Z</time>
      </trkpt>
      <trkpt lat="43.97616" lon="3.32253">
        <ele>730.9</ele>
        <time>2020-08-26T11:20:45.000Z</time>
      </trkpt>
      <trkpt lat="43.97606" lon="3.32238">
        <ele>727</ele>
        <time>2020-08-26T11:20:35.000Z</time>
      </trkpt>
      <trkpt lat="43.97597" lon="3.32221">
        <ele>726.4</ele>
        <time>2020-08-26T11:20:45.000Z</time>
      </trkpt>
      <trkpt lat="43.97591" lon="3.32204">
        <ele>724</ele>
        <time>2020-08-26T11:20:35.000Z</time>
      </trkpt>
      <trkpt lat="43.97583" lon="3.3217">
        <ele>720</ele>
        <time>2020-08-26T11:20:35.000Z</time>
      </trkpt>
      <trkpt lat="43.97561" lon="3.32166">
        <ele>717</ele>
        <time>2020-08-26T11:20:35.000Z</time>
      </trkpt>
      <trkpt lat="43.97545" lon="3.32166">
        <ele>720.1</ele>
        <time>2020-08-26T11:20:45.000Z</time>
      </trkpt>
      <trkpt lat="43.97533" lon="3.32163">
        <ele>717</ele>
        <time>2020-08-26T11:20:35.000Z</time>
      </trkpt>
      <trkpt lat="43.97519" lon="3.32149">
        <ele>717</ele>
        <time>2020-08-26T11:20:45.000Z</time>
      </trkpt>
      <trkpt lat="43.97513" lon="3.3213">
        <ele>717</ele>
        <time>2020-08-26T11:20:35.000Z</time>
      </trkpt>
      <trkpt lat="43.97493" lon="3.32108">
        <ele>717</ele>
        <time>2020-08-26T11:20:35.000Z</time>
      </trkpt>
      <trkpt lat="43.97479" lon="3.32096">
        <ele>725.3</ele>
        <time>2020-08-26T11:20:45.000Z</time>
      </trkpt>
      <trkpt lat="43.9747" lon="3.3209">
        <ele>727</ele>
        <time>2020-08-26T11:20:35.000Z</time>
      </trkpt>
      <trkpt lat="43.97449" lon="3.32078">
        <ele>727</ele>
        <time>2020-08-26T11:20:35.000Z</time>
      </trkpt>
      <trkpt lat="43.97438" lon="3.32073">
        <ele>731.1</ele>
        <time>2020-08-26T11:20:45.000Z</time>
      </trkpt>
      <trkpt lat="43.97428" lon="3.32067">
        <ele>737</ele>
        <time>2020-08-26T11:20:35.000Z</time>
      </trkpt>
      <trkpt lat="43.97403" lon="3.32055">
        <ele>739</ele>
        <time>2020-08-26T11:20:35.000Z</time>
      </trkpt>
      <trkpt lat="43.97373" lon="3.32045">
        <ele>739</ele>
        <time>2020-08-26T11:20:35.000Z</time>
      </trkpt>
      <trkpt lat="43.97361" lon="3.32045">
        <ele>737.5</ele>
        <time>2020-08-26T11:20:45.000Z</time>
      </trkpt>
      <trkpt lat="43.97333" lon="3.32057">
        <ele>737</ele>
        <time>2020-08-26T11:20:35.000Z</time>
      </trkpt>
      <trkpt lat="43.97322" lon="3.3206">
        <ele>740.3</ele>
        <time>2020-08-26T11:20:45.000Z</time>
      </trkpt>
      <trkpt lat="43.97313" lon="3.32064">
        <ele>735</ele>
        <time>2020-08-26T11:20:35.000Z</time>
      </trkpt>
      <trkpt lat="43.97289" lon="3.32071">
        <ele>735</ele>
        <time>2020-08-26T11:20:45.000Z</time>
      </trkpt>
      <trkpt lat="43.97263" lon="3.32078">
        <ele>740</ele>
        <time>2020-08-26T11:20:35.000Z</time>
      </trkpt>
      <trkpt lat="43.97251" lon="3.32078">
        <ele>746.8</ele>
        <time>2020-08-26T11:20:45.000Z</time>
      </trkpt>
      <trkpt lat="43.97219" lon="3.32081">
        <ele>740</ele>
        <time>2020-08-26T11:20:35.000Z</time>
      </trkpt>
      <trkpt lat="43.972" lon="3.32082">
        <ele>750.8</ele>
        <time>2020-08-26T11:20:45.000Z</time>
      </trkpt>
      <trkpt lat="43.97179" lon="3.32082">
        <ele>740</ele>
        <time>2020-08-26T11:20:35.000Z</time>
      </trkpt>
      <trkpt lat="43.97168" lon="3.32081">
        <ele>756.2</ele>
        <time>2020-08-26T11:20:45.000Z</time>
      </trkpt>
      <trkpt lat="43.97152" lon="3.32072">
        <ele>749</ele>
        <time>2020-08-26T11:20:35.000Z</time>
      </trkpt>
      <trkpt lat="43.97147" lon="3.3206">
        <ele>759.6</ele>
        <time>2020-08-26T11:20:45.000Z</time>
      </trkpt>
      <trkpt lat="43.97112" lon="3.32062">
        <ele>749</ele>
        <time>2020-08-26T11:20:35.000Z</time>
      </trkpt>
      <trkpt lat="43.97099" lon="3.32061">
        <ele>757.8</ele>
        <time>2020-08-26T11:20:45.000Z</time>
      </trkpt>
      <trkpt lat="43.97088" lon="3.32059">
        <ele>749</ele>
        <time>2020-08-26T11:20:35.000Z</time>
      </trkpt>
      <trkpt lat="43.97062" lon="3.3205">
        <ele>749</ele>
        <time>2020-08-26T11:20:35.000Z</time>
      </trkpt>
      <trkpt lat="43.97036" lon="3.32049">
        <ele>753</ele>
        <time>2020-08-26T11:20:45.000Z</time>
      </trkpt>
      <trkpt lat="43.97008" lon="3.32047">
        <ele>757</ele>
        <time>2020-08-26T11:20:35.000Z</time>
      </trkpt>
      <trkpt lat="43.96995" lon="3.32042">
        <ele>758.4</ele>
        <time>2020-08-26T11:20:45.000Z</time>
      </trkpt>
      <trkpt lat="43.9698" lon="3.32035">
        <ele>759</ele>
        <time>2020-08-26T11:20:35.000Z</time>
      </trkpt>
      <trkpt lat="43.96965" lon="3.32036">
        <ele>759</ele>
        <time>2020-08-26T11:20:45.000Z</time>
      </trkpt>
      <trkpt lat="43.96949" lon="3.32036">
        <ele>758</ele>
        <time>2020-08-26T11:20:35.000Z</time>
      </trkpt>
      <trkpt lat="43.96937" lon="3.32035">
        <ele>759.9</ele>
        <time>2020-08-26T11:20:45.000Z</time>
      </trkpt>
      <trkpt lat="43.96899" lon="3.32038">
        <ele>758</ele>
        <time>2020-08-26T11:20:35.000Z</time>
      </trkpt>
      <trkpt lat="43.96887" lon="3.32038">
        <ele>762.6</ele>
        <time>2020-08-26T11:20:45.000Z</time>
      </trkpt>
      <trkpt lat="43.96876" lon="3.32037">
        <ele>759</ele>
        <time>2020-08-26T11:20:35.000Z</time>
      </trkpt>
      <trkpt lat="43.96852" lon="3.32037">
        <ele>759</ele>
        <time>2020-08-26T11:20:35.000Z</time>
      </trkpt>
      <trkpt lat="43.9684" lon="3.32036">
        <ele>764.6</ele>
        <time>2020-08-26T11:20:45.000Z</time>
      </trkpt>
      <trkpt lat="43.96815" lon="3.32029">
        <ele>762</ele>
        <time>2020-08-26T11:20:35.000Z</time>
      </trkpt>
      <trkpt lat="43.96792" lon="3.32021">
        <ele>766</ele>
        <time>2020-08-26T11:20:35.000Z</time>
      </trkpt>
      <trkpt lat="43.96782" lon="3.32022">
        <ele>766.3</ele>
        <time>2020-08-26T11:20:45.000Z</time>
      </trkpt>
      <trkpt lat="43.96768" lon="3.32025">
        <ele>766</ele>
        <time>2020-08-26T11:20:35.000Z</time>
      </trkpt>
      <trkpt lat="43.96747" lon="3.32033">
        <ele>766</ele>
        <time>2020-08-26T11:20:35.000Z</time>
      </trkpt>
      <trkpt lat="43.96737" lon="3.32038">
        <ele>768.6</ele>
        <time>2020-08-26T11:20:45.000Z</time>
      </trkpt>
      <trkpt lat="43.96727" lon="3.3204">
        <ele>767</ele>
        <time>2020-08-26T11:20:35.000Z</time>
      </trkpt>
      <trkpt lat="43.96716" lon="3.32044">
        <ele>769.8</ele>
        <time>2020-08-26T11:20:45.000Z</time>
      </trkpt>
      <trkpt lat="43.96699" lon="3.3206">
        <ele>767</ele>
        <time>2020-08-26T11:20:35.000Z</time>
      </trkpt>
      <trkpt lat="43.96687" lon="3.32068">
        <ele>772.2</ele>
        <time>2020-08-26T11:20:45.000Z</time>
      </trkpt>
      <trkpt lat="43.96679" lon="3.3209">
        <ele>770</ele>
        <time>2020-08-26T11:20:35.000Z</time>
      </trkpt>
      <trkpt lat="43.96672" lon="3.32113">
        <ele>776.6</ele>
        <time>2020-08-26T11:20:45.000Z</time>
      </trkpt>
      <trkpt lat="43.96658" lon="3.32133">
        <ele>773</ele>
        <time>2020-08-26T11:20:35.000Z</time>
      </trkpt>
      <trkpt lat="43.96648" lon="3.32142">
        <ele>782.2</ele>
        <time>2020-08-26T11:20:45.000Z</time>
      </trkpt>
      <trkpt lat="43.96626" lon="3.32155">
        <ele>776</ele>
        <time>2020-08-26T11:20:35.000Z</time>
      </trkpt>
      <trkpt lat="43.96615" lon="3.3216">
        <ele>785.8</ele>
        <time>2020-08-26T11:20:45.000Z</time>
      </trkpt>
      <trkpt lat="43.96586" lon="3.32168">
        <ele>776</ele>
        <time>2020-08-26T11:20:35.000Z</time>
      </trkpt>
      <trkpt lat="43.96554" lon="3.32178">
        <ele>777</ele>
        <time>2020-08-26T11:20:35.000Z</time>
      </trkpt>
      <trkpt lat="43.96527" lon="3.32184">
        <ele>777</ele>
        <time>2020-08-26T11:20:35.000Z</time>
      </trkpt>
      <trkpt lat="43.96512" lon="3.32191">
        <ele>790.8</ele>
        <time>2020-08-26T11:20:45.000Z</time>
      </trkpt>
      <trkpt lat="43.96503" lon="3.32194">
        <ele>782</ele>
        <time>2020-08-26T11:20:35.000Z</time>
      </trkpt>
      <trkpt lat="43.96477" lon="3.32198">
        <ele>785</ele>
        <time>2020-08-26T11:20:35.000Z</time>
      </trkpt>
      <trkpt lat="43.96454" lon="3.32203">
        <ele>790</ele>
        <time>2020-08-26T11:20:35.000Z</time>
      </trkpt>
      <trkpt lat="43.96443" lon="3.32208">
        <ele>797</ele>
        <time>2020-08-26T11:20:45.000Z</time>
      </trkpt>
      <trkpt lat="43.96434" lon="3.32214">
        <ele>790</ele>
        <time>2020-08-26T11:20:35.000Z</time>
      </trkpt>
      <trkpt lat="43.96422" lon="3.32211">
        <ele>798.2</ele>
        <time>2020-08-26T11:20:45.000Z</time>
      </trkpt>
      <trkpt lat="43.96417" lon="3.32198">
        <ele>790</ele>
        <time>2020-08-26T11:20:35.000Z</time>
      </trkpt>
      <trkpt lat="43.96395" lon="3.32214">
        <ele>790</ele>
        <time>2020-08-26T11:20:35.000Z</time>
      </trkpt>
      <trkpt lat="43.96387" lon="3.32227">
        <ele>799</ele>
        <time>2020-08-26T11:20:45.000Z</time>
      </trkpt>
      <trkpt lat="43.96382" lon="3.32246">
        <ele>790</ele>
        <time>2020-08-26T11:20:35.000Z</time>
      </trkpt>
      <trkpt lat="43.96373" lon="3.32267">
        <ele>800.9</ele>
        <time>2020-08-26T11:20:45.000Z</time>
      </trkpt>
      <trkpt lat="43.96365" lon="3.32284">
        <ele>791</ele>
        <time>2020-08-26T11:20:35.000Z</time>
      </trkpt>
      <trkpt lat="43.96358" lon="3.32297">
        <ele>802.6</ele>
        <time>2020-08-26T11:20:45.000Z</time>
      </trkpt>
      <trkpt lat="43.96352" lon="3.32313">
        <ele>794</ele>
        <time>2020-08-26T11:20:35.000Z</time>
      </trkpt>
      <trkpt lat="43.96348" lon="3.32343">
        <ele>797</ele>
        <time>2020-08-26T11:20:35.000Z</time>
      </trkpt>
      <trkpt lat="43.96324" lon="3.3235">
        <ele>799</ele>
        <time>2020-08-26T11:20:35.000Z</time>
      </trkpt>
      <trkpt lat="43.96307" lon="3.32359">
        <ele>807.8</ele>
        <time>2020-08-26T11:20:45.000Z</time>
      </trkpt>
      <trkpt lat="43.96296" lon="3.32372">
        <ele>799</ele>
        <time>2020-08-26T11:20:35.000Z</time>
      </trkpt>
      <trkpt lat="43.96289" lon="3.32386">
        <ele>808.3</ele>
        <time>2020-08-26T11:20:45.000Z</time>
      </trkpt>
      <trkpt lat="43.96285" lon="3.324">
        <ele>799</ele>
        <time>2020-08-26T11:20:35.000Z</time>
      </trkpt>
      <trkpt lat="43.96276" lon="3.32419">
        <ele>807.8</ele>
        <time>2020-08-26T11:20:45.000Z</time>
      </trkpt>
      <trkpt lat="43.96265" lon="3.32435">
        <ele>799</ele>
        <time>2020-08-26T11:20:35.000Z</time>
      </trkpt>
      <trkpt lat="43.96254" lon="3.32458">
        <ele>799</ele>
        <time>2020-08-26T11:20:35.000Z</time>
      </trkpt>
      <trkpt lat="43.96253" lon="3.32474">
        <ele>804.8</ele>
        <time>2020-08-26T11:20:45.000Z</time>
      </trkpt>
      <trkpt lat="43.96249" lon="3.32497">
        <ele>798</ele>
        <time>2020-08-26T11:20:35.000Z</time>
      </trkpt>
      <trkpt lat="43.9624" lon="3.32506">
        <ele>801.1</ele>
        <time>2020-08-26T11:20:45.000Z</time>
      </trkpt>
      <trkpt lat="43.96226" lon="3.32512">
        <ele>798</ele>
        <time>2020-08-26T11:20:35.000Z</time>
      </trkpt>
      <trkpt lat="43.96194" lon="3.32512">
        <ele>797</ele>
        <time>2020-08-26T11:20:35.000Z</time>
      </trkpt>
      <trkpt lat="43.96175" lon="3.32521">
        <ele>796</ele>
        <time>2020-08-26T11:20:35.000Z</time>
      </trkpt>
      <trkpt lat="43.96165" lon="3.32524">
        <ele>795</ele>
        <time>2020-08-26T11:20:45.000Z</time>
      </trkpt>
      <trkpt lat="43.96155" lon="3.32529">
        <ele>796</ele>
        <time>2020-08-26T11:20:35.000Z</time>
      </trkpt>
      <trkpt lat="43.96146" lon="3.32531">
        <ele>797.3</ele>
        <time>2020-08-26T11:20:45.000Z</time>
      </trkpt>
      <trkpt lat="43.96124" lon="3.32533">
        <ele>798</ele>
        <time>2020-08-26T11:20:35.000Z</time>
      </trkpt>
      <trkpt lat="43.96105" lon="3.32563">
        <ele>799</ele>
        <time>2020-08-26T11:20:35.000Z</time>
      </trkpt>
      <trkpt lat="43.96088" lon="3.32594">
        <ele>801</ele>
        <time>2020-08-26T11:20:35.000Z</time>
      </trkpt>
      <trkpt lat="43.96084" lon="3.32616">
        <ele>810.6</ele>
        <time>2020-08-26T11:20:45.000Z</time>
      </trkpt>
      <trkpt lat="43.9609" lon="3.32651">
        <ele>805</ele>
        <time>2020-08-26T11:20:35.000Z</time>
      </trkpt>
      <trkpt lat="43.9609" lon="3.32679">
        <ele>806</ele>
        <time>2020-08-26T11:20:35.000Z</time>
      </trkpt>
      <trkpt lat="43.96093" lon="3.32736">
        <ele>810</ele>
        <time>2020-08-26T11:20:35.000Z</time>
      </trkpt>
      <trkpt lat="43.96093" lon="3.32758">
        <ele>819.7</ele>
        <time>2020-08-26T11:20:45.000Z</time>
      </trkpt>
      <trkpt lat="43.96091" lon="3.32784">
        <ele>811</ele>
        <time>2020-08-26T11:20:35.000Z</time>
      </trkpt>
      <trkpt lat="43.96091" lon="3.32803">
        <ele>819.6</ele>
        <time>2020-08-26T11:20:45.000Z</time>
      </trkpt>
      <trkpt lat="43.96087" lon="3.32832">
        <ele>813</ele>
        <time>2020-08-26T11:20:35.000Z</time>
      </trkpt>
      <trkpt lat="43.96085" lon="3.3286">
        <ele>814</ele>
        <time>2020-08-26T11:20:35.000Z</time>
      </trkpt>
      <trkpt lat="43.96085" lon="3.3289">
        <ele>818</ele>
        <time>2020-08-26T11:20:35.000Z</time>
      </trkpt>
      <trkpt lat="43.96083" lon="3.32911">
        <ele>826.6</ele>
        <time>2020-08-26T11:20:45.000Z</time>
      </trkpt>
      <trkpt lat="43.96077" lon="3.32931">
        <ele>819</ele>
        <time>2020-08-26T11:20:35.000Z</time>
      </trkpt>
      <trkpt lat="43.96074" lon="3.32944">
        <ele>828.3</ele>
        <time>2020-08-26T11:20:45.000Z</time>
      </trkpt>
      <trkpt lat="43.96068" lon="3.3296">
        <ele>821</ele>
        <time>2020-08-26T11:20:35.000Z</time>
      </trkpt>
      <trkpt lat="43.96065" lon="3.32973">
        <ele>829.7</ele>
        <time>2020-08-26T11:20:45.000Z</time>
      </trkpt>
      <trkpt lat="43.96058" lon="3.32988">
        <ele>821</ele>
        <time>2020-08-26T11:20:35.000Z</time>
      </trkpt>
      <trkpt lat="43.96032" lon="3.33036">
        <ele>821</ele>
        <time>2020-08-26T11:20:35.000Z</time>
      </trkpt>
      <trkpt lat="43.96025" lon="3.33045">
        <ele>832.3</ele>
        <time>2020-08-26T11:20:45.000Z</time>
      </trkpt>
      <trkpt lat="43.96013" lon="3.33052">
        <ele>823</ele>
        <time>2020-08-26T11:20:35.000Z</time>
      </trkpt>
      <trkpt lat="43.95993" lon="3.33058">
        <ele>823</ele>
        <time>2020-08-26T11:20:35.000Z</time>
      </trkpt>
      <trkpt lat="43.95952" lon="3.33066">
        <ele>827</ele>
        <time>2020-08-26T11:20:35.000Z</time>
      </trkpt>
      <trkpt lat="43.95941" lon="3.33072">
        <ele>838.9</ele>
        <time>2020-08-26T11:20:45.000Z</time>
      </trkpt>
      <trkpt lat="43.95929" lon="3.33086">
        <ele>830</ele>
        <time>2020-08-26T11:20:35.000Z</time>
      </trkpt>
      <trkpt lat="43.95919" lon="3.33104">
        <ele>843.2</ele>
        <time>2020-08-26T11:20:45.000Z</time>
      </trkpt>
      <trkpt lat="43.95894" lon="3.33155">
        <ele>830</ele>
        <time>2020-08-26T11:20:35.000Z</time>
      </trkpt>
      <trkpt lat="43.95886" lon="3.33169">
        <ele>849.2</ele>
        <time>2020-08-26T11:20:45.000Z</time>
      </trkpt>
      <trkpt lat="43.95879" lon="3.33186">
        <ele>831</ele>
        <time>2020-08-26T11:20:35.000Z</time>
      </trkpt>
      <trkpt lat="43.95869" lon="3.33217">
        <ele>833</ele>
        <time>2020-08-26T11:20:35.000Z</time>
      </trkpt>
      <trkpt lat="43.9585" lon="3.33263">
        <ele>836</ele>
        <time>2020-08-26T11:20:35.000Z</time>
      </trkpt>
      <trkpt lat="43.95846" lon="3.33278">
        <ele>854.5</ele>
        <time>2020-08-26T11:20:45.000Z</time>
      </trkpt>
      <trkpt lat="43.9584" lon="3.33296">
        <ele>842</ele>
        <time>2020-08-26T11:20:35.000Z</time>
      </trkpt>
      <trkpt lat="43.95834" lon="3.33308">
        <ele>855.2</ele>
        <time>2020-08-26T11:20:45.000Z</time>
      </trkpt>
      <trkpt lat="43.95823" lon="3.33319">
        <ele>845</ele>
        <time>2020-08-26T11:20:35.000Z</time>
      </trkpt>
      <trkpt lat="43.958" lon="3.33332">
        <ele>846</ele>
        <time>2020-08-26T11:20:35.000Z</time>
      </trkpt>
      <trkpt lat="43.95768" lon="3.33348">
        <ele>847</ele>
        <time>2020-08-26T11:20:35.000Z</time>
      </trkpt>
      <trkpt lat="43.95748" lon="3.33364">
        <ele>850</ele>
        <time>2020-08-26T11:20:35.000Z</time>
      </trkpt>
      <trkpt lat="43.95738" lon="3.3338">
        <ele>870.2</ele>
        <time>2020-08-26T11:20:45.000Z</time>
      </trkpt>
      <trkpt lat="43.9573" lon="3.33396">
        <ele>860</ele>
        <time>2020-08-26T11:20:35.000Z</time>
      </trkpt>
      <trkpt lat="43.9571" lon="3.33433">
        <ele>871</ele>
        <time>2020-08-26T11:20:35.000Z</time>
      </trkpt>
      <trkpt lat="43.95706" lon="3.33446">
        <ele>880.7</ele>
        <time>2020-08-26T11:20:45.000Z</time>
      </trkpt>
      <trkpt lat="43.95703" lon="3.3346">
        <ele>872</ele>
        <time>2020-08-26T11:20:35.000Z</time>
      </trkpt>
      <trkpt lat="43.95697" lon="3.33477">
        <ele>883.3</ele>
        <time>2020-08-26T11:20:45.000Z</time>
      </trkpt>
      <trkpt lat="43.9569" lon="3.33487">
        <ele>872</ele>
        <time>2020-08-26T11:20:35.000Z</time>
      </trkpt>
      <trkpt lat="43.9568" lon="3.33499">
        <ele>881.9</ele>
        <time>2020-08-26T11:20:45.000Z</time>
      </trkpt>
      <trkpt lat="43.9566" lon="3.33515">
        <ele>872</ele>
        <time>2020-08-26T11:20:35.000Z</time>
      </trkpt>
      <trkpt lat="43.95639" lon="3.33537">
        <ele>868</ele>
        <time>2020-08-26T11:20:45.000Z</time>
      </trkpt>
      <trkpt lat="43.95616" lon="3.33562">
        <ele>862</ele>
        <time>2020-08-26T11:20:35.000Z</time>
      </trkpt>
      <trkpt lat="43.95606" lon="3.33574">
        <ele>872.3</ele>
        <time>2020-08-26T11:20:45.000Z</time>
      </trkpt>
      <trkpt lat="43.95594" lon="3.33584">
        <ele>860</ele>
        <time>2020-08-26T11:20:35.000Z</time>
      </trkpt>
      <trkpt lat="43.9557" lon="3.33606">
        <ele>859</ele>
        <time>2020-08-26T11:20:35.000Z</time>
      </trkpt>
      <trkpt lat="43.95558" lon="3.33613">
        <ele>866.2</ele>
        <time>2020-08-26T11:20:45.000Z</time>
      </trkpt>
      <trkpt lat="43.95534" lon="3.33632">
        <ele>854</ele>
        <time>2020-08-26T11:20:35.000Z</time>
      </trkpt>
      <trkpt lat="43.95523" lon="3.33636">
        <ele>861.8</ele>
        <time>2020-08-26T11:20:45.000Z</time>
      </trkpt>
      <trkpt lat="43.95498" lon="3.33649">
        <ele>852</ele>
        <time>2020-08-26T11:20:35.000Z</time>
      </trkpt>
      <trkpt lat="43.95471" lon="3.33652">
        <ele>849</ele>
        <time>2020-08-26T11:20:35.000Z</time>
      </trkpt>
      <trkpt lat="43.95435" lon="3.33676">
        <ele>846</ele>
        <time>2020-08-26T11:20:35.000Z</time>
      </trkpt>
      <trkpt lat="43.95425" lon="3.33697">
        <ele>856.3</ele>
        <time>2020-08-26T11:20:45.000Z</time>
      </trkpt>
      <trkpt lat="43.95426" lon="3.33713">
        <ele>845</ele>
        <time>2020-08-26T11:20:35.000Z</time>
      </trkpt>
      <trkpt lat="43.95429" lon="3.33732">
        <ele>853.5</ele>
        <time>2020-08-26T11:20:45.000Z</time>
      </trkpt>
      <trkpt lat="43.9543" lon="3.33759">
        <ele>844</ele>
        <time>2020-08-26T11:20:35.000Z</time>
      </trkpt>
      <trkpt lat="43.95435" lon="3.33772">
        <ele>849.3</ele>
        <time>2020-08-26T11:20:45.000Z</time>
      </trkpt>
      <trkpt lat="43.95455" lon="3.33761">
        <ele>844</ele>
        <time>2020-08-26T11:20:35.000Z</time>
      </trkpt>
      <trkpt lat="43.95467" lon="3.33756">
        <ele>846.7</ele>
        <time>2020-08-26T11:20:45.000Z</time>
      </trkpt>
      <trkpt lat="43.95491" lon="3.33761">
        <ele>844</ele>
        <time>2020-08-26T11:20:35.000Z</time>
      </trkpt>
      <trkpt lat="43.95502" lon="3.33766">
        <ele>845.2</ele>
        <time>2020-08-26T11:20:45.000Z</time>
      </trkpt>
      <trkpt lat="43.95516" lon="3.33774">
        <ele>843</ele>
        <time>2020-08-26T11:20:35.000Z</time>
      </trkpt>
      <trkpt lat="43.95526" lon="3.33781">
        <ele>844.4</ele>
        <time>2020-08-26T11:20:45.000Z</time>
      </trkpt>
      <trkpt lat="43.95538" lon="3.33792">
        <ele>840</ele>
        <time>2020-08-26T11:20:35.000Z</time>
      </trkpt>
      <trkpt lat="43.95549" lon="3.338">
        <ele>843.3</ele>
        <time>2020-08-26T11:20:45.000Z</time>
      </trkpt>
      <trkpt lat="43.95561" lon="3.33806">
        <ele>839</ele>
        <time>2020-08-26T11:20:35.000Z</time>
      </trkpt>
      <trkpt lat="43.95567" lon="3.33816">
        <ele>844.6</ele>
        <time>2020-08-26T11:20:45.000Z</time>
      </trkpt>
      <trkpt lat="43.95571" lon="3.33831">
        <ele>840</ele>
        <time>2020-08-26T11:20:35.000Z</time>
      </trkpt>
      <trkpt lat="43.95578" lon="3.33886">
        <ele>841</ele>
        <time>2020-08-26T11:20:35.000Z</time>
      </trkpt>
      <trkpt lat="43.9558" lon="3.33923">
        <ele>841</ele>
        <time>2020-08-26T11:20:45.000Z</time>
      </trkpt>
      <trkpt lat="43.95583" lon="3.33968">
        <ele>839</ele>
        <time>2020-08-26T11:20:35.000Z</time>
      </trkpt>
      <trkpt lat="43.95588" lon="3.33985">
        <ele>848</ele>
        <time>2020-08-26T11:20:45.000Z</time>
      </trkpt>
      <trkpt lat="43.95597" lon="3.33997">
        <ele>840</ele>
        <time>2020-08-26T11:20:35.000Z</time>
      </trkpt>
      <trkpt lat="43.95614" lon="3.34016">
        <ele>841</ele>
        <time>2020-08-26T11:20:35.000Z</time>
      </trkpt>
      <trkpt lat="43.95626" lon="3.34024">
        <ele>847.8</ele>
        <time>2020-08-26T11:20:45.000Z</time>
      </trkpt>
      <trkpt lat="43.95636" lon="3.34024">
        <ele>843</ele>
        <time>2020-08-26T11:20:35.000Z</time>
      </trkpt>
      <trkpt lat="43.9565" lon="3.34022">
        <ele>848.5</ele>
        <time>2020-08-26T11:20:45.000Z</time>
      </trkpt>
      <trkpt lat="43.95705" lon="3.34035">
        <ele>845</ele>
        <time>2020-08-26T11:20:35.000Z</time>
      </trkpt>
      <trkpt lat="43.95717" lon="3.34039">
        <ele>847.6</ele>
        <time>2020-08-26T11:20:45.000Z</time>
      </trkpt>
      <trkpt lat="43.95728" lon="3.34044">
        <ele>846</ele>
        <time>2020-08-26T11:20:35.000Z</time>
      </trkpt>
      <trkpt lat="43.95739" lon="3.34053">
        <ele>848</ele>
        <time>2020-08-26T11:20:45.000Z</time>
      </trkpt>
      <trkpt lat="43.95747" lon="3.34069">
        <ele>844</ele>
        <time>2020-08-26T11:20:35.000Z</time>
      </trkpt>
      <trkpt lat="43.95752" lon="3.34084">
        <ele>847.2</ele>
        <time>2020-08-26T11:20:45.000Z</time>
      </trkpt>
      <trkpt lat="43.95758" lon="3.34098">
        <ele>842</ele>
        <time>2020-08-26T11:20:35.000Z</time>
      </trkpt>
      <trkpt lat="43.95768" lon="3.34118">
        <ele>846</ele>
        <time>2020-08-26T11:20:45.000Z</time>
      </trkpt>
      <trkpt lat="43.95779" lon="3.34134">
        <ele>840</ele>
        <time>2020-08-26T11:20:35.000Z</time>
      </trkpt>
      <trkpt lat="43.95794" lon="3.34151">
        <ele>846.7</ele>
        <time>2020-08-26T11:20:45.000Z</time>
      </trkpt>
      <trkpt lat="43.95807" lon="3.34164">
        <ele>841</ele>
        <time>2020-08-26T11:20:35.000Z</time>
      </trkpt>
      <trkpt lat="43.95821" lon="3.34175">
        <ele>848.5</ele>
        <time>2020-08-26T11:20:45.000Z</time>
      </trkpt>
      <trkpt lat="43.95832" lon="3.34179">
        <ele>842</ele>
        <time>2020-08-26T11:20:35.000Z</time>
      </trkpt>
      <trkpt lat="43.95851" lon="3.34175">
        <ele>853.2</ele>
        <time>2020-08-26T11:20:45.000Z</time>
      </trkpt>
      <trkpt lat="43.95877" lon="3.34166">
        <ele>845</ele>
        <time>2020-08-26T11:20:35.000Z</time>
      </trkpt>
      <trkpt lat="43.95893" lon="3.34164">
        <ele>859.8</ele>
        <time>2020-08-26T11:20:45.000Z</time>
      </trkpt>
      <trkpt lat="43.95903" lon="3.34162">
        <ele>848</ele>
        <time>2020-08-26T11:20:35.000Z</time>
      </trkpt>
      <trkpt lat="43.95927" lon="3.34154">
        <ele>854</ele>
        <time>2020-08-26T11:20:45.000Z</time>
      </trkpt>
      <trkpt lat="43.95951" lon="3.34145">
        <ele>859</ele>
        <time>2020-08-26T11:20:35.000Z</time>
      </trkpt>
      <trkpt lat="43.95967" lon="3.34147">
        <ele>872.2</ele>
        <time>2020-08-26T11:20:45.000Z</time>
      </trkpt>
      <trkpt lat="43.95987" lon="3.34152">
        <ele>863</ele>
        <time>2020-08-26T11:20:35.000Z</time>
      </trkpt>
      <trkpt lat="43.95998" lon="3.34153">
        <ele>876.2</ele>
        <time>2020-08-26T11:20:45.000Z</time>
      </trkpt>
      <trkpt lat="43.96016" lon="3.34151">
        <ele>868</ele>
        <time>2020-08-26T11:20:35.000Z</time>
      </trkpt>
      <trkpt lat="43.96027" lon="3.34147">
        <ele>879.1</ele>
        <time>2020-08-26T11:20:45.000Z</time>
      </trkpt>
      <trkpt lat="43.96052" lon="3.34136">
        <ele>869</ele>
        <time>2020-08-26T11:20:35.000Z</time>
      </trkpt>
      <trkpt lat="43.96062" lon="3.34128">
        <ele>882.7</ele>
        <time>2020-08-26T11:20:45.000Z</time>
      </trkpt>
      <trkpt lat="43.96074" lon="3.34108">
        <ele>870</ele>
        <time>2020-08-26T11:20:35.000Z</time>
      </trkpt>
      <trkpt lat="43.96082" lon="3.34098">
        <ele>886.4</ele>
        <time>2020-08-26T11:20:45.000Z</time>
      </trkpt>
      <trkpt lat="43.9609" lon="3.34091">
        <ele>874</ele>
        <time>2020-08-26T11:20:35.000Z</time>
      </trkpt>
      <trkpt lat="43.96107" lon="3.34069">
        <ele>874</ele>
        <time>2020-08-26T11:20:35.000Z</time>
      </trkpt>
      <trkpt lat="43.96114" lon="3.34059">
        <ele>890.3</ele>
        <time>2020-08-26T11:20:45.000Z</time>
      </trkpt>
      <trkpt lat="43.96127" lon="3.34045">
        <ele>877</ele>
        <time>2020-08-26T11:20:35.000Z</time>
      </trkpt>
      <trkpt lat="43.96145" lon="3.34032">
        <ele>881</ele>
        <time>2020-08-26T11:20:35.000Z</time>
      </trkpt>
      <trkpt lat="43.96156" lon="3.3403">
        <ele>896.6</ele>
        <time>2020-08-26T11:20:45.000Z</time>
      </trkpt>
      <trkpt lat="43.9617" lon="3.34032">
        <ele>887</ele>
        <time>2020-08-26T11:20:35.000Z</time>
      </trkpt>
      <trkpt lat="43.96186" lon="3.34036">
        <ele>897.6</ele>
        <time>2020-08-26T11:20:45.000Z</time>
      </trkpt>
      <trkpt lat="43.96209" lon="3.34043">
        <ele>893</ele>
        <time>2020-08-26T11:20:35.000Z</time>
      </trkpt>
      <trkpt lat="43.96223" lon="3.34051">
        <ele>898.5</ele>
        <time>2020-08-26T11:20:45.000Z</time>
      </trkpt>
      <trkpt lat="43.96242" lon="3.34058">
        <ele>897</ele>
        <time>2020-08-26T11:20:35.000Z</time>
      </trkpt>
      <trkpt lat="43.9627" lon="3.34066">
        <ele>897</ele>
        <time>2020-08-26T11:20:35.000Z</time>
      </trkpt>
      <trkpt lat="43.96282" lon="3.34058">
        <ele>897.8</ele>
        <time>2020-08-26T11:20:45.000Z</time>
      </trkpt>
      <trkpt lat="43.96292" lon="3.34054">
        <ele>897</ele>
        <time>2020-08-26T11:20:35.000Z</time>
      </trkpt>
      <trkpt lat="43.96302" lon="3.34059">
        <ele>897.1</ele>
        <time>2020-08-26T11:20:45.000Z</time>
      </trkpt>
      <trkpt lat="43.96315" lon="3.34069">
        <ele>887</ele>
        <time>2020-08-26T11:20:35.000Z</time>
      </trkpt>
      <trkpt lat="43.96328" lon="3.34081">
        <ele>896.1</ele>
        <time>2020-08-26T11:20:45.000Z</time>
      </trkpt>
      <trkpt lat="43.9634" lon="3.34089">
        <ele>885</ele>
        <time>2020-08-26T11:20:35.000Z</time>
      </trkpt>
      <trkpt lat="43.96349" lon="3.34098">
        <ele>895.5</ele>
        <time>2020-08-26T11:20:45.000Z</time>
      </trkpt>
      <trkpt lat="43.96362" lon="3.34102">
        <ele>885</ele>
        <time>2020-08-26T11:20:35.000Z</time>
      </trkpt>
      <trkpt lat="43.96374" lon="3.34107">
        <ele>895.9</ele>
        <time>2020-08-26T11:20:45.000Z</time>
      </trkpt>
      <trkpt lat="43.96384" lon="3.34116">
        <ele>885</ele>
        <time>2020-08-26T11:20:35.000Z</time>
      </trkpt>
      <trkpt lat="43.96393" lon="3.3412">
        <ele>895.9</ele>
        <time>2020-08-26T11:20:45.000Z</time>
      </trkpt>
      <trkpt lat="43.96408" lon="3.3412">
        <ele>885</ele>
        <time>2020-08-26T11:20:35.000Z</time>
      </trkpt>
      <trkpt lat="43.96422" lon="3.34118">
        <ele>895</ele>
        <time>2020-08-26T11:20:45.000Z</time>
      </trkpt>
      <trkpt lat="43.96437" lon="3.34112">
        <ele>885</ele>
        <time>2020-08-26T11:20:35.000Z</time>
      </trkpt>
      <trkpt lat="43.96453" lon="3.34098">
        <ele>894.1</ele>
        <time>2020-08-26T11:20:45.000Z</time>
      </trkpt>
      <trkpt lat="43.96467" lon="3.34087">
        <ele>886</ele>
        <time>2020-08-26T11:20:35.000Z</time>
      </trkpt>
      <trkpt lat="43.96491" lon="3.34072">
        <ele>885</ele>
        <time>2020-08-26T11:20:35.000Z</time>
      </trkpt>
      <trkpt lat="43.96504" lon="3.34058">
        <ele>892.2</ele>
        <time>2020-08-26T11:20:45.000Z</time>
      </trkpt>
      <trkpt lat="43.96524" lon="3.34041">
        <ele>884</ele>
        <time>2020-08-26T11:20:35.000Z</time>
      </trkpt>
      <trkpt lat="43.96535" lon="3.34035">
        <ele>890.9</ele>
        <time>2020-08-26T11:20:45.000Z</time>
      </trkpt>
      <trkpt lat="43.96547" lon="3.34031">
        <ele>884</ele>
        <time>2020-08-26T11:20:35.000Z</time>
      </trkpt>
      <trkpt lat="43.96545" lon="3.34067">
        <ele>885</ele>
        <time>2020-08-26T11:20:35.000Z</time>
      </trkpt>
      <trkpt lat="43.9654" lon="3.34101">
        <ele>885</ele>
        <time>2020-08-26T11:20:35.000Z</time>
      </trkpt>
      <trkpt lat="43.96542" lon="3.34136">
        <ele>885</ele>
        <time>2020-08-26T11:20:35.000Z</time>
      </trkpt>
      <trkpt lat="43.96544" lon="3.34154">
        <ele>888.8</ele>
        <time>2020-08-26T11:20:45.000Z</time>
      </trkpt>
      <trkpt lat="43.96544" lon="3.34171">
        <ele>880</ele>
        <time>2020-08-26T11:20:35.000Z</time>
      </trkpt>
      <trkpt lat="43.9654" lon="3.34187">
        <ele>886.6</ele>
        <time>2020-08-26T11:20:45.000Z</time>
      </trkpt>
      <trkpt lat="43.96534" lon="3.34204">
        <ele>878</ele>
        <time>2020-08-26T11:20:35.000Z</time>
      </trkpt>
      <trkpt lat="43.96523" lon="3.34222">
        <ele>885.5</ele>
        <time>2020-08-26T11:20:45.000Z</time>
      </trkpt>
      <trkpt lat="43.96511" lon="3.34235">
        <ele>877</ele>
        <time>2020-08-26T11:20:35.000Z</time>
      </trkpt>
      <trkpt lat="43.96499" lon="3.34251">
        <ele>884.8</ele>
        <time>2020-08-26T11:20:45.000Z</time>
      </trkpt>
      <trkpt lat="43.96487" lon="3.34269">
        <ele>874</ele>
        <time>2020-08-26T11:20:35.000Z</time>
      </trkpt>
      <trkpt lat="43.96469" lon="3.3428">
        <ele>874</ele>
        <time>2020-08-26T11:20:35.000Z</time>
      </trkpt>
      <trkpt lat="43.96454" lon="3.34286">
        <ele>878.8</ele>
        <time>2020-08-26T11:20:45.000Z</time>
      </trkpt>
      <trkpt lat="43.96439" lon="3.34294">
        <ele>872</ele>
        <time>2020-08-26T11:20:35.000Z</time>
      </trkpt>
      <trkpt lat="43.96426" lon="3.34304">
        <ele>874.6</ele>
        <time>2020-08-26T11:20:45.000Z</time>
      </trkpt>
      <trkpt lat="43.96411" lon="3.3431">
        <ele>871</ele>
        <time>2020-08-26T11:20:35.000Z</time>
      </trkpt>
      <trkpt lat="43.96393" lon="3.34315">
        <ele>871.4</ele>
        <time>2020-08-26T11:20:45.000Z</time>
      </trkpt>
      <trkpt lat="43.96372" lon="3.34325">
        <ele>868</ele>
        <time>2020-08-26T11:20:35.000Z</time>
      </trkpt>
      <trkpt lat="43.96359" lon="3.34337">
        <ele>866.2</ele>
        <time>2020-08-26T11:20:45.000Z</time>
      </trkpt>
      <trkpt lat="43.9635" lon="3.34352">
        <ele>866</ele>
        <time>2020-08-26T11:20:35.000Z</time>
      </trkpt>
      <trkpt lat="43.96338" lon="3.34369">
        <ele>861.3</ele>
        <time>2020-08-26T11:20:45.000Z</time>
      </trkpt>
      <trkpt lat="43.96324" lon="3.34386">
        <ele>859</ele>
        <time>2020-08-26T11:20:35.000Z</time>
      </trkpt>
      <trkpt lat="43.9631" lon="3.344">
        <ele>855.6</ele>
        <time>2020-08-26T11:20:45.000Z</time>
      </trkpt>
      <trkpt lat="43.96299" lon="3.34413">
        <ele>847</ele>
        <time>2020-08-26T11:20:35.000Z</time>
      </trkpt>
      <trkpt lat="43.96299" lon="3.34442">
        <ele>844</ele>
        <time>2020-08-26T11:20:35.000Z</time>
      </trkpt>
      <trkpt lat="43.96306" lon="3.34457">
        <ele>849.7</ele>
        <time>2020-08-26T11:20:45.000Z</time>
      </trkpt>
      <trkpt lat="43.96312" lon="3.34475">
        <ele>844</ele>
        <time>2020-08-26T11:20:35.000Z</time>
      </trkpt>
      <trkpt lat="43.96318" lon="3.3449">
        <ele>847.5</ele>
        <time>2020-08-26T11:20:45.000Z</time>
      </trkpt>
      <trkpt lat="43.96327" lon="3.3451">
        <ele>841</ele>
        <time>2020-08-26T11:20:35.000Z</time>
      </trkpt>
      <trkpt lat="43.96336" lon="3.34515">
        <ele>845.7</ele>
        <time>2020-08-26T11:20:45.000Z</time>
      </trkpt>
      <trkpt lat="43.96356" lon="3.345">
        <ele>840</ele>
        <time>2020-08-26T11:20:35.000Z</time>
      </trkpt>
      <trkpt lat="43.96374" lon="3.34505">
        <ele>843.9</ele>
        <time>2020-08-26T11:20:45.000Z</time>
      </trkpt>
      <trkpt lat="43.9639" lon="3.34507">
        <ele>838</ele>
        <time>2020-08-26T11:20:35.000Z</time>
      </trkpt>
      <trkpt lat="43.96408" lon="3.34511">
        <ele>838.9</ele>
        <time>2020-08-26T11:20:45.000Z</time>
      </trkpt>
      <trkpt lat="43.9642" lon="3.34516">
        <ele>836</ele>
        <time>2020-08-26T11:20:35.000Z</time>
      </trkpt>
      <trkpt lat="43.96438" lon="3.34532">
        <ele>833</ele>
        <time>2020-08-26T11:20:35.000Z</time>
      </trkpt>
      <trkpt lat="43.96444" lon="3.34547">
        <ele>831</ele>
        <time>2020-08-26T11:20:45.000Z</time>
      </trkpt>
      <trkpt lat="43.96457" lon="3.34553">
        <ele>832</ele>
        <time>2020-08-26T11:20:35.000Z</time>
      </trkpt>
      <trkpt lat="43.96469" lon="3.34564">
        <ele>826.5</ele>
        <time>2020-08-26T11:20:45.000Z</time>
      </trkpt>
      <trkpt lat="43.96479" lon="3.34566">
        <ele>832</ele>
        <time>2020-08-26T11:20:35.000Z</time>
      </trkpt>
      <trkpt lat="43.96491" lon="3.34566">
        <ele>823.2</ele>
        <time>2020-08-26T11:20:45.000Z</time>
      </trkpt>
      <trkpt lat="43.96503" lon="3.34563">
        <ele>832</ele>
        <time>2020-08-26T11:20:35.000Z</time>
      </trkpt>
      <trkpt lat="43.96518" lon="3.34558">
        <ele>822</ele>
        <time>2020-08-26T11:20:45.000Z</time>
      </trkpt>
      <trkpt lat="43.96533" lon="3.34551">
        <ele>831</ele>
        <time>2020-08-26T11:20:35.000Z</time>
      </trkpt>
      <trkpt lat="43.96544" lon="3.34545">
        <ele>822.7</ele>
        <time>2020-08-26T11:20:45.000Z</time>
      </trkpt>
      <trkpt lat="43.96561" lon="3.34549">
        <ele>831</ele>
        <time>2020-08-26T11:20:35.000Z</time>
      </trkpt>
      <trkpt lat="43.96573" lon="3.34545">
        <ele>820.4</ele>
        <time>2020-08-26T11:20:45.000Z</time>
      </trkpt>
      <trkpt lat="43.96587" lon="3.34544">
        <ele>830</ele>
        <time>2020-08-26T11:20:35.000Z</time>
      </trkpt>
      <trkpt lat="43.96599" lon="3.34545">
        <ele>817.8</ele>
        <time>2020-08-26T11:20:45.000Z</time>
      </trkpt>
      <trkpt lat="43.96618" lon="3.34548">
        <ele>829</ele>
        <time>2020-08-26T11:20:35.000Z</time>
      </trkpt>
      <trkpt lat="43.96635" lon="3.34546">
        <ele>812.9</ele>
        <time>2020-08-26T11:20:45.000Z</time>
      </trkpt>
      <trkpt lat="43.96644" lon="3.34549">
        <ele>822</ele>
        <time>2020-08-26T11:20:35.000Z</time>
      </trkpt>
      <trkpt lat="43.96658" lon="3.34549">
        <ele>809</ele>
        <time>2020-08-26T11:20:45.000Z</time>
      </trkpt>
      <trkpt lat="43.96679" lon="3.34554">
        <ele>808</ele>
        <time>2020-08-26T11:20:35.000Z</time>
      </trkpt>
      <trkpt lat="43.96689" lon="3.34554">
        <ele>802.3</ele>
        <time>2020-08-26T11:20:45.000Z</time>
      </trkpt>
      <trkpt lat="43.96698" lon="3.34549">
        <ele>806</ele>
        <time>2020-08-26T11:20:35.000Z</time>
      </trkpt>
      <trkpt lat="43.96707" lon="3.34547">
        <ele>798.2</ele>
        <time>2020-08-26T11:20:45.000Z</time>
      </trkpt>
      <trkpt lat="43.96711" lon="3.34528">
        <ele>797</ele>
        <time>2020-08-26T11:20:35.000Z</time>
      </trkpt>
      <trkpt lat="43.96719" lon="3.34522">
        <ele>796.5</ele>
        <time>2020-08-26T11:20:45.000Z</time>
      </trkpt>
      <trkpt lat="43.9673" lon="3.34534">
        <ele>797</ele>
        <time>2020-08-26T11:20:35.000Z</time>
      </trkpt>
      <trkpt lat="43.96736" lon="3.34547">
        <ele>788.8</ele>
        <time>2020-08-26T11:20:45.000Z</time>
      </trkpt>
      <trkpt lat="43.96746" lon="3.34553">
        <ele>792</ele>
        <time>2020-08-26T11:20:35.000Z</time>
      </trkpt>
      <trkpt lat="43.96748" lon="3.34567">
        <ele>783.8</ele>
        <time>2020-08-26T11:20:45.000Z</time>
      </trkpt>
      <trkpt lat="43.96732" lon="3.34593">
        <ele>787</ele>
        <time>2020-08-26T11:20:35.000Z</time>
      </trkpt>
      <trkpt lat="43.9672" lon="3.34615">
        <ele>783</ele>
        <time>2020-08-26T11:20:35.000Z</time>
      </trkpt>
      <trkpt lat="43.96729" lon="3.34631">
        <ele>783.3</ele>
        <time>2020-08-26T11:20:45.000Z</time>
      </trkpt>
      <trkpt lat="43.96742" lon="3.34635">
        <ele>774</ele>
        <time>2020-08-26T11:20:35.000Z</time>
      </trkpt>
      <trkpt lat="43.96777" lon="3.34635">
        <ele>767</ele>
        <time>2020-08-26T11:20:35.000Z</time>
      </trkpt>
      <trkpt lat="43.96785" lon="3.34648">
        <ele>768.2</ele>
        <time>2020-08-26T11:20:45.000Z</time>
      </trkpt>
      <trkpt lat="43.96792" lon="3.34669">
        <ele>767</ele>
        <time>2020-08-26T11:20:35.000Z</time>
      </trkpt>
      <trkpt lat="43.96801" lon="3.34682">
        <ele>760.8</ele>
        <time>2020-08-26T11:20:45.000Z</time>
      </trkpt>
      <trkpt lat="43.96809" lon="3.34691">
        <ele>755</ele>
        <time>2020-08-26T11:20:35.000Z</time>
      </trkpt>
      <trkpt lat="43.96822" lon="3.34687">
        <ele>753.9</ele>
        <time>2020-08-26T11:20:45.000Z</time>
      </trkpt>
      <trkpt lat="43.96839" lon="3.34689">
        <ele>747</ele>
        <time>2020-08-26T11:20:35.000Z</time>
      </trkpt>
      <trkpt lat="43.96869" lon="3.34697">
        <ele>741</ele>
        <time>2020-08-26T11:20:35.000Z</time>
      </trkpt>
      <trkpt lat="43.96877" lon="3.34706">
        <ele>737.6</ele>
        <time>2020-08-26T11:20:45.000Z</time>
      </trkpt>
      <trkpt lat="43.96892" lon="3.34721">
        <ele>738</ele>
        <time>2020-08-26T11:20:35.000Z</time>
      </trkpt>
      <trkpt lat="43.96903" lon="3.34719">
        <ele>732.1</ele>
        <time>2020-08-26T11:20:45.000Z</time>
      </trkpt>
      <trkpt lat="43.96903" lon="3.347">
        <ele>737</ele>
        <time>2020-08-26T11:20:35.000Z</time>
      </trkpt>
      <trkpt lat="43.96905" lon="3.34682">
        <ele>733.1</ele>
        <time>2020-08-26T11:20:45.000Z</time>
      </trkpt>
      <trkpt lat="43.96909" lon="3.34665">
        <ele>734</ele>
        <time>2020-08-26T11:20:35.000Z</time>
      </trkpt>
      <trkpt lat="43.96907" lon="3.34644">
        <ele>734.2</ele>
        <time>2020-08-26T11:20:45.000Z</time>
      </trkpt>
      <trkpt lat="43.96912" lon="3.34634">
        <ele>734</ele>
        <time>2020-08-26T11:20:35.000Z</time>
      </trkpt>
      <trkpt lat="43.96907" lon="3.34623">
        <ele>735</ele>
        <time>2020-08-26T11:20:45.000Z</time>
      </trkpt>
      <trkpt lat="43.96907" lon="3.34602">
        <ele>734</ele>
        <time>2020-08-26T11:20:35.000Z</time>
      </trkpt>
      <trkpt lat="43.96911" lon="3.34585">
        <ele>735.6</ele>
        <time>2020-08-26T11:20:45.000Z</time>
      </trkpt>
      <trkpt lat="43.96916" lon="3.34573">
        <ele>736</ele>
        <time>2020-08-26T11:20:35.000Z</time>
      </trkpt>
      <trkpt lat="43.96915" lon="3.34557">
        <ele>736.1</ele>
        <time>2020-08-26T11:20:45.000Z</time>
      </trkpt>
      <trkpt lat="43.96919" lon="3.34542">
        <ele>738</ele>
        <time>2020-08-26T11:20:35.000Z</time>
      </trkpt>
      <trkpt lat="43.96929" lon="3.34532">
        <ele>737.3</ele>
        <time>2020-08-26T11:20:45.000Z</time>
      </trkpt>
      <trkpt lat="43.96947" lon="3.34497">
        <ele>738</ele>
        <time>2020-08-26T11:20:35.000Z</time>
      </trkpt>
      <trkpt lat="43.96959" lon="3.34507">
        <ele>739.4</ele>
        <time>2020-08-26T11:20:45.000Z</time>
      </trkpt>
      <trkpt lat="43.96975" lon="3.34541">
        <ele>735</ele>
        <time>2020-08-26T11:20:35.000Z</time>
      </trkpt>
      <trkpt lat="43.96976" lon="3.34555">
        <ele>735.1</ele>
        <time>2020-08-26T11:20:45.000Z</time>
      </trkpt>
      <trkpt lat="43.96984" lon="3.3458">
        <ele>732</ele>
        <time>2020-08-26T11:20:35.000Z</time>
      </trkpt>
      <trkpt lat="43.96989" lon="3.34591">
        <ele>732.4</ele>
        <time>2020-08-26T11:20:45.000Z</time>
      </trkpt>
      <trkpt lat="43.96994" lon="3.34606">
        <ele>732</ele>
        <time>2020-08-26T11:20:35.000Z</time>
      </trkpt>
      <trkpt lat="43.96999" lon="3.34625">
        <ele>731</ele>
        <time>2020-08-26T11:20:45.000Z</time>
      </trkpt>
      <trkpt lat="43.97006" lon="3.34643">
        <ele>732</ele>
        <time>2020-08-26T11:20:35.000Z</time>
      </trkpt>
      <trkpt lat="43.97015" lon="3.34662">
        <ele>733.9</ele>
        <time>2020-08-26T11:20:45.000Z</time>
      </trkpt>
      <trkpt lat="43.97017" lon="3.34681">
        <ele>734</ele>
        <time>2020-08-26T11:20:35.000Z</time>
      </trkpt>
      <trkpt lat="43.97026" lon="3.34713">
        <ele>732</ele>
        <time>2020-08-26T11:20:35.000Z</time>
      </trkpt>
      <trkpt lat="43.97022" lon="3.34725">
        <ele>737.2</ele>
        <time>2020-08-26T11:20:45.000Z</time>
      </trkpt>
      <trkpt lat="43.97015" lon="3.34743">
        <ele>730</ele>
        <time>2020-08-26T11:20:35.000Z</time>
      </trkpt>
      <trkpt lat="43.97008" lon="3.34767">
        <ele>734.5</ele>
        <time>2020-08-26T11:20:45.000Z</time>
      </trkpt>
      <trkpt lat="43.97006" lon="3.3479">
        <ele>729</ele>
        <time>2020-08-26T11:20:35.000Z</time>
      </trkpt>
      <trkpt lat="43.97006" lon="3.34804">
        <ele>731.8</ele>
        <time>2020-08-26T11:20:45.000Z</time>
      </trkpt>
      <trkpt lat="43.97005" lon="3.34828">
        <ele>726</ele>
        <time>2020-08-26T11:20:35.000Z</time>
      </trkpt>
      <trkpt lat="43.97017" lon="3.34864">
        <ele>725</ele>
        <time>2020-08-26T11:20:35.000Z</time>
      </trkpt>
      <trkpt lat="43.97024" lon="3.34882">
        <ele>726.2</ele>
        <time>2020-08-26T11:20:45.000Z</time>
      </trkpt>
      <trkpt lat="43.97034" lon="3.34928">
        <ele>722</ele>
        <time>2020-08-26T11:20:35.000Z</time>
      </trkpt>
      <trkpt lat="43.9704" lon="3.34947">
        <ele>723.3</ele>
        <time>2020-08-26T11:20:45.000Z</time>
      </trkpt>
      <trkpt lat="43.97046" lon="3.34971">
        <ele>715</ele>
        <time>2020-08-26T11:20:35.000Z</time>
      </trkpt>
      <trkpt lat="43.97052" lon="3.35005">
        <ele>714</ele>
        <time>2020-08-26T11:20:35.000Z</time>
      </trkpt>
      <trkpt lat="43.97059" lon="3.35028">
        <ele>721.1</ele>
        <time>2020-08-26T11:20:45.000Z</time>
      </trkpt>
      <trkpt lat="43.97064" lon="3.35051">
        <ele>714</ele>
        <time>2020-08-26T11:20:35.000Z</time>
      </trkpt>
      <trkpt lat="43.97069" lon="3.35068">
        <ele>720.3</ele>
        <time>2020-08-26T11:20:45.000Z</time>
      </trkpt>
      <trkpt lat="43.97073" lon="3.35089">
        <ele>712</ele>
        <time>2020-08-26T11:20:35.000Z</time>
      </trkpt>
      <trkpt lat="43.97079" lon="3.35113">
        <ele>719.8</ele>
        <time>2020-08-26T11:20:45.000Z</time>
      </trkpt>
      <trkpt lat="43.9709" lon="3.35162">
        <ele>710</ele>
        <time>2020-08-26T11:20:35.000Z</time>
      </trkpt>
      <trkpt lat="43.97096" lon="3.35184">
        <ele>718.5</ele>
        <time>2020-08-26T11:20:45.000Z</time>
      </trkpt>
      <trkpt lat="43.97105" lon="3.35227">
        <ele>710</ele>
        <time>2020-08-26T11:20:35.000Z</time>
      </trkpt>
      <trkpt lat="43.97114" lon="3.35262">
        <ele>710</ele>
        <time>2020-08-26T11:20:35.000Z</time>
      </trkpt>
      <trkpt lat="43.97119" lon="3.35284">
        <ele>716.4</ele>
        <time>2020-08-26T11:20:45.000Z</time>
      </trkpt>
      <trkpt lat="43.97121" lon="3.35296">
        <ele>710</ele>
        <time>2020-08-26T11:20:35.000Z</time>
      </trkpt>
      <trkpt lat="43.97126" lon="3.35313">
        <ele>716.6</ele>
        <time>2020-08-26T11:20:45.000Z</time>
      </trkpt>
      <trkpt lat="43.97129" lon="3.35332">
        <ele>710</ele>
        <time>2020-08-26T11:20:35.000Z</time>
      </trkpt>
      <trkpt lat="43.97134" lon="3.35353">
        <ele>718.3</ele>
        <time>2020-08-26T11:20:45.000Z</time>
      </trkpt>
      <trkpt lat="43.97151" lon="3.35412">
        <ele>711</ele>
        <time>2020-08-26T11:20:35.000Z</time>
      </trkpt>
      <trkpt lat="43.97153" lon="3.35429">
        <ele>722</ele>
        <time>2020-08-26T11:20:45.000Z</time>
      </trkpt>
      <trkpt lat="43.97158" lon="3.35445">
        <ele>714</ele>
        <time>2020-08-26T11:20:35.000Z</time>
      </trkpt>
      <trkpt lat="43.97165" lon="3.35457">
        <ele>723.8</ele>
        <time>2020-08-26T11:20:45.000Z</time>
      </trkpt>
      <trkpt lat="43.97172" lon="3.35471">
        <ele>715</ele>
        <time>2020-08-26T11:20:35.000Z</time>
      </trkpt>
      <trkpt lat="43.97183" lon="3.35473">
        <ele>726.2</ele>
        <time>2020-08-26T11:20:45.000Z</time>
      </trkpt>
      <trkpt lat="43.97189" lon="3.3552">
        <ele>717</ele>
        <time>2020-08-26T11:20:35.000Z</time>
      </trkpt>
      <trkpt lat="43.97194" lon="3.35545">
        <ele>726.3</ele>
        <time>2020-08-26T11:20:45.000Z</time>
      </trkpt>
      <trkpt lat="43.972" lon="3.35571">
        <ele>717</ele>
        <time>2020-08-26T11:20:35.000Z</time>
      </trkpt>
      <trkpt lat="43.97203" lon="3.35588">
        <ele>725.3</ele>
        <time>2020-08-26T11:20:45.000Z</time>
      </trkpt>
      <trkpt lat="43.97211" lon="3.35603">
        <ele>720</ele>
        <time>2020-08-26T11:20:35.000Z</time>
      </trkpt>
      <trkpt lat="43.97211" lon="3.35625">
        <ele>723.8</ele>
        <time>2020-08-26T11:20:45.000Z</time>
      </trkpt>
      <trkpt lat="43.97218" lon="3.35643">
        <ele>720</ele>
        <time>2020-08-26T11:20:35.000Z</time>
      </trkpt>
      <trkpt lat="43.97224" lon="3.35655">
        <ele>725.3</ele>
        <time>2020-08-26T11:20:45.000Z</time>
      </trkpt>
      <trkpt lat="43.97232" lon="3.35673">
        <ele>721</ele>
        <time>2020-08-26T11:20:35.000Z</time>
      </trkpt>
      <trkpt lat="43.97241" lon="3.35688">
        <ele>728.1</ele>
        <time>2020-08-26T11:20:45.000Z</time>
      </trkpt>
      <trkpt lat="43.97258" lon="3.35709">
        <ele>720</ele>
        <time>2020-08-26T11:20:35.000Z</time>
      </trkpt>
      <trkpt lat="43.97263" lon="3.35724">
        <ele>730.8</ele>
        <time>2020-08-26T11:20:45.000Z</time>
      </trkpt>
      <trkpt lat="43.97268" lon="3.35746">
        <ele>721</ele>
        <time>2020-08-26T11:20:35.000Z</time>
      </trkpt>
      <trkpt lat="43.97294" lon="3.3578">
        <ele>722</ele>
        <time>2020-08-26T11:20:35.000Z</time>
      </trkpt>
      <trkpt lat="43.9731" lon="3.35805">
        <ele>724</ele>
        <time>2020-08-26T11:20:35.000Z</time>
      </trkpt>
      <trkpt lat="43.97329" lon="3.35825">
        <ele>725</ele>
        <time>2020-08-26T11:20:35.000Z</time>
      </trkpt>
      <trkpt lat="43.97341" lon="3.35836">
        <ele>736.8</ele>
        <time>2020-08-26T11:20:45.000Z</time>
      </trkpt>
      <trkpt lat="43.97351" lon="3.35844">
        <ele>726</ele>
        <time>2020-08-26T11:20:35.000Z</time>
      </trkpt>
      <trkpt lat="43.97363" lon="3.3585">
        <ele>739.6</ele>
        <time>2020-08-26T11:20:45.000Z</time>
      </trkpt>
      <trkpt lat="43.97376" lon="3.35854">
        <ele>729</ele>
        <time>2020-08-26T11:20:35.000Z</time>
      </trkpt>
      <trkpt lat="43.97398" lon="3.3588">
        <ele>732</ele>
        <time>2020-08-26T11:20:35.000Z</time>
      </trkpt>
      <trkpt lat="43.97411" lon="3.35901">
        <ele>732</ele>
        <time>2020-08-26T11:20:35.000Z</time>
      </trkpt>
      <trkpt lat="43.97416" lon="3.35918">
        <ele>742.6</ele>
        <time>2020-08-26T11:20:45.000Z</time>
      </trkpt>
      <trkpt lat="43.97419" lon="3.35931">
        <ele>732</ele>
        <time>2020-08-26T11:20:35.000Z</time>
      </trkpt>
      <trkpt lat="43.97439" lon="3.35976">
        <ele>732</ele>
        <time>2020-08-26T11:20:35.000Z</time>
      </trkpt>
      <trkpt lat="43.97444" lon="3.3599">
        <ele>740.3</ele>
        <time>2020-08-26T11:20:45.000Z</time>
      </trkpt>
      <trkpt lat="43.97449" lon="3.36002">
        <ele>733</ele>
        <time>2020-08-26T11:20:35.000Z</time>
      </trkpt>
      <trkpt lat="43.97458" lon="3.36013">
        <ele>738.1</ele>
        <time>2020-08-26T11:20:45.000Z</time>
      </trkpt>
      <trkpt lat="43.97464" lon="3.36029">
        <ele>733</ele>
        <time>2020-08-26T11:20:35.000Z</time>
      </trkpt>
      <trkpt lat="43.97475" lon="3.36042">
        <ele>734</ele>
        <time>2020-08-26T11:20:45.000Z</time>
      </trkpt>
      <trkpt lat="43.97489" lon="3.36057">
        <ele>733</ele>
        <time>2020-08-26T11:20:35.000Z</time>
      </trkpt>
      <trkpt lat="43.97494" lon="3.36074">
        <ele>729.9</ele>
        <time>2020-08-26T11:20:45.000Z</time>
      </trkpt>
      <trkpt lat="43.9749" lon="3.36089">
        <ele>728</ele>
        <time>2020-08-26T11:20:35.000Z</time>
      </trkpt>
      <trkpt lat="43.97489" lon="3.36108">
        <ele>728.6</ele>
        <time>2020-08-26T11:20:45.000Z</time>
      </trkpt>
      <trkpt lat="43.97494" lon="3.36127">
        <ele>727</ele>
        <time>2020-08-26T11:20:35.000Z</time>
      </trkpt>
      <trkpt lat="43.97495" lon="3.3615">
        <ele>730</ele>
        <time>2020-08-26T11:20:45.000Z</time>
      </trkpt>
      <trkpt lat="43.97491" lon="3.36197">
        <ele>727</ele>
        <time>2020-08-26T11:20:35.000Z</time>
      </trkpt>
      <trkpt lat="43.97485" lon="3.36237">
        <ele>727</ele>
        <time>2020-08-26T11:20:35.000Z</time>
      </trkpt>
      <trkpt lat="43.9748" lon="3.3626">
        <ele>731.5</ele>
        <time>2020-08-26T11:20:45.000Z</time>
      </trkpt>
      <trkpt lat="43.97473" lon="3.36283">
        <ele>724</ele>
        <time>2020-08-26T11:20:35.000Z</time>
      </trkpt>
      <trkpt lat="43.97472" lon="3.36308">
        <ele>731</ele>
        <time>2020-08-26T11:20:45.000Z</time>
      </trkpt>
      <trkpt lat="43.97458" lon="3.36402">
        <ele>722</ele>
        <time>2020-08-26T11:20:35.000Z</time>
      </trkpt>
      <trkpt lat="43.97455" lon="3.36451">
        <ele>721</ele>
        <time>2020-08-26T11:20:35.000Z</time>
      </trkpt>
      <trkpt lat="43.97457" lon="3.36467">
        <ele>725.9</ele>
        <time>2020-08-26T11:20:45.000Z</time>
      </trkpt>
      <trkpt lat="43.97463" lon="3.36481">
        <ele>721</ele>
        <time>2020-08-26T11:20:35.000Z</time>
      </trkpt>
      <trkpt lat="43.97466" lon="3.36496">
        <ele>728.7</ele>
        <time>2020-08-26T11:20:45.000Z</time>
      </trkpt>
      <trkpt lat="43.97485" lon="3.36519">
        <ele>724</ele>
        <time>2020-08-26T11:20:35.000Z</time>
      </trkpt>
      <trkpt lat="43.97502" lon="3.36535">
        <ele>725</ele>
        <time>2020-08-26T11:20:35.000Z</time>
      </trkpt>
      <trkpt lat="43.97516" lon="3.36554">
        <ele>727</ele>
        <time>2020-08-26T11:20:35.000Z</time>
      </trkpt>
      <trkpt lat="43.97531" lon="3.36568">
        <ele>737.1</ele>
        <time>2020-08-26T11:20:45.000Z</time>
      </trkpt>
      <trkpt lat="43.97543" lon="3.36576">
        <ele>731</ele>
        <time>2020-08-26T11:20:35.000Z</time>
      </trkpt>
      <trkpt lat="43.97557" lon="3.36577">
        <ele>739.4</ele>
        <time>2020-08-26T11:20:45.000Z</time>
      </trkpt>
      <trkpt lat="43.97572" lon="3.36574">
        <ele>734</ele>
        <time>2020-08-26T11:20:35.000Z</time>
      </trkpt>
      <trkpt lat="43.97568" lon="3.36591">
        <ele>741.3</ele>
        <time>2020-08-26T11:20:45.000Z</time>
      </trkpt>
      <trkpt lat="43.97556" lon="3.36615">
        <ele>735</ele>
        <time>2020-08-26T11:20:35.000Z</time>
      </trkpt>
      <trkpt lat="43.97533" lon="3.36646">
        <ele>732</ele>
        <time>2020-08-26T11:20:35.000Z</time>
      </trkpt>
      <trkpt lat="43.9751" lon="3.36682">
        <ele>733</ele>
        <time>2020-08-26T11:20:35.000Z</time>
      </trkpt>
      <trkpt lat="43.975" lon="3.36702">
        <ele>738</ele>
        <time>2020-08-26T11:20:45.000Z</time>
      </trkpt>
      <trkpt lat="43.97497" lon="3.36722">
        <ele>735</ele>
        <time>2020-08-26T11:20:35.000Z</time>
      </trkpt>
      <trkpt lat="43.97504" lon="3.36735">
        <ele>738.1</ele>
        <time>2020-08-26T11:20:45.000Z</time>
      </trkpt>
      <trkpt lat="43.97533" lon="3.36766">
        <ele>736</ele>
        <time>2020-08-26T11:20:35.000Z</time>
      </trkpt>
      <trkpt lat="43.97547" lon="3.36775">
        <ele>738.6</ele>
        <time>2020-08-26T11:20:45.000Z</time>
      </trkpt>
      <trkpt lat="43.97563" lon="3.36768">
        <ele>738</ele>
        <time>2020-08-26T11:20:35.000Z</time>
      </trkpt>
      <trkpt lat="43.97574" lon="3.36753">
        <ele>743.4</ele>
        <time>2020-08-26T11:20:45.000Z</time>
      </trkpt>
      <trkpt lat="43.97585" lon="3.36745">
        <ele>741</ele>
        <time>2020-08-26T11:20:35.000Z</time>
      </trkpt>
      <trkpt lat="43.97586" lon="3.36732">
        <ele>746.6</ele>
        <time>2020-08-26T11:20:45.000Z</time>
      </trkpt>
      <trkpt lat="43.97601" lon="3.36717">
        <ele>743</ele>
        <time>2020-08-26T11:20:35.000Z</time>
      </trkpt>
      <trkpt lat="43.97605" lon="3.367">
        <ele>749.3</ele>
        <time>2020-08-26T11:20:45.000Z</time>
      </trkpt>
      <trkpt lat="43.97602" lon="3.36686">
        <ele>741</ele>
        <time>2020-08-26T11:20:35.000Z</time>
      </trkpt>
      <trkpt lat="43.976" lon="3.36673">
        <ele>748.3</ele>
        <time>2020-08-26T11:20:45.000Z</time>
      </trkpt>
      <trkpt lat="43.97607" lon="3.36664">
        <ele>748.5</ele>
        <time>2020-08-26T11:20:55.000Z</time>
      </trkpt>
      <trkpt lat="43.97598" lon="3.36652">
        <ele>741</ele>
        <time>2020-08-26T11:20:35.000Z</time>
      </trkpt>
      <trkpt lat="43.97599" lon="3.36639">
        <ele>746.6</ele>
        <time>2020-08-26T11:20:45.000Z</time>
      </trkpt>
      <trkpt lat="43.97613" lon="3.36629">
        <ele>742</ele>
        <time>2020-08-26T11:20:35.000Z</time>
      </trkpt>
      <trkpt lat="43.97621" lon="3.36622">
        <ele>746.7</ele>
        <time>2020-08-26T11:20:45.000Z</time>
      </trkpt>
      <trkpt lat="43.97625" lon="3.3661">
        <ele>746.4</ele>
        <time>2020-08-26T11:20:55.000Z</time>
      </trkpt>
      <trkpt lat="43.9762" lon="3.36595">
        <ele>742</ele>
        <time>2020-08-26T11:20:35.000Z</time>
      </trkpt>
      <trkpt lat="43.97614" lon="3.36568">
        <ele>736</ele>
        <time>2020-08-26T11:20:35.000Z</time>
      </trkpt>
      <trkpt lat="43.97614" lon="3.36553">
        <ele>741.6</ele>
        <time>2020-08-26T11:20:45.000Z</time>
      </trkpt>
      <trkpt lat="43.97629" lon="3.36541">
        <ele>732</ele>
        <time>2020-08-26T11:20:35.000Z</time>
      </trkpt>
      <trkpt lat="43.97662" lon="3.36543">
        <ele>731</ele>
        <time>2020-08-26T11:20:35.000Z</time>
      </trkpt>
      <trkpt lat="43.977" lon="3.3655">
        <ele>731</ele>
        <time>2020-08-26T11:20:35.000Z</time>
      </trkpt>
      <trkpt lat="43.97713" lon="3.36549">
        <ele>741.2</ele>
        <time>2020-08-26T11:20:45.000Z</time>
      </trkpt>
      <trkpt lat="43.97732" lon="3.36549">
        <ele>736</ele>
        <time>2020-08-26T11:20:35.000Z</time>
      </trkpt>
      <trkpt lat="43.97744" lon="3.3655">
        <ele>744</ele>
        <time>2020-08-26T11:20:45.000Z</time>
      </trkpt>
      <trkpt lat="43.97763" lon="3.36556">
        <ele>738</ele>
        <time>2020-08-26T11:20:35.000Z</time>
      </trkpt>
      <trkpt lat="43.97777" lon="3.36562">
        <ele>748.1</ele>
        <time>2020-08-26T11:20:45.000Z</time>
      </trkpt>
      <trkpt lat="43.97795" lon="3.36567">
        <ele>740</ele>
        <time>2020-08-26T11:20:35.000Z</time>
      </trkpt>
      <trkpt lat="43.97806" lon="3.36572">
        <ele>751.2</ele>
        <time>2020-08-26T11:20:45.000Z</time>
      </trkpt>
      <trkpt lat="43.97821" lon="3.36576">
        <ele>744</ele>
        <time>2020-08-26T11:20:35.000Z</time>
      </trkpt>
      <trkpt lat="43.97834" lon="3.36581">
        <ele>753.9</ele>
        <time>2020-08-26T11:20:45.000Z</time>
      </trkpt>
      <trkpt lat="43.97845" lon="3.36583">
        <ele>744</ele>
        <time>2020-08-26T11:20:35.000Z</time>
      </trkpt>
      <trkpt lat="43.97856" lon="3.36586">
        <ele>755</ele>
        <time>2020-08-26T11:20:45.000Z</time>
      </trkpt>
      <trkpt lat="43.97866" lon="3.36585">
        <ele>746</ele>
        <time>2020-08-26T11:20:35.000Z</time>
      </trkpt>
      <trkpt lat="43.97893" lon="3.36592">
        <ele>746</ele>
        <time>2020-08-26T11:20:35.000Z</time>
      </trkpt>
      <trkpt lat="43.97915" lon="3.36591">
        <ele>743</ele>
        <time>2020-08-26T11:20:35.000Z</time>
      </trkpt>
      <trkpt lat="43.97936" lon="3.36596">
        <ele>743</ele>
        <time>2020-08-26T11:20:35.000Z</time>
      </trkpt>
      <trkpt lat="43.97955" lon="3.36592">
        <ele>756.4</ele>
        <time>2020-08-26T11:20:45.000Z</time>
      </trkpt>
      <trkpt lat="43.98001" lon="3.3657">
        <ele>744</ele>
        <time>2020-08-26T11:20:35.000Z</time>
      </trkpt>
      <trkpt lat="43.9802" lon="3.36564">
        <ele>744</ele>
        <time>2020-08-26T11:20:35.000Z</time>
      </trkpt>
      <trkpt lat="43.98037" lon="3.3655">
        <ele>744</ele>
        <time>2020-08-26T11:20:35.000Z</time>
      </trkpt>
      <trkpt lat="43.98051" lon="3.36537">
        <ele>755.7</ele>
        <time>2020-08-26T11:20:45.000Z</time>
      </trkpt>
      <trkpt lat="43.98067" lon="3.36528">
        <ele>745</ele>
        <time>2020-08-26T11:20:35.000Z</time>
      </trkpt>
      <trkpt lat="43.98075" lon="3.36522">
        <ele>758.1</ele>
        <time>2020-08-26T11:20:45.000Z</time>
      </trkpt>
      <trkpt lat="43.98082" lon="3.36513">
        <ele>758.9</ele>
        <time>2020-08-26T11:20:55.000Z</time>
      </trkpt>
      <trkpt lat="43.98104" lon="3.36491">
        <ele>754</ele>
        <time>2020-08-26T11:20:35.000Z</time>
      </trkpt>
      <trkpt lat="43.9811" lon="3.36479">
        <ele>761.6</ele>
        <time>2020-08-26T11:20:45.000Z</time>
      </trkpt>
      <trkpt lat="43.98125" lon="3.36467">
        <ele>756</ele>
        <time>2020-08-26T11:20:35.000Z</time>
      </trkpt>
      <trkpt lat="43.98138" lon="3.36445">
        <ele>760</ele>
        <time>2020-08-26T11:20:35.000Z</time>
      </trkpt>
      <trkpt lat="43.98141" lon="3.36432">
        <ele>760.9</ele>
        <time>2020-08-26T11:20:45.000Z</time>
      </trkpt>
      <trkpt lat="43.98146" lon="3.36421">
        <ele>760.6</ele>
        <time>2020-08-26T11:20:55.000Z</time>
      </trkpt>
      <trkpt lat="43.98154" lon="3.3641">
        <ele>757</ele>
        <time>2020-08-26T11:20:35.000Z</time>
      </trkpt>
      <trkpt lat="43.98161" lon="3.36393">
        <ele>758</ele>
        <time>2020-08-26T11:20:45.000Z</time>
      </trkpt>
      <trkpt lat="43.98163" lon="3.3641">
        <ele>758</ele>
        <time>2020-08-26T11:20:35.000Z</time>
      </trkpt>
      <trkpt lat="43.98161" lon="3.36429">
        <ele>756.4</ele>
        <time>2020-08-26T11:20:45.000Z</time>
      </trkpt>
      <trkpt lat="43.98155" lon="3.36441">
        <ele>757</ele>
        <time>2020-08-26T11:20:35.000Z</time>
      </trkpt>
      <trkpt lat="43.98147" lon="3.36463">
        <ele>758.9</ele>
        <time>2020-08-26T11:20:45.000Z</time>
      </trkpt>
      <trkpt lat="43.9814" lon="3.36491">
        <ele>757</ele>
        <time>2020-08-26T11:20:35.000Z</time>
      </trkpt>
      <trkpt lat="43.98134" lon="3.36503">
        <ele>762</ele>
        <time>2020-08-26T11:20:45.000Z</time>
      </trkpt>
      <trkpt lat="43.98116" lon="3.36483">
        <ele>758</ele>
        <time>2020-08-26T11:20:35.000Z</time>
      </trkpt>
      <trkpt lat="43.9811" lon="3.3647">
        <ele>762</ele>
        <time>2020-08-26T11:20:45.000Z</time>
      </trkpt>
      <trkpt lat="43.98112" lon="3.36457">
        <ele>759</ele>
        <time>2020-08-26T11:20:35.000Z</time>
      </trkpt>
      <trkpt lat="43.98131" lon="3.3641">
        <ele>763</ele>
        <time>2020-08-26T11:20:35.000Z</time>
      </trkpt>
      <trkpt lat="43.98137" lon="3.36396">
        <ele>766.5</ele>
        <time>2020-08-26T11:20:45.000Z</time>
      </trkpt>
      <trkpt lat="43.98143" lon="3.36384">
        <ele>764</ele>
        <time>2020-08-26T11:20:35.000Z</time>
      </trkpt>
      <trkpt lat="43.98149" lon="3.36365">
        <ele>765.3</ele>
        <time>2020-08-26T11:20:45.000Z</time>
      </trkpt>
      <trkpt lat="43.98152" lon="3.36308">
        <ele>767</ele>
        <time>2020-08-26T11:20:35.000Z</time>
      </trkpt>
      <trkpt lat="43.98151" lon="3.36289">
        <ele>769.4</ele>
        <time>2020-08-26T11:20:45.000Z</time>
      </trkpt>
      <trkpt lat="43.98149" lon="3.36273">
        <ele>768</ele>
        <time>2020-08-26T11:20:35.000Z</time>
      </trkpt>
      <trkpt lat="43.9814" lon="3.3624">
        <ele>771</ele>
        <time>2020-08-26T11:20:35.000Z</time>
      </trkpt>
      <trkpt lat="43.98136" lon="3.36213">
        <ele>773</ele>
        <time>2020-08-26T11:20:35.000Z</time>
      </trkpt>
      <trkpt lat="43.98134" lon="3.36194">
        <ele>779.8</ele>
        <time>2020-08-26T11:20:45.000Z</time>
      </trkpt>
      <trkpt lat="43.98136" lon="3.36165">
        <ele>775</ele>
        <time>2020-08-26T11:20:35.000Z</time>
      </trkpt>
      <trkpt lat="43.98142" lon="3.36139">
        <ele>775</ele>
        <time>2020-08-26T11:20:35.000Z</time>
      </trkpt>
      <trkpt lat="43.98146" lon="3.36127">
        <ele>780.3</ele>
        <time>2020-08-26T11:20:45.000Z</time>
      </trkpt>
      <trkpt lat="43.9815" lon="3.36107">
        <ele>774</ele>
        <time>2020-08-26T11:20:35.000Z</time>
      </trkpt>
      <trkpt lat="43.9816" lon="3.36086">
        <ele>779.7</ele>
        <time>2020-08-26T11:20:45.000Z</time>
      </trkpt>
      <trkpt lat="43.98161" lon="3.36071">
        <ele>774</ele>
        <time>2020-08-26T11:20:35.000Z</time>
      </trkpt>
      <trkpt lat="43.98173" lon="3.36054">
        <ele>780.2</ele>
        <time>2020-08-26T11:20:45.000Z</time>
      </trkpt>
      <trkpt lat="43.98186" lon="3.3603">
        <ele>774</ele>
        <time>2020-08-26T11:20:35.000Z</time>
      </trkpt>
      <trkpt lat="43.98198" lon="3.36029">
        <ele>780.7</ele>
        <time>2020-08-26T11:20:45.000Z</time>
      </trkpt>
      <trkpt lat="43.98214" lon="3.36029">
        <ele>768</ele>
        <time>2020-08-26T11:20:35.000Z</time>
      </trkpt>
      <trkpt lat="43.98229" lon="3.36027">
        <ele>779.8</ele>
        <time>2020-08-26T11:20:45.000Z</time>
      </trkpt>
      <trkpt lat="43.98251" lon="3.36026">
        <ele>767</ele>
        <time>2020-08-26T11:20:35.000Z</time>
      </trkpt>
      <trkpt lat="43.98271" lon="3.3603">
        <ele>767</ele>
        <time>2020-08-26T11:20:35.000Z</time>
      </trkpt>
      <trkpt lat="43.98286" lon="3.36031">
        <ele>777.9</ele>
        <time>2020-08-26T11:20:45.000Z</time>
      </trkpt>
      <trkpt lat="43.98309" lon="3.36034">
        <ele>768</ele>
        <time>2020-08-26T11:20:35.000Z</time>
      </trkpt>
      <trkpt lat="43.98326" lon="3.36034">
        <ele>774.4</ele>
        <time>2020-08-26T11:20:45.000Z</time>
      </trkpt>
      <trkpt lat="43.98342" lon="3.36032">
        <ele>768</ele>
        <time>2020-08-26T11:20:35.000Z</time>
      </trkpt>
      <trkpt lat="43.98359" lon="3.36035">
        <ele>772.3</ele>
        <time>2020-08-26T11:20:45.000Z</time>
      </trkpt>
      <trkpt lat="43.98374" lon="3.36036">
        <ele>765</ele>
        <time>2020-08-26T11:20:35.000Z</time>
      </trkpt>
      <trkpt lat="43.98384" lon="3.36039">
        <ele>771.5</ele>
        <time>2020-08-26T11:20:45.000Z</time>
      </trkpt>
      <trkpt lat="43.98394" lon="3.36043">
        <ele>765</ele>
        <time>2020-08-26T11:20:35.000Z</time>
      </trkpt>
      <trkpt lat="43.98405" lon="3.36054">
        <ele>768.9</ele>
        <time>2020-08-26T11:20:45.000Z</time>
      </trkpt>
      <trkpt lat="43.98414" lon="3.36062">
        <ele>762</ele>
        <time>2020-08-26T11:20:35.000Z</time>
      </trkpt>
      <trkpt lat="43.98428" lon="3.36068">
        <ele>766.2</ele>
        <time>2020-08-26T11:20:45.000Z</time>
      </trkpt>
      <trkpt lat="43.98448" lon="3.36073">
        <ele>761</ele>
        <time>2020-08-26T11:20:35.000Z</time>
      </trkpt>
      <trkpt lat="43.98475" lon="3.36076">
        <ele>760</ele>
        <time>2020-08-26T11:20:35.000Z</time>
      </trkpt>
      <trkpt lat="43.98486" lon="3.3608">
        <ele>764</ele>
        <time>2020-08-26T11:20:45.000Z</time>
      </trkpt>
      <trkpt lat="43.98497" lon="3.36081">
        <ele>758</ele>
        <time>2020-08-26T11:20:35.000Z</time>
      </trkpt>
      <trkpt lat="43.98526" lon="3.36098">
        <ele>758</ele>
        <time>2020-08-26T11:20:35.000Z</time>
      </trkpt>
      <trkpt lat="43.98544" lon="3.36104">
        <ele>755.1</ele>
        <time>2020-08-26T11:20:45.000Z</time>
      </trkpt>
      <trkpt lat="43.98555" lon="3.36104">
        <ele>749</ele>
        <time>2020-08-26T11:20:35.000Z</time>
      </trkpt>
      <trkpt lat="43.98573" lon="3.36101">
        <ele>753.3</ele>
        <time>2020-08-26T11:20:45.000Z</time>
      </trkpt>
      <trkpt lat="43.98609" lon="3.36104">
        <ele>740</ele>
        <time>2020-08-26T11:20:35.000Z</time>
      </trkpt>
      <trkpt lat="43.98621" lon="3.36111">
        <ele>745.6</ele>
        <time>2020-08-26T11:20:45.000Z</time>
      </trkpt>
      <trkpt lat="43.98634" lon="3.36117">
        <ele>737</ele>
        <time>2020-08-26T11:20:35.000Z</time>
      </trkpt>
      <trkpt lat="43.98661" lon="3.36119">
        <ele>734</ele>
        <time>2020-08-26T11:20:35.000Z</time>
      </trkpt>
      <trkpt lat="43.98689" lon="3.36131">
        <ele>731</ele>
        <time>2020-08-26T11:20:35.000Z</time>
      </trkpt>
      <trkpt lat="43.98704" lon="3.36141">
        <ele>730.8</ele>
        <time>2020-08-26T11:20:45.000Z</time>
      </trkpt>
      <trkpt lat="43.98724" lon="3.36151">
        <ele>729</ele>
        <time>2020-08-26T11:20:35.000Z</time>
      </trkpt>
      <trkpt lat="43.98733" lon="3.36154">
        <ele>726.8</ele>
        <time>2020-08-26T11:20:45.000Z</time>
      </trkpt>
      <trkpt lat="43.98748" lon="3.36161">
        <ele>728</ele>
        <time>2020-08-26T11:20:35.000Z</time>
      </trkpt>
      <trkpt lat="43.98761" lon="3.3616">
        <ele>723.8</ele>
        <time>2020-08-26T11:20:45.000Z</time>
      </trkpt>
      <trkpt lat="43.98773" lon="3.3616">
        <ele>728</ele>
        <time>2020-08-26T11:20:35.000Z</time>
      </trkpt>
      <trkpt lat="43.98796" lon="3.36158">
        <ele>723</ele>
        <time>2020-08-26T11:20:35.000Z</time>
      </trkpt>
      <trkpt lat="43.98841" lon="3.36147">
        <ele>720</ele>
        <time>2020-08-26T11:20:35.000Z</time>
      </trkpt>
      <trkpt lat="43.98857" lon="3.36138">
        <ele>709.7</ele>
        <time>2020-08-26T11:20:45.000Z</time>
      </trkpt>
      <trkpt lat="43.98869" lon="3.36126">
        <ele>715</ele>
        <time>2020-08-26T11:20:35.000Z</time>
      </trkpt>
      <trkpt lat="43.98898" lon="3.36118">
        <ele>714</ele>
        <time>2020-08-26T11:20:35.000Z</time>
      </trkpt>
      <trkpt lat="43.98909" lon="3.36112">
        <ele>702.1</ele>
        <time>2020-08-26T11:20:45.000Z</time>
      </trkpt>
      <trkpt lat="43.98928" lon="3.36099">
        <ele>708</ele>
        <time>2020-08-26T11:20:35.000Z</time>
      </trkpt>
      <trkpt lat="43.98948" lon="3.36093">
        <ele>706</ele>
        <time>2020-08-26T11:20:35.000Z</time>
      </trkpt>
      <trkpt lat="43.9896" lon="3.36088">
        <ele>695</ele>
        <time>2020-08-26T11:20:45.000Z</time>
      </trkpt>
      <trkpt lat="43.98974" lon="3.36088">
        <ele>703</ele>
        <time>2020-08-26T11:20:35.000Z</time>
      </trkpt>
      <trkpt lat="43.98997" lon="3.36081">
        <ele>699</ele>
        <time>2020-08-26T11:20:35.000Z</time>
      </trkpt>
      <trkpt lat="43.99032" lon="3.36074">
        <ele>693</ele>
        <time>2020-08-26T11:20:35.000Z</time>
      </trkpt>
      <trkpt lat="43.99047" lon="3.36068">
        <ele>685.1</ele>
        <time>2020-08-26T11:20:45.000Z</time>
      </trkpt>
      <trkpt lat="43.99058" lon="3.36068">
        <ele>685</ele>
        <time>2020-08-26T11:20:35.000Z</time>
      </trkpt>
      <trkpt lat="43.99082" lon="3.36059">
        <ele>678</ele>
        <time>2020-08-26T11:20:35.000Z</time>
      </trkpt>
      <trkpt lat="43.99101" lon="3.36054">
        <ele>681.3</ele>
        <time>2020-08-26T11:20:45.000Z</time>
      </trkpt>
      <trkpt lat="43.99118" lon="3.36054">
        <ele>677</ele>
        <time>2020-08-26T11:20:35.000Z</time>
      </trkpt>
      <trkpt lat="43.99129" lon="3.36061">
        <ele>679.3</ele>
        <time>2020-08-26T11:20:45.000Z</time>
      </trkpt>
      <trkpt lat="43.99143" lon="3.36068">
        <ele>672</ele>
        <time>2020-08-26T11:20:35.000Z</time>
      </trkpt>
      <trkpt lat="43.99157" lon="3.36073">
        <ele>672</ele>
        <time>2020-08-26T11:20:45.000Z</time>
      </trkpt>
      <trkpt lat="43.99166" lon="3.36074">
        <ele>659</ele>
        <time>2020-08-26T11:20:35.000Z</time>
      </trkpt>
      <trkpt lat="43.99179" lon="3.36078">
        <ele>664.7</ele>
        <time>2020-08-26T11:20:45.000Z</time>
      </trkpt>
      <trkpt lat="43.99192" lon="3.36078">
        <ele>655</ele>
        <time>2020-08-26T11:20:35.000Z</time>
      </trkpt>
      <trkpt lat="43.99198" lon="3.3609">
        <ele>657.2</ele>
        <time>2020-08-26T11:20:45.000Z</time>
      </trkpt>
      <trkpt lat="43.99209" lon="3.36099">
        <ele>655</ele>
        <time>2020-08-26T11:20:35.000Z</time>
      </trkpt>
      <trkpt lat="43.99221" lon="3.36104">
        <ele>653.1</ele>
        <time>2020-08-26T11:20:45.000Z</time>
      </trkpt>
      <trkpt lat="43.99242" lon="3.36104">
        <ele>656</ele>
        <time>2020-08-26T11:20:35.000Z</time>
      </trkpt>
      <trkpt lat="43.99252" lon="3.36109">
        <ele>653.8</ele>
        <time>2020-08-26T11:20:45.000Z</time>
      </trkpt>
      <trkpt lat="43.99272" lon="3.36106">
        <ele>657</ele>
        <time>2020-08-26T11:20:35.000Z</time>
      </trkpt>
      <trkpt lat="43.9929" lon="3.3611">
        <ele>654.4</ele>
        <time>2020-08-26T11:20:45.000Z</time>
      </trkpt>
      <trkpt lat="43.993" lon="3.36115">
        <ele>657</ele>
        <time>2020-08-26T11:20:35.000Z</time>
      </trkpt>
      <trkpt lat="43.99309" lon="3.36118">
        <ele>655.9</ele>
        <time>2020-08-26T11:20:45.000Z</time>
      </trkpt>
      <trkpt lat="43.99319" lon="3.36124">
        <ele>655</ele>
        <time>2020-08-26T11:20:35.000Z</time>
      </trkpt>
      <trkpt lat="43.99337" lon="3.36132">
        <ele>658.8</ele>
        <time>2020-08-26T11:20:45.000Z</time>
      </trkpt>
      <trkpt lat="43.99355" lon="3.36135">
        <ele>653</ele>
        <time>2020-08-26T11:20:35.000Z</time>
      </trkpt>
      <trkpt lat="43.99366" lon="3.36144">
        <ele>659.9</ele>
        <time>2020-08-26T11:20:45.000Z</time>
      </trkpt>
      <trkpt lat="43.99387" lon="3.36152">
        <ele>656</ele>
        <time>2020-08-26T11:20:35.000Z</time>
      </trkpt>
      <trkpt lat="43.99396" lon="3.36158">
        <ele>659.6</ele>
        <time>2020-08-26T11:20:45.000Z</time>
      </trkpt>
      <trkpt lat="43.99409" lon="3.36165">
        <ele>653</ele>
        <time>2020-08-26T11:20:35.000Z</time>
      </trkpt>
      <trkpt lat="43.99425" lon="3.36168">
        <ele>656.7</ele>
        <time>2020-08-26T11:20:45.000Z</time>
      </trkpt>
      <trkpt lat="43.99444" lon="3.36183">
        <ele>653</ele>
        <time>2020-08-26T11:20:35.000Z</time>
      </trkpt>
      <trkpt lat="43.99462" lon="3.36208">
        <ele>653</ele>
        <time>2020-08-26T11:20:35.000Z</time>
      </trkpt>
      <trkpt lat="43.99475" lon="3.36218">
        <ele>659.8</ele>
        <time>2020-08-26T11:20:45.000Z</time>
      </trkpt>
      <trkpt lat="43.99483" lon="3.36225">
        <ele>651</ele>
        <time>2020-08-26T11:20:35.000Z</time>
      </trkpt>
      <trkpt lat="43.99492" lon="3.36231">
        <ele>666.4</ele>
        <time>2020-08-26T11:20:45.000Z</time>
      </trkpt>
      <trkpt lat="43.99504" lon="3.36228">
        <ele>653</ele>
        <time>2020-08-26T11:20:35.000Z</time>
      </trkpt>
      <trkpt lat="43.99512" lon="3.36221">
        <ele>668.7</ele>
        <time>2020-08-26T11:20:45.000Z</time>
      </trkpt>
      <trkpt lat="43.99521" lon="3.36206">
        <ele>656</ele>
        <time>2020-08-26T11:20:35.000Z</time>
      </trkpt>
      <trkpt lat="43.99553" lon="3.3618">
        <ele>660</ele>
        <time>2020-08-26T11:20:35.000Z</time>
      </trkpt>
      <trkpt lat="43.99564" lon="3.36176">
        <ele>659.9</ele>
        <time>2020-08-26T11:20:45.000Z</time>
      </trkpt>
      <trkpt lat="43.99588" lon="3.36169">
        <ele>662</ele>
        <time>2020-08-26T11:20:35.000Z</time>
      </trkpt>
      <trkpt lat="43.99601" lon="3.36164">
        <ele>660.3</ele>
        <time>2020-08-26T11:20:45.000Z</time>
      </trkpt>
      <trkpt lat="43.99615" lon="3.36164">
        <ele>665</ele>
        <time>2020-08-26T11:20:35.000Z</time>
      </trkpt>
      <trkpt lat="43.99629" lon="3.36163">
        <ele>664.3</ele>
        <time>2020-08-26T11:20:45.000Z</time>
      </trkpt>
      <trkpt lat="43.99661" lon="3.36168">
        <ele>670</ele>
        <time>2020-08-26T11:20:35.000Z</time>
      </trkpt>
      <trkpt lat="43.9968" lon="3.36169">
        <ele>670.5</ele>
        <time>2020-08-26T11:20:45.000Z</time>
      </trkpt>
      <trkpt lat="43.99698" lon="3.36178">
        <ele>670</ele>
        <time>2020-08-26T11:20:35.000Z</time>
      </trkpt>
      <trkpt lat="43.9971" lon="3.36185">
        <ele>673.8</ele>
        <time>2020-08-26T11:20:45.000Z</time>
      </trkpt>
      <trkpt lat="43.99726" lon="3.36196">
        <ele>676</ele>
        <time>2020-08-26T11:20:35.000Z</time>
      </trkpt>
      <trkpt lat="43.99758" lon="3.36211">
        <ele>675</ele>
        <time>2020-08-26T11:20:35.000Z</time>
      </trkpt>
      <trkpt lat="43.99773" lon="3.3622">
        <ele>672.5</ele>
        <time>2020-08-26T11:20:45.000Z</time>
      </trkpt>
      <trkpt lat="43.99784" lon="3.36215">
        <ele>675</ele>
        <time>2020-08-26T11:20:35.000Z</time>
      </trkpt>
      <trkpt lat="43.99794" lon="3.36218">
        <ele>671.7</ele>
        <time>2020-08-26T11:20:45.000Z</time>
      </trkpt>
      <trkpt lat="43.99823" lon="3.36222">
        <ele>675</ele>
        <time>2020-08-26T11:20:35.000Z</time>
      </trkpt>
      <trkpt lat="43.99838" lon="3.36226">
        <ele>674.7</ele>
        <time>2020-08-26T11:20:45.000Z</time>
      </trkpt>
      <trkpt lat="43.99851" lon="3.36233">
        <ele>676</ele>
        <time>2020-08-26T11:20:35.000Z</time>
      </trkpt>
      <trkpt lat="43.9986" lon="3.36236">
        <ele>677</ele>
        <time>2020-08-26T11:20:45.000Z</time>
      </trkpt>
      <trkpt lat="43.99871" lon="3.36244">
        <ele>678</ele>
        <time>2020-08-26T11:20:35.000Z</time>
      </trkpt>
      <trkpt lat="43.99884" lon="3.36246">
        <ele>679.7</ele>
        <time>2020-08-26T11:20:45.000Z</time>
      </trkpt>
      <trkpt lat="43.99893" lon="3.36249">
        <ele>679</ele>
        <time>2020-08-26T11:20:35.000Z</time>
      </trkpt>
      <trkpt lat="43.99908" lon="3.36258">
        <ele>680.6</ele>
        <time>2020-08-26T11:20:45.000Z</time>
      </trkpt>
      <trkpt lat="43.99918" lon="3.36261">
        <ele>680</ele>
        <time>2020-08-26T11:20:35.000Z</time>
      </trkpt>
      <trkpt lat="43.99927" lon="3.36271">
        <ele>682.8</ele>
        <time>2020-08-26T11:20:45.000Z</time>
      </trkpt>
      <trkpt lat="43.99941" lon="3.36279">
        <ele>683</ele>
        <time>2020-08-26T11:20:35.000Z</time>
      </trkpt>
      <trkpt lat="43.99954" lon="3.36279">
        <ele>686.3</ele>
        <time>2020-08-26T11:20:45.000Z</time>
      </trkpt>
      <trkpt lat="43.99965" lon="3.36275">
        <ele>686</ele>
        <time>2020-08-26T11:20:35.000Z</time>
      </trkpt>
      <trkpt lat="43.9998" lon="3.36277">
        <ele>687.8</ele>
        <time>2020-08-26T11:20:45.000Z</time>
      </trkpt>
      <trkpt lat="43.99998" lon="3.36274">
        <ele>686</ele>
        <time>2020-08-26T11:20:35.000Z</time>
      </trkpt>
      <trkpt lat="44.00009" lon="3.36274">
        <ele>687.4</ele>
        <time>2020-08-26T11:20:45.000Z</time>
      </trkpt>
      <trkpt lat="44.00019" lon="3.36273">
        <ele>686</ele>
        <time>2020-08-26T11:20:35.000Z</time>
      </trkpt>
      <trkpt lat="44.00049" lon="3.36273">
        <ele>685</ele>
        <time>2020-08-26T11:20:35.000Z</time>
      </trkpt>
      <trkpt lat="44.00072" lon="3.36275">
        <ele>683</ele>
        <time>2020-08-26T11:20:35.000Z</time>
      </trkpt>
      <trkpt lat="44.00095" lon="3.36279">
        <ele>683</ele>
        <time>2020-08-26T11:20:35.000Z</time>
      </trkpt>
      <trkpt lat="44.00107" lon="3.36279">
        <ele>688.2</ele>
        <time>2020-08-26T11:20:45.000Z</time>
      </trkpt>
      <trkpt lat="44.00121" lon="3.36272">
        <ele>684</ele>
        <time>2020-08-26T11:20:35.000Z</time>
      </trkpt>
      <trkpt lat="44.00136" lon="3.36269">
        <ele>686.7</ele>
        <time>2020-08-26T11:20:45.000Z</time>
      </trkpt>
      <trkpt lat="44.00161" lon="3.36273">
        <ele>685</ele>
        <time>2020-08-26T11:20:35.000Z</time>
      </trkpt>
      <trkpt lat="44.00169" lon="3.3628">
        <ele>691.2</ele>
        <time>2020-08-26T11:20:45.000Z</time>
      </trkpt>
      <trkpt lat="44.00183" lon="3.36285">
        <ele>685</ele>
        <time>2020-08-26T11:20:35.000Z</time>
      </trkpt>
      <trkpt lat="44.00195" lon="3.36287">
        <ele>690.3</ele>
        <time>2020-08-26T11:20:45.000Z</time>
      </trkpt>
      <trkpt lat="44.00207" lon="3.36291">
        <ele>685</ele>
        <time>2020-08-26T11:20:35.000Z</time>
      </trkpt>
      <trkpt lat="44.00219" lon="3.36292">
        <ele>686.3</ele>
        <time>2020-08-26T11:20:45.000Z</time>
      </trkpt>
      <trkpt lat="44.00235" lon="3.36291">
        <ele>681</ele>
        <time>2020-08-26T11:20:35.000Z</time>
      </trkpt>
      <trkpt lat="44.0025" lon="3.36286">
        <ele>681.6</ele>
        <time>2020-08-26T11:20:45.000Z</time>
      </trkpt>
      <trkpt lat="44.00274" lon="3.36268">
        <ele>673</ele>
        <time>2020-08-26T11:20:35.000Z</time>
      </trkpt>
      <trkpt lat="44.00298" lon="3.36253">
        <ele>673</ele>
        <time>2020-08-26T11:20:35.000Z</time>
      </trkpt>
      <trkpt lat="44.00335" lon="3.36244">
        <ele>670</ele>
        <time>2020-08-26T11:20:35.000Z</time>
      </trkpt>
      <trkpt lat="44.00369" lon="3.36229">
        <ele>667</ele>
        <time>2020-08-26T11:20:35.000Z</time>
      </trkpt>
      <trkpt lat="44.00388" lon="3.36223">
        <ele>673</ele>
        <time>2020-08-26T11:20:35.000Z</time>
      </trkpt>
      <trkpt lat="44.00421" lon="3.36207">
        <ele>672</ele>
        <time>2020-08-26T11:20:35.000Z</time>
      </trkpt>
      <trkpt lat="44.00439" lon="3.36201">
        <ele>671.6</ele>
        <time>2020-08-26T11:20:45.000Z</time>
      </trkpt>
      <trkpt lat="44.00457" lon="3.36198">
        <ele>672</ele>
        <time>2020-08-26T11:20:35.000Z</time>
      </trkpt>
      <trkpt lat="44.00469" lon="3.36193">
        <ele>671</ele>
        <time>2020-08-26T11:20:45.000Z</time>
      </trkpt>
      <trkpt lat="44.00489" lon="3.36183">
        <ele>666</ele>
        <time>2020-08-26T11:20:35.000Z</time>
      </trkpt>
      <trkpt lat="44.00503" lon="3.36178">
        <ele>671.4</ele>
        <time>2020-08-26T11:20:45.000Z</time>
      </trkpt>
      <trkpt lat="44.00522" lon="3.36169">
        <ele>661</ele>
        <time>2020-08-26T11:20:35.000Z</time>
      </trkpt>
      <trkpt lat="44.00532" lon="3.36166">
        <ele>671.4</ele>
        <time>2020-08-26T11:20:45.000Z</time>
      </trkpt>
      <trkpt lat="44.00542" lon="3.36162">
        <ele>661</ele>
        <time>2020-08-26T11:20:35.000Z</time>
      </trkpt>
      <trkpt lat="44.00571" lon="3.36145">
        <ele>674</ele>
        <time>2020-08-26T11:20:35.000Z</time>
      </trkpt>
      <trkpt lat="44.00599" lon="3.36124">
        <ele>678</ele>
        <time>2020-08-26T11:20:35.000Z</time>
      </trkpt>
      <trkpt lat="44.00612" lon="3.36119">
        <ele>669.4</ele>
        <time>2020-08-26T11:20:45.000Z</time>
      </trkpt>
      <trkpt lat="44.00623" lon="3.36118">
        <ele>677</ele>
        <time>2020-08-26T11:20:35.000Z</time>
      </trkpt>
      <trkpt lat="44.00654" lon="3.36113">
        <ele>677</ele>
        <time>2020-08-26T11:20:35.000Z</time>
      </trkpt>
      <trkpt lat="44.00674" lon="3.36114">
        <ele>677</ele>
        <time>2020-08-26T11:20:35.000Z</time>
      </trkpt>
      <trkpt lat="44.00685" lon="3.36117">
        <ele>666.3</ele>
        <time>2020-08-26T11:20:45.000Z</time>
      </trkpt>
      <trkpt lat="44.00731" lon="3.36126">
        <ele>677</ele>
        <time>2020-08-26T11:20:35.000Z</time>
      </trkpt>
      <trkpt lat="44.00746" lon="3.36125">
        <ele>663.1</ele>
        <time>2020-08-26T11:20:45.000Z</time>
      </trkpt>
      <trkpt lat="44.00759" lon="3.36127">
        <ele>675</ele>
        <time>2020-08-26T11:20:35.000Z</time>
      </trkpt>
      <trkpt lat="44.00786" lon="3.36137">
        <ele>662</ele>
        <time>2020-08-26T11:20:35.000Z</time>
      </trkpt>
      <trkpt lat="44.00797" lon="3.36139">
        <ele>661</ele>
        <time>2020-08-26T11:20:45.000Z</time>
      </trkpt>
      <trkpt lat="44.00826" lon="3.36147">
        <ele>661</ele>
        <time>2020-08-26T11:20:35.000Z</time>
      </trkpt>
      <trkpt lat="44.00841" lon="3.36153">
        <ele>658.8</ele>
        <time>2020-08-26T11:20:45.000Z</time>
      </trkpt>
      <trkpt lat="44.00871" lon="3.3617">
        <ele>662</ele>
        <time>2020-08-26T11:20:35.000Z</time>
      </trkpt>
      <trkpt lat="44.00898" lon="3.36189">
        <ele>661</ele>
        <time>2020-08-26T11:20:35.000Z</time>
      </trkpt>
      <trkpt lat="44.00906" lon="3.36198">
        <ele>660.5</ele>
        <time>2020-08-26T11:20:45.000Z</time>
      </trkpt>
      <trkpt lat="44.0093" lon="3.36211">
        <ele>660</ele>
        <time>2020-08-26T11:20:35.000Z</time>
      </trkpt>
      <trkpt lat="44.00942" lon="3.3622">
        <ele>660.3</ele>
        <time>2020-08-26T11:20:45.000Z</time>
      </trkpt>
      <trkpt lat="44.00964" lon="3.36225">
        <ele>657</ele>
        <time>2020-08-26T11:20:35.000Z</time>
      </trkpt>
      <trkpt lat="44.00974" lon="3.36228">
        <ele>658.5</ele>
        <time>2020-08-26T11:20:45.000Z</time>
      </trkpt>
      <trkpt lat="44.00988" lon="3.36229">
        <ele>657</ele>
        <time>2020-08-26T11:20:35.000Z</time>
      </trkpt>
      <trkpt lat="44.01002" lon="3.36229">
        <ele>654.3</ele>
        <time>2020-08-26T11:20:45.000Z</time>
      </trkpt>
      <trkpt lat="44.01022" lon="3.36231">
        <ele>648</ele>
        <time>2020-08-26T11:20:35.000Z</time>
      </trkpt>
      <trkpt lat="44.01033" lon="3.36235">
        <ele>648.9</ele>
        <time>2020-08-26T11:20:45.000Z</time>
      </trkpt>
      <trkpt lat="44.01047" lon="3.36236">
        <ele>648</ele>
        <time>2020-08-26T11:20:35.000Z</time>
      </trkpt>
      <trkpt lat="44.01086" lon="3.36234">
        <ele>642</ele>
        <time>2020-08-26T11:20:35.000Z</time>
      </trkpt>
      <trkpt lat="44.011" lon="3.36238">
        <ele>644.7</ele>
        <time>2020-08-26T11:20:45.000Z</time>
      </trkpt>
      <trkpt lat="44.01117" lon="3.36241">
        <ele>640</ele>
        <time>2020-08-26T11:20:35.000Z</time>
      </trkpt>
      <trkpt lat="44.0115" lon="3.36242">
        <ele>638</ele>
        <time>2020-08-26T11:20:35.000Z</time>
      </trkpt>
      <trkpt lat="44.01164" lon="3.36241">
        <ele>641.5</ele>
        <time>2020-08-26T11:20:45.000Z</time>
      </trkpt>
      <trkpt lat="44.0119" lon="3.36249">
        <ele>628</ele>
        <time>2020-08-26T11:20:35.000Z</time>
      </trkpt>
      <trkpt lat="44.01215" lon="3.36255">
        <ele>621</ele>
        <time>2020-08-26T11:20:35.000Z</time>
      </trkpt>
      <trkpt lat="44.01226" lon="3.36261">
        <ele>634.1</ele>
        <time>2020-08-26T11:20:45.000Z</time>
      </trkpt>
      <trkpt lat="44.01236" lon="3.36265">
        <ele>621</ele>
        <time>2020-08-26T11:20:35.000Z</time>
      </trkpt>
      <trkpt lat="44.01252" lon="3.36263">
        <ele>630</ele>
        <time>2020-08-26T11:20:45.000Z</time>
      </trkpt>
      <trkpt lat="44.01271" lon="3.36263">
        <ele>615</ele>
        <time>2020-08-26T11:20:35.000Z</time>
      </trkpt>
      <trkpt lat="44.01284" lon="3.36265">
        <ele>625</ele>
        <time>2020-08-26T11:20:45.000Z</time>
      </trkpt>
      <trkpt lat="44.01314" lon="3.36265">
        <ele>609</ele>
        <time>2020-08-26T11:20:35.000Z</time>
      </trkpt>
      <trkpt lat="44.01331" lon="3.36269">
        <ele>617.8</ele>
        <time>2020-08-26T11:20:45.000Z</time>
      </trkpt>
      <trkpt lat="44.01351" lon="3.36267">
        <ele>602</ele>
        <time>2020-08-26T11:20:35.000Z</time>
      </trkpt>
      <trkpt lat="44.01363" lon="3.3626">
        <ele>611.6</ele>
        <time>2020-08-26T11:20:45.000Z</time>
      </trkpt>
      <trkpt lat="44.01376" lon="3.36261">
        <ele>602</ele>
        <time>2020-08-26T11:20:35.000Z</time>
      </trkpt>
      <trkpt lat="44.01387" lon="3.36258">
        <ele>608.4</ele>
        <time>2020-08-26T11:20:45.000Z</time>
      </trkpt>
      <trkpt lat="44.01413" lon="3.36247">
        <ele>595</ele>
        <time>2020-08-26T11:20:35.000Z</time>
      </trkpt>
      <trkpt lat="44.01426" lon="3.36243">
        <ele>604.5</ele>
        <time>2020-08-26T11:20:45.000Z</time>
      </trkpt>
      <trkpt lat="44.01445" lon="3.36238">
        <ele>591</ele>
        <time>2020-08-26T11:20:35.000Z</time>
      </trkpt>
      <trkpt lat="44.01476" lon="3.36233">
        <ele>590</ele>
        <time>2020-08-26T11:20:35.000Z</time>
      </trkpt>
      <trkpt lat="44.0149" lon="3.3623">
        <ele>601.4</ele>
        <time>2020-08-26T11:20:45.000Z</time>
      </trkpt>
      <trkpt lat="44.01502" lon="3.36225">
        <ele>590</ele>
        <time>2020-08-26T11:20:35.000Z</time>
      </trkpt>
      <trkpt lat="44.01527" lon="3.36222">
        <ele>590</ele>
        <time>2020-08-26T11:20:35.000Z</time>
      </trkpt>
      <trkpt lat="44.01544" lon="3.36222">
        <ele>600.4</ele>
        <time>2020-08-26T11:20:45.000Z</time>
      </trkpt>
      <trkpt lat="44.0156" lon="3.36223">
        <ele>587</ele>
        <time>2020-08-26T11:20:35.000Z</time>
      </trkpt>
      <trkpt lat="44.01575" lon="3.36222">
        <ele>597.8</ele>
        <time>2020-08-26T11:20:45.000Z</time>
      </trkpt>
      <trkpt lat="44.0161" lon="3.36214">
        <ele>583</ele>
        <time>2020-08-26T11:20:35.000Z</time>
      </trkpt>
      <trkpt lat="44.01636" lon="3.36211">
        <ele>582</ele>
        <time>2020-08-26T11:20:35.000Z</time>
      </trkpt>
      <trkpt lat="44.01651" lon="3.3621">
        <ele>588.4</ele>
        <time>2020-08-26T11:20:45.000Z</time>
      </trkpt>
      <trkpt lat="44.01679" lon="3.36205">
        <ele>581</ele>
        <time>2020-08-26T11:20:35.000Z</time>
      </trkpt>
      <trkpt lat="44.01688" lon="3.36205">
        <ele>584.3</ele>
        <time>2020-08-26T11:20:45.000Z</time>
      </trkpt>
      <trkpt lat="44.01703" lon="3.36207">
        <ele>580</ele>
        <time>2020-08-26T11:20:35.000Z</time>
      </trkpt>
      <trkpt lat="44.01716" lon="3.36206">
        <ele>581.6</ele>
        <time>2020-08-26T11:20:45.000Z</time>
      </trkpt>
      <trkpt lat="44.01729" lon="3.36209">
        <ele>577</ele>
        <time>2020-08-26T11:20:35.000Z</time>
      </trkpt>
      <trkpt lat="44.01748" lon="3.36207">
        <ele>576.9</ele>
        <time>2020-08-26T11:20:45.000Z</time>
      </trkpt>
      <trkpt lat="44.01774" lon="3.36207">
        <ele>558</ele>
        <time>2020-08-26T11:20:35.000Z</time>
      </trkpt>
      <trkpt lat="44.01785" lon="3.36208">
        <ele>569.6</ele>
        <time>2020-08-26T11:20:45.000Z</time>
      </trkpt>
      <trkpt lat="44.01795" lon="3.36208">
        <ele>558</ele>
        <time>2020-08-26T11:20:35.000Z</time>
      </trkpt>
      <trkpt lat="44.01811" lon="3.36211">
        <ele>564.4</ele>
        <time>2020-08-26T11:20:45.000Z</time>
      </trkpt>
      <trkpt lat="44.01823" lon="3.3621">
        <ele>549</ele>
        <time>2020-08-26T11:20:35.000Z</time>
      </trkpt>
      <trkpt lat="44.01832" lon="3.36208">
        <ele>560.8</ele>
        <time>2020-08-26T11:20:45.000Z</time>
      </trkpt>
      <trkpt lat="44.01861" lon="3.36212">
        <ele>548</ele>
        <time>2020-08-26T11:20:35.000Z</time>
      </trkpt>
      <trkpt lat="44.01878" lon="3.36212">
        <ele>551.4</ele>
        <time>2020-08-26T11:20:45.000Z</time>
      </trkpt>
      <trkpt lat="44.01895" lon="3.3621">
        <ele>540</ele>
        <time>2020-08-26T11:20:35.000Z</time>
      </trkpt>
      <trkpt lat="44.01911" lon="3.36209">
        <ele>545.4</ele>
        <time>2020-08-26T11:20:45.000Z</time>
      </trkpt>
      <trkpt lat="44.01925" lon="3.3621">
        <ele>534</ele>
        <time>2020-08-26T11:20:35.000Z</time>
      </trkpt>
      <trkpt lat="44.01937" lon="3.36214">
        <ele>541.9</ele>
        <time>2020-08-26T11:20:45.000Z</time>
      </trkpt>
      <trkpt lat="44.01935" lon="3.36234">
        <ele>534</ele>
        <time>2020-08-26T11:20:35.000Z</time>
      </trkpt>
      <trkpt lat="44.0193" lon="3.36261">
        <ele>534</ele>
        <time>2020-08-26T11:20:35.000Z</time>
      </trkpt>
      <trkpt lat="44.01942" lon="3.36266">
        <ele>539.9</ele>
        <time>2020-08-26T11:20:45.000Z</time>
      </trkpt>
      <trkpt lat="44.01951" lon="3.36273">
        <ele>534</ele>
        <time>2020-08-26T11:20:35.000Z</time>
      </trkpt>
      <trkpt lat="44.01965" lon="3.36268">
        <ele>537.1</ele>
        <time>2020-08-26T11:20:45.000Z</time>
      </trkpt>
      <trkpt lat="44.01977" lon="3.36279">
        <ele>530</ele>
        <time>2020-08-26T11:20:35.000Z</time>
      </trkpt>
      <trkpt lat="44.01984" lon="3.36292">
        <ele>533.7</ele>
        <time>2020-08-26T11:20:45.000Z</time>
      </trkpt>
      <trkpt lat="44.01978" lon="3.36302">
        <ele>532</ele>
        <time>2020-08-26T11:20:35.000Z</time>
      </trkpt>
      <trkpt lat="44.01965" lon="3.3631">
        <ele>534.5</ele>
        <time>2020-08-26T11:20:45.000Z</time>
      </trkpt>
      <trkpt lat="44.01944" lon="3.36321">
        <ele>535</ele>
        <time>2020-08-26T11:20:35.000Z</time>
      </trkpt>
      <trkpt lat="44.01928" lon="3.36327">
        <ele>536.5</ele>
        <time>2020-08-26T11:20:45.000Z</time>
      </trkpt>
      <trkpt lat="44.01905" lon="3.36348">
        <ele>534</ele>
        <time>2020-08-26T11:20:35.000Z</time>
      </trkpt>
      <trkpt lat="44.01901" lon="3.36363">
        <ele>533.4</ele>
        <time>2020-08-26T11:20:45.000Z</time>
      </trkpt>
      <trkpt lat="44.01898" lon="3.36387">
        <ele>534</ele>
        <time>2020-08-26T11:20:35.000Z</time>
      </trkpt>
      <trkpt lat="44.01885" lon="3.36411">
        <ele>535</ele>
        <time>2020-08-26T11:20:35.000Z</time>
      </trkpt>
      <trkpt lat="44.0186" lon="3.36451">
        <ele>538</ele>
        <time>2020-08-26T11:20:35.000Z</time>
      </trkpt>
      <trkpt lat="44.01842" lon="3.36466">
        <ele>538</ele>
        <time>2020-08-26T11:20:35.000Z</time>
      </trkpt>
      <trkpt lat="44.01832" lon="3.36476">
        <ele>543.7</ele>
        <time>2020-08-26T11:20:45.000Z</time>
      </trkpt>
      <trkpt lat="44.01843" lon="3.36493">
        <ele>543</ele>
        <time>2020-08-26T11:20:35.000Z</time>
      </trkpt>
      <trkpt lat="44.01855" lon="3.3651">
        <ele>547.8</ele>
        <time>2020-08-26T11:20:45.000Z</time>
      </trkpt>
      <trkpt lat="44.01868" lon="3.36524">
        <ele>551</ele>
        <time>2020-08-26T11:20:35.000Z</time>
      </trkpt>
      <trkpt lat="44.01876" lon="3.36538">
        <ele>550.6</ele>
        <time>2020-08-26T11:20:45.000Z</time>
      </trkpt>
      <trkpt lat="44.01884" lon="3.36554">
        <ele>554</ele>
        <time>2020-08-26T11:20:35.000Z</time>
      </trkpt>
      <trkpt lat="44.01893" lon="3.36565">
        <ele>551</ele>
        <time>2020-08-26T11:20:45.000Z</time>
      </trkpt>
      <trkpt lat="44.01901" lon="3.36576">
        <ele>554</ele>
        <time>2020-08-26T11:20:35.000Z</time>
      </trkpt>
      <trkpt lat="44.01885" lon="3.3658">
        <ele>555.8</ele>
        <time>2020-08-26T11:20:45.000Z</time>
      </trkpt>
      <trkpt lat="44.01862" lon="3.36577">
        <ele>561</ele>
        <time>2020-08-26T11:20:35.000Z</time>
      </trkpt>
      <trkpt lat="44.01847" lon="3.36579">
        <ele>567.3</ele>
        <time>2020-08-26T11:20:45.000Z</time>
      </trkpt>
      <trkpt lat="44.01838" lon="3.36584">
        <ele>566</ele>
        <time>2020-08-26T11:20:35.000Z</time>
      </trkpt>
      <trkpt lat="44.01813" lon="3.36601">
        <ele>578</ele>
        <time>2020-08-26T11:20:35.000Z</time>
      </trkpt>
      <trkpt lat="44.01801" lon="3.36613">
        <ele>583.3</ele>
        <time>2020-08-26T11:20:45.000Z</time>
      </trkpt>
      <trkpt lat="44.01793" lon="3.36632">
        <ele>587</ele>
        <time>2020-08-26T11:20:35.000Z</time>
      </trkpt>
      <trkpt lat="44.01788" lon="3.36648">
        <ele>587.3</ele>
        <time>2020-08-26T11:20:45.000Z</time>
      </trkpt>
      <trkpt lat="44.01779" lon="3.36666">
        <ele>588</ele>
        <time>2020-08-26T11:20:35.000Z</time>
      </trkpt>
      <trkpt lat="44.01772" lon="3.36675">
        <ele>590.5</ele>
        <time>2020-08-26T11:20:45.000Z</time>
      </trkpt>
      <trkpt lat="44.01764" lon="3.3669">
        <ele>592</ele>
        <time>2020-08-26T11:20:35.000Z</time>
      </trkpt>
      <trkpt lat="44.01755" lon="3.36704">
        <ele>594.2</ele>
        <time>2020-08-26T11:20:45.000Z</time>
      </trkpt>
      <trkpt lat="44.01743" lon="3.36711">
        <ele>594</ele>
        <time>2020-08-26T11:20:35.000Z</time>
      </trkpt>
      <trkpt lat="44.01728" lon="3.36716">
        <ele>599.4</ele>
        <time>2020-08-26T11:20:45.000Z</time>
      </trkpt>
      <trkpt lat="44.01718" lon="3.36724">
        <ele>599</ele>
        <time>2020-08-26T11:20:35.000Z</time>
      </trkpt>
      <trkpt lat="44.017" lon="3.36742">
        <ele>607</ele>
        <time>2020-08-26T11:20:35.000Z</time>
      </trkpt>
      <trkpt lat="44.01686" lon="3.36758">
        <ele>610.6</ele>
        <time>2020-08-26T11:20:45.000Z</time>
      </trkpt>
      <trkpt lat="44.01669" lon="3.36773">
        <ele>618</ele>
        <time>2020-08-26T11:20:35.000Z</time>
      </trkpt>
      <trkpt lat="44.01659" lon="3.36785">
        <ele>616.7</ele>
        <time>2020-08-26T11:20:45.000Z</time>
      </trkpt>
      <trkpt lat="44.01649" lon="3.368">
        <ele>620</ele>
        <time>2020-08-26T11:20:35.000Z</time>
      </trkpt>
      <trkpt lat="44.01634" lon="3.36838">
        <ele>622</ele>
        <time>2020-08-26T11:20:35.000Z</time>
      </trkpt>
      <trkpt lat="44.01622" lon="3.36861">
        <ele>632</ele>
        <time>2020-08-26T11:20:35.000Z</time>
      </trkpt>
      <trkpt lat="44.01611" lon="3.3688">
        <ele>630.7</ele>
        <time>2020-08-26T11:20:45.000Z</time>
      </trkpt>
      <trkpt lat="44.01606" lon="3.36894">
        <ele>638</ele>
        <time>2020-08-26T11:20:35.000Z</time>
      </trkpt>
      <trkpt lat="44.01599" lon="3.36909">
        <ele>634.3</ele>
        <time>2020-08-26T11:20:45.000Z</time>
      </trkpt>
      <trkpt lat="44.01589" lon="3.36947">
        <ele>642</ele>
        <time>2020-08-26T11:20:35.000Z</time>
      </trkpt>
      <trkpt lat="44.01578" lon="3.36952">
        <ele>640.7</ele>
        <time>2020-08-26T11:20:45.000Z</time>
      </trkpt>
      <trkpt lat="44.01569" lon="3.36936">
        <ele>645</ele>
        <time>2020-08-26T11:20:35.000Z</time>
      </trkpt>
      <trkpt lat="44.01566" lon="3.36916">
        <ele>641.7</ele>
        <time>2020-08-26T11:20:45.000Z</time>
      </trkpt>
      <trkpt lat="44.01549" lon="3.36918">
        <ele>647</ele>
        <time>2020-08-26T11:20:35.000Z</time>
      </trkpt>
      <trkpt lat="44.01537" lon="3.36926">
        <ele>649.1</ele>
        <time>2020-08-26T11:20:45.000Z</time>
      </trkpt>
      <trkpt lat="44.01525" lon="3.3694">
        <ele>651</ele>
        <time>2020-08-26T11:20:35.000Z</time>
      </trkpt>
      <trkpt lat="44.01494" lon="3.36968">
        <ele>659</ele>
        <time>2020-08-26T11:20:35.000Z</time>
      </trkpt>
      <trkpt lat="44.01488" lon="3.3698">
        <ele>665.7</ele>
        <time>2020-08-26T11:20:45.000Z</time>
      </trkpt>
      <trkpt lat="44.01473" lon="3.37003">
        <ele>666</ele>
        <time>2020-08-26T11:20:35.000Z</time>
      </trkpt>
      <trkpt lat="44.0146" lon="3.37019">
        <ele>673.7</ele>
        <time>2020-08-26T11:20:45.000Z</time>
      </trkpt>
      <trkpt lat="44.01435" lon="3.37045">
        <ele>670</ele>
        <time>2020-08-26T11:20:35.000Z</time>
      </trkpt>
      <trkpt lat="44.01424" lon="3.37054">
        <ele>681.4</ele>
        <time>2020-08-26T11:20:45.000Z</time>
      </trkpt>
      <trkpt lat="44.01415" lon="3.37065">
        <ele>674</ele>
        <time>2020-08-26T11:20:35.000Z</time>
      </trkpt>
      <trkpt lat="44.01395" lon="3.37086">
        <ele>674</ele>
        <time>2020-08-26T11:20:35.000Z</time>
      </trkpt>
      <trkpt lat="44.01383" lon="3.37102">
        <ele>688.6</ele>
        <time>2020-08-26T11:20:45.000Z</time>
      </trkpt>
      <trkpt lat="44.01368" lon="3.37117">
        <ele>679</ele>
        <time>2020-08-26T11:20:35.000Z</time>
      </trkpt>
      <trkpt lat="44.01355" lon="3.37126">
        <ele>691.9</ele>
        <time>2020-08-26T11:20:45.000Z</time>
      </trkpt>
      <trkpt lat="44.01313" lon="3.37161">
        <ele>682</ele>
        <time>2020-08-26T11:20:35.000Z</time>
      </trkpt>
      <trkpt lat="44.01304" lon="3.37166">
        <ele>695.8</ele>
        <time>2020-08-26T11:20:45.000Z</time>
      </trkpt>
      <trkpt lat="44.01288" lon="3.37178">
        <ele>685</ele>
        <time>2020-08-26T11:20:35.000Z</time>
      </trkpt>
      <trkpt lat="44.01267" lon="3.37195">
        <ele>687</ele>
        <time>2020-08-26T11:20:35.000Z</time>
      </trkpt>
      <trkpt lat="44.0125" lon="3.37204">
        <ele>701</ele>
        <time>2020-08-26T11:20:45.000Z</time>
      </trkpt>
      <trkpt lat="44.0124" lon="3.37206">
        <ele>687</ele>
        <time>2020-08-26T11:20:35.000Z</time>
      </trkpt>
      <trkpt lat="44.01222" lon="3.37204">
        <ele>706</ele>
        <time>2020-08-26T11:20:45.000Z</time>
      </trkpt>
      <trkpt lat="44.01202" lon="3.37198">
        <ele>707</ele>
        <time>2020-08-26T11:20:35.000Z</time>
      </trkpt>
      <trkpt lat="44.01182" lon="3.37201">
        <ele>708</ele>
        <time>2020-08-26T11:20:35.000Z</time>
      </trkpt>
      <trkpt lat="44.0117" lon="3.37206">
        <ele>714.6</ele>
        <time>2020-08-26T11:20:45.000Z</time>
      </trkpt>
      <trkpt lat="44.01158" lon="3.37214">
        <ele>713</ele>
        <time>2020-08-26T11:20:35.000Z</time>
      </trkpt>
      <trkpt lat="44.01147" lon="3.37223">
        <ele>717.8</ele>
        <time>2020-08-26T11:20:45.000Z</time>
      </trkpt>
      <trkpt lat="44.01133" lon="3.37238">
        <ele>713</ele>
        <time>2020-08-26T11:20:35.000Z</time>
      </trkpt>
      <trkpt lat="44.01117" lon="3.37253">
        <ele>722.2</ele>
        <time>2020-08-26T11:20:45.000Z</time>
      </trkpt>
      <trkpt lat="44.01109" lon="3.37264">
        <ele>716</ele>
        <time>2020-08-26T11:20:35.000Z</time>
      </trkpt>
      <trkpt lat="44.01085" lon="3.37289">
        <ele>716</ele>
        <time>2020-08-26T11:20:35.000Z</time>
      </trkpt>
      <trkpt lat="44.01074" lon="3.37304">
        <ele>727.5</ele>
        <time>2020-08-26T11:20:45.000Z</time>
      </trkpt>
      <trkpt lat="44.01059" lon="3.37317">
        <ele>722</ele>
        <time>2020-08-26T11:20:35.000Z</time>
      </trkpt>
      <trkpt lat="44.01049" lon="3.37322">
        <ele>729.1</ele>
        <time>2020-08-26T11:20:45.000Z</time>
      </trkpt>
      <trkpt lat="44.01032" lon="3.37329">
        <ele>722</ele>
        <time>2020-08-26T11:20:35.000Z</time>
      </trkpt>
      <trkpt lat="44.01011" lon="3.37348">
        <ele>723</ele>
        <time>2020-08-26T11:20:45.000Z</time>
      </trkpt>
      <trkpt lat="44.0099" lon="3.37367">
        <ele>726</ele>
        <time>2020-08-26T11:20:35.000Z</time>
      </trkpt>
      <trkpt lat="44.00981" lon="3.37374">
        <ele>735.9</ele>
        <time>2020-08-26T11:20:45.000Z</time>
      </trkpt>
      <trkpt lat="44.00968" lon="3.37376">
        <ele>726</ele>
        <time>2020-08-26T11:20:35.000Z</time>
      </trkpt>
      <trkpt lat="44.00955" lon="3.37377">
        <ele>738.8</ele>
        <time>2020-08-26T11:20:45.000Z</time>
      </trkpt>
      <trkpt lat="44.00941" lon="3.3738">
        <ele>729</ele>
        <time>2020-08-26T11:20:35.000Z</time>
      </trkpt>
      <trkpt lat="44.0093" lon="3.37385">
        <ele>741.2</ele>
        <time>2020-08-26T11:20:45.000Z</time>
      </trkpt>
      <trkpt lat="44.00909" lon="3.37393">
        <ele>729</ele>
        <time>2020-08-26T11:20:35.000Z</time>
      </trkpt>
      <trkpt lat="44.00883" lon="3.37401">
        <ele>729</ele>
        <time>2020-08-26T11:20:45.000Z</time>
      </trkpt>
      <trkpt lat="44.00849" lon="3.37411">
        <ele>733</ele>
        <time>2020-08-26T11:20:35.000Z</time>
      </trkpt>
      <trkpt lat="44.0083" lon="3.37418">
        <ele>733</ele>
        <time>2020-08-26T11:20:35.000Z</time>
      </trkpt>
      <trkpt lat="44.00822" lon="3.37429">
        <ele>748.1</ele>
        <time>2020-08-26T11:20:45.000Z</time>
      </trkpt>
      <trkpt lat="44.00809" lon="3.37436">
        <ele>735</ele>
        <time>2020-08-26T11:20:35.000Z</time>
      </trkpt>
      <trkpt lat="44.00789" lon="3.37449">
        <ele>740</ele>
        <time>2020-08-26T11:20:35.000Z</time>
      </trkpt>
      <trkpt lat="44.00777" lon="3.37453">
        <ele>753.9</ele>
        <time>2020-08-26T11:20:45.000Z</time>
      </trkpt>
      <trkpt lat="44.0076" lon="3.37454">
        <ele>744</ele>
        <time>2020-08-26T11:20:35.000Z</time>
      </trkpt>
      <trkpt lat="44.00744" lon="3.37453">
        <ele>756.9</ele>
        <time>2020-08-26T11:20:45.000Z</time>
      </trkpt>
      <trkpt lat="44.00728" lon="3.37451">
        <ele>746</ele>
        <time>2020-08-26T11:20:35.000Z</time>
      </trkpt>
      <trkpt lat="44.00712" lon="3.37458">
        <ele>760.3</ele>
        <time>2020-08-26T11:20:45.000Z</time>
      </trkpt>
      <trkpt lat="44.00695" lon="3.37455">
        <ele>750</ele>
        <time>2020-08-26T11:20:35.000Z</time>
      </trkpt>
      <trkpt lat="44.00682" lon="3.37451">
        <ele>762.6</ele>
        <time>2020-08-26T11:20:45.000Z</time>
      </trkpt>
      <trkpt lat="44.00673" lon="3.37446">
        <ele>753</ele>
        <time>2020-08-26T11:20:35.000Z</time>
      </trkpt>
      <trkpt lat="44.00662" lon="3.37444">
        <ele>763.5</ele>
        <time>2020-08-26T11:20:45.000Z</time>
      </trkpt>
      <trkpt lat="44.00639" lon="3.37443">
        <ele>755</ele>
        <time>2020-08-26T11:20:35.000Z</time>
      </trkpt>
      <trkpt lat="44.00621" lon="3.37447">
        <ele>766.5</ele>
        <time>2020-08-26T11:20:45.000Z</time>
      </trkpt>
      <trkpt lat="44.00604" lon="3.37447">
        <ele>757</ele>
        <time>2020-08-26T11:20:35.000Z</time>
      </trkpt>
      <trkpt lat="44.00586" lon="3.3745">
        <ele>769.7</ele>
        <time>2020-08-26T11:20:45.000Z</time>
      </trkpt>
      <trkpt lat="44.00564" lon="3.37448">
        <ele>762</ele>
        <time>2020-08-26T11:20:35.000Z</time>
      </trkpt>
      <trkpt lat="44.00555" lon="3.37446">
        <ele>772.8</ele>
        <time>2020-08-26T11:20:45.000Z</time>
      </trkpt>
      <trkpt lat="44.0054" lon="3.37441">
        <ele>763</ele>
        <time>2020-08-26T11:20:35.000Z</time>
      </trkpt>
      <trkpt lat="44.00521" lon="3.37437">
        <ele>773.3</ele>
        <time>2020-08-26T11:20:45.000Z</time>
      </trkpt>
      <trkpt lat="44.00501" lon="3.3743">
        <ele>772</ele>
        <time>2020-08-26T11:20:35.000Z</time>
      </trkpt>
      <trkpt lat="44.00491" lon="3.3743">
        <ele>774.5</ele>
        <time>2020-08-26T11:20:45.000Z</time>
      </trkpt>
      <trkpt lat="44.00473" lon="3.37438">
        <ele>775</ele>
        <time>2020-08-26T11:20:35.000Z</time>
      </trkpt>
      <trkpt lat="44.00461" lon="3.37441">
        <ele>776.4</ele>
        <time>2020-08-26T11:20:45.000Z</time>
      </trkpt>
      <trkpt lat="44.00448" lon="3.37441">
        <ele>775</ele>
        <time>2020-08-26T11:20:35.000Z</time>
      </trkpt>
      <trkpt lat="44.00435" lon="3.37443">
        <ele>779.8</ele>
        <time>2020-08-26T11:20:45.000Z</time>
      </trkpt>
      <trkpt lat="44.00418" lon="3.37451">
        <ele>777</ele>
        <time>2020-08-26T11:20:35.000Z</time>
      </trkpt>
      <trkpt lat="44.00391" lon="3.37458">
        <ele>783</ele>
        <time>2020-08-26T11:20:45.000Z</time>
      </trkpt>
      <trkpt lat="44.00354" lon="3.37468">
        <ele>784</ele>
        <time>2020-08-26T11:20:35.000Z</time>
      </trkpt>
      <trkpt lat="44.00343" lon="3.37473">
        <ele>784</ele>
        <time>2020-08-26T11:20:45.000Z</time>
      </trkpt>
      <trkpt lat="44.00292" lon="3.37502">
        <ele>785</ele>
        <time>2020-08-26T11:20:35.000Z</time>
      </trkpt>
      <trkpt lat="44.00278" lon="3.37505">
        <ele>784.3</ele>
        <time>2020-08-26T11:20:45.000Z</time>
      </trkpt>
      <trkpt lat="44.00258" lon="3.37512">
        <ele>785</ele>
        <time>2020-08-26T11:20:35.000Z</time>
      </trkpt>
      <trkpt lat="44.00245" lon="3.37515">
        <ele>784.5</ele>
        <time>2020-08-26T11:20:45.000Z</time>
      </trkpt>
      <trkpt lat="44.00232" lon="3.37515">
        <ele>783</ele>
        <time>2020-08-26T11:20:35.000Z</time>
      </trkpt>
      <trkpt lat="44.00212" lon="3.37518">
        <ele>783</ele>
        <time>2020-08-26T11:20:35.000Z</time>
      </trkpt>
      <trkpt lat="44.00195" lon="3.37524">
        <ele>785.2</ele>
        <time>2020-08-26T11:20:45.000Z</time>
      </trkpt>
      <trkpt lat="44.00184" lon="3.3753">
        <ele>786</ele>
        <time>2020-08-26T11:20:35.000Z</time>
      </trkpt>
      <trkpt lat="44.00175" lon="3.37533">
        <ele>785.9</ele>
        <time>2020-08-26T11:20:45.000Z</time>
      </trkpt>
      <trkpt lat="44.00162" lon="3.3754">
        <ele>786</ele>
        <time>2020-08-26T11:20:35.000Z</time>
      </trkpt>
      <trkpt lat="44.00145" lon="3.37553">
        <ele>789</ele>
        <time>2020-08-26T11:20:35.000Z</time>
      </trkpt>
      <trkpt lat="44.00136" lon="3.37567">
        <ele>787.6</ele>
        <time>2020-08-26T11:20:45.000Z</time>
      </trkpt>
      <trkpt lat="44.00129" lon="3.3758">
        <ele>788</ele>
        <time>2020-08-26T11:20:35.000Z</time>
      </trkpt>
      <trkpt lat="44.0011" lon="3.3762">
        <ele>788</ele>
        <time>2020-08-26T11:20:35.000Z</time>
      </trkpt>
      <trkpt lat="44.00101" lon="3.37644">
        <ele>790</ele>
        <time>2020-08-26T11:20:35.000Z</time>
      </trkpt>
      <trkpt lat="44.00093" lon="3.37663">
        <ele>791</ele>
        <time>2020-08-26T11:20:45.000Z</time>
      </trkpt>
      <trkpt lat="44.00089" lon="3.3768">
        <ele>793</ele>
        <time>2020-08-26T11:20:35.000Z</time>
      </trkpt>
      <trkpt lat="44.00071" lon="3.37708">
        <ele>795</ele>
        <time>2020-08-26T11:20:45.000Z</time>
      </trkpt>
      <trkpt lat="44.0005" lon="3.37743">
        <ele>795</ele>
        <time>2020-08-26T11:20:35.000Z</time>
      </trkpt>
      <trkpt lat="44.00044" lon="3.37759">
        <ele>795.8</ele>
        <time>2020-08-26T11:20:45.000Z</time>
      </trkpt>
      <trkpt lat="44.00024" lon="3.37805">
        <ele>793</ele>
        <time>2020-08-26T11:20:35.000Z</time>
      </trkpt>
      <trkpt lat="44.00013" lon="3.37835">
        <ele>792</ele>
        <time>2020-08-26T11:20:35.000Z</time>
      </trkpt>
      <trkpt lat="44" lon="3.37854">
        <ele>802.5</ele>
        <time>2020-08-26T11:20:45.000Z</time>
      </trkpt>
      <trkpt lat="43.9999" lon="3.37867">
        <ele>792</ele>
        <time>2020-08-26T11:20:35.000Z</time>
      </trkpt>
      <trkpt lat="43.99981" lon="3.37887">
        <ele>800.5</ele>
        <time>2020-08-26T11:20:45.000Z</time>
      </trkpt>
      <trkpt lat="43.99961" lon="3.37926">
        <ele>798</ele>
        <time>2020-08-26T11:20:35.000Z</time>
      </trkpt>
      <trkpt lat="43.99949" lon="3.3794">
        <ele>808.2</ele>
        <time>2020-08-26T11:20:45.000Z</time>
      </trkpt>
      <trkpt lat="43.99941" lon="3.37951">
        <ele>805</ele>
        <time>2020-08-26T11:20:35.000Z</time>
      </trkpt>
      <trkpt lat="43.99933" lon="3.3796">
        <ele>811.3</ele>
        <time>2020-08-26T11:20:45.000Z</time>
      </trkpt>
      <trkpt lat="43.99904" lon="3.37979">
        <ele>806</ele>
        <time>2020-08-26T11:20:35.000Z</time>
      </trkpt>
      <trkpt lat="43.99885" lon="3.37984">
        <ele>813</ele>
        <time>2020-08-26T11:20:45.000Z</time>
      </trkpt>
      <trkpt lat="43.99869" lon="3.37987">
        <ele>810</ele>
        <time>2020-08-26T11:20:35.000Z</time>
      </trkpt>
      <trkpt lat="43.99859" lon="3.37992">
        <ele>815.2</ele>
        <time>2020-08-26T11:20:45.000Z</time>
      </trkpt>
      <trkpt lat="43.99841" lon="3.38004">
        <ele>811</ele>
        <time>2020-08-26T11:20:35.000Z</time>
      </trkpt>
      <trkpt lat="43.99831" lon="3.38012">
        <ele>818</ele>
        <time>2020-08-26T11:20:45.000Z</time>
      </trkpt>
      <trkpt lat="43.99819" lon="3.38017">
        <ele>812</ele>
        <time>2020-08-26T11:20:35.000Z</time>
      </trkpt>
      <trkpt lat="43.998" lon="3.38023">
        <ele>816</ele>
        <time>2020-08-26T11:20:35.000Z</time>
      </trkpt>
      <trkpt lat="43.99777" lon="3.38028">
        <ele>816</ele>
        <time>2020-08-26T11:20:35.000Z</time>
      </trkpt>
      <trkpt lat="43.99742" lon="3.38031">
        <ele>816</ele>
        <time>2020-08-26T11:20:35.000Z</time>
      </trkpt>
      <trkpt lat="43.99731" lon="3.38035">
        <ele>821.7</ele>
        <time>2020-08-26T11:20:45.000Z</time>
      </trkpt>
      <trkpt lat="43.99717" lon="3.38042">
        <ele>812</ele>
        <time>2020-08-26T11:20:35.000Z</time>
      </trkpt>
      <trkpt lat="43.99707" lon="3.38046">
        <ele>826.7</ele>
        <time>2020-08-26T11:20:45.000Z</time>
      </trkpt>
      <trkpt lat="43.99677" lon="3.38039">
        <ele>811</ele>
        <time>2020-08-26T11:20:35.000Z</time>
      </trkpt>
      <trkpt lat="43.99667" lon="3.3804">
        <ele>828.2</ele>
        <time>2020-08-26T11:20:45.000Z</time>
      </trkpt>
      <trkpt lat="43.99626" lon="3.38058">
        <ele>811</ele>
        <time>2020-08-26T11:20:35.000Z</time>
      </trkpt>
      <trkpt lat="43.99618" lon="3.38064">
        <ele>829.7</ele>
        <time>2020-08-26T11:20:45.000Z</time>
      </trkpt>
      <trkpt lat="43.99601" lon="3.38072">
        <ele>818</ele>
        <time>2020-08-26T11:20:35.000Z</time>
      </trkpt>
      <trkpt lat="43.9959" lon="3.38079">
        <ele>829.7</ele>
        <time>2020-08-26T11:20:45.000Z</time>
      </trkpt>
      <trkpt lat="43.99577" lon="3.38086">
        <ele>819</ele>
        <time>2020-08-26T11:20:35.000Z</time>
      </trkpt>
      <trkpt lat="43.99563" lon="3.38091">
        <ele>830.2</ele>
        <time>2020-08-26T11:20:45.000Z</time>
      </trkpt>
      <trkpt lat="43.99548" lon="3.381">
        <ele>823</ele>
        <time>2020-08-26T11:20:35.000Z</time>
      </trkpt>
      <trkpt lat="43.99537" lon="3.38101">
        <ele>832.5</ele>
        <time>2020-08-26T11:20:45.000Z</time>
      </trkpt>
      <trkpt lat="43.99527" lon="3.38096">
        <ele>823</ele>
        <time>2020-08-26T11:20:35.000Z</time>
      </trkpt>
      <trkpt lat="43.99509" lon="3.38076">
        <ele>822</ele>
        <time>2020-08-26T11:20:35.000Z</time>
      </trkpt>
      <trkpt lat="43.99499" lon="3.38067">
        <ele>828.6</ele>
        <time>2020-08-26T11:20:45.000Z</time>
      </trkpt>
      <trkpt lat="43.99486" lon="3.38061">
        <ele>822</ele>
        <time>2020-08-26T11:20:35.000Z</time>
      </trkpt>
      <trkpt lat="43.99474" lon="3.38058">
        <ele>830.3</ele>
        <time>2020-08-26T11:20:45.000Z</time>
      </trkpt>
      <trkpt lat="43.99463" lon="3.38057">
        <ele>822</ele>
        <time>2020-08-26T11:20:35.000Z</time>
      </trkpt>
      <trkpt lat="43.9945" lon="3.38057">
        <ele>832.7</ele>
        <time>2020-08-26T11:20:45.000Z</time>
      </trkpt>
      <trkpt lat="43.99427" lon="3.38063">
        <ele>829</ele>
        <time>2020-08-26T11:20:35.000Z</time>
      </trkpt>
      <trkpt lat="43.99411" lon="3.38059">
        <ele>838.6</ele>
        <time>2020-08-26T11:20:45.000Z</time>
      </trkpt>
      <trkpt lat="43.99398" lon="3.38046">
        <ele>832</ele>
        <time>2020-08-26T11:20:35.000Z</time>
      </trkpt>
      <trkpt lat="43.99385" lon="3.38028">
        <ele>836.9</ele>
        <time>2020-08-26T11:20:45.000Z</time>
      </trkpt>
      <trkpt lat="43.99378" lon="3.38015">
        <ele>832</ele>
        <time>2020-08-26T11:20:35.000Z</time>
      </trkpt>
      <trkpt lat="43.99369" lon="3.38001">
        <ele>835.5</ele>
        <time>2020-08-26T11:20:45.000Z</time>
      </trkpt>
      <trkpt lat="43.99351" lon="3.37978">
        <ele>831</ele>
        <time>2020-08-26T11:20:35.000Z</time>
      </trkpt>
      <trkpt lat="43.9934" lon="3.37958">
        <ele>833.1</ele>
        <time>2020-08-26T11:20:45.000Z</time>
      </trkpt>
      <trkpt lat="43.99329" lon="3.37945">
        <ele>831</ele>
        <time>2020-08-26T11:20:35.000Z</time>
      </trkpt>
      <trkpt lat="43.99316" lon="3.37931">
        <ele>832.9</ele>
        <time>2020-08-26T11:20:45.000Z</time>
      </trkpt>
      <trkpt lat="43.99308" lon="3.37915">
        <ele>825</ele>
        <time>2020-08-26T11:20:35.000Z</time>
      </trkpt>
      <trkpt lat="43.99291" lon="3.37888">
        <ele>824</ele>
        <time>2020-08-26T11:20:35.000Z</time>
      </trkpt>
      <trkpt lat="43.99269" lon="3.37855">
        <ele>823</ele>
        <time>2020-08-26T11:20:35.000Z</time>
      </trkpt>
      <trkpt lat="43.99258" lon="3.3784">
        <ele>833.3</ele>
        <time>2020-08-26T11:20:45.000Z</time>
      </trkpt>
      <trkpt lat="43.99247" lon="3.37828">
        <ele>823</ele>
        <time>2020-08-26T11:20:35.000Z</time>
      </trkpt>
      <trkpt lat="43.99235" lon="3.37818">
        <ele>833.2</ele>
        <time>2020-08-26T11:20:45.000Z</time>
      </trkpt>
      <trkpt lat="43.99224" lon="3.37811">
        <ele>823</ele>
        <time>2020-08-26T11:20:35.000Z</time>
      </trkpt>
      <trkpt lat="43.992" lon="3.378">
        <ele>822</ele>
        <time>2020-08-26T11:20:35.000Z</time>
      </trkpt>
      <trkpt lat="43.99174" lon="3.37791">
        <ele>822</ele>
        <time>2020-08-26T11:20:45.000Z</time>
      </trkpt>
      <trkpt lat="43.99141" lon="3.37779">
        <ele>819</ele>
        <time>2020-08-26T11:20:35.000Z</time>
      </trkpt>
      <trkpt lat="43.991" lon="3.37768">
        <ele>823</ele>
        <time>2020-08-26T11:20:35.000Z</time>
      </trkpt>
      <trkpt lat="43.99096" lon="3.37777">
        <ele>828.9</ele>
        <time>2020-08-26T11:20:45.000Z</time>
      </trkpt>
      <trkpt lat="43.99102" lon="3.37789">
        <ele>829.5</ele>
        <time>2020-08-26T11:20:55.000Z</time>
      </trkpt>
      <trkpt lat="43.99111" lon="3.37802">
        <ele>828</ele>
        <time>2020-08-26T11:20:35.000Z</time>
      </trkpt>
      <trkpt lat="43.99124" lon="3.37825">
        <ele>828</ele>
        <time>2020-08-26T11:20:35.000Z</time>
      </trkpt>
      <trkpt lat="43.99143" lon="3.37864">
        <ele>832</ele>
        <time>2020-08-26T11:20:35.000Z</time>
      </trkpt>
      <trkpt lat="43.99169" lon="3.37914">
        <ele>840</ele>
        <time>2020-08-26T11:20:35.000Z</time>
      </trkpt>
      <trkpt lat="43.99177" lon="3.37931">
        <ele>843.7</ele>
        <time>2020-08-26T11:20:45.000Z</time>
      </trkpt>
      <trkpt lat="43.99194" lon="3.37961">
        <ele>844</ele>
        <time>2020-08-26T11:20:35.000Z</time>
      </trkpt>
      <trkpt lat="43.99211" lon="3.37996">
        <ele>844</ele>
        <time>2020-08-26T11:20:35.000Z</time>
      </trkpt>
      <trkpt lat="43.99216" lon="3.38008">
        <ele>854.9</ele>
        <time>2020-08-26T11:20:45.000Z</time>
      </trkpt>
      <trkpt lat="43.99231" lon="3.38049">
        <ele>848</ele>
        <time>2020-08-26T11:20:35.000Z</time>
      </trkpt>
      <trkpt lat="43.99248" lon="3.38087">
        <ele>856</ele>
        <time>2020-08-26T11:20:35.000Z</time>
      </trkpt>
      <trkpt lat="43.99259" lon="3.38103">
        <ele>861.5</ele>
        <time>2020-08-26T11:20:45.000Z</time>
      </trkpt>
      <trkpt lat="43.99264" lon="3.38119">
        <ele>859</ele>
        <time>2020-08-26T11:20:35.000Z</time>
      </trkpt>
      <trkpt lat="43.99269" lon="3.38139">
        <ele>864.7</ele>
        <time>2020-08-26T11:20:45.000Z</time>
      </trkpt>
      <trkpt lat="43.99276" lon="3.38158">
        <ele>866</ele>
        <time>2020-08-26T11:20:35.000Z</time>
      </trkpt>
      <trkpt lat="43.99282" lon="3.3817">
        <ele>867.6</ele>
        <time>2020-08-26T11:20:45.000Z</time>
      </trkpt>
      <trkpt lat="43.99289" lon="3.38188">
        <ele>868</ele>
        <time>2020-08-26T11:20:35.000Z</time>
      </trkpt>
      <trkpt lat="43.993" lon="3.38206">
        <ele>872.6</ele>
        <time>2020-08-26T11:20:45.000Z</time>
      </trkpt>
      <trkpt lat="43.99304" lon="3.38217">
        <ele>869</ele>
        <time>2020-08-26T11:20:35.000Z</time>
      </trkpt>
      <trkpt lat="43.99312" lon="3.38231">
        <ele>875.7</ele>
        <time>2020-08-26T11:20:45.000Z</time>
      </trkpt>
      <trkpt lat="43.99323" lon="3.38247">
        <ele>877</ele>
        <time>2020-08-26T11:20:35.000Z</time>
      </trkpt>
      <trkpt lat="43.99331" lon="3.38263">
        <ele>879.3</ele>
        <time>2020-08-26T11:20:45.000Z</time>
      </trkpt>
      <trkpt lat="43.9934" lon="3.38271">
        <ele>877</ele>
        <time>2020-08-26T11:20:35.000Z</time>
      </trkpt>
      <trkpt lat="43.99356" lon="3.38308">
        <ele>882</ele>
        <time>2020-08-26T11:20:35.000Z</time>
      </trkpt>
      <trkpt lat="43.99358" lon="3.38323">
        <ele>883.4</ele>
        <time>2020-08-26T11:20:45.000Z</time>
      </trkpt>
      <trkpt lat="43.99374" lon="3.38351">
        <ele>886</ele>
        <time>2020-08-26T11:20:35.000Z</time>
      </trkpt>
      <trkpt lat="43.9939" lon="3.38381">
        <ele>888</ele>
        <time>2020-08-26T11:20:35.000Z</time>
      </trkpt>
      <trkpt lat="43.99401" lon="3.38397">
        <ele>886</ele>
        <time>2020-08-26T11:20:45.000Z</time>
      </trkpt>
      <trkpt lat="43.99423" lon="3.38431">
        <ele>890</ele>
        <time>2020-08-26T11:20:35.000Z</time>
      </trkpt>
      <trkpt lat="43.99434" lon="3.38442">
        <ele>888.2</ele>
        <time>2020-08-26T11:20:45.000Z</time>
      </trkpt>
      <trkpt lat="43.99442" lon="3.38454">
        <ele>893</ele>
        <time>2020-08-26T11:20:35.000Z</time>
      </trkpt>
      <trkpt lat="43.99451" lon="3.38465">
        <ele>889.4</ele>
        <time>2020-08-26T11:20:45.000Z</time>
      </trkpt>
      <trkpt lat="43.99463" lon="3.38472">
        <ele>896</ele>
        <time>2020-08-26T11:20:35.000Z</time>
      </trkpt>
      <trkpt lat="43.99478" lon="3.38477">
        <ele>891.2</ele>
        <time>2020-08-26T11:20:45.000Z</time>
      </trkpt>
      <trkpt lat="43.99497" lon="3.38474">
        <ele>896</ele>
        <time>2020-08-26T11:20:35.000Z</time>
      </trkpt>
      <trkpt lat="43.99518" lon="3.38475">
        <ele>896</ele>
        <time>2020-08-26T11:20:35.000Z</time>
      </trkpt>
      <trkpt lat="43.99539" lon="3.38472">
        <ele>892</ele>
        <time>2020-08-26T11:20:35.000Z</time>
      </trkpt>
      <trkpt lat="43.99551" lon="3.38477">
        <ele>895.7</ele>
        <time>2020-08-26T11:20:45.000Z</time>
      </trkpt>
      <trkpt lat="43.99564" lon="3.3848">
        <ele>890</ele>
        <time>2020-08-26T11:20:35.000Z</time>
      </trkpt>
      <trkpt lat="43.99576" lon="3.38477">
        <ele>897.6</ele>
        <time>2020-08-26T11:20:45.000Z</time>
      </trkpt>
      <trkpt lat="43.99595" lon="3.38479">
        <ele>887</ele>
        <time>2020-08-26T11:20:35.000Z</time>
      </trkpt>
      <trkpt lat="43.99609" lon="3.38479">
        <ele>900.1</ele>
        <time>2020-08-26T11:20:45.000Z</time>
      </trkpt>
      <trkpt lat="43.99633" lon="3.38477">
        <ele>888</ele>
        <time>2020-08-26T11:20:35.000Z</time>
      </trkpt>
      <trkpt lat="43.99643" lon="3.38474">
        <ele>901.6</ele>
        <time>2020-08-26T11:20:45.000Z</time>
      </trkpt>
      <trkpt lat="43.9966" lon="3.38473">
        <ele>889</ele>
        <time>2020-08-26T11:20:35.000Z</time>
      </trkpt>
      <trkpt lat="43.9967" lon="3.38471">
        <ele>904.3</ele>
        <time>2020-08-26T11:20:45.000Z</time>
      </trkpt>
      <trkpt lat="43.99681" lon="3.38472">
        <ele>889</ele>
        <time>2020-08-26T11:20:35.000Z</time>
      </trkpt>
      <trkpt lat="43.99705" lon="3.38472">
        <ele>891</ele>
        <time>2020-08-26T11:20:35.000Z</time>
      </trkpt>
      <trkpt lat="43.9972" lon="3.38474">
        <ele>910.9</ele>
        <time>2020-08-26T11:20:45.000Z</time>
      </trkpt>
      <trkpt lat="43.99749" lon="3.3848">
        <ele>897</ele>
        <time>2020-08-26T11:20:35.000Z</time>
      </trkpt>
      <trkpt lat="43.9976" lon="3.3848">
        <ele>916.4</ele>
        <time>2020-08-26T11:20:45.000Z</time>
      </trkpt>
      <trkpt lat="43.99769" lon="3.38482">
        <ele>897</ele>
        <time>2020-08-26T11:20:35.000Z</time>
      </trkpt>
      <trkpt lat="43.99777" lon="3.38491">
        <ele>918.6</ele>
        <time>2020-08-26T11:20:45.000Z</time>
      </trkpt>
      <trkpt lat="43.99781" lon="3.38504">
        <ele>904</ele>
        <time>2020-08-26T11:20:35.000Z</time>
      </trkpt>
      <trkpt lat="43.99785" lon="3.38531">
        <ele>909</ele>
        <time>2020-08-26T11:20:35.000Z</time>
      </trkpt>
      <trkpt lat="43.99786" lon="3.38553">
        <ele>920.5</ele>
        <time>2020-08-26T11:20:45.000Z</time>
      </trkpt>
      <trkpt lat="43.99789" lon="3.38573">
        <ele>911</ele>
        <time>2020-08-26T11:20:35.000Z</time>
      </trkpt>
      <trkpt lat="43.99798" lon="3.38598">
        <ele>911</ele>
        <time>2020-08-26T11:20:35.000Z</time>
      </trkpt>
      <trkpt lat="43.99806" lon="3.38631">
        <ele>910</ele>
        <time>2020-08-26T11:20:35.000Z</time>
      </trkpt>
      <trkpt lat="43.99809" lon="3.38647">
        <ele>923</ele>
        <time>2020-08-26T11:20:45.000Z</time>
      </trkpt>
      <trkpt lat="43.99811" lon="3.38668">
        <ele>910</ele>
        <time>2020-08-26T11:20:35.000Z</time>
      </trkpt>
      <trkpt lat="43.99819" lon="3.38705">
        <ele>910</ele>
        <time>2020-08-26T11:20:35.000Z</time>
      </trkpt>
      <trkpt lat="43.99841" lon="3.38757">
        <ele>910</ele>
        <time>2020-08-26T11:20:35.000Z</time>
      </trkpt>
      <trkpt lat="43.99852" lon="3.38775">
        <ele>913.3</ele>
        <time>2020-08-26T11:20:45.000Z</time>
      </trkpt>
      <trkpt lat="43.99864" lon="3.38789">
        <ele>910</ele>
        <time>2020-08-26T11:20:35.000Z</time>
      </trkpt>
      <trkpt lat="43.99876" lon="3.388">
        <ele>908</ele>
        <time>2020-08-26T11:20:45.000Z</time>
      </trkpt>
      <trkpt lat="43.99885" lon="3.38811">
        <ele>905</ele>
        <time>2020-08-26T11:20:35.000Z</time>
      </trkpt>
      <trkpt lat="43.99905" lon="3.38826">
        <ele>899</ele>
        <time>2020-08-26T11:20:35.000Z</time>
      </trkpt>
      <trkpt lat="43.99918" lon="3.38844">
        <ele>900</ele>
        <time>2020-08-26T11:20:45.000Z</time>
      </trkpt>
      <trkpt lat="43.99968" lon="3.38898">
        <ele>885</ele>
        <time>2020-08-26T11:20:35.000Z</time>
      </trkpt>
      <trkpt lat="43.9998" lon="3.38906">
        <ele>893</ele>
        <time>2020-08-26T11:20:45.000Z</time>
      </trkpt>
      <trkpt lat="43.99988" lon="3.38915">
        <ele>885</ele>
        <time>2020-08-26T11:20:35.000Z</time>
      </trkpt>
      <trkpt lat="44.00008" lon="3.38932">
        <ele>885</ele>
        <time>2020-08-26T11:20:35.000Z</time>
      </trkpt>
      <trkpt lat="44.00029" lon="3.38945">
        <ele>882</ele>
        <time>2020-08-26T11:20:35.000Z</time>
      </trkpt>
      <trkpt lat="44.00038" lon="3.38952">
        <ele>889.2</ele>
        <time>2020-08-26T11:20:45.000Z</time>
      </trkpt>
      <trkpt lat="44.0005" lon="3.38962">
        <ele>880</ele>
        <time>2020-08-26T11:20:35.000Z</time>
      </trkpt>
      <trkpt lat="44.00059" lon="3.38972">
        <ele>888.7</ele>
        <time>2020-08-26T11:20:45.000Z</time>
      </trkpt>
      <trkpt lat="44.00072" lon="3.38975">
        <ele>879</ele>
        <time>2020-08-26T11:20:35.000Z</time>
      </trkpt>
      <trkpt lat="44.00079" lon="3.38984">
        <ele>887.2</ele>
        <time>2020-08-26T11:20:45.000Z</time>
      </trkpt>
      <trkpt lat="44.00086" lon="3.38996">
        <ele>879</ele>
        <time>2020-08-26T11:20:35.000Z</time>
      </trkpt>
      <trkpt lat="44.00095" lon="3.39009">
        <ele>887</ele>
        <time>2020-08-26T11:20:45.000Z</time>
      </trkpt>
      <trkpt lat="44.00113" lon="3.39029">
        <ele>876</ele>
        <time>2020-08-26T11:20:35.000Z</time>
      </trkpt>
      <trkpt lat="44.00121" lon="3.39045">
        <ele>888.2</ele>
        <time>2020-08-26T11:20:45.000Z</time>
      </trkpt>
      <trkpt lat="44.0013" lon="3.39061">
        <ele>876</ele>
        <time>2020-08-26T11:20:35.000Z</time>
      </trkpt>
      <trkpt lat="44.00135" lon="3.39074">
        <ele>888.7</ele>
        <time>2020-08-26T11:20:45.000Z</time>
      </trkpt>
      <trkpt lat="44.00139" lon="3.39087">
        <ele>876</ele>
        <time>2020-08-26T11:20:35.000Z</time>
      </trkpt>
      <trkpt lat="44.00139" lon="3.39105">
        <ele>890.5</ele>
        <time>2020-08-26T11:20:45.000Z</time>
      </trkpt>
      <trkpt lat="44.00137" lon="3.39121">
        <ele>878</ele>
        <time>2020-08-26T11:20:35.000Z</time>
      </trkpt>
      <trkpt lat="44.00137" lon="3.39136">
        <ele>893.8</ele>
        <time>2020-08-26T11:20:45.000Z</time>
      </trkpt>
      <trkpt lat="44.00136" lon="3.39152">
        <ele>880</ele>
        <time>2020-08-26T11:20:35.000Z</time>
      </trkpt>
      <trkpt lat="44.00133" lon="3.39176">
        <ele>897.7</ele>
        <time>2020-08-26T11:20:45.000Z</time>
      </trkpt>
      <trkpt lat="44.00127" lon="3.392">
        <ele>884</ele>
        <time>2020-08-26T11:20:35.000Z</time>
      </trkpt>
      <trkpt lat="44.00117" lon="3.39221">
        <ele>901.1</ele>
        <time>2020-08-26T11:20:45.000Z</time>
      </trkpt>
      <trkpt lat="44.00109" lon="3.39232">
        <ele>889</ele>
        <time>2020-08-26T11:20:35.000Z</time>
      </trkpt>
      <trkpt lat="44.00091" lon="3.39264">
        <ele>892</ele>
        <time>2020-08-26T11:20:35.000Z</time>
      </trkpt>
      <trkpt lat="44.00075" lon="3.39285">
        <ele>895</ele>
        <time>2020-08-26T11:20:35.000Z</time>
      </trkpt>
      <trkpt lat="44.00065" lon="3.393">
        <ele>903.6</ele>
        <time>2020-08-26T11:20:45.000Z</time>
      </trkpt>
      <trkpt lat="44.00048" lon="3.39328">
        <ele>895</ele>
        <time>2020-08-26T11:20:35.000Z</time>
      </trkpt>
      <trkpt lat="44.00031" lon="3.39359">
        <ele>901</ele>
        <time>2020-08-26T11:20:35.000Z</time>
      </trkpt>
      <trkpt lat="44.00005" lon="3.39389">
        <ele>907</ele>
        <time>2020-08-26T11:20:35.000Z</time>
      </trkpt>
      <trkpt lat="43.99997" lon="3.39397">
        <ele>915.4</ele>
        <time>2020-08-26T11:20:45.000Z</time>
      </trkpt>
      <trkpt lat="43.99976" lon="3.39415">
        <ele>909</ele>
        <time>2020-08-26T11:20:35.000Z</time>
      </trkpt>
      <trkpt lat="43.9996" lon="3.39426">
        <ele>919.2</ele>
        <time>2020-08-26T11:20:45.000Z</time>
      </trkpt>
      <trkpt lat="43.9995" lon="3.39435">
        <ele>911</ele>
        <time>2020-08-26T11:20:35.000Z</time>
      </trkpt>
      <trkpt lat="43.99936" lon="3.39446">
        <ele>921.6</ele>
        <time>2020-08-26T11:20:45.000Z</time>
      </trkpt>
      <trkpt lat="43.99922" lon="3.3946">
        <ele>913</ele>
        <time>2020-08-26T11:20:35.000Z</time>
      </trkpt>
      <trkpt lat="43.99904" lon="3.39481">
        <ele>916</ele>
        <time>2020-08-26T11:20:35.000Z</time>
      </trkpt>
      <trkpt lat="43.99896" lon="3.39494">
        <ele>924.9</ele>
        <time>2020-08-26T11:20:45.000Z</time>
      </trkpt>
      <trkpt lat="43.99898" lon="3.39507">
        <ele>920</ele>
        <time>2020-08-26T11:20:35.000Z</time>
      </trkpt>
      <trkpt lat="43.99908" lon="3.39523">
        <ele>927.2</ele>
        <time>2020-08-26T11:20:45.000Z</time>
      </trkpt>
      <trkpt lat="43.99917" lon="3.39536">
        <ele>920</ele>
        <time>2020-08-26T11:20:35.000Z</time>
      </trkpt>
      <trkpt lat="43.99931" lon="3.39543">
        <ele>929</ele>
        <time>2020-08-26T11:20:45.000Z</time>
      </trkpt>
      <trkpt lat="43.99946" lon="3.39537">
        <ele>920</ele>
        <time>2020-08-26T11:20:35.000Z</time>
      </trkpt>
      <trkpt lat="43.99961" lon="3.3953">
        <ele>930</ele>
        <time>2020-08-26T11:20:45.000Z</time>
      </trkpt>
      <trkpt lat="43.99972" lon="3.39527">
        <ele>919</ele>
        <time>2020-08-26T11:20:35.000Z</time>
      </trkpt>
      <trkpt lat="43.99986" lon="3.39521">
        <ele>929.8</ele>
        <time>2020-08-26T11:20:45.000Z</time>
      </trkpt>
      <trkpt lat="44" lon="3.39517">
        <ele>919</ele>
        <time>2020-08-26T11:20:35.000Z</time>
      </trkpt>
      <trkpt lat="44.00014" lon="3.39515">
        <ele>929.3</ele>
        <time>2020-08-26T11:20:45.000Z</time>
      </trkpt>
      <trkpt lat="44.00069" lon="3.39499">
        <ele>925</ele>
        <time>2020-08-26T11:20:35.000Z</time>
      </trkpt>
      <trkpt lat="44.00081" lon="3.39497">
        <ele>931.8</ele>
        <time>2020-08-26T11:20:45.000Z</time>
      </trkpt>
      <trkpt lat="44.00125" lon="3.39485">
        <ele>925</ele>
        <time>2020-08-26T11:20:35.000Z</time>
      </trkpt>
      <trkpt lat="44.0014" lon="3.39495">
        <ele>938.5</ele>
        <time>2020-08-26T11:20:45.000Z</time>
      </trkpt>
      <trkpt lat="44.00146" lon="3.39511">
        <ele>927</ele>
        <time>2020-08-26T11:20:35.000Z</time>
      </trkpt>
      <trkpt lat="44.00168" lon="3.39536">
        <ele>934</ele>
        <time>2020-08-26T11:20:35.000Z</time>
      </trkpt>
      <trkpt lat="44.00178" lon="3.39546">
        <ele>937.7</ele>
        <time>2020-08-26T11:20:45.000Z</time>
      </trkpt>
      <trkpt lat="44.00195" lon="3.39567">
        <ele>924</ele>
        <time>2020-08-26T11:20:35.000Z</time>
      </trkpt>
      <trkpt lat="44.00207" lon="3.39576">
        <ele>932.6</ele>
        <time>2020-08-26T11:20:45.000Z</time>
      </trkpt>
      <trkpt lat="44.00244" lon="3.39595">
        <ele>915</ele>
        <time>2020-08-26T11:20:35.000Z</time>
      </trkpt>
      <trkpt lat="44.00271" lon="3.39612">
        <ele>910</ele>
        <time>2020-08-26T11:20:35.000Z</time>
      </trkpt>
      <trkpt lat="44.00297" lon="3.39621">
        <ele>910</ele>
        <time>2020-08-26T11:20:35.000Z</time>
      </trkpt>
      <trkpt lat="44.00311" lon="3.39629">
        <ele>917.8</ele>
        <time>2020-08-26T11:20:45.000Z</time>
      </trkpt>
      <trkpt lat="44.00323" lon="3.39632">
        <ele>905</ele>
        <time>2020-08-26T11:20:35.000Z</time>
      </trkpt>
      <trkpt lat="44.00337" lon="3.39638">
        <ele>914.4</ele>
        <time>2020-08-26T11:20:45.000Z</time>
      </trkpt>
      <trkpt lat="44.0035" lon="3.39642">
        <ele>903</ele>
        <time>2020-08-26T11:20:35.000Z</time>
      </trkpt>
      <trkpt lat="44.00365" lon="3.39645">
        <ele>911.2</ele>
        <time>2020-08-26T11:20:45.000Z</time>
      </trkpt>
      <trkpt lat="44.00386" lon="3.39656">
        <ele>903</ele>
        <time>2020-08-26T11:20:35.000Z</time>
      </trkpt>
      <trkpt lat="44.00396" lon="3.39667">
        <ele>911</ele>
        <time>2020-08-26T11:20:45.000Z</time>
      </trkpt>
      <trkpt lat="44.00409" lon="3.39678">
        <ele>904</ele>
        <time>2020-08-26T11:20:35.000Z</time>
      </trkpt>
      <trkpt lat="44.00418" lon="3.39684">
        <ele>913.2</ele>
        <time>2020-08-26T11:20:45.000Z</time>
      </trkpt>
      <trkpt lat="44.0043" lon="3.39695">
        <ele>906</ele>
        <time>2020-08-26T11:20:35.000Z</time>
      </trkpt>
      <trkpt lat="44.0044" lon="3.39701">
        <ele>919.9</ele>
        <time>2020-08-26T11:20:45.000Z</time>
      </trkpt>
      <trkpt lat="44.00467" lon="3.39711">
        <ele>912</ele>
        <time>2020-08-26T11:20:35.000Z</time>
      </trkpt>
      <trkpt lat="44.0049" lon="3.39724">
        <ele>912</ele>
        <time>2020-08-26T11:20:35.000Z</time>
      </trkpt>
      <trkpt lat="44.00515" lon="3.39741">
        <ele>926</ele>
        <time>2020-08-26T11:20:35.000Z</time>
      </trkpt>
      <trkpt lat="44.0053" lon="3.39749">
        <ele>945.1</ele>
        <time>2020-08-26T11:20:45.000Z</time>
      </trkpt>
      <trkpt lat="44.00543" lon="3.39761">
        <ele>928</ele>
        <time>2020-08-26T11:20:35.000Z</time>
      </trkpt>
      <trkpt lat="44.00549" lon="3.39772">
        <ele>946.7</ele>
        <time>2020-08-26T11:20:45.000Z</time>
      </trkpt>
      <trkpt lat="44.00556" lon="3.39816">
        <ele>936</ele>
        <time>2020-08-26T11:20:35.000Z</time>
      </trkpt>
      <trkpt lat="44.00551" lon="3.39855">
        <ele>936</ele>
        <time>2020-08-26T11:20:35.000Z</time>
      </trkpt>
      <trkpt lat="44.0055" lon="3.39874">
        <ele>948</ele>
        <time>2020-08-26T11:20:45.000Z</time>
      </trkpt>
      <trkpt lat="44.00554" lon="3.39888">
        <ele>936</ele>
        <time>2020-08-26T11:20:35.000Z</time>
      </trkpt>
      <trkpt lat="44.00566" lon="3.39914">
        <ele>934</ele>
        <time>2020-08-26T11:20:35.000Z</time>
      </trkpt>
      <trkpt lat="44.00581" lon="3.39941">
        <ele>931</ele>
        <time>2020-08-26T11:20:35.000Z</time>
      </trkpt>
      <trkpt lat="44.00593" lon="3.39956">
        <ele>936.6</ele>
        <time>2020-08-26T11:20:45.000Z</time>
      </trkpt>
      <trkpt lat="44.00605" lon="3.39976">
        <ele>922</ele>
        <time>2020-08-26T11:20:35.000Z</time>
      </trkpt>
      <trkpt lat="44.00613" lon="3.39993">
        <ele>930.7</ele>
        <time>2020-08-26T11:20:45.000Z</time>
      </trkpt>
      <trkpt lat="44.00618" lon="3.40008">
        <ele>919</ele>
        <time>2020-08-26T11:20:35.000Z</time>
      </trkpt>
      <trkpt lat="44.00625" lon="3.40022">
        <ele>924</ele>
        <time>2020-08-26T11:20:45.000Z</time>
      </trkpt>
      <trkpt lat="44.00635" lon="3.40036">
        <ele>912</ele>
        <time>2020-08-26T11:20:35.000Z</time>
      </trkpt>
      <trkpt lat="44.0065" lon="3.40047">
        <ele>920.3</ele>
        <time>2020-08-26T11:20:45.000Z</time>
      </trkpt>
      <trkpt lat="44.00657" lon="3.40061">
        <ele>907</ele>
        <time>2020-08-26T11:20:35.000Z</time>
      </trkpt>
      <trkpt lat="44.00666" lon="3.40093">
        <ele>903</ele>
        <time>2020-08-26T11:20:35.000Z</time>
      </trkpt>
      <trkpt lat="44.00674" lon="3.40126">
        <ele>902</ele>
        <time>2020-08-26T11:20:45.000Z</time>
      </trkpt>
      <trkpt lat="44.00682" lon="3.40161">
        <ele>891</ele>
        <time>2020-08-26T11:20:35.000Z</time>
      </trkpt>
      <trkpt lat="44.00685" lon="3.40181">
        <ele>896.5</ele>
        <time>2020-08-26T11:20:45.000Z</time>
      </trkpt>
      <trkpt lat="44.00687" lon="3.40203">
        <ele>885</ele>
        <time>2020-08-26T11:20:35.000Z</time>
      </trkpt>
      <trkpt lat="44.00684" lon="3.40216">
        <ele>894.2</ele>
        <time>2020-08-26T11:20:45.000Z</time>
      </trkpt>
      <trkpt lat="44.00677" lon="3.40235">
        <ele>885</ele>
        <time>2020-08-26T11:20:35.000Z</time>
      </trkpt>
      <trkpt lat="44.00672" lon="3.40257">
        <ele>894.3</ele>
        <time>2020-08-26T11:20:45.000Z</time>
      </trkpt>
      <trkpt lat="44.0067" lon="3.40258">
        <ele>894.3</ele>
        <time>2020-08-26T11:20:55.000Z</time>
      </trkpt>
      <trkpt lat="44.00675" lon="3.4028">
        <ele>886</ele>
        <time>2020-08-26T11:20:35.000Z</time>
      </trkpt>
      <trkpt lat="44.00678" lon="3.40296">
        <ele>896</ele>
        <time>2020-08-26T11:20:45.000Z</time>
      </trkpt>
      <trkpt lat="44.00678" lon="3.40317">
        <ele>886</ele>
        <time>2020-08-26T11:20:35.000Z</time>
      </trkpt>
      <trkpt lat="44.00671" lon="3.4034">
        <ele>899.2</ele>
        <time>2020-08-26T11:20:45.000Z</time>
      </trkpt>
      <trkpt lat="44.00663" lon="3.40354">
        <ele>892</ele>
        <time>2020-08-26T11:20:35.000Z</time>
      </trkpt>
      <trkpt lat="44.00653" lon="3.40384">
        <ele>897</ele>
        <time>2020-08-26T11:20:45.000Z</time>
      </trkpt>
      <trkpt lat="44.00642" lon="3.40415">
        <ele>901</ele>
        <time>2020-08-26T11:20:35.000Z</time>
      </trkpt>
      <trkpt lat="44.00639" lon="3.40428">
        <ele>910.6</ele>
        <time>2020-08-26T11:20:45.000Z</time>
      </trkpt>
      <trkpt lat="44.00626" lon="3.40466">
        <ele>909</ele>
        <time>2020-08-26T11:20:35.000Z</time>
      </trkpt>
      <trkpt lat="44.00622" lon="3.40488">
        <ele>920.5</ele>
        <time>2020-08-26T11:20:45.000Z</time>
      </trkpt>
      <trkpt lat="44.00625" lon="3.40515">
        <ele>915</ele>
        <time>2020-08-26T11:20:35.000Z</time>
      </trkpt>
      <trkpt lat="44.00631" lon="3.40547">
        <ele>923</ele>
        <time>2020-08-26T11:20:35.000Z</time>
      </trkpt>
      <trkpt lat="44.00633" lon="3.40561">
        <ele>936.3</ele>
        <time>2020-08-26T11:20:45.000Z</time>
      </trkpt>
      <trkpt lat="44.00643" lon="3.40595">
        <ele>937</ele>
        <time>2020-08-26T11:20:35.000Z</time>
      </trkpt>
      <trkpt lat="44.00652" lon="3.40621">
        <ele>944</ele>
        <time>2020-08-26T11:20:35.000Z</time>
      </trkpt>
      <trkpt lat="44.00655" lon="3.40633">
        <ele>954.7</ele>
        <time>2020-08-26T11:20:45.000Z</time>
      </trkpt>
      <trkpt lat="44.00661" lon="3.4065">
        <ele>944</ele>
        <time>2020-08-26T11:20:35.000Z</time>
      </trkpt>
      <trkpt lat="44.00656" lon="3.40674">
        <ele>962.6</ele>
        <time>2020-08-26T11:20:45.000Z</time>
      </trkpt>
      <trkpt lat="44.0065" lon="3.40697">
        <ele>951</ele>
        <time>2020-08-26T11:20:35.000Z</time>
      </trkpt>
      <trkpt lat="44.00643" lon="3.40715">
        <ele>969.1</ele>
        <time>2020-08-26T11:20:45.000Z</time>
      </trkpt>
      <trkpt lat="44.00632" lon="3.40751">
        <ele>959</ele>
        <time>2020-08-26T11:20:35.000Z</time>
      </trkpt>
      <trkpt lat="44.00628" lon="3.4077">
        <ele>976.1</ele>
        <time>2020-08-26T11:20:45.000Z</time>
      </trkpt>
      <trkpt lat="44.00623" lon="3.40787">
        <ele>967</ele>
        <time>2020-08-26T11:20:35.000Z</time>
      </trkpt>
      <trkpt lat="44.00619" lon="3.40809">
        <ele>983</ele>
        <time>2020-08-26T11:20:45.000Z</time>
      </trkpt>
      <trkpt lat="44.00612" lon="3.4083">
        <ele>980</ele>
        <time>2020-08-26T11:20:35.000Z</time>
      </trkpt>
      <trkpt lat="44.00606" lon="3.40861">
        <ele>984</ele>
        <time>2020-08-26T11:20:35.000Z</time>
      </trkpt>
      <trkpt lat="44.00606" lon="3.40881">
        <ele>994.8</ele>
        <time>2020-08-26T11:20:45.000Z</time>
      </trkpt>
      <trkpt lat="44.0061" lon="3.40925">
        <ele>986</ele>
        <time>2020-08-26T11:20:35.000Z</time>
      </trkpt>
      <trkpt lat="44.00611" lon="3.40944">
        <ele>1008.9</ele>
        <time>2020-08-26T11:20:45.000Z</time>
      </trkpt>
      <trkpt lat="44.00617" lon="3.4096">
        <ele>991</ele>
        <time>2020-08-26T11:20:35.000Z</time>
      </trkpt>
      <trkpt lat="44.00634" lon="3.4098">
        <ele>993</ele>
        <time>2020-08-26T11:20:35.000Z</time>
      </trkpt>
      <trkpt lat="44.0064" lon="3.40993">
        <ele>1014.4</ele>
        <time>2020-08-26T11:20:45.000Z</time>
      </trkpt>
      <trkpt lat="44.00644" lon="3.41014">
        <ele>994</ele>
        <time>2020-08-26T11:20:35.000Z</time>
      </trkpt>
      <trkpt lat="44.00655" lon="3.41051">
        <ele>994</ele>
        <time>2020-08-26T11:20:35.000Z</time>
      </trkpt>
      <trkpt lat="44.00662" lon="3.41066">
        <ele>1008.8</ele>
        <time>2020-08-26T11:20:45.000Z</time>
      </trkpt>
      <trkpt lat="44.0067" lon="3.41078">
        <ele>994</ele>
        <time>2020-08-26T11:20:35.000Z</time>
      </trkpt>
      <trkpt lat="44.0068" lon="3.41088">
        <ele>1004.9</ele>
        <time>2020-08-26T11:20:45.000Z</time>
      </trkpt>
      <trkpt lat="44.00707" lon="3.411">
        <ele>994</ele>
        <time>2020-08-26T11:20:35.000Z</time>
      </trkpt>
      <trkpt lat="44.00732" lon="3.41117">
        <ele>990</ele>
        <time>2020-08-26T11:20:35.000Z</time>
      </trkpt>
      <trkpt lat="44.00756" lon="3.41131">
        <ele>988</ele>
        <time>2020-08-26T11:20:35.000Z</time>
      </trkpt>
      <trkpt lat="44.00764" lon="3.41141">
        <ele>1001.7</ele>
        <time>2020-08-26T11:20:45.000Z</time>
      </trkpt>
      <trkpt lat="44.00768" lon="3.41156">
        <ele>988</ele>
        <time>2020-08-26T11:20:35.000Z</time>
      </trkpt>
      <trkpt lat="44.00777" lon="3.41175">
        <ele>999.3</ele>
        <time>2020-08-26T11:20:45.000Z</time>
      </trkpt>
      <trkpt lat="44.00793" lon="3.41206">
        <ele>989</ele>
        <time>2020-08-26T11:20:35.000Z</time>
      </trkpt>
      <trkpt lat="44.00812" lon="3.41246">
        <ele>994</ele>
        <time>2020-08-26T11:20:35.000Z</time>
      </trkpt>
      <trkpt lat="44.00822" lon="3.41263">
        <ele>996.2</ele>
        <time>2020-08-26T11:20:45.000Z</time>
      </trkpt>
      <trkpt lat="44.00831" lon="3.41273">
        <ele>994</ele>
        <time>2020-08-26T11:20:35.000Z</time>
      </trkpt>
      <trkpt lat="44.00852" lon="3.41301">
        <ele>989</ele>
        <time>2020-08-26T11:20:35.000Z</time>
      </trkpt>
      <trkpt lat="44.00867" lon="3.41312">
        <ele>997.5</ele>
        <time>2020-08-26T11:20:45.000Z</time>
      </trkpt>
      <trkpt lat="44.00874" lon="3.41322">
        <ele>986</ele>
        <time>2020-08-26T11:20:35.000Z</time>
      </trkpt>
      <trkpt lat="44.0089" lon="3.41339">
        <ele>984</ele>
        <time>2020-08-26T11:20:35.000Z</time>
      </trkpt>
      <trkpt lat="44.00908" lon="3.41353">
        <ele>983</ele>
        <time>2020-08-26T11:20:35.000Z</time>
      </trkpt>
      <trkpt lat="44.00928" lon="3.41371">
        <ele>984</ele>
        <time>2020-08-26T11:20:35.000Z</time>
      </trkpt>
      <trkpt lat="44.00938" lon="3.41378">
        <ele>1003.3</ele>
        <time>2020-08-26T11:20:45.000Z</time>
      </trkpt>
      <trkpt lat="44.00954" lon="3.41386">
        <ele>986</ele>
        <time>2020-08-26T11:20:35.000Z</time>
      </trkpt>
      <trkpt lat="44.00966" lon="3.41394">
        <ele>1004.2</ele>
        <time>2020-08-26T11:20:45.000Z</time>
      </trkpt>
      <trkpt lat="44.00977" lon="3.41406">
        <ele>992</ele>
        <time>2020-08-26T11:20:35.000Z</time>
      </trkpt>
      <trkpt lat="44.00983" lon="3.41416">
        <ele>1006.1</ele>
        <time>2020-08-26T11:20:45.000Z</time>
      </trkpt>
      <trkpt lat="44.0099" lon="3.41432">
        <ele>994</ele>
        <time>2020-08-26T11:20:35.000Z</time>
      </trkpt>
      <trkpt lat="44.00995" lon="3.41451">
        <ele>1010.4</ele>
        <time>2020-08-26T11:20:45.000Z</time>
      </trkpt>
      <trkpt lat="44.00997" lon="3.41464">
        <ele>1003</ele>
        <time>2020-08-26T11:20:35.000Z</time>
      </trkpt>
      <trkpt lat="44.00999" lon="3.41488">
        <ele>1013.7</ele>
        <time>2020-08-26T11:20:45.000Z</time>
      </trkpt>
      <trkpt lat="44.01001" lon="3.41527">
        <ele>1004</ele>
        <time>2020-08-26T11:20:35.000Z</time>
      </trkpt>
      <trkpt lat="44.01013" lon="3.41534">
        <ele>1022.4</ele>
        <time>2020-08-26T11:20:45.000Z</time>
      </trkpt>
      <trkpt lat="44.01025" lon="3.41539">
        <ele>1016</ele>
        <time>2020-08-26T11:20:35.000Z</time>
      </trkpt>
      <trkpt lat="44.01034" lon="3.41544">
        <ele>1030.8</ele>
        <time>2020-08-26T11:20:45.000Z</time>
      </trkpt>
      <trkpt lat="44.01047" lon="3.41555">
        <ele>1018</ele>
        <time>2020-08-26T11:20:35.000Z</time>
      </trkpt>
      <trkpt lat="44.0106" lon="3.41564">
        <ele>1039.8</ele>
        <time>2020-08-26T11:20:45.000Z</time>
      </trkpt>
      <trkpt lat="44.01073" lon="3.41575">
        <ele>1033</ele>
        <time>2020-08-26T11:20:35.000Z</time>
      </trkpt>
      <trkpt lat="44.0109" lon="3.41588">
        <ele>1033</ele>
        <time>2020-08-26T11:20:35.000Z</time>
      </trkpt>
      <trkpt lat="44.01101" lon="3.41601">
        <ele>1053.2</ele>
        <time>2020-08-26T11:20:45.000Z</time>
      </trkpt>
      <trkpt lat="44.01109" lon="3.41609">
        <ele>1040</ele>
        <time>2020-08-26T11:20:35.000Z</time>
      </trkpt>
      <trkpt lat="44.0112" lon="3.41619">
        <ele>1059.7</ele>
        <time>2020-08-26T11:20:45.000Z</time>
      </trkpt>
      <trkpt lat="44.01135" lon="3.41629">
        <ele>1049</ele>
        <time>2020-08-26T11:20:35.000Z</time>
      </trkpt>
      <trkpt lat="44.01147" lon="3.41635">
        <ele>1067.6</ele>
        <time>2020-08-26T11:20:45.000Z</time>
      </trkpt>
      <trkpt lat="44.01159" lon="3.41642">
        <ele>1051</ele>
        <time>2020-08-26T11:20:35.000Z</time>
      </trkpt>
      <trkpt lat="44.01171" lon="3.41646">
        <ele>1072.8</ele>
        <time>2020-08-26T11:20:45.000Z</time>
      </trkpt>
      <trkpt lat="44.01186" lon="3.41655">
        <ele>1060</ele>
        <time>2020-08-26T11:20:35.000Z</time>
      </trkpt>
      <trkpt lat="44.01217" lon="3.41665">
        <ele>1071</ele>
        <time>2020-08-26T11:20:35.000Z</time>
      </trkpt>
      <trkpt lat="44.01239" lon="3.4168">
        <ele>1071</ele>
        <time>2020-08-26T11:20:45.000Z</time>
      </trkpt>
      <trkpt lat="44.01263" lon="3.41695">
        <ele>1078</ele>
        <time>2020-08-26T11:20:35.000Z</time>
      </trkpt>
      <trkpt lat="44.01275" lon="3.41704">
        <ele>1096.9</ele>
        <time>2020-08-26T11:20:45.000Z</time>
      </trkpt>
      <trkpt lat="44.01284" lon="3.41709">
        <ele>1089</ele>
        <time>2020-08-26T11:20:35.000Z</time>
      </trkpt>
      <trkpt lat="44.01298" lon="3.41715">
        <ele>1103.2</ele>
        <time>2020-08-26T11:20:45.000Z</time>
      </trkpt>
      <trkpt lat="44.01311" lon="3.41717">
        <ele>1095</ele>
        <time>2020-08-26T11:20:35.000Z</time>
      </trkpt>
      <trkpt lat="44.01326" lon="3.41717">
        <ele>1111.4</ele>
        <time>2020-08-26T11:20:45.000Z</time>
      </trkpt>
      <trkpt lat="44.01341" lon="3.41719">
        <ele>1099</ele>
        <time>2020-08-26T11:20:35.000Z</time>
      </trkpt>
      <trkpt lat="44.01352" lon="3.41726">
        <ele>1117.5</ele>
        <time>2020-08-26T11:20:45.000Z</time>
      </trkpt>
      <trkpt lat="44.01366" lon="3.41737">
        <ele>1102</ele>
        <time>2020-08-26T11:20:35.000Z</time>
      </trkpt>
      <trkpt lat="44.01375" lon="3.41745">
        <ele>1121.5</ele>
        <time>2020-08-26T11:20:45.000Z</time>
      </trkpt>
      <trkpt lat="44.01398" lon="3.41769">
        <ele>1108</ele>
        <time>2020-08-26T11:20:35.000Z</time>
      </trkpt>
      <trkpt lat="44.01406" lon="3.41788">
        <ele>1128.5</ele>
        <time>2020-08-26T11:20:45.000Z</time>
      </trkpt>
      <trkpt lat="44.01419" lon="3.41801">
        <ele>1119</ele>
        <time>2020-08-26T11:20:35.000Z</time>
      </trkpt>
      <trkpt lat="44.01434" lon="3.41809">
        <ele>1137</ele>
        <time>2020-08-26T11:20:45.000Z</time>
      </trkpt>
      <trkpt lat="44.01449" lon="3.41819">
        <ele>1121</ele>
        <time>2020-08-26T11:20:35.000Z</time>
      </trkpt>
      <trkpt lat="44.01464" lon="3.41828">
        <ele>1143.8</ele>
        <time>2020-08-26T11:20:45.000Z</time>
      </trkpt>
      <trkpt lat="44.01478" lon="3.4184">
        <ele>1129</ele>
        <time>2020-08-26T11:20:35.000Z</time>
      </trkpt>
      <trkpt lat="44.01485" lon="3.41848">
        <ele>1144.6</ele>
        <time>2020-08-26T11:20:45.000Z</time>
      </trkpt>
      <trkpt lat="44.01494" lon="3.41868">
        <ele>1129</ele>
        <time>2020-08-26T11:20:35.000Z</time>
      </trkpt>
      <trkpt lat="44.01492" lon="3.41886">
        <ele>1140.4</ele>
        <time>2020-08-26T11:20:45.000Z</time>
      </trkpt>
      <trkpt lat="44.01485" lon="3.41906">
        <ele>1127</ele>
        <time>2020-08-26T11:20:35.000Z</time>
      </trkpt>
      <trkpt lat="44.0148" lon="3.41917">
        <ele>1135.7</ele>
        <time>2020-08-26T11:20:45.000Z</time>
      </trkpt>
      <trkpt lat="44.01479" lon="3.41932">
        <ele>1125</ele>
        <time>2020-08-26T11:20:35.000Z</time>
      </trkpt>
      <trkpt lat="44.01479" lon="3.41946">
        <ele>1130.8</ele>
        <time>2020-08-26T11:20:45.000Z</time>
      </trkpt>
      <trkpt lat="44.01477" lon="3.41976">
        <ele>1118</ele>
        <time>2020-08-26T11:20:35.000Z</time>
      </trkpt>
      <trkpt lat="44.01479" lon="3.42016">
        <ele>1115</ele>
        <time>2020-08-26T11:20:35.000Z</time>
      </trkpt>
      <trkpt lat="44.01477" lon="3.42037">
        <ele>1120.5</ele>
        <time>2020-08-26T11:20:45.000Z</time>
      </trkpt>
      <trkpt lat="44.01474" lon="3.42057">
        <ele>1113</ele>
        <time>2020-08-26T11:20:35.000Z</time>
      </trkpt>
      <trkpt lat="44.01468" lon="3.42074">
        <ele>1118</ele>
        <time>2020-08-26T11:20:45.000Z</time>
      </trkpt>
      <trkpt lat="44.01463" lon="3.42091">
        <ele>1112</ele>
        <time>2020-08-26T11:20:35.000Z</time>
      </trkpt>
      <trkpt lat="44.01459" lon="3.42123">
        <ele>1111</ele>
        <time>2020-08-26T11:20:35.000Z</time>
      </trkpt>
      <trkpt lat="44.01454" lon="3.42134">
        <ele>1118.8</ele>
        <time>2020-08-26T11:20:45.000Z</time>
      </trkpt>
      <trkpt lat="44.01448" lon="3.42144">
        <ele>1119.9</ele>
        <time>2020-08-26T11:20:55.000Z</time>
      </trkpt>
      <trkpt lat="44.01443" lon="3.42155">
        <ele>1111</ele>
        <time>2020-08-26T11:20:35.000Z</time>
      </trkpt>
      <trkpt lat="44.01437" lon="3.42165">
        <ele>1121.8</ele>
        <time>2020-08-26T11:20:45.000Z</time>
      </trkpt>
      <trkpt lat="44.01404" lon="3.42252">
        <ele>1123</ele>
        <time>2020-08-26T11:20:35.000Z</time>
      </trkpt>
      <trkpt lat="44.01384" lon="3.42309">
        <ele>1123</ele>
        <time>2020-08-26T11:20:35.000Z</time>
      </trkpt>
      <trkpt lat="44.01392" lon="3.42326">
        <ele>1134.5</ele>
        <time>2020-08-26T11:20:45.000Z</time>
      </trkpt>
      <trkpt lat="44.01418" lon="3.42355">
        <ele>1122</ele>
        <time>2020-08-26T11:20:35.000Z</time>
      </trkpt>
      <trkpt lat="44.01426" lon="3.42362">
        <ele>1130.9</ele>
        <time>2020-08-26T11:20:45.000Z</time>
      </trkpt>
      <trkpt lat="44.0144" lon="3.42376">
        <ele>1121</ele>
        <time>2020-08-26T11:20:35.000Z</time>
      </trkpt>
      <trkpt lat="44.01452" lon="3.42391">
        <ele>1126.3</ele>
        <time>2020-08-26T11:20:45.000Z</time>
      </trkpt>
      <trkpt lat="44.01462" lon="3.42406">
        <ele>1122</ele>
        <time>2020-08-26T11:20:35.000Z</time>
      </trkpt>
      <trkpt lat="44.01468" lon="3.42421">
        <ele>1125.1</ele>
        <time>2020-08-26T11:20:45.000Z</time>
      </trkpt>
      <trkpt lat="44.0148" lon="3.42455">
        <ele>1123</ele>
        <time>2020-08-26T11:20:35.000Z</time>
      </trkpt>
      <trkpt lat="44.01486" lon="3.42467">
        <ele>1128.4</ele>
        <time>2020-08-26T11:20:45.000Z</time>
      </trkpt>
      <trkpt lat="44.01491" lon="3.42485">
        <ele>1127</ele>
        <time>2020-08-26T11:20:35.000Z</time>
      </trkpt>
      <trkpt lat="44.01497" lon="3.42504">
        <ele>1133.9</ele>
        <time>2020-08-26T11:20:45.000Z</time>
      </trkpt>
      <trkpt lat="44.01506" lon="3.42551">
        <ele>1132</ele>
        <time>2020-08-26T11:20:35.000Z</time>
      </trkpt>
      <trkpt lat="44.01508" lon="3.42567">
        <ele>1141.1</ele>
        <time>2020-08-26T11:20:45.000Z</time>
      </trkpt>
      <trkpt lat="44.01514" lon="3.4259">
        <ele>1133</ele>
        <time>2020-08-26T11:20:35.000Z</time>
      </trkpt>
      <trkpt lat="44.01523" lon="3.42617">
        <ele>1141</ele>
        <time>2020-08-26T11:20:35.000Z</time>
      </trkpt>
      <trkpt lat="44.01538" lon="3.42656">
        <ele>1144</ele>
        <time>2020-08-26T11:20:35.000Z</time>
      </trkpt>
      <trkpt lat="44.01551" lon="3.42689">
        <ele>1146</ele>
        <time>2020-08-26T11:20:45.000Z</time>
      </trkpt>
      <trkpt lat="44.01569" lon="3.42732">
        <ele>1147</ele>
        <time>2020-08-26T11:20:35.000Z</time>
      </trkpt>
      <trkpt lat="44.01567" lon="3.42752">
        <ele>1160.4</ele>
        <time>2020-08-26T11:20:45.000Z</time>
      </trkpt>
      <trkpt lat="44.01563" lon="3.42764">
        <ele>1146</ele>
        <time>2020-08-26T11:20:35.000Z</time>
      </trkpt>
      <trkpt lat="44.0155" lon="3.42796">
        <ele>1146</ele>
        <time>2020-08-26T11:20:45.000Z</time>
      </trkpt>
      <trkpt lat="44.01535" lon="3.42835">
        <ele>1139</ele>
        <time>2020-08-26T11:20:35.000Z</time>
      </trkpt>
      <trkpt lat="44.0153" lon="3.42845">
        <ele>1150.4</ele>
        <time>2020-08-26T11:20:45.000Z</time>
      </trkpt>
      <trkpt lat="44.01505" lon="3.429">
        <ele>1136</ele>
        <time>2020-08-26T11:20:35.000Z</time>
      </trkpt>
      <trkpt lat="44.01501" lon="3.42923">
        <ele>1148.2</ele>
        <time>2020-08-26T11:20:45.000Z</time>
      </trkpt>
      <trkpt lat="44.015" lon="3.42938">
        <ele>1136</ele>
        <time>2020-08-26T11:20:35.000Z</time>
      </trkpt>
      <trkpt lat="44.015" lon="3.42953">
        <ele>1149</ele>
        <time>2020-08-26T11:20:45.000Z</time>
      </trkpt>
      <trkpt lat="44.01499" lon="3.42968">
        <ele>1136</ele>
        <time>2020-08-26T11:20:35.000Z</time>
      </trkpt>
      <trkpt lat="44.015" lon="3.42981">
        <ele>1149.3</ele>
        <time>2020-08-26T11:20:45.000Z</time>
      </trkpt>
      <trkpt lat="44.01505" lon="3.43018">
        <ele>1136</ele>
        <time>2020-08-26T11:20:35.000Z</time>
      </trkpt>
      <trkpt lat="44.0151" lon="3.43032">
        <ele>1149.2</ele>
        <time>2020-08-26T11:20:45.000Z</time>
      </trkpt>
      <trkpt lat="44.01513" lon="3.43047">
        <ele>1135</ele>
        <time>2020-08-26T11:20:35.000Z</time>
      </trkpt>
      <trkpt lat="44.01517" lon="3.43061">
        <ele>1148.4</ele>
        <time>2020-08-26T11:20:45.000Z</time>
      </trkpt>
      <trkpt lat="44.01531" lon="3.43094">
        <ele>1135</ele>
        <time>2020-08-26T11:20:35.000Z</time>
      </trkpt>
      <trkpt lat="44.01535" lon="3.43106">
        <ele>1146.4</ele>
        <time>2020-08-26T11:20:45.000Z</time>
      </trkpt>
      <trkpt lat="44.01551" lon="3.43164">
        <ele>1137</ele>
        <time>2020-08-26T11:20:35.000Z</time>
      </trkpt>
      <trkpt lat="44.01569" lon="3.43192">
        <ele>1138</ele>
        <time>2020-08-26T11:20:35.000Z</time>
      </trkpt>
      <trkpt lat="44.01593" lon="3.43216">
        <ele>1137</ele>
        <time>2020-08-26T11:20:35.000Z</time>
      </trkpt>
      <trkpt lat="44.01622" lon="3.43247">
        <ele>1137</ele>
        <time>2020-08-26T11:20:35.000Z</time>
      </trkpt>
      <trkpt lat="44.0163" lon="3.43262">
        <ele>1139.7</ele>
        <time>2020-08-26T11:20:45.000Z</time>
      </trkpt>
      <trkpt lat="44.01638" lon="3.43286">
        <ele>1140</ele>
        <time>2020-08-26T11:20:35.000Z</time>
      </trkpt>
      <trkpt lat="44.01643" lon="3.43323">
        <ele>1144</ele>
        <time>2020-08-26T11:20:35.000Z</time>
      </trkpt>
      <trkpt lat="44.01641" lon="3.43349">
        <ele>1144.2</ele>
        <time>2020-08-26T11:20:45.000Z</time>
      </trkpt>
      <trkpt lat="44.01642" lon="3.43363">
        <ele>1150</ele>
        <time>2020-08-26T11:20:35.000Z</time>
      </trkpt>
      <trkpt lat="44.01647" lon="3.43392">
        <ele>1153</ele>
        <time>2020-08-26T11:20:35.000Z</time>
      </trkpt>
      <trkpt lat="44.01649" lon="3.43422">
        <ele>1154</ele>
        <time>2020-08-26T11:20:35.000Z</time>
      </trkpt>
      <trkpt lat="44.01657" lon="3.43462">
        <ele>1159</ele>
        <time>2020-08-26T11:20:35.000Z</time>
      </trkpt>
      <trkpt lat="44.01656" lon="3.43484">
        <ele>1146.5</ele>
        <time>2020-08-26T11:20:45.000Z</time>
      </trkpt>
      <trkpt lat="44.01658" lon="3.43502">
        <ele>1155</ele>
        <time>2020-08-26T11:20:35.000Z</time>
      </trkpt>
      <trkpt lat="44.01664" lon="3.43513">
        <ele>1147.4</ele>
        <time>2020-08-26T11:20:45.000Z</time>
      </trkpt>
      <trkpt lat="44.01675" lon="3.43528">
        <ele>1152</ele>
        <time>2020-08-26T11:20:35.000Z</time>
      </trkpt>
      <trkpt lat="44.01685" lon="3.43539">
        <ele>1145.2</ele>
        <time>2020-08-26T11:20:45.000Z</time>
      </trkpt>
      <trkpt lat="44.01694" lon="3.43551">
        <ele>1148</ele>
        <time>2020-08-26T11:20:35.000Z</time>
      </trkpt>
      <trkpt lat="44.01704" lon="3.43562">
        <ele>1145.6</ele>
        <time>2020-08-26T11:20:45.000Z</time>
      </trkpt>
      <trkpt lat="44.01715" lon="3.43571">
        <ele>1145</ele>
        <time>2020-08-26T11:20:35.000Z</time>
      </trkpt>
      <trkpt lat="44.01728" lon="3.43578">
        <ele>1144.7</ele>
        <time>2020-08-26T11:20:45.000Z</time>
      </trkpt>
      <trkpt lat="44.01754" lon="3.43594">
        <ele>1146</ele>
        <time>2020-08-26T11:20:35.000Z</time>
      </trkpt>
      <trkpt lat="44.01765" lon="3.436">
        <ele>1147</ele>
        <time>2020-08-26T11:20:45.000Z</time>
      </trkpt>
      <trkpt lat="44.01778" lon="3.43604">
        <ele>1148</ele>
        <time>2020-08-26T11:20:35.000Z</time>
      </trkpt>
      <trkpt lat="44.01796" lon="3.43616">
        <ele>1148</ele>
        <time>2020-08-26T11:20:35.000Z</time>
      </trkpt>
      <trkpt lat="44.01812" lon="3.43628">
        <ele>1150.4</ele>
        <time>2020-08-26T11:20:45.000Z</time>
      </trkpt>
      <trkpt lat="44.01828" lon="3.43642">
        <ele>1143</ele>
        <time>2020-08-26T11:20:35.000Z</time>
      </trkpt>
      <trkpt lat="44.01846" lon="3.43652">
        <ele>1143</ele>
        <time>2020-08-26T11:20:35.000Z</time>
      </trkpt>
      <trkpt lat="44.01857" lon="3.43657">
        <ele>1152.2</ele>
        <time>2020-08-26T11:20:45.000Z</time>
      </trkpt>
      <trkpt lat="44.01866" lon="3.4366">
        <ele>1143</ele>
        <time>2020-08-26T11:20:35.000Z</time>
      </trkpt>
      <trkpt lat="44.01879" lon="3.43668">
        <ele>1153.4</ele>
        <time>2020-08-26T11:20:45.000Z</time>
      </trkpt>
      <trkpt lat="44.01904" lon="3.43685">
        <ele>1143</ele>
        <time>2020-08-26T11:20:35.000Z</time>
      </trkpt>
      <trkpt lat="44.01922" lon="3.43699">
        <ele>1140</ele>
        <time>2020-08-26T11:20:35.000Z</time>
      </trkpt>
      <trkpt lat="44.01933" lon="3.43704">
        <ele>1156.8</ele>
        <time>2020-08-26T11:20:45.000Z</time>
      </trkpt>
      <trkpt lat="44.01948" lon="3.43707">
        <ele>1144</ele>
        <time>2020-08-26T11:20:35.000Z</time>
      </trkpt>
      <trkpt lat="44.01976" lon="3.43715">
        <ele>1144</ele>
        <time>2020-08-26T11:20:45.000Z</time>
      </trkpt>
      <trkpt lat="44.02019" lon="3.43726">
        <ele>1145</ele>
        <time>2020-08-26T11:20:35.000Z</time>
      </trkpt>
      <trkpt lat="44.02033" lon="3.43734">
        <ele>1153.2</ele>
        <time>2020-08-26T11:20:45.000Z</time>
      </trkpt>
      <trkpt lat="44.02038" lon="3.43746">
        <ele>1145</ele>
        <time>2020-08-26T11:20:35.000Z</time>
      </trkpt>
      <trkpt lat="44.0204" lon="3.43763">
        <ele>1153</ele>
        <time>2020-08-26T11:20:45.000Z</time>
      </trkpt>
      <trkpt lat="44.02038" lon="3.43782">
        <ele>1150</ele>
        <time>2020-08-26T11:20:35.000Z</time>
      </trkpt>
      <trkpt lat="44.0203" lon="3.43805">
        <ele>1153.5</ele>
        <time>2020-08-26T11:20:45.000Z</time>
      </trkpt>
      <trkpt lat="44.02022" lon="3.43818">
        <ele>1150</ele>
        <time>2020-08-26T11:20:35.000Z</time>
      </trkpt>
      <trkpt lat="44.02014" lon="3.43835">
        <ele>1152.3</ele>
        <time>2020-08-26T11:20:45.000Z</time>
      </trkpt>
      <trkpt lat="44.02001" lon="3.43874">
        <ele>1144</ele>
        <time>2020-08-26T11:20:35.000Z</time>
      </trkpt>
      <trkpt lat="44.01994" lon="3.43888">
        <ele>1149.5</ele>
        <time>2020-08-26T11:20:45.000Z</time>
      </trkpt>
      <trkpt lat="44.0199" lon="3.43906">
        <ele>1142</ele>
        <time>2020-08-26T11:20:35.000Z</time>
      </trkpt>
      <trkpt lat="44.02" lon="3.43923">
        <ele>1148</ele>
        <time>2020-08-26T11:20:45.000Z</time>
      </trkpt>
      <trkpt lat="44.02011" lon="3.43933">
        <ele>1142</ele>
        <time>2020-08-26T11:20:35.000Z</time>
      </trkpt>
      <trkpt lat="44.02023" lon="3.43949">
        <ele>1150.9</ele>
        <time>2020-08-26T11:20:45.000Z</time>
      </trkpt>
      <trkpt lat="44.02036" lon="3.43962">
        <ele>1148</ele>
        <time>2020-08-26T11:20:35.000Z</time>
      </trkpt>
      <trkpt lat="44.02048" lon="3.43964">
        <ele>1156.1</ele>
        <time>2020-08-26T11:20:45.000Z</time>
      </trkpt>
      <trkpt lat="44.02062" lon="3.4396">
        <ele>1150</ele>
        <time>2020-08-26T11:20:35.000Z</time>
      </trkpt>
      <trkpt lat="44.02071" lon="3.43959">
        <ele>1156.4</ele>
        <time>2020-08-26T11:20:45.000Z</time>
      </trkpt>
      <trkpt lat="44.02081" lon="3.43962">
        <ele>1157.4</ele>
        <time>2020-08-26T11:20:55.000Z</time>
      </trkpt>
      <trkpt lat="44.02087" lon="3.43984">
        <ele>1152</ele>
        <time>2020-08-26T11:20:35.000Z</time>
      </trkpt>
      <trkpt lat="44.02078" lon="3.4399">
        <ele>1162.4</ele>
        <time>2020-08-26T11:20:45.000Z</time>
      </trkpt>
      <trkpt lat="44.02069" lon="3.44">
        <ele>1156</ele>
        <time>2020-08-26T11:20:35.000Z</time>
      </trkpt>
      <trkpt lat="44.02065" lon="3.44015">
        <ele>1165.7</ele>
        <time>2020-08-26T11:20:45.000Z</time>
      </trkpt>
      <trkpt lat="44.02052" lon="3.44051">
        <ele>1166</ele>
        <time>2020-08-26T11:20:35.000Z</time>
      </trkpt>
      <trkpt lat="44.02043" lon="3.44069">
        <ele>1172.2</ele>
        <time>2020-08-26T11:20:45.000Z</time>
      </trkpt>
      <trkpt lat="44.02038" lon="3.44088">
        <ele>1166</ele>
        <time>2020-08-26T11:20:35.000Z</time>
      </trkpt>
      <trkpt lat="44.02034" lon="3.44109">
        <ele>1178.7</ele>
        <time>2020-08-26T11:20:45.000Z</time>
      </trkpt>
      <trkpt lat="44.02028" lon="3.44124">
        <ele>1167</ele>
        <time>2020-08-26T11:20:35.000Z</time>
      </trkpt>
      <trkpt lat="44.02017" lon="3.4414">
        <ele>1182.2</ele>
        <time>2020-08-26T11:20:45.000Z</time>
      </trkpt>
      <trkpt lat="44.02012" lon="3.44158">
        <ele>1169</ele>
        <time>2020-08-26T11:20:35.000Z</time>
      </trkpt>
      <trkpt lat="44.02007" lon="3.44172">
        <ele>1187.4</ele>
        <time>2020-08-26T11:20:45.000Z</time>
      </trkpt>
      <trkpt lat="44.01995" lon="3.44201">
        <ele>1182</ele>
        <time>2020-08-26T11:20:35.000Z</time>
      </trkpt>
      <trkpt lat="44.01992" lon="3.44214">
        <ele>1192.3</ele>
        <time>2020-08-26T11:20:45.000Z</time>
      </trkpt>
      <trkpt lat="44.0199" lon="3.44233">
        <ele>1187</ele>
        <time>2020-08-26T11:20:35.000Z</time>
      </trkpt>
      <trkpt lat="44.01985" lon="3.44248">
        <ele>1196.7</ele>
        <time>2020-08-26T11:20:45.000Z</time>
      </trkpt>
      <trkpt lat="44.0198" lon="3.44277">
        <ele>1190</ele>
        <time>2020-08-26T11:20:35.000Z</time>
      </trkpt>
      <trkpt lat="44.01972" lon="3.44289">
        <ele>1197.7</ele>
        <time>2020-08-26T11:20:45.000Z</time>
      </trkpt>
      <trkpt lat="44.01968" lon="3.44302">
        <ele>1192</ele>
        <time>2020-08-26T11:20:35.000Z</time>
      </trkpt>
      <trkpt lat="44.01976" lon="3.44315">
        <ele>1200</ele>
        <time>2020-08-26T11:20:45.000Z</time>
      </trkpt>
      <trkpt lat="44.01998" lon="3.44335">
        <ele>1206</ele>
        <time>2020-08-26T11:20:35.000Z</time>
      </trkpt>
      <trkpt lat="44.02007" lon="3.4434">
        <ele>1208.1</ele>
        <time>2020-08-26T11:20:45.000Z</time>
      </trkpt>
      <trkpt lat="44.02013" lon="3.44358">
        <ele>1211</ele>
        <time>2020-08-26T11:20:35.000Z</time>
      </trkpt>
      <trkpt lat="44.02011" lon="3.44374">
        <ele>1211.4</ele>
        <time>2020-08-26T11:20:45.000Z</time>
      </trkpt>
      <trkpt lat="44.02004" lon="3.44406">
        <ele>1214</ele>
        <time>2020-08-26T11:20:35.000Z</time>
      </trkpt>
      <trkpt lat="44.0199" lon="3.44437">
        <ele>1213</ele>
        <time>2020-08-26T11:20:35.000Z</time>
      </trkpt>
      <trkpt lat="44.01983" lon="3.44464">
        <ele>1213</ele>
        <time>2020-08-26T11:20:35.000Z</time>
      </trkpt>
      <trkpt lat="44.01968" lon="3.44501">
        <ele>1212</ele>
        <time>2020-08-26T11:20:35.000Z</time>
      </trkpt>
      <trkpt lat="44.01955" lon="3.44512">
        <ele>1220.8</ele>
        <time>2020-08-26T11:20:45.000Z</time>
      </trkpt>
      <trkpt lat="44.01942" lon="3.4452">
        <ele>1214</ele>
        <time>2020-08-26T11:20:35.000Z</time>
      </trkpt>
      <trkpt lat="44.01926" lon="3.44536">
        <ele>1211</ele>
        <time>2020-08-26T11:20:35.000Z</time>
      </trkpt>
      <trkpt lat="44.01916" lon="3.44542">
        <ele>1223.5</ele>
        <time>2020-08-26T11:20:45.000Z</time>
      </trkpt>
      <trkpt lat="44.01903" lon="3.44548">
        <ele>1213</ele>
        <time>2020-08-26T11:20:35.000Z</time>
      </trkpt>
      <trkpt lat="44.01892" lon="3.44551">
        <ele>1224.6</ele>
        <time>2020-08-26T11:20:45.000Z</time>
      </trkpt>
      <trkpt lat="44.01873" lon="3.44554">
        <ele>1213</ele>
        <time>2020-08-26T11:20:35.000Z</time>
      </trkpt>
      <trkpt lat="44.01854" lon="3.44556">
        <ele>1219.6</ele>
        <time>2020-08-26T11:20:45.000Z</time>
      </trkpt>
      <trkpt lat="44.01838" lon="3.44561">
        <ele>1213</ele>
        <time>2020-08-26T11:20:35.000Z</time>
      </trkpt>
      <trkpt lat="44.01829" lon="3.44566">
        <ele>1217.9</ele>
        <time>2020-08-26T11:20:45.000Z</time>
      </trkpt>
      <trkpt lat="44.01807" lon="3.44576">
        <ele>1210</ele>
        <time>2020-08-26T11:20:35.000Z</time>
      </trkpt>
      <trkpt lat="44.01798" lon="3.44582">
        <ele>1215.6</ele>
        <time>2020-08-26T11:20:45.000Z</time>
      </trkpt>
      <trkpt lat="44.01779" lon="3.44587">
        <ele>1208</ele>
        <time>2020-08-26T11:20:35.000Z</time>
      </trkpt>
      <trkpt lat="44.01763" lon="3.44598">
        <ele>1213.1</ele>
        <time>2020-08-26T11:20:45.000Z</time>
      </trkpt>
      <trkpt lat="44.01754" lon="3.44605">
        <ele>1208</ele>
        <time>2020-08-26T11:20:35.000Z</time>
      </trkpt>
      <trkpt lat="44.01733" lon="3.44605">
        <ele>1201</ele>
        <time>2020-08-26T11:20:35.000Z</time>
      </trkpt>
      <trkpt lat="44.01722" lon="3.44609">
        <ele>1209.1</ele>
        <time>2020-08-26T11:20:45.000Z</time>
      </trkpt>
      <trkpt lat="44.01711" lon="3.44614">
        <ele>1201</ele>
        <time>2020-08-26T11:20:35.000Z</time>
      </trkpt>
      <trkpt lat="44.01697" lon="3.44617">
        <ele>1208.7</ele>
        <time>2020-08-26T11:20:45.000Z</time>
      </trkpt>
      <trkpt lat="44.01675" lon="3.44614">
        <ele>1189</ele>
        <time>2020-08-26T11:20:35.000Z</time>
      </trkpt>
      <trkpt lat="44.01662" lon="3.44616">
        <ele>1201.5</ele>
        <time>2020-08-26T11:20:45.000Z</time>
      </trkpt>
      <trkpt lat="44.01646" lon="3.44622">
        <ele>1187</ele>
        <time>2020-08-26T11:20:35.000Z</time>
      </trkpt>
      <trkpt lat="44.01631" lon="3.44633">
        <ele>1198.1</ele>
        <time>2020-08-26T11:20:45.000Z</time>
      </trkpt>
      <trkpt lat="44.01618" lon="3.44649">
        <ele>1188</ele>
        <time>2020-08-26T11:20:35.000Z</time>
      </trkpt>
      <trkpt lat="44.01596" lon="3.44673">
        <ele>1190</ele>
        <time>2020-08-26T11:20:35.000Z</time>
      </trkpt>
      <trkpt lat="44.01584" lon="3.44685">
        <ele>1197.6</ele>
        <time>2020-08-26T11:20:45.000Z</time>
      </trkpt>
      <trkpt lat="44.01575" lon="3.44692">
        <ele>1193</ele>
        <time>2020-08-26T11:20:35.000Z</time>
      </trkpt>
      <trkpt lat="44.01567" lon="3.447">
        <ele>1195.5</ele>
        <time>2020-08-26T11:20:45.000Z</time>
      </trkpt>
      <trkpt lat="44.01553" lon="3.44712">
        <ele>1188</ele>
        <time>2020-08-26T11:20:35.000Z</time>
      </trkpt>
      <trkpt lat="44.01537" lon="3.44728">
        <ele>1184</ele>
        <time>2020-08-26T11:20:35.000Z</time>
      </trkpt>
      <trkpt lat="44.01528" lon="3.4474">
        <ele>1192.5</ele>
        <time>2020-08-26T11:20:45.000Z</time>
      </trkpt>
      <trkpt lat="44.01517" lon="3.44753">
        <ele>1182</ele>
        <time>2020-08-26T11:20:35.000Z</time>
      </trkpt>
      <trkpt lat="44.01504" lon="3.44765">
        <ele>1191.4</ele>
        <time>2020-08-26T11:20:45.000Z</time>
      </trkpt>
      <trkpt lat="44.0148" lon="3.44782">
        <ele>1183</ele>
        <time>2020-08-26T11:20:35.000Z</time>
      </trkpt>
      <trkpt lat="44.01473" lon="3.44792">
        <ele>1187.9</ele>
        <time>2020-08-26T11:20:45.000Z</time>
      </trkpt>
      <trkpt lat="44.01465" lon="3.44802">
        <ele>1178</ele>
        <time>2020-08-26T11:20:35.000Z</time>
      </trkpt>
      <trkpt lat="44.0145" lon="3.44817">
        <ele>1186.1</ele>
        <time>2020-08-26T11:20:45.000Z</time>
      </trkpt>
      <trkpt lat="44.01439" lon="3.44827">
        <ele>1178</ele>
        <time>2020-08-26T11:20:35.000Z</time>
      </trkpt>
      <trkpt lat="44.0143" lon="3.44845">
        <ele>1185.8</ele>
        <time>2020-08-26T11:20:45.000Z</time>
      </trkpt>
      <trkpt lat="44.01425" lon="3.4486">
        <ele>1178</ele>
        <time>2020-08-26T11:20:35.000Z</time>
      </trkpt>
      <trkpt lat="44.01411" lon="3.44887">
        <ele>1177</ele>
        <time>2020-08-26T11:20:35.000Z</time>
      </trkpt>
      <trkpt lat="44.01401" lon="3.44897">
        <ele>1188.8</ele>
        <time>2020-08-26T11:20:45.000Z</time>
      </trkpt>
      <trkpt lat="44.01389" lon="3.44902">
        <ele>1177</ele>
        <time>2020-08-26T11:20:35.000Z</time>
      </trkpt>
      <trkpt lat="44.01377" lon="3.44905">
        <ele>1185.2</ele>
        <time>2020-08-26T11:20:45.000Z</time>
      </trkpt>
      <trkpt lat="44.01372" lon="3.44918">
        <ele>1178</ele>
        <time>2020-08-26T11:20:35.000Z</time>
      </trkpt>
      <trkpt lat="44.01401" lon="3.44923">
        <ele>1179</ele>
        <time>2020-08-26T11:20:35.000Z</time>
      </trkpt>
      <trkpt lat="44.01412" lon="3.44929">
        <ele>1194.4</ele>
        <time>2020-08-26T11:20:45.000Z</time>
      </trkpt>
      <trkpt lat="44.01426" lon="3.44932">
        <ele>1183</ele>
        <time>2020-08-26T11:20:35.000Z</time>
      </trkpt>
      <trkpt lat="44.0144" lon="3.44939">
        <ele>1201</ele>
        <time>2020-08-26T11:20:45.000Z</time>
      </trkpt>
      <trkpt lat="44.01455" lon="3.44935">
        <ele>1194</ele>
        <time>2020-08-26T11:20:35.000Z</time>
      </trkpt>
      <trkpt lat="44.01466" lon="3.44924">
        <ele>1207.4</ele>
        <time>2020-08-26T11:20:45.000Z</time>
      </trkpt>
      <trkpt lat="44.0148" lon="3.44921">
        <ele>1203</ele>
        <time>2020-08-26T11:20:35.000Z</time>
      </trkpt>
      <trkpt lat="44.01493" lon="3.44917">
        <ele>1214.2</ele>
        <time>2020-08-26T11:20:45.000Z</time>
      </trkpt>
      <trkpt lat="44.01506" lon="3.44911">
        <ele>1209</ele>
        <time>2020-08-26T11:20:35.000Z</time>
      </trkpt>
      <trkpt lat="44.01522" lon="3.44911">
        <ele>1221.9</ele>
        <time>2020-08-26T11:20:45.000Z</time>
      </trkpt>
      <trkpt lat="44.01529" lon="3.44899">
        <ele>1212</ele>
        <time>2020-08-26T11:20:35.000Z</time>
      </trkpt>
      <trkpt lat="44.01541" lon="3.4489">
        <ele>1227.7</ele>
        <time>2020-08-26T11:20:45.000Z</time>
      </trkpt>
      <trkpt lat="44.0155" lon="3.44877">
        <ele>1221</ele>
        <time>2020-08-26T11:20:35.000Z</time>
      </trkpt>
      <trkpt lat="44.01561" lon="3.4487">
        <ele>1234.2</ele>
        <time>2020-08-26T11:20:45.000Z</time>
      </trkpt>
      <trkpt lat="44.01576" lon="3.44866">
        <ele>1227</ele>
        <time>2020-08-26T11:20:35.000Z</time>
      </trkpt>
      <trkpt lat="44.01588" lon="3.44861">
        <ele>1240.5</ele>
        <time>2020-08-26T11:20:45.000Z</time>
      </trkpt>
      <trkpt lat="44.01604" lon="3.44842">
        <ele>1229</ele>
        <time>2020-08-26T11:20:35.000Z</time>
      </trkpt>
      <trkpt lat="44.01613" lon="3.4483">
        <ele>1247.4</ele>
        <time>2020-08-26T11:20:45.000Z</time>
      </trkpt>
      <trkpt lat="44.01625" lon="3.44819">
        <ele>1231</ele>
        <time>2020-08-26T11:20:35.000Z</time>
      </trkpt>
      <trkpt lat="44.01635" lon="3.44811">
        <ele>1251.9</ele>
        <time>2020-08-26T11:20:45.000Z</time>
      </trkpt>
      <trkpt lat="44.01663" lon="3.44809">
        <ele>1249</ele>
        <time>2020-08-26T11:20:35.000Z</time>
      </trkpt>
      <trkpt lat="44.01673" lon="3.44807">
        <ele>1258.3</ele>
        <time>2020-08-26T11:20:45.000Z</time>
      </trkpt>
      <trkpt lat="44.01684" lon="3.44802">
        <ele>1249</ele>
        <time>2020-08-26T11:20:35.000Z</time>
      </trkpt>
      <trkpt lat="44.01697" lon="3.448">
        <ele>1263</ele>
        <time>2020-08-26T11:20:45.000Z</time>
      </trkpt>
      <trkpt lat="44.01708" lon="3.44801">
        <ele>1257</ele>
        <time>2020-08-26T11:20:35.000Z</time>
      </trkpt>
      <trkpt lat="44.01718" lon="3.44798">
        <ele>1267.9</ele>
        <time>2020-08-26T11:20:45.000Z</time>
      </trkpt>
      <trkpt lat="44.01728" lon="3.448">
        <ele>1262</ele>
        <time>2020-08-26T11:20:35.000Z</time>
      </trkpt>
      <trkpt lat="44.01736" lon="3.44805">
        <ele>1273.4</ele>
        <time>2020-08-26T11:20:45.000Z</time>
      </trkpt>
      <trkpt lat="44.01742" lon="3.44818">
        <ele>1268</ele>
        <time>2020-08-26T11:20:35.000Z</time>
      </trkpt>
      <trkpt lat="44.01755" lon="3.4482">
        <ele>1278.4</ele>
        <time>2020-08-26T11:20:45.000Z</time>
      </trkpt>
      <trkpt lat="44.01765" lon="3.44827">
        <ele>1269</ele>
        <time>2020-08-26T11:20:35.000Z</time>
      </trkpt>
      <trkpt lat="44.01782" lon="3.44824">
        <ele>1283.1</ele>
        <time>2020-08-26T11:20:45.000Z</time>
      </trkpt>
      <trkpt lat="44.01792" lon="3.44832">
        <ele>1276</ele>
        <time>2020-08-26T11:20:35.000Z</time>
      </trkpt>
      <trkpt lat="44.01811" lon="3.44829">
        <ele>1286.2</ele>
        <time>2020-08-26T11:20:45.000Z</time>
      </trkpt>
      <trkpt lat="44.01823" lon="3.44838">
        <ele>1282</ele>
        <time>2020-08-26T11:20:35.000Z</time>
      </trkpt>
      <trkpt lat="44.01839" lon="3.4484">
        <ele>1288.2</ele>
        <time>2020-08-26T11:20:45.000Z</time>
      </trkpt>
      <trkpt lat="44.01853" lon="3.44836">
        <ele>1284</ele>
        <time>2020-08-26T11:20:35.000Z</time>
      </trkpt>
      <trkpt lat="44.0189" lon="3.44831">
        <ele>1287</ele>
        <time>2020-08-26T11:20:35.000Z</time>
      </trkpt>
      <trkpt lat="44.019" lon="3.44833">
        <ele>1290</ele>
        <time>2020-08-26T11:20:45.000Z</time>
      </trkpt>
      <trkpt lat="44.01911" lon="3.44833">
        <ele>1287</ele>
        <time>2020-08-26T11:20:35.000Z</time>
      </trkpt>
      <trkpt lat="44.01921" lon="3.44835">
        <ele>1290</ele>
        <time>2020-08-26T11:20:45.000Z</time>
      </trkpt>
      <trkpt lat="44.01937" lon="3.44837">
        <ele>1287</ele>
        <time>2020-08-26T11:20:35.000Z</time>
      </trkpt>
      <trkpt lat="44.01947" lon="3.4484">
        <ele>1290.3</ele>
        <time>2020-08-26T11:20:45.000Z</time>
      </trkpt>
      <trkpt lat="44.01958" lon="3.44838">
        <ele>1288</ele>
        <time>2020-08-26T11:20:35.000Z</time>
      </trkpt>
      <trkpt lat="44.01963" lon="3.44855">
        <ele>1291.4</ele>
        <time>2020-08-26T11:20:45.000Z</time>
      </trkpt>
      <trkpt lat="44.0197" lon="3.44868">
        <ele>1290</ele>
        <time>2020-08-26T11:20:35.000Z</time>
      </trkpt>
      <trkpt lat="44.01981" lon="3.44899">
        <ele>1290</ele>
        <time>2020-08-26T11:20:35.000Z</time>
      </trkpt>
      <trkpt lat="44.01986" lon="3.44933">
        <ele>1291</ele>
        <time>2020-08-26T11:20:35.000Z</time>
      </trkpt>
      <trkpt lat="44.01994" lon="3.44952">
        <ele>1294.1</ele>
        <time>2020-08-26T11:20:45.000Z</time>
      </trkpt>
      <trkpt lat="44.01998" lon="3.44977">
        <ele>1292</ele>
        <time>2020-08-26T11:20:35.000Z</time>
      </trkpt>
      <trkpt lat="44.02002" lon="3.44995">
        <ele>1296.2</ele>
        <time>2020-08-26T11:20:45.000Z</time>
      </trkpt>
      <trkpt lat="44.02008" lon="3.45006">
        <ele>1294</ele>
        <time>2020-08-26T11:20:35.000Z</time>
      </trkpt>
      <trkpt lat="44.02016" lon="3.45019">
        <ele>1300.5</ele>
        <time>2020-08-26T11:20:45.000Z</time>
      </trkpt>
      <trkpt lat="44.02026" lon="3.45031">
        <ele>1297</ele>
        <time>2020-08-26T11:20:35.000Z</time>
      </trkpt>
      <trkpt lat="44.02046" lon="3.45061">
        <ele>1297</ele>
        <time>2020-08-26T11:20:35.000Z</time>
      </trkpt>
      <trkpt lat="44.02057" lon="3.45074">
        <ele>1311.5</ele>
        <time>2020-08-26T11:20:45.000Z</time>
      </trkpt>
      <trkpt lat="44.02066" lon="3.45092">
        <ele>1308</ele>
        <time>2020-08-26T11:20:35.000Z</time>
      </trkpt>
      <trkpt lat="44.02074" lon="3.45102">
        <ele>1314.9</ele>
        <time>2020-08-26T11:20:45.000Z</time>
      </trkpt>
      <trkpt lat="44.02082" lon="3.45109">
        <ele>1315</ele>
        <time>2020-08-26T11:20:35.000Z</time>
      </trkpt>
      <trkpt lat="44.0209" lon="3.45119">
        <ele>1317</ele>
        <time>2020-08-26T11:20:45.000Z</time>
      </trkpt>
      <trkpt lat="44.02101" lon="3.45127">
        <ele>1317</ele>
        <time>2020-08-26T11:20:35.000Z</time>
      </trkpt>
      <trkpt lat="44.02111" lon="3.45138">
        <ele>1319</ele>
        <time>2020-08-26T11:20:45.000Z</time>
      </trkpt>
      <trkpt lat="44.02135" lon="3.45168">
        <ele>1321</ele>
        <time>2020-08-26T11:20:35.000Z</time>
      </trkpt>
      <trkpt lat="44.02144" lon="3.45181">
        <ele>1324.9</ele>
        <time>2020-08-26T11:20:45.000Z</time>
      </trkpt>
      <trkpt lat="44.02147" lon="3.45194">
        <ele>1323</ele>
        <time>2020-08-26T11:20:35.000Z</time>
      </trkpt>
      <trkpt lat="44.02153" lon="3.45208">
        <ele>1327.5</ele>
        <time>2020-08-26T11:20:45.000Z</time>
      </trkpt>
      <trkpt lat="44.02154" lon="3.45226">
        <ele>1325</ele>
        <time>2020-08-26T11:20:35.000Z</time>
      </trkpt>
      <trkpt lat="44.02164" lon="3.45228">
        <ele>1328.5</ele>
        <time>2020-08-26T11:20:45.000Z</time>
      </trkpt>
      <trkpt lat="44.02181" lon="3.45226">
        <ele>1327</ele>
        <time>2020-08-26T11:20:35.000Z</time>
      </trkpt>
      <trkpt lat="44.02203" lon="3.45233">
        <ele>1328</ele>
        <time>2020-08-26T11:20:35.000Z</time>
      </trkpt>
      <trkpt lat="44.02209" lon="3.45242">
        <ele>1331.1</ele>
        <time>2020-08-26T11:20:45.000Z</time>
      </trkpt>
      <trkpt lat="44.02215" lon="3.45254">
        <ele>1330.1</ele>
        <time>2020-08-26T11:20:55.000Z</time>
      </trkpt>
      <trkpt lat="44.02234" lon="3.45275">
        <ele>1330</ele>
        <time>2020-08-26T11:20:35.000Z</time>
      </trkpt>
      <trkpt lat="44.02238" lon="3.45298">
        <ele>1329.1</ele>
        <time>2020-08-26T11:20:45.000Z</time>
      </trkpt>
      <trkpt lat="44.02245" lon="3.45318">
        <ele>1329</ele>
        <time>2020-08-26T11:20:35.000Z</time>
      </trkpt>
      <trkpt lat="44.02252" lon="3.45335">
        <ele>1331.3</ele>
        <time>2020-08-26T11:20:45.000Z</time>
      </trkpt>
      <trkpt lat="44.02263" lon="3.45349">
        <ele>1329</ele>
        <time>2020-08-26T11:20:35.000Z</time>
      </trkpt>
      <trkpt lat="44.02279" lon="3.45359">
        <ele>1332.4</ele>
        <time>2020-08-26T11:20:45.000Z</time>
      </trkpt>
      <trkpt lat="44.02293" lon="3.45372">
        <ele>1327</ele>
        <time>2020-08-26T11:20:35.000Z</time>
      </trkpt>
      <trkpt lat="44.02303" lon="3.45383">
        <ele>1322.7</ele>
        <time>2020-08-26T11:20:45.000Z</time>
      </trkpt>
      <trkpt lat="44.0231" lon="3.45401">
        <ele>1318</ele>
        <time>2020-08-26T11:20:35.000Z</time>
      </trkpt>
      <trkpt lat="44.02316" lon="3.45414">
        <ele>1316</ele>
        <time>2020-08-26T11:20:45.000Z</time>
      </trkpt>
      <trkpt lat="44.02322" lon="3.45435">
        <ele>1312</ele>
        <time>2020-08-26T11:20:35.000Z</time>
      </trkpt>
      <trkpt lat="44.0232" lon="3.45447">
        <ele>1311.5</ele>
        <time>2020-08-26T11:20:45.000Z</time>
      </trkpt>
      <trkpt lat="44.0232" lon="3.45476">
        <ele>1310</ele>
        <time>2020-08-26T11:20:35.000Z</time>
      </trkpt>
      <trkpt lat="44.02314" lon="3.45493">
        <ele>1308.1</ele>
        <time>2020-08-26T11:20:45.000Z</time>
      </trkpt>
      <trkpt lat="44.02312" lon="3.45507">
        <ele>1308</ele>
        <time>2020-08-26T11:20:35.000Z</time>
      </trkpt>
      <trkpt lat="44.02312" lon="3.4552">
        <ele>1305.1</ele>
        <time>2020-08-26T11:20:45.000Z</time>
      </trkpt>
      <trkpt lat="44.0231" lon="3.45537">
        <ele>1300</ele>
        <time>2020-08-26T11:20:35.000Z</time>
      </trkpt>
      <trkpt lat="44.02303" lon="3.45558">
        <ele>1303.2</ele>
        <time>2020-08-26T11:20:45.000Z</time>
      </trkpt>
      <trkpt lat="44.02291" lon="3.45579">
        <ele>1297</ele>
        <time>2020-08-26T11:20:35.000Z</time>
      </trkpt>
      <trkpt lat="44.02263" lon="3.45611">
        <ele>1297</ele>
        <time>2020-08-26T11:20:35.000Z</time>
      </trkpt>
      <trkpt lat="44.02253" lon="3.45617">
        <ele>1299.1</ele>
        <time>2020-08-26T11:20:45.000Z</time>
      </trkpt>
      <trkpt lat="44.02237" lon="3.45633">
        <ele>1297</ele>
        <time>2020-08-26T11:20:35.000Z</time>
      </trkpt>
      <trkpt lat="44.02241" lon="3.45645">
        <ele>1296</ele>
        <time>2020-08-26T11:20:45.000Z</time>
      </trkpt>
      <trkpt lat="44.02249" lon="3.45652">
        <ele>1295.6</ele>
        <time>2020-08-26T11:20:55.000Z</time>
      </trkpt>
      <trkpt lat="44.02265" lon="3.45642">
        <ele>1296</ele>
        <time>2020-08-26T11:20:35.000Z</time>
      </trkpt>
      <trkpt lat="44.02276" lon="3.45636">
        <ele>1293.9</ele>
        <time>2020-08-26T11:20:45.000Z</time>
      </trkpt>
      <trkpt lat="44.02321" lon="3.45607">
        <ele>1289</ele>
        <time>2020-08-26T11:20:35.000Z</time>
      </trkpt>
      <trkpt lat="44.02333" lon="3.45605">
        <ele>1289</ele>
        <time>2020-08-26T11:20:45.000Z</time>
      </trkpt>
      <trkpt lat="44.02343" lon="3.45599">
        <ele>1289</ele>
        <time>2020-08-26T11:20:35.000Z</time>
      </trkpt>
      <trkpt lat="44.02354" lon="3.45591">
        <ele>1286.8</ele>
        <time>2020-08-26T11:20:45.000Z</time>
      </trkpt>
      <trkpt lat="44.02369" lon="3.45577">
        <ele>1286</ele>
        <time>2020-08-26T11:20:35.000Z</time>
      </trkpt>
      <trkpt lat="44.02375" lon="3.45566">
        <ele>1285.9</ele>
        <time>2020-08-26T11:20:45.000Z</time>
      </trkpt>
      <trkpt lat="44.0238" lon="3.4555">
        <ele>1283</ele>
        <time>2020-08-26T11:20:35.000Z</time>
      </trkpt>
      <trkpt lat="44.02387" lon="3.45535">
        <ele>1285.9</ele>
        <time>2020-08-26T11:20:45.000Z</time>
      </trkpt>
      <trkpt lat="44.02392" lon="3.45521">
        <ele>1283</ele>
        <time>2020-08-26T11:20:35.000Z</time>
      </trkpt>
      <trkpt lat="44.02397" lon="3.45491">
        <ele>1283</ele>
        <time>2020-08-26T11:20:35.000Z</time>
      </trkpt>
      <trkpt lat="44.02402" lon="3.45479">
        <ele>1285.7</ele>
        <time>2020-08-26T11:20:45.000Z</time>
      </trkpt>
      <trkpt lat="44.0241" lon="3.45467">
        <ele>1284</ele>
        <time>2020-08-26T11:20:35.000Z</time>
      </trkpt>
      <trkpt lat="44.02418" lon="3.45451">
        <ele>1284.3</ele>
        <time>2020-08-26T11:20:45.000Z</time>
      </trkpt>
      <trkpt lat="44.02433" lon="3.45441">
        <ele>1283</ele>
        <time>2020-08-26T11:20:35.000Z</time>
      </trkpt>
      <trkpt lat="44.02445" lon="3.45437">
        <ele>1281.3</ele>
        <time>2020-08-26T11:20:45.000Z</time>
      </trkpt>
      <trkpt lat="44.02461" lon="3.45428">
        <ele>1283</ele>
        <time>2020-08-26T11:20:35.000Z</time>
      </trkpt>
      <trkpt lat="44.02482" lon="3.45418">
        <ele>1283</ele>
        <time>2020-08-26T11:20:35.000Z</time>
      </trkpt>
      <trkpt lat="44.02492" lon="3.45412">
        <ele>1278.6</ele>
        <time>2020-08-26T11:20:45.000Z</time>
      </trkpt>
      <trkpt lat="44.02504" lon="3.45406">
        <ele>1280</ele>
        <time>2020-08-26T11:20:35.000Z</time>
      </trkpt>
      <trkpt lat="44.02515" lon="3.45397">
        <ele>1277.1</ele>
        <time>2020-08-26T11:20:45.000Z</time>
      </trkpt>
      <trkpt lat="44.02538" lon="3.45382">
        <ele>1282</ele>
        <time>2020-08-26T11:20:35.000Z</time>
      </trkpt>
      <trkpt lat="44.02547" lon="3.45375">
        <ele>1274.3</ele>
        <time>2020-08-26T11:20:45.000Z</time>
      </trkpt>
      <trkpt lat="44.02569" lon="3.45366">
        <ele>1280</ele>
        <time>2020-08-26T11:20:35.000Z</time>
      </trkpt>
      <trkpt lat="44.0258" lon="3.45359">
        <ele>1271.8</ele>
        <time>2020-08-26T11:20:45.000Z</time>
      </trkpt>
      <trkpt lat="44.02591" lon="3.45349">
        <ele>1279</ele>
        <time>2020-08-26T11:20:35.000Z</time>
      </trkpt>
      <trkpt lat="44.02602" lon="3.45345">
        <ele>1270.2</ele>
        <time>2020-08-26T11:20:45.000Z</time>
      </trkpt>
      <trkpt lat="44.02611" lon="3.45345">
        <ele>1272</ele>
        <time>2020-08-26T11:20:35.000Z</time>
      </trkpt>
      <trkpt lat="44.02621" lon="3.45335">
        <ele>1268.4</ele>
        <time>2020-08-26T11:20:45.000Z</time>
      </trkpt>
      <trkpt lat="44.02627" lon="3.4532">
        <ele>1265</ele>
        <time>2020-08-26T11:20:35.000Z</time>
      </trkpt>
      <trkpt lat="44.02636" lon="3.45307">
        <ele>1266.6</ele>
        <time>2020-08-26T11:20:45.000Z</time>
      </trkpt>
      <trkpt lat="44.02652" lon="3.45307">
        <ele>1257</ele>
        <time>2020-08-26T11:20:35.000Z</time>
      </trkpt>
      <trkpt lat="44.02671" lon="3.45333">
        <ele>1255</ele>
        <time>2020-08-26T11:20:35.000Z</time>
      </trkpt>
      <trkpt lat="44.02692" lon="3.45355">
        <ele>1252</ele>
        <time>2020-08-26T11:20:35.000Z</time>
      </trkpt>
      <trkpt lat="44.02699" lon="3.45336">
        <ele>1256.2</ele>
        <time>2020-08-26T11:20:45.000Z</time>
      </trkpt>
      <trkpt lat="44.02697" lon="3.45304">
        <ele>1253</ele>
        <time>2020-08-26T11:20:35.000Z</time>
      </trkpt>
      <trkpt lat="44.02693" lon="3.45284">
        <ele>1255.7</ele>
        <time>2020-08-26T11:20:45.000Z</time>
      </trkpt>
      <trkpt lat="44.02687" lon="3.45269">
        <ele>1255</ele>
        <time>2020-08-26T11:20:35.000Z</time>
      </trkpt>
      <trkpt lat="44.02682" lon="3.45241">
        <ele>1255</ele>
        <time>2020-08-26T11:20:35.000Z</time>
      </trkpt>
      <trkpt lat="44.02687" lon="3.45229">
        <ele>1254.3</ele>
        <time>2020-08-26T11:20:45.000Z</time>
      </trkpt>
      <trkpt lat="44.02694" lon="3.45216">
        <ele>1255</ele>
        <time>2020-08-26T11:20:35.000Z</time>
      </trkpt>
      <trkpt lat="44.027" lon="3.45207">
        <ele>1253.2</ele>
        <time>2020-08-26T11:20:45.000Z</time>
      </trkpt>
      <trkpt lat="44.02715" lon="3.45191">
        <ele>1254</ele>
        <time>2020-08-26T11:20:35.000Z</time>
      </trkpt>
      <trkpt lat="44.02726" lon="3.45174">
        <ele>1251.6</ele>
        <time>2020-08-26T11:20:45.000Z</time>
      </trkpt>
      <trkpt lat="44.0274" lon="3.45159">
        <ele>1254</ele>
        <time>2020-08-26T11:20:35.000Z</time>
      </trkpt>
      <trkpt lat="44.0275" lon="3.45154">
        <ele>1249.8</ele>
        <time>2020-08-26T11:20:45.000Z</time>
      </trkpt>
      <trkpt lat="44.02769" lon="3.45141">
        <ele>1254</ele>
        <time>2020-08-26T11:20:35.000Z</time>
      </trkpt>
      <trkpt lat="44.02797" lon="3.45117">
        <ele>1253</ele>
        <time>2020-08-26T11:20:35.000Z</time>
      </trkpt>
      <trkpt lat="44.02809" lon="3.45109">
        <ele>1245.8</ele>
        <time>2020-08-26T11:20:45.000Z</time>
      </trkpt>
      <trkpt lat="44.02823" lon="3.45101">
        <ele>1253</ele>
        <time>2020-08-26T11:20:35.000Z</time>
      </trkpt>
      <trkpt lat="44.02836" lon="3.45096">
        <ele>1243.9</ele>
        <time>2020-08-26T11:20:45.000Z</time>
      </trkpt>
      <trkpt lat="44.02847" lon="3.45088">
        <ele>1251</ele>
        <time>2020-08-26T11:20:35.000Z</time>
      </trkpt>
      <trkpt lat="44.02856" lon="3.45083">
        <ele>1243.8</ele>
        <time>2020-08-26T11:20:45.000Z</time>
      </trkpt>
      <trkpt lat="44.02867" lon="3.4508">
        <ele>1250</ele>
        <time>2020-08-26T11:20:35.000Z</time>
      </trkpt>
      <trkpt lat="44.02884" lon="3.45078">
        <ele>1242.5</ele>
        <time>2020-08-26T11:20:45.000Z</time>
      </trkpt>
      <trkpt lat="44.02907" lon="3.45089">
        <ele>1248</ele>
        <time>2020-08-26T11:20:35.000Z</time>
      </trkpt>
      <trkpt lat="44.02916" lon="3.45095">
        <ele>1236.8</ele>
        <time>2020-08-26T11:20:45.000Z</time>
      </trkpt>
      <trkpt lat="44.02925" lon="3.45096">
        <ele>1236.3</ele>
        <time>2020-08-26T11:20:55.000Z</time>
      </trkpt>
      <trkpt lat="44.02935" lon="3.45093">
        <ele>1248</ele>
        <time>2020-08-26T11:20:35.000Z</time>
      </trkpt>
      <trkpt lat="44.02945" lon="3.45088">
        <ele>1236.5</ele>
        <time>2020-08-26T11:20:45.000Z</time>
      </trkpt>
      <trkpt lat="44.02962" lon="3.45078">
        <ele>1248</ele>
        <time>2020-08-26T11:20:35.000Z</time>
      </trkpt>
      <trkpt lat="44.02975" lon="3.45074">
        <ele>1236.1</ele>
        <time>2020-08-26T11:20:45.000Z</time>
      </trkpt>
      <trkpt lat="44.02989" lon="3.45068">
        <ele>1244</ele>
        <time>2020-08-26T11:20:35.000Z</time>
      </trkpt>
      <trkpt lat="44.02999" lon="3.45066">
        <ele>1235.6</ele>
        <time>2020-08-26T11:20:45.000Z</time>
      </trkpt>
      <trkpt lat="44.03023" lon="3.45059">
        <ele>1241</ele>
        <time>2020-08-26T11:20:35.000Z</time>
      </trkpt>
      <trkpt lat="44.03036" lon="3.45045">
        <ele>1234</ele>
        <time>2020-08-26T11:20:45.000Z</time>
      </trkpt>
      <trkpt lat="44.03052" lon="3.45031">
        <ele>1242</ele>
        <time>2020-08-26T11:20:35.000Z</time>
      </trkpt>
      <trkpt lat="44.03066" lon="3.45022">
        <ele>1233</ele>
        <time>2020-08-26T11:20:45.000Z</time>
      </trkpt>
      <trkpt lat="44.03079" lon="3.45002">
        <ele>1242</ele>
        <time>2020-08-26T11:20:35.000Z</time>
      </trkpt>
      <trkpt lat="44.03086" lon="3.44993">
        <ele>1234.9</ele>
        <time>2020-08-26T11:20:45.000Z</time>
      </trkpt>
      <trkpt lat="44.031" lon="3.44991">
        <ele>1243</ele>
        <time>2020-08-26T11:20:35.000Z</time>
      </trkpt>
      <trkpt lat="44.03123" lon="3.45004">
        <ele>1243</ele>
        <time>2020-08-26T11:20:35.000Z</time>
      </trkpt>
      <trkpt lat="44.03134" lon="3.45011">
        <ele>1233.1</ele>
        <time>2020-08-26T11:20:45.000Z</time>
      </trkpt>
      <trkpt lat="44.03139" lon="3.45031">
        <ele>1242</ele>
        <time>2020-08-26T11:20:35.000Z</time>
      </trkpt>
      <trkpt lat="44.03136" lon="3.45051">
        <ele>1228.4</ele>
        <time>2020-08-26T11:20:45.000Z</time>
      </trkpt>
      <trkpt lat="44.0313" lon="3.45078">
        <ele>1236</ele>
        <time>2020-08-26T11:20:35.000Z</time>
      </trkpt>
      <trkpt lat="44.03125" lon="3.4511">
        <ele>1230</ele>
        <time>2020-08-26T11:20:35.000Z</time>
      </trkpt>
      <trkpt lat="44.03126" lon="3.45123">
        <ele>1222.6</ele>
        <time>2020-08-26T11:20:45.000Z</time>
      </trkpt>
      <trkpt lat="44.03129" lon="3.45136">
        <ele>1222.4</ele>
        <time>2020-08-26T11:20:55.000Z</time>
      </trkpt>
      <trkpt lat="44.03136" lon="3.4515">
        <ele>1233</ele>
        <time>2020-08-26T11:20:35.000Z</time>
      </trkpt>
      <trkpt lat="44.03146" lon="3.45157">
        <ele>1222.2</ele>
        <time>2020-08-26T11:20:45.000Z</time>
      </trkpt>
      <trkpt lat="44.03163" lon="3.45164">
        <ele>1233</ele>
        <time>2020-08-26T11:20:35.000Z</time>
      </trkpt>
      <trkpt lat="44.03172" lon="3.45175">
        <ele>1222.5</ele>
        <time>2020-08-26T11:20:45.000Z</time>
      </trkpt>
      <trkpt lat="44.03183" lon="3.45197">
        <ele>1233</ele>
        <time>2020-08-26T11:20:35.000Z</time>
      </trkpt>
      <trkpt lat="44.03192" lon="3.45209">
        <ele>1219.8</ele>
        <time>2020-08-26T11:20:45.000Z</time>
      </trkpt>
      <trkpt lat="44.03202" lon="3.45214">
        <ele>1230</ele>
        <time>2020-08-26T11:20:35.000Z</time>
      </trkpt>
      <trkpt lat="44.03212" lon="3.4522">
        <ele>1219</ele>
        <time>2020-08-26T11:20:45.000Z</time>
      </trkpt>
      <trkpt lat="44.03231" lon="3.45224">
        <ele>1224</ele>
        <time>2020-08-26T11:20:35.000Z</time>
      </trkpt>
      <trkpt lat="44.03241" lon="3.45225">
        <ele>1216.9</ele>
        <time>2020-08-26T11:20:45.000Z</time>
      </trkpt>
      <trkpt lat="44.03256" lon="3.45224">
        <ele>1221</ele>
        <time>2020-08-26T11:20:35.000Z</time>
      </trkpt>
      <trkpt lat="44.03268" lon="3.45219">
        <ele>1215.7</ele>
        <time>2020-08-26T11:20:45.000Z</time>
      </trkpt>
      <trkpt lat="44.03287" lon="3.4522">
        <ele>1221</ele>
        <time>2020-08-26T11:20:35.000Z</time>
      </trkpt>
      <trkpt lat="44.03302" lon="3.45213">
        <ele>1211.3</ele>
        <time>2020-08-26T11:20:45.000Z</time>
      </trkpt>
      <trkpt lat="44.03312" lon="3.45206">
        <ele>1219</ele>
        <time>2020-08-26T11:20:35.000Z</time>
      </trkpt>
      <trkpt lat="44.03325" lon="3.45189">
        <ele>1211.3</ele>
        <time>2020-08-26T11:20:45.000Z</time>
      </trkpt>
      <trkpt lat="44.03338" lon="3.45177">
        <ele>1210</ele>
        <time>2020-08-26T11:20:35.000Z</time>
      </trkpt>
      <trkpt lat="44.03346" lon="3.45166">
        <ele>1211.3</ele>
        <time>2020-08-26T11:20:45.000Z</time>
      </trkpt>
      <trkpt lat="44.03351" lon="3.45151">
        <ele>1209</ele>
        <time>2020-08-26T11:20:35.000Z</time>
      </trkpt>
      <trkpt lat="44.03367" lon="3.45132">
        <ele>1209</ele>
        <time>2020-08-26T11:20:35.000Z</time>
      </trkpt>
      <trkpt lat="44.03375" lon="3.4512">
        <ele>1210.7</ele>
        <time>2020-08-26T11:20:45.000Z</time>
      </trkpt>
      <trkpt lat="44.03382" lon="3.45112">
        <ele>1209</ele>
        <time>2020-08-26T11:20:35.000Z</time>
      </trkpt>
      <trkpt lat="44.0339" lon="3.45107">
        <ele>1209.1</ele>
        <time>2020-08-26T11:20:45.000Z</time>
      </trkpt>
      <trkpt lat="44.03402" lon="3.45098">
        <ele>1208</ele>
        <time>2020-08-26T11:20:35.000Z</time>
      </trkpt>
      <trkpt lat="44.03422" lon="3.45078">
        <ele>1208</ele>
        <time>2020-08-26T11:20:35.000Z</time>
      </trkpt>
      <trkpt lat="44.03431" lon="3.45066">
        <ele>1205</ele>
        <time>2020-08-26T11:20:45.000Z</time>
      </trkpt>
      <trkpt lat="44.03443" lon="3.45036">
        <ele>1205</ele>
        <time>2020-08-26T11:20:35.000Z</time>
      </trkpt>
      <trkpt lat="44.03453" lon="3.45021">
        <ele>1203.4</ele>
        <time>2020-08-26T11:20:45.000Z</time>
      </trkpt>
      <trkpt lat="44.03458" lon="3.45007">
        <ele>1202</ele>
        <time>2020-08-26T11:20:35.000Z</time>
      </trkpt>
      <trkpt lat="44.03482" lon="3.44987">
        <ele>1201</ele>
        <time>2020-08-26T11:20:35.000Z</time>
      </trkpt>
      <trkpt lat="44.0349" lon="3.4497">
        <ele>1200.8</ele>
        <time>2020-08-26T11:20:45.000Z</time>
      </trkpt>
      <trkpt lat="44.03491" lon="3.44952">
        <ele>1200</ele>
        <time>2020-08-26T11:20:35.000Z</time>
      </trkpt>
      <trkpt lat="44.03489" lon="3.44917">
        <ele>1198</ele>
        <time>2020-08-26T11:20:35.000Z</time>
      </trkpt>
      <trkpt lat="44.03491" lon="3.449">
        <ele>1195.2</ele>
        <time>2020-08-26T11:20:45.000Z</time>
      </trkpt>
      <trkpt lat="44.03498" lon="3.44884">
        <ele>1197</ele>
        <time>2020-08-26T11:20:35.000Z</time>
      </trkpt>
      <trkpt lat="44.03507" lon="3.44874">
        <ele>1191.8</ele>
        <time>2020-08-26T11:20:45.000Z</time>
      </trkpt>
      <trkpt lat="44.03509" lon="3.44861">
        <ele>1195</ele>
        <time>2020-08-26T11:20:35.000Z</time>
      </trkpt>
      <trkpt lat="44.03518" lon="3.44853">
        <ele>1189.7</ele>
        <time>2020-08-26T11:20:45.000Z</time>
      </trkpt>
      <trkpt lat="44.0353" lon="3.44847">
        <ele>1186</ele>
        <time>2020-08-26T11:20:35.000Z</time>
      </trkpt>
      <trkpt lat="44.03542" lon="3.44836">
        <ele>1187.8</ele>
        <time>2020-08-26T11:20:45.000Z</time>
      </trkpt>
      <trkpt lat="44.03549" lon="3.44821">
        <ele>1186</ele>
        <time>2020-08-26T11:20:35.000Z</time>
      </trkpt>
      <trkpt lat="44.03554" lon="3.44807">
        <ele>1184.3</ele>
        <time>2020-08-26T11:20:45.000Z</time>
      </trkpt>
      <trkpt lat="44.03568" lon="3.44788">
        <ele>1176</ele>
        <time>2020-08-26T11:20:35.000Z</time>
      </trkpt>
      <trkpt lat="44.03573" lon="3.44776">
        <ele>1180.1</ele>
        <time>2020-08-26T11:20:45.000Z</time>
      </trkpt>
      <trkpt lat="44.03581" lon="3.4475">
        <ele>1172</ele>
        <time>2020-08-26T11:20:35.000Z</time>
      </trkpt>
      <trkpt lat="44.0359" lon="3.44724">
        <ele>1168</ele>
        <time>2020-08-26T11:20:35.000Z</time>
      </trkpt>
      <trkpt lat="44.03602" lon="3.44711">
        <ele>1168.8</ele>
        <time>2020-08-26T11:20:45.000Z</time>
      </trkpt>
      <trkpt lat="44.03614" lon="3.44707">
        <ele>1160</ele>
        <time>2020-08-26T11:20:35.000Z</time>
      </trkpt>
      <trkpt lat="44.03625" lon="3.44706">
        <ele>1165.2</ele>
        <time>2020-08-26T11:20:45.000Z</time>
      </trkpt>
      <trkpt lat="44.03638" lon="3.44705">
        <ele>1160</ele>
        <time>2020-08-26T11:20:35.000Z</time>
      </trkpt>
      <trkpt lat="44.03652" lon="3.44712">
        <ele>1162.3</ele>
        <time>2020-08-26T11:20:45.000Z</time>
      </trkpt>
      <trkpt lat="44.0367" lon="3.44716">
        <ele>1159</ele>
        <time>2020-08-26T11:20:35.000Z</time>
      </trkpt>
      <trkpt lat="44.0368" lon="3.44717">
        <ele>1160.3</ele>
        <time>2020-08-26T11:20:45.000Z</time>
      </trkpt>
      <trkpt lat="44.03687" lon="3.44708">
        <ele>1159</ele>
        <time>2020-08-26T11:20:35.000Z</time>
      </trkpt>
      <trkpt lat="44.03694" lon="3.44683">
        <ele>1155.6</ele>
        <time>2020-08-26T11:20:45.000Z</time>
      </trkpt>
      <trkpt lat="44.03697" lon="3.44659">
        <ele>1161</ele>
        <time>2020-08-26T11:20:35.000Z</time>
      </trkpt>
      <trkpt lat="44.03706" lon="3.44652">
        <ele>1154.7</ele>
        <time>2020-08-26T11:20:45.000Z</time>
      </trkpt>
      <trkpt lat="44.03719" lon="3.44651">
        <ele>1164</ele>
        <time>2020-08-26T11:20:35.000Z</time>
      </trkpt>
      <trkpt lat="44.0373" lon="3.44656">
        <ele>1153.2</ele>
        <time>2020-08-26T11:20:45.000Z</time>
      </trkpt>
      <trkpt lat="44.03744" lon="3.44659">
        <ele>1164</ele>
        <time>2020-08-26T11:20:35.000Z</time>
      </trkpt>
      <trkpt lat="44.03754" lon="3.44664">
        <ele>1151.2</ele>
        <time>2020-08-26T11:20:45.000Z</time>
      </trkpt>
      <trkpt lat="44.03768" lon="3.44664">
        <ele>1162</ele>
        <time>2020-08-26T11:20:35.000Z</time>
      </trkpt>
      <trkpt lat="44.03781" lon="3.4466">
        <ele>1149.8</ele>
        <time>2020-08-26T11:20:45.000Z</time>
      </trkpt>
      <trkpt lat="44.03801" lon="3.44657">
        <ele>1161</ele>
        <time>2020-08-26T11:20:35.000Z</time>
      </trkpt>
      <trkpt lat="44.03834" lon="3.44654">
        <ele>1155</ele>
        <time>2020-08-26T11:20:35.000Z</time>
      </trkpt>
      <trkpt lat="44.03846" lon="3.44671">
        <ele>1140.3</ele>
        <time>2020-08-26T11:20:45.000Z</time>
      </trkpt>
      <trkpt lat="44.03854" lon="3.44685">
        <ele>1146</ele>
        <time>2020-08-26T11:20:35.000Z</time>
      </trkpt>
      <trkpt lat="44.03862" lon="3.44703">
        <ele>1135.6</ele>
        <time>2020-08-26T11:20:45.000Z</time>
      </trkpt>
      <trkpt lat="44.03861" lon="3.4472">
        <ele>1141</ele>
        <time>2020-08-26T11:20:35.000Z</time>
      </trkpt>
      <trkpt lat="44.03869" lon="3.44736">
        <ele>1130.4</ele>
        <time>2020-08-26T11:20:45.000Z</time>
      </trkpt>
      <trkpt lat="44.03881" lon="3.44743">
        <ele>1137</ele>
        <time>2020-08-26T11:20:35.000Z</time>
      </trkpt>
      <trkpt lat="44.0389" lon="3.44747">
        <ele>1128.9</ele>
        <time>2020-08-26T11:20:45.000Z</time>
      </trkpt>
      <trkpt lat="44.03909" lon="3.4475">
        <ele>1137</ele>
        <time>2020-08-26T11:20:35.000Z</time>
      </trkpt>
      <trkpt lat="44.03919" lon="3.44747">
        <ele>1127.8</ele>
        <time>2020-08-26T11:20:45.000Z</time>
      </trkpt>
      <trkpt lat="44.03928" lon="3.44747">
        <ele>1126.9</ele>
        <time>2020-08-26T11:20:55.000Z</time>
      </trkpt>
      <trkpt lat="44.03938" lon="3.44748">
        <ele>1139</ele>
        <time>2020-08-26T11:20:35.000Z</time>
      </trkpt>
      <trkpt lat="44.03955" lon="3.44756">
        <ele>1121.8</ele>
        <time>2020-08-26T11:20:45.000Z</time>
      </trkpt>
      <trkpt lat="44.03966" lon="3.44759">
        <ele>1136</ele>
        <time>2020-08-26T11:20:35.000Z</time>
      </trkpt>
      <trkpt lat="44.0398" lon="3.44772">
        <ele>1116.4</ele>
        <time>2020-08-26T11:20:45.000Z</time>
      </trkpt>
      <trkpt lat="44.03992" lon="3.44779">
        <ele>1134</ele>
        <time>2020-08-26T11:20:35.000Z</time>
      </trkpt>
      <trkpt lat="44.04" lon="3.44786">
        <ele>1111.7</ele>
        <time>2020-08-26T11:20:45.000Z</time>
      </trkpt>
      <trkpt lat="44.04012" lon="3.44794">
        <ele>1134</ele>
        <time>2020-08-26T11:20:35.000Z</time>
      </trkpt>
      <trkpt lat="44.04031" lon="3.44804">
        <ele>1125</ele>
        <time>2020-08-26T11:20:35.000Z</time>
      </trkpt>
      <trkpt lat="44.04042" lon="3.44811">
        <ele>1103.9</ele>
        <time>2020-08-26T11:20:45.000Z</time>
      </trkpt>
      <trkpt lat="44.04071" lon="3.44821">
        <ele>1115</ele>
        <time>2020-08-26T11:20:35.000Z</time>
      </trkpt>
      <trkpt lat="44.04083" lon="3.44827">
        <ele>1095.8</ele>
        <time>2020-08-26T11:20:45.000Z</time>
      </trkpt>
      <trkpt lat="44.04098" lon="3.44836">
        <ele>1115</ele>
        <time>2020-08-26T11:20:35.000Z</time>
      </trkpt>
      <trkpt lat="44.04124" lon="3.44843">
        <ele>1111</ele>
        <time>2020-08-26T11:20:35.000Z</time>
      </trkpt>
      <trkpt lat="44.04138" lon="3.44848">
        <ele>1087.2</ele>
        <time>2020-08-26T11:20:45.000Z</time>
      </trkpt>
      <trkpt lat="44.0413" lon="3.44855">
        <ele>1098</ele>
        <time>2020-08-26T11:20:35.000Z</time>
      </trkpt>
      <trkpt lat="44.0413" lon="3.44867">
        <ele>1080.1</ele>
        <time>2020-08-26T11:20:45.000Z</time>
      </trkpt>
      <trkpt lat="44.04142" lon="3.44868">
        <ele>1098</ele>
        <time>2020-08-26T11:20:35.000Z</time>
      </trkpt>
      <trkpt lat="44.04157" lon="3.44871">
        <ele>1077.7</ele>
        <time>2020-08-26T11:20:45.000Z</time>
      </trkpt>
      <trkpt lat="44.04189" lon="3.44874">
        <ele>1097</ele>
        <time>2020-08-26T11:20:35.000Z</time>
      </trkpt>
      <trkpt lat="44.04199" lon="3.44874">
        <ele>1074.9</ele>
        <time>2020-08-26T11:20:45.000Z</time>
      </trkpt>
      <trkpt lat="44.04211" lon="3.44871">
        <ele>1097</ele>
        <time>2020-08-26T11:20:35.000Z</time>
      </trkpt>
      <trkpt lat="44.04221" lon="3.44873">
        <ele>1072.9</ele>
        <time>2020-08-26T11:20:45.000Z</time>
      </trkpt>
      <trkpt lat="44.04238" lon="3.44889">
        <ele>1081</ele>
        <time>2020-08-26T11:20:35.000Z</time>
      </trkpt>
      <trkpt lat="44.04269" lon="3.44901">
        <ele>1081</ele>
        <time>2020-08-26T11:20:35.000Z</time>
      </trkpt>
      <trkpt lat="44.04284" lon="3.44902">
        <ele>1064.7</ele>
        <time>2020-08-26T11:20:45.000Z</time>
      </trkpt>
      <trkpt lat="44.043" lon="3.44902">
        <ele>1072</ele>
        <time>2020-08-26T11:20:35.000Z</time>
      </trkpt>
      <trkpt lat="44.04311" lon="3.44907">
        <ele>1059.9</ele>
        <time>2020-08-26T11:20:45.000Z</time>
      </trkpt>
      <trkpt lat="44.04332" lon="3.44915">
        <ele>1063</ele>
        <time>2020-08-26T11:20:35.000Z</time>
      </trkpt>
      <trkpt lat="44.04348" lon="3.44918">
        <ele>1053.6</ele>
        <time>2020-08-26T11:20:45.000Z</time>
      </trkpt>
      <trkpt lat="44.04357" lon="3.44918">
        <ele>1063</ele>
        <time>2020-08-26T11:20:35.000Z</time>
      </trkpt>
      <trkpt lat="44.0437" lon="3.44914">
        <ele>1053</ele>
        <time>2020-08-26T11:20:45.000Z</time>
      </trkpt>
      <trkpt lat="44.04386" lon="3.44908">
        <ele>1062</ele>
        <time>2020-08-26T11:20:35.000Z</time>
      </trkpt>
      <trkpt lat="44.04396" lon="3.449">
        <ele>1050.5</ele>
        <time>2020-08-26T11:20:45.000Z</time>
      </trkpt>
      <trkpt lat="44.04407" lon="3.44897">
        <ele>1062</ele>
        <time>2020-08-26T11:20:35.000Z</time>
      </trkpt>
      <trkpt lat="44.04424" lon="3.44902">
        <ele>1044.6</ele>
        <time>2020-08-26T11:20:45.000Z</time>
      </trkpt>
      <trkpt lat="44.04436" lon="3.44904">
        <ele>1052</ele>
        <time>2020-08-26T11:20:35.000Z</time>
      </trkpt>
      <trkpt lat="44.04446" lon="3.44912">
        <ele>1040.9</ele>
        <time>2020-08-26T11:20:45.000Z</time>
      </trkpt>
      <trkpt lat="44.04459" lon="3.44926">
        <ele>1041</ele>
        <time>2020-08-26T11:20:35.000Z</time>
      </trkpt>
      <trkpt lat="44.04471" lon="3.44928">
        <ele>1036.6</ele>
        <time>2020-08-26T11:20:45.000Z</time>
      </trkpt>
      <trkpt lat="44.04483" lon="3.44926">
        <ele>1032</ele>
        <time>2020-08-26T11:20:35.000Z</time>
      </trkpt>
      <trkpt lat="44.04495" lon="3.44922">
        <ele>1031.9</ele>
        <time>2020-08-26T11:20:45.000Z</time>
      </trkpt>
      <trkpt lat="44.04514" lon="3.44922">
        <ele>1023</ele>
        <time>2020-08-26T11:20:35.000Z</time>
      </trkpt>
      <trkpt lat="44.04528" lon="3.44927">
        <ele>1024.8</ele>
        <time>2020-08-26T11:20:45.000Z</time>
      </trkpt>
      <trkpt lat="44.04537" lon="3.44937">
        <ele>1020</ele>
        <time>2020-08-26T11:20:35.000Z</time>
      </trkpt>
      <trkpt lat="44.04544" lon="3.4495">
        <ele>1022.2</ele>
        <time>2020-08-26T11:20:45.000Z</time>
      </trkpt>
      <trkpt lat="44.04547" lon="3.44975">
        <ele>1017</ele>
        <time>2020-08-26T11:20:35.000Z</time>
      </trkpt>
      <trkpt lat="44.04556" lon="3.44992">
        <ele>1018.7</ele>
        <time>2020-08-26T11:20:45.000Z</time>
      </trkpt>
      <trkpt lat="44.04571" lon="3.44997">
        <ele>1005</ele>
        <time>2020-08-26T11:20:35.000Z</time>
      </trkpt>
      <trkpt lat="44.04588" lon="3.44977">
        <ele>1005</ele>
        <time>2020-08-26T11:20:35.000Z</time>
      </trkpt>
      <trkpt lat="44.04592" lon="3.44958">
        <ele>1016.4</ele>
        <time>2020-08-26T11:20:45.000Z</time>
      </trkpt>
      <trkpt lat="44.046" lon="3.4494">
        <ele>1004</ele>
        <time>2020-08-26T11:20:35.000Z</time>
      </trkpt>
      <trkpt lat="44.04611" lon="3.44923">
        <ele>1012.4</ele>
        <time>2020-08-26T11:20:45.000Z</time>
      </trkpt>
      <trkpt lat="44.04621" lon="3.44915">
        <ele>1001</ele>
        <time>2020-08-26T11:20:35.000Z</time>
      </trkpt>
      <trkpt lat="44.04634" lon="3.44911">
        <ele>1009.7</ele>
        <time>2020-08-26T11:20:45.000Z</time>
      </trkpt>
      <trkpt lat="44.04651" lon="3.44911">
        <ele>998</ele>
        <time>2020-08-26T11:20:35.000Z</time>
      </trkpt>
      <trkpt lat="44.04667" lon="3.44915">
        <ele>1005.7</ele>
        <time>2020-08-26T11:20:45.000Z</time>
      </trkpt>
      <trkpt lat="44.04678" lon="3.44914">
        <ele>998</ele>
        <time>2020-08-26T11:20:35.000Z</time>
      </trkpt>
      <trkpt lat="44.04689" lon="3.44904">
        <ele>1003.4</ele>
        <time>2020-08-26T11:20:45.000Z</time>
      </trkpt>
      <trkpt lat="44.04705" lon="3.44893">
        <ele>994</ele>
        <time>2020-08-26T11:20:35.000Z</time>
      </trkpt>
      <trkpt lat="44.0472" lon="3.44889">
        <ele>1000</ele>
        <time>2020-08-26T11:20:45.000Z</time>
      </trkpt>
      <trkpt lat="44.04737" lon="3.4489">
        <ele>991</ele>
        <time>2020-08-26T11:20:35.000Z</time>
      </trkpt>
      <trkpt lat="44.04724" lon="3.44877">
        <ele>996.3</ele>
        <time>2020-08-26T11:20:45.000Z</time>
      </trkpt>
      <trkpt lat="44.04714" lon="3.4487">
        <ele>991</ele>
        <time>2020-08-26T11:20:35.000Z</time>
      </trkpt>
      <trkpt lat="44.04704" lon="3.44855">
        <ele>994.3</ele>
        <time>2020-08-26T11:20:45.000Z</time>
      </trkpt>
      <trkpt lat="44.04692" lon="3.44844">
        <ele>991</ele>
        <time>2020-08-26T11:20:35.000Z</time>
      </trkpt>
      <trkpt lat="44.047" lon="3.44835">
        <ele>991.7</ele>
        <time>2020-08-26T11:20:45.000Z</time>
      </trkpt>
      <trkpt lat="44.04711" lon="3.44834">
        <ele>989</ele>
        <time>2020-08-26T11:20:35.000Z</time>
      </trkpt>
      <trkpt lat="44.04729" lon="3.44837">
        <ele>988.7</ele>
        <time>2020-08-26T11:20:45.000Z</time>
      </trkpt>
      <trkpt lat="44.04742" lon="3.44842">
        <ele>986</ele>
        <time>2020-08-26T11:20:35.000Z</time>
      </trkpt>
      <trkpt lat="44.04754" lon="3.44848">
        <ele>987.6</ele>
        <time>2020-08-26T11:20:45.000Z</time>
      </trkpt>
      <trkpt lat="44.04767" lon="3.4485">
        <ele>984</ele>
        <time>2020-08-26T11:20:35.000Z</time>
      </trkpt>
      <trkpt lat="44.04765" lon="3.44833">
        <ele>984.3</ele>
        <time>2020-08-26T11:20:45.000Z</time>
      </trkpt>
      <trkpt lat="44.04761" lon="3.44807">
        <ele>984</ele>
        <time>2020-08-26T11:20:35.000Z</time>
      </trkpt>
      <trkpt lat="44.04768" lon="3.44797">
        <ele>981.1</ele>
        <time>2020-08-26T11:20:45.000Z</time>
      </trkpt>
      <trkpt lat="44.04781" lon="3.44788">
        <ele>984</ele>
        <time>2020-08-26T11:20:35.000Z</time>
      </trkpt>
      <trkpt lat="44.04789" lon="3.44773">
        <ele>977.1</ele>
        <time>2020-08-26T11:20:45.000Z</time>
      </trkpt>
      <trkpt lat="44.04811" lon="3.44737">
        <ele>980</ele>
        <time>2020-08-26T11:20:35.000Z</time>
      </trkpt>
      <trkpt lat="44.04826" lon="3.44718">
        <ele>967</ele>
        <time>2020-08-26T11:20:35.000Z</time>
      </trkpt>
      <trkpt lat="44.04838" lon="3.44709">
        <ele>968.6</ele>
        <time>2020-08-26T11:20:45.000Z</time>
      </trkpt>
      <trkpt lat="44.04849" lon="3.44698">
        <ele>966</ele>
        <time>2020-08-26T11:20:35.000Z</time>
      </trkpt>
      <trkpt lat="44.04857" lon="3.4468">
        <ele>964.3</ele>
        <time>2020-08-26T11:20:45.000Z</time>
      </trkpt>
      <trkpt lat="44.04853" lon="3.4466">
        <ele>961</ele>
        <time>2020-08-26T11:20:35.000Z</time>
      </trkpt>
      <trkpt lat="44.04844" lon="3.44646">
        <ele>966</ele>
        <time>2020-08-26T11:20:45.000Z</time>
      </trkpt>
      <trkpt lat="44.04853" lon="3.44644">
        <ele>957</ele>
        <time>2020-08-26T11:20:35.000Z</time>
      </trkpt>
      <trkpt lat="44.0487" lon="3.44655">
        <ele>960.1</ele>
        <time>2020-08-26T11:20:45.000Z</time>
      </trkpt>
      <trkpt lat="44.04875" lon="3.44671">
        <ele>956</ele>
        <time>2020-08-26T11:20:35.000Z</time>
      </trkpt>
      <trkpt lat="44.04878" lon="3.44694">
        <ele>957.4</ele>
        <time>2020-08-26T11:20:45.000Z</time>
      </trkpt>
      <trkpt lat="44.04889" lon="3.44699">
        <ele>955</ele>
        <time>2020-08-26T11:20:35.000Z</time>
      </trkpt>
      <trkpt lat="44.04901" lon="3.447">
        <ele>957.1</ele>
        <time>2020-08-26T11:20:45.000Z</time>
      </trkpt>
      <trkpt lat="44.04911" lon="3.44697">
        <ele>955</ele>
        <time>2020-08-26T11:20:35.000Z</time>
      </trkpt>
      <trkpt lat="44.04919" lon="3.4469">
        <ele>959</ele>
        <time>2020-08-26T11:20:45.000Z</time>
      </trkpt>
      <trkpt lat="44.04928" lon="3.44685">
        <ele>961.4</ele>
        <time>2020-08-26T11:20:55.000Z</time>
      </trkpt>
      <trkpt lat="44.04928" lon="3.44703">
        <ele>955</ele>
        <time>2020-08-26T11:20:35.000Z</time>
      </trkpt>
      <trkpt lat="44.04923" lon="3.44725">
        <ele>965.3</ele>
        <time>2020-08-26T11:20:45.000Z</time>
      </trkpt>
      <trkpt lat="44.0492" lon="3.44742">
        <ele>962</ele>
        <time>2020-08-26T11:20:35.000Z</time>
      </trkpt>
      <trkpt lat="44.04917" lon="3.44755">
        <ele>967.9</ele>
        <time>2020-08-26T11:20:45.000Z</time>
      </trkpt>
      <trkpt lat="44.04916" lon="3.4477">
        <ele>966</ele>
        <time>2020-08-26T11:20:35.000Z</time>
      </trkpt>
      <trkpt lat="44.04914" lon="3.44788">
        <ele>971.4</ele>
        <time>2020-08-26T11:20:45.000Z</time>
      </trkpt>
      <trkpt lat="44.04918" lon="3.44805">
        <ele>974</ele>
        <time>2020-08-26T11:20:35.000Z</time>
      </trkpt>
      <trkpt lat="44.04927" lon="3.44813">
        <ele>981.8</ele>
        <time>2020-08-26T11:20:45.000Z</time>
      </trkpt>
      <trkpt lat="44.04942" lon="3.44814">
        <ele>983</ele>
        <time>2020-08-26T11:20:35.000Z</time>
      </trkpt>
      <trkpt lat="44.0495" lon="3.44822">
        <ele>993.6</ele>
        <time>2020-08-26T11:20:45.000Z</time>
      </trkpt>
      <trkpt lat="44.04963" lon="3.44832">
        <ele>1004</ele>
        <time>2020-08-26T11:20:35.000Z</time>
      </trkpt>
      <trkpt lat="44.04976" lon="3.44837">
        <ele>1009.8</ele>
        <time>2020-08-26T11:20:45.000Z</time>
      </trkpt>
      <trkpt lat="44.04988" lon="3.44846">
        <ele>1004</ele>
        <time>2020-08-26T11:20:35.000Z</time>
      </trkpt>
      <trkpt lat="44.05005" lon="3.44838">
        <ele>1024.3</ele>
        <time>2020-08-26T11:20:45.000Z</time>
      </trkpt>
      <trkpt lat="44.0501" lon="3.44822">
        <ele>1005</ele>
        <time>2020-08-26T11:20:35.000Z</time>
      </trkpt>
      <trkpt lat="44.0502" lon="3.4481">
        <ele>1022.4</ele>
        <time>2020-08-26T11:20:45.000Z</time>
      </trkpt>
      <trkpt lat="44.05028" lon="3.44796">
        <ele>1004</ele>
        <time>2020-08-26T11:20:35.000Z</time>
      </trkpt>
      <trkpt lat="44.05035" lon="3.44768">
        <ele>1003</ele>
        <time>2020-08-26T11:20:35.000Z</time>
      </trkpt>
      <trkpt lat="44.05037" lon="3.44752">
        <ele>1018.5</ele>
        <time>2020-08-26T11:20:45.000Z</time>
      </trkpt>
      <trkpt lat="44.0504" lon="3.4474">
        <ele>1003</ele>
        <time>2020-08-26T11:20:35.000Z</time>
      </trkpt>
      <trkpt lat="44.05044" lon="3.44728">
        <ele>1018.5</ele>
        <time>2020-08-26T11:20:45.000Z</time>
      </trkpt>
      <trkpt lat="44.05054" lon="3.44703">
        <ele>1002</ele>
        <time>2020-08-26T11:20:35.000Z</time>
      </trkpt>
      <trkpt lat="44.05063" lon="3.44652">
        <ele>1002</ele>
        <time>2020-08-26T11:20:35.000Z</time>
      </trkpt>
      <trkpt lat="44.05065" lon="3.44624">
        <ele>1003</ele>
        <time>2020-08-26T11:20:35.000Z</time>
      </trkpt>
      <trkpt lat="44.0507" lon="3.44583">
        <ele>999</ele>
        <time>2020-08-26T11:20:35.000Z</time>
      </trkpt>
      <trkpt lat="44.05067" lon="3.44571">
        <ele>1005.7</ele>
        <time>2020-08-26T11:20:45.000Z</time>
      </trkpt>
      <trkpt lat="44.05066" lon="3.44559">
        <ele>1004.8</ele>
        <time>2020-08-26T11:20:55.000Z</time>
      </trkpt>
      <trkpt lat="44.05071" lon="3.44534">
        <ele>995</ele>
        <time>2020-08-26T11:20:35.000Z</time>
      </trkpt>
      <trkpt lat="44.05084" lon="3.44507">
        <ele>991</ele>
        <time>2020-08-26T11:20:35.000Z</time>
      </trkpt>
      <trkpt lat="44.05089" lon="3.44493">
        <ele>1001.5</ele>
        <time>2020-08-26T11:20:45.000Z</time>
      </trkpt>
      <trkpt lat="44.05092" lon="3.44475">
        <ele>989</ele>
        <time>2020-08-26T11:20:35.000Z</time>
      </trkpt>
      <trkpt lat="44.05091" lon="3.44461">
        <ele>998.9</ele>
        <time>2020-08-26T11:20:45.000Z</time>
      </trkpt>
      <trkpt lat="44.05092" lon="3.44443">
        <ele>988</ele>
        <time>2020-08-26T11:20:35.000Z</time>
      </trkpt>
      <trkpt lat="44.05107" lon="3.44402">
        <ele>988</ele>
        <time>2020-08-26T11:20:35.000Z</time>
      </trkpt>
      <trkpt lat="44.05108" lon="3.44384">
        <ele>993</ele>
        <time>2020-08-26T11:20:45.000Z</time>
      </trkpt>
      <trkpt lat="44.05106" lon="3.44366">
        <ele>984</ele>
        <time>2020-08-26T11:20:35.000Z</time>
      </trkpt>
      <trkpt lat="44.05105" lon="3.44346">
        <ele>988.2</ele>
        <time>2020-08-26T11:20:45.000Z</time>
      </trkpt>
      <trkpt lat="44.05099" lon="3.44332">
        <ele>976</ele>
        <time>2020-08-26T11:20:35.000Z</time>
      </trkpt>
      <trkpt lat="44.05102" lon="3.44309">
        <ele>981.4</ele>
        <time>2020-08-26T11:20:45.000Z</time>
      </trkpt>
      <trkpt lat="44.05103" lon="3.44292">
        <ele>969</ele>
        <time>2020-08-26T11:20:35.000Z</time>
      </trkpt>
      <trkpt lat="44.05102" lon="3.44264">
        <ele>965</ele>
        <time>2020-08-26T11:20:35.000Z</time>
      </trkpt>
      <trkpt lat="44.05102" lon="3.44215">
        <ele>963</ele>
        <time>2020-08-26T11:20:35.000Z</time>
      </trkpt>
      <trkpt lat="44.05101" lon="3.44202">
        <ele>969.6</ele>
        <time>2020-08-26T11:20:45.000Z</time>
      </trkpt>
      <trkpt lat="44.05101" lon="3.44188">
        <ele>955</ele>
        <time>2020-08-26T11:20:35.000Z</time>
      </trkpt>
      <trkpt lat="44.05102" lon="3.44172">
        <ele>967.5</ele>
        <time>2020-08-26T11:20:45.000Z</time>
      </trkpt>
      <trkpt lat="44.05106" lon="3.4415">
        <ele>949</ele>
        <time>2020-08-26T11:20:35.000Z</time>
      </trkpt>
      <trkpt lat="44.05115" lon="3.44144">
        <ele>963.9</ele>
        <time>2020-08-26T11:20:45.000Z</time>
      </trkpt>
      <trkpt lat="44.05145" lon="3.44098">
        <ele>945</ele>
        <time>2020-08-26T11:20:35.000Z</time>
      </trkpt>
      <trkpt lat="44.05168" lon="3.44093">
        <ele>946</ele>
        <time>2020-08-26T11:20:35.000Z</time>
      </trkpt>
      <trkpt lat="44.05181" lon="3.44086">
        <ele>954.6</ele>
        <time>2020-08-26T11:20:45.000Z</time>
      </trkpt>
      <trkpt lat="44.05192" lon="3.44077">
        <ele>942</ele>
        <time>2020-08-26T11:20:35.000Z</time>
      </trkpt>
      <trkpt lat="44.052" lon="3.44058">
        <ele>954.3</ele>
        <time>2020-08-26T11:20:45.000Z</time>
      </trkpt>
      <trkpt lat="44.05203" lon="3.44045">
        <ele>939</ele>
        <time>2020-08-26T11:20:35.000Z</time>
      </trkpt>
      <trkpt lat="44.05205" lon="3.44033">
        <ele>953.4</ele>
        <time>2020-08-26T11:20:45.000Z</time>
      </trkpt>
      <trkpt lat="44.05205" lon="3.43995">
        <ele>939</ele>
        <time>2020-08-26T11:20:35.000Z</time>
      </trkpt>
      <trkpt lat="44.05207" lon="3.43977">
        <ele>945.4</ele>
        <time>2020-08-26T11:20:45.000Z</time>
      </trkpt>
      <trkpt lat="44.05212" lon="3.43959">
        <ele>939</ele>
        <time>2020-08-26T11:20:35.000Z</time>
      </trkpt>
      <trkpt lat="44.05224" lon="3.43939">
        <ele>941</ele>
        <time>2020-08-26T11:20:45.000Z</time>
      </trkpt>
      <trkpt lat="44.05227" lon="3.43925">
        <ele>931</ele>
        <time>2020-08-26T11:20:35.000Z</time>
      </trkpt>
      <trkpt lat="44.05235" lon="3.4391">
        <ele>934.6</ele>
        <time>2020-08-26T11:20:45.000Z</time>
      </trkpt>
      <trkpt lat="44.05263" lon="3.43874">
        <ele>917</ele>
        <time>2020-08-26T11:20:35.000Z</time>
      </trkpt>
      <trkpt lat="44.0527" lon="3.43866">
        <ele>928.8</ele>
        <time>2020-08-26T11:20:45.000Z</time>
      </trkpt>
      <trkpt lat="44.0527" lon="3.43848">
        <ele>915</ele>
        <time>2020-08-26T11:20:35.000Z</time>
      </trkpt>
      <trkpt lat="44.05276" lon="3.43831">
        <ele>923</ele>
        <time>2020-08-26T11:20:45.000Z</time>
      </trkpt>
      <trkpt lat="44.05288" lon="3.43816">
        <ele>907</ele>
        <time>2020-08-26T11:20:35.000Z</time>
      </trkpt>
      <trkpt lat="44.05293" lon="3.43806">
        <ele>917.1</ele>
        <time>2020-08-26T11:20:45.000Z</time>
      </trkpt>
      <trkpt lat="44.05318" lon="3.43774">
        <ele>906</ele>
        <time>2020-08-26T11:20:35.000Z</time>
      </trkpt>
      <trkpt lat="44.05325" lon="3.4376">
        <ele>910</ele>
        <time>2020-08-26T11:20:45.000Z</time>
      </trkpt>
      <trkpt lat="44.05331" lon="3.43746">
        <ele>906</ele>
        <time>2020-08-26T11:20:35.000Z</time>
      </trkpt>
      <trkpt lat="44.05342" lon="3.43736">
        <ele>911.5</ele>
        <time>2020-08-26T11:20:45.000Z</time>
      </trkpt>
      <trkpt lat="44.05354" lon="3.43735">
        <ele>907</ele>
        <time>2020-08-26T11:20:35.000Z</time>
      </trkpt>
      <trkpt lat="44.05366" lon="3.43732">
        <ele>916.8</ele>
        <time>2020-08-26T11:20:45.000Z</time>
      </trkpt>
      <trkpt lat="44.05376" lon="3.43722">
        <ele>907</ele>
        <time>2020-08-26T11:20:35.000Z</time>
      </trkpt>
      <trkpt lat="44.05389" lon="3.43717">
        <ele>920.9</ele>
        <time>2020-08-26T11:20:45.000Z</time>
      </trkpt>
      <trkpt lat="44.05399" lon="3.43702">
        <ele>912</ele>
        <time>2020-08-26T11:20:35.000Z</time>
      </trkpt>
      <trkpt lat="44.05408" lon="3.43691">
        <ele>922.6</ele>
        <time>2020-08-26T11:20:45.000Z</time>
      </trkpt>
      <trkpt lat="44.05412" lon="3.43671">
        <ele>913</ele>
        <time>2020-08-26T11:20:35.000Z</time>
      </trkpt>
      <trkpt lat="44.05413" lon="3.43657">
        <ele>923</ele>
        <time>2020-08-26T11:20:45.000Z</time>
      </trkpt>
      <trkpt lat="44.05417" lon="3.43645">
        <ele>911</ele>
        <time>2020-08-26T11:20:35.000Z</time>
      </trkpt>
      <trkpt lat="44.05425" lon="3.43638">
        <ele>926.5</ele>
        <time>2020-08-26T11:20:45.000Z</time>
      </trkpt>
      <trkpt lat="44.05439" lon="3.43629">
        <ele>919</ele>
        <time>2020-08-26T11:20:35.000Z</time>
      </trkpt>
      <trkpt lat="44.0545" lon="3.43632">
        <ele>931.4</ele>
        <time>2020-08-26T11:20:45.000Z</time>
      </trkpt>
      <trkpt lat="44.05463" lon="3.43633">
        <ele>921</ele>
        <time>2020-08-26T11:20:35.000Z</time>
      </trkpt>
      <trkpt lat="44.05472" lon="3.43628">
        <ele>933</ele>
        <time>2020-08-26T11:20:45.000Z</time>
      </trkpt>
      <trkpt lat="44.05486" lon="3.43622">
        <ele>923</ele>
        <time>2020-08-26T11:20:35.000Z</time>
      </trkpt>
      <trkpt lat="44.05495" lon="3.43619">
        <ele>938.7</ele>
        <time>2020-08-26T11:20:45.000Z</time>
      </trkpt>
      <trkpt lat="44.0551" lon="3.4361">
        <ele>932</ele>
        <time>2020-08-26T11:20:35.000Z</time>
      </trkpt>
      <trkpt lat="44.05519" lon="3.43606">
        <ele>942.8</ele>
        <time>2020-08-26T11:20:45.000Z</time>
      </trkpt>
      <trkpt lat="44.05533" lon="3.43598">
        <ele>937</ele>
        <time>2020-08-26T11:20:35.000Z</time>
      </trkpt>
      <trkpt lat="44.05546" lon="3.43593">
        <ele>946.6</ele>
        <time>2020-08-26T11:20:45.000Z</time>
      </trkpt>
      <trkpt lat="44.05556" lon="3.43587">
        <ele>936</ele>
        <time>2020-08-26T11:20:35.000Z</time>
      </trkpt>
      <trkpt lat="44.05569" lon="3.43574">
        <ele>948.2</ele>
        <time>2020-08-26T11:20:45.000Z</time>
      </trkpt>
      <trkpt lat="44.05583" lon="3.43568">
        <ele>936</ele>
        <time>2020-08-26T11:20:35.000Z</time>
      </trkpt>
      <trkpt lat="44.05593" lon="3.43569">
        <ele>951.3</ele>
        <time>2020-08-26T11:20:45.000Z</time>
      </trkpt>
      <trkpt lat="44.05608" lon="3.43572">
        <ele>941</ele>
        <time>2020-08-26T11:20:35.000Z</time>
      </trkpt>
      <trkpt lat="44.05617" lon="3.43573">
        <ele>953.6</ele>
        <time>2020-08-26T11:20:45.000Z</time>
      </trkpt>
      <trkpt lat="44.05627" lon="3.43573">
        <ele>953.3</ele>
        <time>2020-08-26T11:20:55.000Z</time>
      </trkpt>
      <trkpt lat="44.05643" lon="3.43577">
        <ele>941</ele>
        <time>2020-08-26T11:20:35.000Z</time>
      </trkpt>
      <trkpt lat="44.05658" lon="3.43588">
        <ele>954.6</ele>
        <time>2020-08-26T11:20:45.000Z</time>
      </trkpt>
      <trkpt lat="44.05669" lon="3.43602">
        <ele>945</ele>
        <time>2020-08-26T11:20:35.000Z</time>
      </trkpt>
      <trkpt lat="44.05682" lon="3.43617">
        <ele>959.9</ele>
        <time>2020-08-26T11:20:45.000Z</time>
      </trkpt>
      <trkpt lat="44.05694" lon="3.4362">
        <ele>949</ele>
        <time>2020-08-26T11:20:35.000Z</time>
      </trkpt>
      <trkpt lat="44.0571" lon="3.43621">
        <ele>961.3</ele>
        <time>2020-08-26T11:20:45.000Z</time>
      </trkpt>
      <trkpt lat="44.05726" lon="3.43625">
        <ele>951</ele>
        <time>2020-08-26T11:20:35.000Z</time>
      </trkpt>
      <trkpt lat="44.05733" lon="3.43646">
        <ele>962.9</ele>
        <time>2020-08-26T11:20:45.000Z</time>
      </trkpt>
      <trkpt lat="44.05734" lon="3.43674">
        <ele>952</ele>
        <time>2020-08-26T11:20:35.000Z</time>
      </trkpt>
      <trkpt lat="44.05744" lon="3.43677">
        <ele>960</ele>
        <time>2020-08-26T11:20:45.000Z</time>
      </trkpt>
      <trkpt lat="44.05755" lon="3.43687">
        <ele>951</ele>
        <time>2020-08-26T11:20:35.000Z</time>
      </trkpt>
      <trkpt lat="44.05767" lon="3.43695">
        <ele>956</ele>
        <time>2020-08-26T11:20:45.000Z</time>
      </trkpt>
      <trkpt lat="44.05776" lon="3.43704">
        <ele>950</ele>
        <time>2020-08-26T11:20:35.000Z</time>
      </trkpt>
      <trkpt lat="44.05783" lon="3.43718">
        <ele>952.9</ele>
        <time>2020-08-26T11:20:45.000Z</time>
      </trkpt>
      <trkpt lat="44.05812" lon="3.43756">
        <ele>939</ele>
        <time>2020-08-26T11:20:35.000Z</time>
      </trkpt>
      <trkpt lat="44.05821" lon="3.43765">
        <ele>946.8</ele>
        <time>2020-08-26T11:20:45.000Z</time>
      </trkpt>
      <trkpt lat="44.05867" lon="3.43821">
        <ele>937</ele>
        <time>2020-08-26T11:20:35.000Z</time>
      </trkpt>
      <trkpt lat="44.05893" lon="3.43833">
        <ele>930</ele>
        <time>2020-08-26T11:20:35.000Z</time>
      </trkpt>
      <trkpt lat="44.05908" lon="3.43844">
        <ele>932.5</ele>
        <time>2020-08-26T11:20:45.000Z</time>
      </trkpt>
      <trkpt lat="44.05916" lon="3.43851">
        <ele>926</ele>
        <time>2020-08-26T11:20:35.000Z</time>
      </trkpt>
      <trkpt lat="44.05933" lon="3.4386">
        <ele>930.5</ele>
        <time>2020-08-26T11:20:45.000Z</time>
      </trkpt>
      <trkpt lat="44.05944" lon="3.43861">
        <ele>918</ele>
        <time>2020-08-26T11:20:35.000Z</time>
      </trkpt>
      <trkpt lat="44.05954" lon="3.43868">
        <ele>927.1</ele>
        <time>2020-08-26T11:20:45.000Z</time>
      </trkpt>
      <trkpt lat="44.05966" lon="3.43875">
        <ele>914</ele>
        <time>2020-08-26T11:20:35.000Z</time>
      </trkpt>
      <trkpt lat="44.05975" lon="3.43872">
        <ele>922.6</ele>
        <time>2020-08-26T11:20:45.000Z</time>
      </trkpt>
      <trkpt lat="44.0599" lon="3.43863">
        <ele>909</ele>
        <time>2020-08-26T11:20:35.000Z</time>
      </trkpt>
      <trkpt lat="44.06008" lon="3.43878">
        <ele>909</ele>
        <time>2020-08-26T11:20:35.000Z</time>
      </trkpt>
      <trkpt lat="44.06015" lon="3.43889">
        <ele>916.4</ele>
        <time>2020-08-26T11:20:45.000Z</time>
      </trkpt>
      <trkpt lat="44.0602" lon="3.43906">
        <ele>910</ele>
        <time>2020-08-26T11:20:35.000Z</time>
      </trkpt>
      <trkpt lat="44.06027" lon="3.43918">
        <ele>912.6</ele>
        <time>2020-08-26T11:20:45.000Z</time>
      </trkpt>
      <trkpt lat="44.06028" lon="3.43934">
        <ele>909</ele>
        <time>2020-08-26T11:20:35.000Z</time>
      </trkpt>
      <trkpt lat="44.06037" lon="3.43947">
        <ele>904.9</ele>
        <time>2020-08-26T11:20:45.000Z</time>
      </trkpt>
      <trkpt lat="44.06049" lon="3.43966">
        <ele>908</ele>
        <time>2020-08-26T11:20:35.000Z</time>
      </trkpt>
      <trkpt lat="44.06056" lon="3.43985">
        <ele>898.7</ele>
        <time>2020-08-26T11:20:45.000Z</time>
      </trkpt>
      <trkpt lat="44.06066" lon="3.44002">
        <ele>898</ele>
        <time>2020-08-26T11:20:35.000Z</time>
      </trkpt>
      <trkpt lat="44.06071" lon="3.44013">
        <ele>891.4</ele>
        <time>2020-08-26T11:20:45.000Z</time>
      </trkpt>
      <trkpt lat="44.06086" lon="3.4403">
        <ele>884</ele>
        <time>2020-08-26T11:20:35.000Z</time>
      </trkpt>
      <trkpt lat="44.06096" lon="3.44039">
        <ele>883.3</ele>
        <time>2020-08-26T11:20:45.000Z</time>
      </trkpt>
      <trkpt lat="44.06102" lon="3.44025">
        <ele>879</ele>
        <time>2020-08-26T11:20:35.000Z</time>
      </trkpt>
      <trkpt lat="44.06116" lon="3.4402">
        <ele>880</ele>
        <time>2020-08-26T11:20:45.000Z</time>
      </trkpt>
      <trkpt lat="44.06118" lon="3.44036">
        <ele>879</ele>
        <time>2020-08-26T11:20:35.000Z</time>
      </trkpt>
      <trkpt lat="44.06118" lon="3.44055">
        <ele>875.3</ele>
        <time>2020-08-26T11:20:45.000Z</time>
      </trkpt>
      <trkpt lat="44.06116" lon="3.44067">
        <ele>881</ele>
        <time>2020-08-26T11:20:35.000Z</time>
      </trkpt>
      <trkpt lat="44.06107" lon="3.44075">
        <ele>873.9</ele>
        <time>2020-08-26T11:20:45.000Z</time>
      </trkpt>
      <trkpt lat="44.0609" lon="3.44081">
        <ele>884</ele>
        <time>2020-08-26T11:20:35.000Z</time>
      </trkpt>
      <trkpt lat="44.06076" lon="3.44098">
        <ele>868.9</ele>
        <time>2020-08-26T11:20:45.000Z</time>
      </trkpt>
      <trkpt lat="44.06082" lon="3.44121">
        <ele>884</ele>
        <time>2020-08-26T11:20:35.000Z</time>
      </trkpt>
      <trkpt lat="44.06089" lon="3.44134">
        <ele>865.7</ele>
        <time>2020-08-26T11:20:45.000Z</time>
      </trkpt>
      <trkpt lat="44.06092" lon="3.44148">
        <ele>877</ele>
        <time>2020-08-26T11:20:35.000Z</time>
      </trkpt>
      <trkpt lat="44.06094" lon="3.44164">
        <ele>864.4</ele>
        <time>2020-08-26T11:20:45.000Z</time>
      </trkpt>
      <trkpt lat="44.06107" lon="3.44193">
        <ele>871</ele>
        <time>2020-08-26T11:20:35.000Z</time>
      </trkpt>
      <trkpt lat="44.06116" lon="3.44207">
        <ele>855.6</ele>
        <time>2020-08-26T11:20:45.000Z</time>
      </trkpt>
      <trkpt lat="44.06121" lon="3.44221">
        <ele>868</ele>
        <time>2020-08-26T11:20:35.000Z</time>
      </trkpt>
      <trkpt lat="44.06131" lon="3.44241">
        <ele>854.4</ele>
        <time>2020-08-26T11:20:45.000Z</time>
      </trkpt>
      <trkpt lat="44.0615" lon="3.44267">
        <ele>855</ele>
        <time>2020-08-26T11:20:35.000Z</time>
      </trkpt>
      <trkpt lat="44.06152" lon="3.44279">
        <ele>849.5</ele>
        <time>2020-08-26T11:20:45.000Z</time>
      </trkpt>
      <trkpt lat="44.06151" lon="3.44292">
        <ele>849.3</ele>
        <time>2020-08-26T11:20:55.000Z</time>
      </trkpt>
      <trkpt lat="44.0615" lon="3.4432">
        <ele>853</ele>
        <time>2020-08-26T11:20:35.000Z</time>
      </trkpt>
      <trkpt lat="44.06151" lon="3.44342">
        <ele>840.4</ele>
        <time>2020-08-26T11:20:45.000Z</time>
      </trkpt>
      <trkpt lat="44.06154" lon="3.44376">
        <ele>851</ele>
        <time>2020-08-26T11:20:35.000Z</time>
      </trkpt>
      <trkpt lat="44.06149" lon="3.44396">
        <ele>835.7</ele>
        <time>2020-08-26T11:20:45.000Z</time>
      </trkpt>
      <trkpt lat="44.06149" lon="3.44429">
        <ele>845</ele>
        <time>2020-08-26T11:20:35.000Z</time>
      </trkpt>
      <trkpt lat="44.06154" lon="3.4444">
        <ele>830.9</ele>
        <time>2020-08-26T11:20:45.000Z</time>
      </trkpt>
      <trkpt lat="44.06178" lon="3.44444">
        <ele>843</ele>
        <time>2020-08-26T11:20:35.000Z</time>
      </trkpt>
      <trkpt lat="44.06182" lon="3.44464">
        <ele>834.4</ele>
        <time>2020-08-26T11:20:45.000Z</time>
      </trkpt>
      <trkpt lat="44.06188" lon="3.44508">
        <ele>842</ele>
        <time>2020-08-26T11:20:35.000Z</time>
      </trkpt>
      <trkpt lat="44.06186" lon="3.44541">
        <ele>842</ele>
        <time>2020-08-26T11:20:35.000Z</time>
      </trkpt>
      <trkpt lat="44.0619" lon="3.44562">
        <ele>837.2</ele>
        <time>2020-08-26T11:20:45.000Z</time>
      </trkpt>
      <trkpt lat="44.06202" lon="3.44574">
        <ele>841</ele>
        <time>2020-08-26T11:20:35.000Z</time>
      </trkpt>
      <trkpt lat="44.06214" lon="3.44592">
        <ele>839.1</ele>
        <time>2020-08-26T11:20:45.000Z</time>
      </trkpt>
      <trkpt lat="44.06225" lon="3.44616">
        <ele>841</ele>
        <time>2020-08-26T11:20:35.000Z</time>
      </trkpt>
      <trkpt lat="44.06229" lon="3.44627">
        <ele>839.4</ele>
        <time>2020-08-26T11:20:45.000Z</time>
      </trkpt>
      <trkpt lat="44.06237" lon="3.44659">
        <ele>841</ele>
        <time>2020-08-26T11:20:35.000Z</time>
      </trkpt>
      <trkpt lat="44.06252" lon="3.44691">
        <ele>842</ele>
        <time>2020-08-26T11:20:35.000Z</time>
      </trkpt>
      <trkpt lat="44.0626" lon="3.44711">
        <ele>846.2</ele>
        <time>2020-08-26T11:20:45.000Z</time>
      </trkpt>
      <trkpt lat="44.06264" lon="3.44735">
        <ele>842</ele>
        <time>2020-08-26T11:20:35.000Z</time>
      </trkpt>
      <trkpt lat="44.06266" lon="3.44756">
        <ele>848.3</ele>
        <time>2020-08-26T11:20:45.000Z</time>
      </trkpt>
      <trkpt lat="44.06282" lon="3.4476">
        <ele>847</ele>
        <time>2020-08-26T11:20:35.000Z</time>
      </trkpt>
      <trkpt lat="44.06291" lon="3.44751">
        <ele>854.2</ele>
        <time>2020-08-26T11:20:45.000Z</time>
      </trkpt>
      <trkpt lat="44.06297" lon="3.44737">
        <ele>847</ele>
        <time>2020-08-26T11:20:35.000Z</time>
      </trkpt>
      <trkpt lat="44.06301" lon="3.44725">
        <ele>859.2</ele>
        <time>2020-08-26T11:20:45.000Z</time>
      </trkpt>
      <trkpt lat="44.0631" lon="3.44716">
        <ele>856</ele>
        <time>2020-08-26T11:20:35.000Z</time>
      </trkpt>
      <trkpt lat="44.06321" lon="3.4471">
        <ele>866.8</ele>
        <time>2020-08-26T11:20:45.000Z</time>
      </trkpt>
      <trkpt lat="44.06329" lon="3.44697">
        <ele>859</ele>
        <time>2020-08-26T11:20:35.000Z</time>
      </trkpt>
      <trkpt lat="44.06331" lon="3.44684">
        <ele>868.9</ele>
        <time>2020-08-26T11:20:45.000Z</time>
      </trkpt>
      <trkpt lat="44.06342" lon="3.4467">
        <ele>863</ele>
        <time>2020-08-26T11:20:35.000Z</time>
      </trkpt>
      <trkpt lat="44.06348" lon="3.44678">
        <ele>873.5</ele>
        <time>2020-08-26T11:20:45.000Z</time>
      </trkpt>
      <trkpt lat="44.0636" lon="3.44686">
        <ele>868</ele>
        <time>2020-08-26T11:20:35.000Z</time>
      </trkpt>
      <trkpt lat="44.06367" lon="3.44672">
        <ele>877</ele>
        <time>2020-08-26T11:20:45.000Z</time>
      </trkpt>
      <trkpt lat="44.0638" lon="3.44663">
        <ele>871</ele>
        <time>2020-08-26T11:20:35.000Z</time>
      </trkpt>
      <trkpt lat="44.06388" lon="3.44654">
        <ele>881.1</ele>
        <time>2020-08-26T11:20:45.000Z</time>
      </trkpt>
      <trkpt lat="44.06397" lon="3.44649">
        <ele>874</ele>
        <time>2020-08-26T11:20:35.000Z</time>
      </trkpt>
      <trkpt lat="44.06412" lon="3.44642">
        <ele>885.7</ele>
        <time>2020-08-26T11:20:45.000Z</time>
      </trkpt>
      <trkpt lat="44.0645" lon="3.44641">
        <ele>888</ele>
        <time>2020-08-26T11:20:35.000Z</time>
      </trkpt>
      <trkpt lat="44.06464" lon="3.44644">
        <ele>888.5</ele>
        <time>2020-08-26T11:20:45.000Z</time>
      </trkpt>
      <trkpt lat="44.06482" lon="3.44638">
        <ele>893</ele>
        <time>2020-08-26T11:20:35.000Z</time>
      </trkpt>
      <trkpt lat="44.06483" lon="3.44622">
        <ele>895.3</ele>
        <time>2020-08-26T11:20:45.000Z</time>
      </trkpt>
      <trkpt lat="44.06463" lon="3.44616">
        <ele>894</ele>
        <time>2020-08-26T11:20:35.000Z</time>
      </trkpt>
      <trkpt lat="44.06461" lon="3.44596">
        <ele>896.1</ele>
        <time>2020-08-26T11:20:45.000Z</time>
      </trkpt>
      <trkpt lat="44.06451" lon="3.44571">
        <ele>894</ele>
        <time>2020-08-26T11:20:35.000Z</time>
      </trkpt>
      <trkpt lat="44.06456" lon="3.44557">
        <ele>894.3</ele>
        <time>2020-08-26T11:20:45.000Z</time>
      </trkpt>
      <trkpt lat="44.06456" lon="3.44542">
        <ele>889</ele>
        <time>2020-08-26T11:20:35.000Z</time>
      </trkpt>
      <trkpt lat="44.06457" lon="3.44528">
        <ele>892.9</ele>
        <time>2020-08-26T11:20:45.000Z</time>
      </trkpt>
      <trkpt lat="44.0646" lon="3.44503">
        <ele>886</ele>
        <time>2020-08-26T11:20:35.000Z</time>
      </trkpt>
      <trkpt lat="44.06473" lon="3.44479">
        <ele>885</ele>
        <time>2020-08-26T11:20:35.000Z</time>
      </trkpt>
      <trkpt lat="44.06483" lon="3.44472">
        <ele>889</ele>
        <time>2020-08-26T11:20:45.000Z</time>
      </trkpt>
      <trkpt lat="44.06514" lon="3.44466">
        <ele>885</ele>
        <time>2020-08-26T11:20:35.000Z</time>
      </trkpt>
      <trkpt lat="44.06534" lon="3.44463">
        <ele>883</ele>
        <time>2020-08-26T11:20:35.000Z</time>
      </trkpt>
      <trkpt lat="44.0655" lon="3.44449">
        <ele>887.8</ele>
        <time>2020-08-26T11:20:45.000Z</time>
      </trkpt>
      <trkpt lat="44.06556" lon="3.44438">
        <ele>881</ele>
        <time>2020-08-26T11:20:35.000Z</time>
      </trkpt>
      <trkpt lat="44.0656" lon="3.44403">
        <ele>876</ele>
        <time>2020-08-26T11:20:35.000Z</time>
      </trkpt>
      <trkpt lat="44.0656" lon="3.4438">
        <ele>884.6</ele>
        <time>2020-08-26T11:20:45.000Z</time>
      </trkpt>
      <trkpt lat="44.06566" lon="3.44366">
        <ele>878</ele>
        <time>2020-08-26T11:20:35.000Z</time>
      </trkpt>
      <trkpt lat="44.06575" lon="3.44327">
        <ele>880</ele>
        <time>2020-08-26T11:20:35.000Z</time>
      </trkpt>
      <trkpt lat="44.06577" lon="3.44303">
        <ele>882.1</ele>
        <time>2020-08-26T11:20:45.000Z</time>
      </trkpt>
      <trkpt lat="44.06584" lon="3.44264">
        <ele>880</ele>
        <time>2020-08-26T11:20:35.000Z</time>
      </trkpt>
      <trkpt lat="44.06585" lon="3.44244">
        <ele>881.7</ele>
        <time>2020-08-26T11:20:45.000Z</time>
      </trkpt>
      <trkpt lat="44.06579" lon="3.44224">
        <ele>877</ele>
        <time>2020-08-26T11:20:35.000Z</time>
      </trkpt>
      <trkpt lat="44.06571" lon="3.44211">
        <ele>879.5</ele>
        <time>2020-08-26T11:20:45.000Z</time>
      </trkpt>
      <trkpt lat="44.06582" lon="3.44182">
        <ele>875</ele>
        <time>2020-08-26T11:20:35.000Z</time>
      </trkpt>
      <trkpt lat="44.06606" lon="3.44159">
        <ele>877</ele>
        <time>2020-08-26T11:20:35.000Z</time>
      </trkpt>
      <trkpt lat="44.06617" lon="3.44147">
        <ele>879.6</ele>
        <time>2020-08-26T11:20:45.000Z</time>
      </trkpt>
      <trkpt lat="44.06634" lon="3.44136">
        <ele>875</ele>
        <time>2020-08-26T11:20:35.000Z</time>
      </trkpt>
      <trkpt lat="44.06651" lon="3.44133">
        <ele>880</ele>
        <time>2020-08-26T11:20:45.000Z</time>
      </trkpt>
      <trkpt lat="44.0666" lon="3.44122">
        <ele>876</ele>
        <time>2020-08-26T11:20:35.000Z</time>
      </trkpt>
      <trkpt lat="44.06664" lon="3.44105">
        <ele>878</ele>
        <time>2020-08-26T11:20:45.000Z</time>
      </trkpt>
      <trkpt lat="44.06662" lon="3.44087">
        <ele>871</ele>
        <time>2020-08-26T11:20:35.000Z</time>
      </trkpt>
      <trkpt lat="44.06661" lon="3.44065">
        <ele>876</ele>
        <time>2020-08-26T11:20:45.000Z</time>
      </trkpt>
      <trkpt lat="44.06671" lon="3.44047">
        <ele>872</ele>
        <time>2020-08-26T11:20:35.000Z</time>
      </trkpt>
      <trkpt lat="44.06683" lon="3.44032">
        <ele>876.9</ele>
        <time>2020-08-26T11:20:45.000Z</time>
      </trkpt>
      <trkpt lat="44.06694" lon="3.44022">
        <ele>870</ele>
        <time>2020-08-26T11:20:35.000Z</time>
      </trkpt>
      <trkpt lat="44.06738" lon="3.43994">
        <ele>872</ele>
        <time>2020-08-26T11:20:35.000Z</time>
      </trkpt>
      <trkpt lat="44.06764" lon="3.43992">
        <ele>872</ele>
        <time>2020-08-26T11:20:35.000Z</time>
      </trkpt>
      <trkpt lat="44.06779" lon="3.4399">
        <ele>873.4</ele>
        <time>2020-08-26T11:20:45.000Z</time>
      </trkpt>
      <trkpt lat="44.06815" lon="3.43983">
        <ele>873</ele>
        <time>2020-08-26T11:20:35.000Z</time>
      </trkpt>
      <trkpt lat="44.06834" lon="3.43981">
        <ele>872.6</ele>
        <time>2020-08-26T11:20:45.000Z</time>
      </trkpt>
      <trkpt lat="44.06842" lon="3.43973">
        <ele>879</ele>
        <time>2020-08-26T11:20:35.000Z</time>
      </trkpt>
      <trkpt lat="44.0684" lon="3.43953">
        <ele>869.1</ele>
        <time>2020-08-26T11:20:45.000Z</time>
      </trkpt>
      <trkpt lat="44.06835" lon="3.4394">
        <ele>873</ele>
        <time>2020-08-26T11:20:35.000Z</time>
      </trkpt>
      <trkpt lat="44.06825" lon="3.43927">
        <ele>867.5</ele>
        <time>2020-08-26T11:20:45.000Z</time>
      </trkpt>
      <trkpt lat="44.06814" lon="3.4391">
        <ele>868</ele>
        <time>2020-08-26T11:20:35.000Z</time>
      </trkpt>
      <trkpt lat="44.06804" lon="3.43891">
        <ele>868.8</ele>
        <time>2020-08-26T11:20:45.000Z</time>
      </trkpt>
      <trkpt lat="44.06798" lon="3.43874">
        <ele>864</ele>
        <time>2020-08-26T11:20:35.000Z</time>
      </trkpt>
      <trkpt lat="44.06789" lon="3.43853">
        <ele>865.8</ele>
        <time>2020-08-26T11:20:45.000Z</time>
      </trkpt>
      <trkpt lat="44.06781" lon="3.4384">
        <ele>863</ele>
        <time>2020-08-26T11:20:35.000Z</time>
      </trkpt>
      <trkpt lat="44.0678" lon="3.43823">
        <ele>864</ele>
        <time>2020-08-26T11:20:45.000Z</time>
      </trkpt>
      <trkpt lat="44.06783" lon="3.43803">
        <ele>862</ele>
        <time>2020-08-26T11:20:35.000Z</time>
      </trkpt>
      <trkpt lat="44.0679" lon="3.43781">
        <ele>863.5</ele>
        <time>2020-08-26T11:20:45.000Z</time>
      </trkpt>
      <trkpt lat="44.06801" lon="3.43769">
        <ele>860</ele>
        <time>2020-08-26T11:20:35.000Z</time>
      </trkpt>
      <trkpt lat="44.06824" lon="3.43754">
        <ele>859</ele>
        <time>2020-08-26T11:20:35.000Z</time>
      </trkpt>
      <trkpt lat="44.0684" lon="3.43748">
        <ele>859.4</ele>
        <time>2020-08-26T11:20:45.000Z</time>
      </trkpt>
      <trkpt lat="44.0686" lon="3.43737">
        <ele>855</ele>
        <time>2020-08-26T11:20:35.000Z</time>
      </trkpt>
      <trkpt lat="44.06894" lon="3.43726">
        <ele>854</ele>
        <time>2020-08-26T11:20:35.000Z</time>
      </trkpt>
      <trkpt lat="44.06906" lon="3.4372">
        <ele>853.6</ele>
        <time>2020-08-26T11:20:45.000Z</time>
      </trkpt>
      <trkpt lat="44.06925" lon="3.43705">
        <ele>854</ele>
        <time>2020-08-26T11:20:35.000Z</time>
      </trkpt>
      <trkpt lat="44.06943" lon="3.43694">
        <ele>855</ele>
        <time>2020-08-26T11:20:35.000Z</time>
      </trkpt>
      <trkpt lat="44.0695" lon="3.43682">
        <ele>848.5</ele>
        <time>2020-08-26T11:20:45.000Z</time>
      </trkpt>
      <trkpt lat="44.06958" lon="3.43665">
        <ele>856</ele>
        <time>2020-08-26T11:20:35.000Z</time>
      </trkpt>
      <trkpt lat="44.06967" lon="3.4365">
        <ele>849.1</ele>
        <time>2020-08-26T11:20:45.000Z</time>
      </trkpt>
      <trkpt lat="44.0697" lon="3.43635">
        <ele>856</ele>
        <time>2020-08-26T11:20:35.000Z</time>
      </trkpt>
      <trkpt lat="44.06953" lon="3.43633">
        <ele>851.2</ele>
        <time>2020-08-26T11:20:45.000Z</time>
      </trkpt>
      <trkpt lat="44.06943" lon="3.43635">
        <ele>856</ele>
        <time>2020-08-26T11:20:35.000Z</time>
      </trkpt>
      <trkpt lat="44.06915" lon="3.43631">
        <ele>856</ele>
        <time>2020-08-26T11:20:35.000Z</time>
      </trkpt>
      <trkpt lat="44.06904" lon="3.43631">
        <ele>846.4</ele>
        <time>2020-08-26T11:20:45.000Z</time>
      </trkpt>
      <trkpt lat="44.06891" lon="3.43627">
        <ele>856</ele>
        <time>2020-08-26T11:20:35.000Z</time>
      </trkpt>
      <trkpt lat="44.06882" lon="3.43629">
        <ele>846.4</ele>
        <time>2020-08-26T11:20:45.000Z</time>
      </trkpt>
      <trkpt lat="44.0687" lon="3.43629">
        <ele>855</ele>
        <time>2020-08-26T11:20:35.000Z</time>
      </trkpt>
      <trkpt lat="44.06845" lon="3.43627">
        <ele>855</ele>
        <time>2020-08-26T11:20:35.000Z</time>
      </trkpt>
      <trkpt lat="44.06831" lon="3.43624">
        <ele>847.2</ele>
        <time>2020-08-26T11:20:45.000Z</time>
      </trkpt>
      <trkpt lat="44.0682" lon="3.43615">
        <ele>857</ele>
        <time>2020-08-26T11:20:35.000Z</time>
      </trkpt>
      <trkpt lat="44.06808" lon="3.43597">
        <ele>847.8</ele>
        <time>2020-08-26T11:20:45.000Z</time>
      </trkpt>
      <trkpt lat="44.06799" lon="3.43588">
        <ele>857</ele>
        <time>2020-08-26T11:20:35.000Z</time>
      </trkpt>
      <trkpt lat="44.06781" lon="3.43576">
        <ele>857</ele>
        <time>2020-08-26T11:20:35.000Z</time>
      </trkpt>
      <trkpt lat="44.06771" lon="3.43564">
        <ele>850.4</ele>
        <time>2020-08-26T11:20:45.000Z</time>
      </trkpt>
      <trkpt lat="44.06762" lon="3.43546">
        <ele>851</ele>
        <time>2020-08-26T11:20:35.000Z</time>
      </trkpt>
      <trkpt lat="44.06759" lon="3.43524">
        <ele>849.4</ele>
        <time>2020-08-26T11:20:45.000Z</time>
      </trkpt>
      <trkpt lat="44.06757" lon="3.43479">
        <ele>850</ele>
        <time>2020-08-26T11:20:35.000Z</time>
      </trkpt>
      <trkpt lat="44.06752" lon="3.43449">
        <ele>849</ele>
        <time>2020-08-26T11:20:35.000Z</time>
      </trkpt>
      <trkpt lat="44.0675" lon="3.43429">
        <ele>846.7</ele>
        <time>2020-08-26T11:20:45.000Z</time>
      </trkpt>
      <trkpt lat="44.0675" lon="3.43415">
        <ele>847</ele>
        <time>2020-08-26T11:20:35.000Z</time>
      </trkpt>
      <trkpt lat="44.06751" lon="3.43394">
        <ele>846</ele>
        <time>2020-08-26T11:20:45.000Z</time>
      </trkpt>
      <trkpt lat="44.06755" lon="3.43375">
        <ele>841</ele>
        <time>2020-08-26T11:20:35.000Z</time>
      </trkpt>
      <trkpt lat="44.06758" lon="3.43356">
        <ele>845</ele>
        <time>2020-08-26T11:20:45.000Z</time>
      </trkpt>
      <trkpt lat="44.0676" lon="3.43337">
        <ele>844</ele>
        <time>2020-08-26T11:20:35.000Z</time>
      </trkpt>
      <trkpt lat="44.06767" lon="3.43313">
        <ele>841.3</ele>
        <time>2020-08-26T11:20:45.000Z</time>
      </trkpt>
      <trkpt lat="44.06771" lon="3.43291">
        <ele>845</ele>
        <time>2020-08-26T11:20:35.000Z</time>
      </trkpt>
      <trkpt lat="44.06776" lon="3.43272">
        <ele>841.7</ele>
        <time>2020-08-26T11:20:45.000Z</time>
      </trkpt>
      <trkpt lat="44.06781" lon="3.43259">
        <ele>846</ele>
        <time>2020-08-26T11:20:35.000Z</time>
      </trkpt>
      <trkpt lat="44.06792" lon="3.43239">
        <ele>842.7</ele>
        <time>2020-08-26T11:20:45.000Z</time>
      </trkpt>
      <trkpt lat="44.06801" lon="3.43218">
        <ele>845</ele>
        <time>2020-08-26T11:20:35.000Z</time>
      </trkpt>
      <trkpt lat="44.06798" lon="3.43198">
        <ele>840.7</ele>
        <time>2020-08-26T11:20:45.000Z</time>
      </trkpt>
      <trkpt lat="44.0679" lon="3.43161">
        <ele>845</ele>
        <time>2020-08-26T11:20:35.000Z</time>
      </trkpt>
      <trkpt lat="44.0678" lon="3.43124">
        <ele>854</ele>
        <time>2020-08-26T11:20:35.000Z</time>
      </trkpt>
      <trkpt lat="44.06771" lon="3.43104">
        <ele>844.5</ele>
        <time>2020-08-26T11:20:45.000Z</time>
      </trkpt>
      <trkpt lat="44.06759" lon="3.43099">
        <ele>855</ele>
        <time>2020-08-26T11:20:35.000Z</time>
      </trkpt>
      <trkpt lat="44.06752" lon="3.43109">
        <ele>843.3</ele>
        <time>2020-08-26T11:20:45.000Z</time>
      </trkpt>
      <trkpt lat="44.06745" lon="3.43127">
        <ele>855</ele>
        <time>2020-08-26T11:20:35.000Z</time>
      </trkpt>
      <trkpt lat="44.06739" lon="3.43139">
        <ele>844.3</ele>
        <time>2020-08-26T11:20:45.000Z</time>
      </trkpt>
      <trkpt lat="44.06728" lon="3.43153">
        <ele>855</ele>
        <time>2020-08-26T11:20:35.000Z</time>
      </trkpt>
      <trkpt lat="44.06718" lon="3.4316">
        <ele>846.2</ele>
        <time>2020-08-26T11:20:45.000Z</time>
      </trkpt>
      <trkpt lat="44.06704" lon="3.43164">
        <ele>853</ele>
        <time>2020-08-26T11:20:35.000Z</time>
      </trkpt>
      <trkpt lat="44.06695" lon="3.43165">
        <ele>847.5</ele>
        <time>2020-08-26T11:20:45.000Z</time>
      </trkpt>
      <trkpt lat="44.06677" lon="3.43159">
        <ele>852</ele>
        <time>2020-08-26T11:20:35.000Z</time>
      </trkpt>
      <trkpt lat="44.06669" lon="3.43148">
        <ele>851.3</ele>
        <time>2020-08-26T11:20:45.000Z</time>
      </trkpt>
      <trkpt lat="44.06664" lon="3.43133">
        <ele>852</ele>
        <time>2020-08-26T11:20:35.000Z</time>
      </trkpt>
      <trkpt lat="44.06656" lon="3.43119">
        <ele>851.7</ele>
        <time>2020-08-26T11:20:45.000Z</time>
      </trkpt>
      <trkpt lat="44.06647" lon="3.43112">
        <ele>853</ele>
        <time>2020-08-26T11:20:35.000Z</time>
      </trkpt>
      <trkpt lat="44.06616" lon="3.43119">
        <ele>851</ele>
        <time>2020-08-26T11:20:35.000Z</time>
      </trkpt>
      <trkpt lat="44.06607" lon="3.4312">
        <ele>852.5</ele>
        <time>2020-08-26T11:20:45.000Z</time>
      </trkpt>
      <trkpt lat="44.06596" lon="3.43118">
        <ele>849</ele>
        <time>2020-08-26T11:20:35.000Z</time>
      </trkpt>
      <trkpt lat="44.06586" lon="3.43113">
        <ele>854.5</ele>
        <time>2020-08-26T11:20:45.000Z</time>
      </trkpt>
      <trkpt lat="44.06573" lon="3.43103">
        <ele>849</ele>
        <time>2020-08-26T11:20:35.000Z</time>
      </trkpt>
      <trkpt lat="44.06568" lon="3.43092">
        <ele>856.6</ele>
        <time>2020-08-26T11:20:45.000Z</time>
      </trkpt>
      <trkpt lat="44.06572" lon="3.43055">
        <ele>857</ele>
        <time>2020-08-26T11:20:35.000Z</time>
      </trkpt>
      <trkpt lat="44.0657" lon="3.43029">
        <ele>858.2</ele>
        <time>2020-08-26T11:20:45.000Z</time>
      </trkpt>
      <trkpt lat="44.06568" lon="3.43013">
        <ele>859</ele>
        <time>2020-08-26T11:20:35.000Z</time>
      </trkpt>
      <trkpt lat="44.06561" lon="3.42995">
        <ele>859.5</ele>
        <time>2020-08-26T11:20:45.000Z</time>
      </trkpt>
      <trkpt lat="44.06554" lon="3.42974">
        <ele>855</ele>
        <time>2020-08-26T11:20:35.000Z</time>
      </trkpt>
      <trkpt lat="44.06549" lon="3.4294">
        <ele>855</ele>
        <time>2020-08-26T11:20:35.000Z</time>
      </trkpt>
      <trkpt lat="44.0655" lon="3.42921">
        <ele>861.7</ele>
        <time>2020-08-26T11:20:45.000Z</time>
      </trkpt>
      <trkpt lat="44.06556" lon="3.42908">
        <ele>856</ele>
        <time>2020-08-26T11:20:35.000Z</time>
      </trkpt>
      <trkpt lat="44.06569" lon="3.42886">
        <ele>856</ele>
        <time>2020-08-26T11:20:35.000Z</time>
      </trkpt>
      <trkpt lat="44.06578" lon="3.42874">
        <ele>863.3</ele>
        <time>2020-08-26T11:20:45.000Z</time>
      </trkpt>
      <trkpt lat="44.06591" lon="3.4286">
        <ele>858</ele>
        <time>2020-08-26T11:20:35.000Z</time>
      </trkpt>
      <trkpt lat="44.06595" lon="3.42848">
        <ele>864.4</ele>
        <time>2020-08-26T11:20:45.000Z</time>
      </trkpt>
      <trkpt lat="44.06596" lon="3.42827">
        <ele>858</ele>
        <time>2020-08-26T11:20:35.000Z</time>
      </trkpt>
      <trkpt lat="44.06595" lon="3.42809">
        <ele>863.4</ele>
        <time>2020-08-26T11:20:45.000Z</time>
      </trkpt>
      <trkpt lat="44.06596" lon="3.42782">
        <ele>858</ele>
        <time>2020-08-26T11:20:35.000Z</time>
      </trkpt>
      <trkpt lat="44.06596" lon="3.42768">
        <ele>864.4</ele>
        <time>2020-08-26T11:20:45.000Z</time>
      </trkpt>
      <trkpt lat="44.06597" lon="3.42754">
        <ele>859</ele>
        <time>2020-08-26T11:20:35.000Z</time>
      </trkpt>
      <trkpt lat="44.06596" lon="3.42741">
        <ele>865.1</ele>
        <time>2020-08-26T11:20:45.000Z</time>
      </trkpt>
      <trkpt lat="44.0659" lon="3.42704">
        <ele>858</ele>
        <time>2020-08-26T11:20:35.000Z</time>
      </trkpt>
      <trkpt lat="44.0659" lon="3.42687">
        <ele>866.2</ele>
        <time>2020-08-26T11:20:45.000Z</time>
      </trkpt>
      <trkpt lat="44.06592" lon="3.42668">
        <ele>857</ele>
        <time>2020-08-26T11:20:35.000Z</time>
      </trkpt>
      <trkpt lat="44.06596" lon="3.42646">
        <ele>868</ele>
        <time>2020-08-26T11:20:45.000Z</time>
      </trkpt>
      <trkpt lat="44.06605" lon="3.42627">
        <ele>855</ele>
        <time>2020-08-26T11:20:35.000Z</time>
      </trkpt>
      <trkpt lat="44.06617" lon="3.42621">
        <ele>868.9</ele>
        <time>2020-08-26T11:20:45.000Z</time>
      </trkpt>
      <trkpt lat="44.06635" lon="3.42618">
        <ele>860</ele>
        <time>2020-08-26T11:20:35.000Z</time>
      </trkpt>
      <trkpt lat="44.06651" lon="3.42617">
        <ele>869.7</ele>
        <time>2020-08-26T11:20:45.000Z</time>
      </trkpt>
      <trkpt lat="44.06695" lon="3.42604">
        <ele>862</ele>
        <time>2020-08-26T11:20:35.000Z</time>
      </trkpt>
      <trkpt lat="44.06712" lon="3.4259">
        <ele>860</ele>
        <time>2020-08-26T11:20:35.000Z</time>
      </trkpt>
      <trkpt lat="44.06734" lon="3.42558">
        <ele>861</ele>
        <time>2020-08-26T11:20:35.000Z</time>
      </trkpt>
      <trkpt lat="44.06741" lon="3.4254">
        <ele>866.9</ele>
        <time>2020-08-26T11:20:45.000Z</time>
      </trkpt>
      <trkpt lat="44.0675" lon="3.42478">
        <ele>861</ele>
        <time>2020-08-26T11:20:35.000Z</time>
      </trkpt>
      <trkpt lat="44.06748" lon="3.42457">
        <ele>866.6</ele>
        <time>2020-08-26T11:20:45.000Z</time>
      </trkpt>
      <trkpt lat="44.0674" lon="3.42442">
        <ele>861</ele>
        <time>2020-08-26T11:20:35.000Z</time>
      </trkpt>
      <trkpt lat="44.06733" lon="3.42411">
        <ele>866</ele>
        <time>2020-08-26T11:20:35.000Z</time>
      </trkpt>
      <trkpt lat="44.06718" lon="3.4239">
        <ele>875</ele>
        <time>2020-08-26T11:20:35.000Z</time>
      </trkpt>
      <trkpt lat="44.06698" lon="3.42372">
        <ele>875</ele>
        <time>2020-08-26T11:20:35.000Z</time>
      </trkpt>
      <trkpt lat="44.06689" lon="3.42357">
        <ele>868.3</ele>
        <time>2020-08-26T11:20:45.000Z</time>
      </trkpt>
      <trkpt lat="44.06682" lon="3.42339">
        <ele>878</ele>
        <time>2020-08-26T11:20:35.000Z</time>
      </trkpt>
      <trkpt lat="44.06675" lon="3.42325">
        <ele>869.3</ele>
        <time>2020-08-26T11:20:45.000Z</time>
      </trkpt>
      <trkpt lat="44.06667" lon="3.42315">
        <ele>877</ele>
        <time>2020-08-26T11:20:35.000Z</time>
      </trkpt>
      <trkpt lat="44.06656" lon="3.4231">
        <ele>871.7</ele>
        <time>2020-08-26T11:20:45.000Z</time>
      </trkpt>
      <trkpt lat="44.06644" lon="3.42313">
        <ele>876</ele>
        <time>2020-08-26T11:20:35.000Z</time>
      </trkpt>
      <trkpt lat="44.06634" lon="3.42314">
        <ele>870.9</ele>
        <time>2020-08-26T11:20:45.000Z</time>
      </trkpt>
      <trkpt lat="44.0662" lon="3.4231">
        <ele>880</ele>
        <time>2020-08-26T11:20:35.000Z</time>
      </trkpt>
      <trkpt lat="44.0661" lon="3.42305">
        <ele>874.2</ele>
        <time>2020-08-26T11:20:45.000Z</time>
      </trkpt>
      <trkpt lat="44.06591" lon="3.423">
        <ele>881</ele>
        <time>2020-08-26T11:20:35.000Z</time>
      </trkpt>
      <trkpt lat="44.0658" lon="3.42295">
        <ele>875.7</ele>
        <time>2020-08-26T11:20:45.000Z</time>
      </trkpt>
      <trkpt lat="44.06568" lon="3.42285">
        <ele>882</ele>
        <time>2020-08-26T11:20:35.000Z</time>
      </trkpt>
      <trkpt lat="44.06554" lon="3.42271">
        <ele>878.4</ele>
        <time>2020-08-26T11:20:45.000Z</time>
      </trkpt>
      <trkpt lat="44.06524" lon="3.42224">
        <ele>878</ele>
        <time>2020-08-26T11:20:35.000Z</time>
      </trkpt>
      <trkpt lat="44.06515" lon="3.42208">
        <ele>877.8</ele>
        <time>2020-08-26T11:20:45.000Z</time>
      </trkpt>
      <trkpt lat="44.06508" lon="3.42191">
        <ele>874</ele>
        <time>2020-08-26T11:20:35.000Z</time>
      </trkpt>
      <trkpt lat="44.06504" lon="3.42169">
        <ele>879.5</ele>
        <time>2020-08-26T11:20:45.000Z</time>
      </trkpt>
      <trkpt lat="44.06506" lon="3.42151">
        <ele>874</ele>
        <time>2020-08-26T11:20:35.000Z</time>
      </trkpt>
      <trkpt lat="44.06517" lon="3.42127">
        <ele>877</ele>
        <time>2020-08-26T11:20:35.000Z</time>
      </trkpt>
      <trkpt lat="44.06523" lon="3.42112">
        <ele>882.7</ele>
        <time>2020-08-26T11:20:45.000Z</time>
      </trkpt>
      <trkpt lat="44.06537" lon="3.42073">
        <ele>876</ele>
        <time>2020-08-26T11:20:35.000Z</time>
      </trkpt>
      <trkpt lat="44.06539" lon="3.42055">
        <ele>882.4</ele>
        <time>2020-08-26T11:20:45.000Z</time>
      </trkpt>
      <trkpt lat="44.06544" lon="3.42034">
        <ele>875</ele>
        <time>2020-08-26T11:20:35.000Z</time>
      </trkpt>
      <trkpt lat="44.0655" lon="3.42">
        <ele>880</ele>
        <time>2020-08-26T11:20:35.000Z</time>
      </trkpt>
      <trkpt lat="44.06557" lon="3.41966">
        <ele>878</ele>
        <time>2020-08-26T11:20:45.000Z</time>
      </trkpt>
      <trkpt lat="44.06564" lon="3.41928">
        <ele>877</ele>
        <time>2020-08-26T11:20:35.000Z</time>
      </trkpt>
      <trkpt lat="44.06569" lon="3.41901">
        <ele>875</ele>
        <time>2020-08-26T11:20:35.000Z</time>
      </trkpt>
      <trkpt lat="44.06572" lon="3.41879">
        <ele>880</ele>
        <time>2020-08-26T11:20:45.000Z</time>
      </trkpt>
      <trkpt lat="44.06579" lon="3.4186">
        <ele>873</ele>
        <time>2020-08-26T11:20:35.000Z</time>
      </trkpt>
      <trkpt lat="44.06589" lon="3.41841">
        <ele>879</ele>
        <time>2020-08-26T11:20:45.000Z</time>
      </trkpt>
      <trkpt lat="44.06606" lon="3.41821">
        <ele>870</ele>
        <time>2020-08-26T11:20:35.000Z</time>
      </trkpt>
      <trkpt lat="44.0662" lon="3.41814">
        <ele>878.9</ele>
        <time>2020-08-26T11:20:45.000Z</time>
      </trkpt>
      <trkpt lat="44.06631" lon="3.41812">
        <ele>871</ele>
        <time>2020-08-26T11:20:35.000Z</time>
      </trkpt>
      <trkpt lat="44.06645" lon="3.41812">
        <ele>880.2</ele>
        <time>2020-08-26T11:20:45.000Z</time>
      </trkpt>
      <trkpt lat="44.06671" lon="3.41808">
        <ele>873</ele>
        <time>2020-08-26T11:20:35.000Z</time>
      </trkpt>
      <trkpt lat="44.0668" lon="3.418">
        <ele>879.8</ele>
        <time>2020-08-26T11:20:45.000Z</time>
      </trkpt>
      <trkpt lat="44.06702" lon="3.41784">
        <ele>873</ele>
        <time>2020-08-26T11:20:35.000Z</time>
      </trkpt>
      <trkpt lat="44.06721" lon="3.41776">
        <ele>871</ele>
        <time>2020-08-26T11:20:35.000Z</time>
      </trkpt>
      <trkpt lat="44.06733" lon="3.4176">
        <ele>881.3</ele>
        <time>2020-08-26T11:20:45.000Z</time>
      </trkpt>
      <trkpt lat="44.06737" lon="3.41737">
        <ele>874</ele>
        <time>2020-08-26T11:20:35.000Z</time>
      </trkpt>
      <trkpt lat="44.06741" lon="3.4172">
        <ele>880.4</ele>
        <time>2020-08-26T11:20:45.000Z</time>
      </trkpt>
      <trkpt lat="44.06746" lon="3.41709">
        <ele>877</ele>
        <time>2020-08-26T11:20:35.000Z</time>
      </trkpt>
      <trkpt lat="44.06745" lon="3.4169">
        <ele>878.9</ele>
        <time>2020-08-26T11:20:45.000Z</time>
      </trkpt>
      <trkpt lat="44.06742" lon="3.41676">
        <ele>876</ele>
        <time>2020-08-26T11:20:35.000Z</time>
      </trkpt>
      <trkpt lat="44.06745" lon="3.41643">
        <ele>875</ele>
        <time>2020-08-26T11:20:35.000Z</time>
      </trkpt>
      <trkpt lat="44.06756" lon="3.41623">
        <ele>883.1</ele>
        <time>2020-08-26T11:20:45.000Z</time>
      </trkpt>
      <trkpt lat="44.06762" lon="3.4161">
        <ele>865</ele>
        <time>2020-08-26T11:20:35.000Z</time>
      </trkpt>
      <trkpt lat="44.06766" lon="3.41593">
        <ele>881.9</ele>
        <time>2020-08-26T11:20:45.000Z</time>
      </trkpt>
      <trkpt lat="44.06767" lon="3.41578">
        <ele>875</ele>
        <time>2020-08-26T11:20:35.000Z</time>
      </trkpt>
      <trkpt lat="44.06771" lon="3.41555">
        <ele>881.8</ele>
        <time>2020-08-26T11:20:45.000Z</time>
      </trkpt>
      <trkpt lat="44.06774" lon="3.41539">
        <ele>876</ele>
        <time>2020-08-26T11:20:35.000Z</time>
      </trkpt>
      <trkpt lat="44.06778" lon="3.41526">
        <ele>885</ele>
        <time>2020-08-26T11:20:45.000Z</time>
      </trkpt>
      <trkpt lat="44.0678" lon="3.41511">
        <ele>874</ele>
        <time>2020-08-26T11:20:35.000Z</time>
      </trkpt>
      <trkpt lat="44.06782" lon="3.41485">
        <ele>885</ele>
        <time>2020-08-26T11:20:45.000Z</time>
      </trkpt>
      <trkpt lat="44.06785" lon="3.4147">
        <ele>872</ele>
        <time>2020-08-26T11:20:35.000Z</time>
      </trkpt>
      <trkpt lat="44.06785" lon="3.41445">
        <ele>886.7</ele>
        <time>2020-08-26T11:20:45.000Z</time>
      </trkpt>
      <trkpt lat="44.06789" lon="3.41426">
        <ele>877</ele>
        <time>2020-08-26T11:20:35.000Z</time>
      </trkpt>
      <trkpt lat="44.06804" lon="3.41419">
        <ele>894</ele>
        <time>2020-08-26T11:20:45.000Z</time>
      </trkpt>
      <trkpt lat="44.06822" lon="3.41397">
        <ele>877</ele>
        <time>2020-08-26T11:20:35.000Z</time>
      </trkpt>
      <trkpt lat="44.06832" lon="3.41386">
        <ele>894.5</ele>
        <time>2020-08-26T11:20:45.000Z</time>
      </trkpt>
      <trkpt lat="44.06842" lon="3.41373">
        <ele>877</ele>
        <time>2020-08-26T11:20:35.000Z</time>
      </trkpt>
      <trkpt lat="44.06857" lon="3.4136">
        <ele>897</ele>
        <time>2020-08-26T11:20:45.000Z</time>
      </trkpt>
      <trkpt lat="44.06871" lon="3.41359">
        <ele>891</ele>
        <time>2020-08-26T11:20:35.000Z</time>
      </trkpt>
      <trkpt lat="44.06901" lon="3.41336">
        <ele>899</ele>
        <time>2020-08-26T11:20:35.000Z</time>
      </trkpt>
      <trkpt lat="44.06915" lon="3.41324">
        <ele>912.6</ele>
        <time>2020-08-26T11:20:45.000Z</time>
      </trkpt>
      <trkpt lat="44.06937" lon="3.41314">
        <ele>909</ele>
        <time>2020-08-26T11:20:35.000Z</time>
      </trkpt>
      <trkpt lat="44.06962" lon="3.41301">
        <ele>917</ele>
        <time>2020-08-26T11:20:35.000Z</time>
      </trkpt>
      <trkpt lat="44.06976" lon="3.41289">
        <ele>927.2</ele>
        <time>2020-08-26T11:20:45.000Z</time>
      </trkpt>
      <trkpt lat="44.0699" lon="3.4128">
        <ele>925</ele>
        <time>2020-08-26T11:20:35.000Z</time>
      </trkpt>
      <trkpt lat="44.07032" lon="3.41265">
        <ele>946</ele>
        <time>2020-08-26T11:20:35.000Z</time>
      </trkpt>
      <trkpt lat="44.07072" lon="3.41252">
        <ele>964</ele>
        <time>2020-08-26T11:20:35.000Z</time>
      </trkpt>
      <trkpt lat="44.07081" lon="3.41258">
        <ele>965.1</ele>
        <time>2020-08-26T11:20:45.000Z</time>
      </trkpt>
      <trkpt lat="44.07089" lon="3.41237">
        <ele>967</ele>
        <time>2020-08-26T11:20:35.000Z</time>
      </trkpt>
      <trkpt lat="44.07093" lon="3.41219">
        <ele>973.7</ele>
        <time>2020-08-26T11:20:45.000Z</time>
      </trkpt>
      <trkpt lat="44.07087" lon="3.41205">
        <ele>976</ele>
        <time>2020-08-26T11:20:35.000Z</time>
      </trkpt>
      <trkpt lat="44.07083" lon="3.41183">
        <ele>979.6</ele>
        <time>2020-08-26T11:20:45.000Z</time>
      </trkpt>
      <trkpt lat="44.07086" lon="3.41165">
        <ele>987</ele>
        <time>2020-08-26T11:20:35.000Z</time>
      </trkpt>
      <trkpt lat="44.07096" lon="3.41157">
        <ele>990.5</ele>
        <time>2020-08-26T11:20:45.000Z</time>
      </trkpt>
      <trkpt lat="44.07109" lon="3.41153">
        <ele>999</ele>
        <time>2020-08-26T11:20:35.000Z</time>
      </trkpt>
      <trkpt lat="44.07126" lon="3.41152">
        <ele>999</ele>
        <time>2020-08-26T11:20:45.000Z</time>
      </trkpt>
      <trkpt lat="44.07137" lon="3.4115">
        <ele>1004</ele>
        <time>2020-08-26T11:20:35.000Z</time>
      </trkpt>
      <trkpt lat="44.07128" lon="3.41136">
        <ele>1004.9</ele>
        <time>2020-08-26T11:20:45.000Z</time>
      </trkpt>
      <trkpt lat="44.07141" lon="3.41123">
        <ele>1008</ele>
        <time>2020-08-26T11:20:35.000Z</time>
      </trkpt>
      <trkpt lat="44.07152" lon="3.41117">
        <ele>1012.9</ele>
        <time>2020-08-26T11:20:45.000Z</time>
      </trkpt>
      <trkpt lat="44.07165" lon="3.41115">
        <ele>1010</ele>
        <time>2020-08-26T11:20:35.000Z</time>
      </trkpt>
      <trkpt lat="44.07177" lon="3.41115">
        <ele>1017</ele>
        <time>2020-08-26T11:20:45.000Z</time>
      </trkpt>
      <trkpt lat="44.07183" lon="3.411">
        <ele>1010</ele>
        <time>2020-08-26T11:20:35.000Z</time>
      </trkpt>
      <trkpt lat="44.07202" lon="3.41092">
        <ele>1010</ele>
        <time>2020-08-26T11:20:35.000Z</time>
      </trkpt>
      <trkpt lat="44.07219" lon="3.41093">
        <ele>1018.3</ele>
        <time>2020-08-26T11:20:45.000Z</time>
      </trkpt>
      <trkpt lat="44.07245" lon="3.41076">
        <ele>1010</ele>
        <time>2020-08-26T11:20:35.000Z</time>
      </trkpt>
      <trkpt lat="44.07265" lon="3.4105">
        <ele>1001</ele>
        <time>2020-08-26T11:20:35.000Z</time>
      </trkpt>
      <trkpt lat="44.07273" lon="3.41038">
        <ele>1000</ele>
        <time>2020-08-26T11:20:45.000Z</time>
      </trkpt>
      <trkpt lat="44.07292" lon="3.41028">
        <ele>995</ele>
        <time>2020-08-26T11:20:35.000Z</time>
      </trkpt>
      <trkpt lat="44.07301" lon="3.4102">
        <ele>993.3</ele>
        <time>2020-08-26T11:20:45.000Z</time>
      </trkpt>
      <trkpt lat="44.07307" lon="3.41005">
        <ele>989</ele>
        <time>2020-08-26T11:20:35.000Z</time>
      </trkpt>
      <trkpt lat="44.07317" lon="3.40989">
        <ele>984.3</ele>
        <time>2020-08-26T11:20:45.000Z</time>
      </trkpt>
      <trkpt lat="44.07322" lon="3.4097">
        <ele>986</ele>
        <time>2020-08-26T11:20:35.000Z</time>
      </trkpt>
      <trkpt lat="44.07322" lon="3.40956">
        <ele>976.4</ele>
        <time>2020-08-26T11:20:45.000Z</time>
      </trkpt>
      <trkpt lat="44.07333" lon="3.40934">
        <ele>975</ele>
        <time>2020-08-26T11:20:35.000Z</time>
      </trkpt>
      <trkpt lat="44.07336" lon="3.40916">
        <ele>975.3</ele>
        <time>2020-08-26T11:20:45.000Z</time>
      </trkpt>
      <trkpt lat="44.07337" lon="3.40902">
        <ele>966</ele>
        <time>2020-08-26T11:20:35.000Z</time>
      </trkpt>
      <trkpt lat="44.07342" lon="3.40883">
        <ele>968.1</ele>
        <time>2020-08-26T11:20:45.000Z</time>
      </trkpt>
      <trkpt lat="44.07349" lon="3.40867">
        <ele>964</ele>
        <time>2020-08-26T11:20:35.000Z</time>
      </trkpt>
      <trkpt lat="44.07353" lon="3.40854">
        <ele>966.6</ele>
        <time>2020-08-26T11:20:45.000Z</time>
      </trkpt>
      <trkpt lat="44.0736" lon="3.40835">
        <ele>962</ele>
        <time>2020-08-26T11:20:35.000Z</time>
      </trkpt>
      <trkpt lat="44.07369" lon="3.40816">
        <ele>967</ele>
        <time>2020-08-26T11:20:45.000Z</time>
      </trkpt>
      <trkpt lat="44.07374" lon="3.40799">
        <ele>956</ele>
        <time>2020-08-26T11:20:35.000Z</time>
      </trkpt>
      <trkpt lat="44.07378" lon="3.40771">
        <ele>956</ele>
        <time>2020-08-26T11:20:35.000Z</time>
      </trkpt>
      <trkpt lat="44.07376" lon="3.40758">
        <ele>964.5</ele>
        <time>2020-08-26T11:20:45.000Z</time>
      </trkpt>
      <trkpt lat="44.07382" lon="3.40732">
        <ele>956</ele>
        <time>2020-08-26T11:20:35.000Z</time>
      </trkpt>
      <trkpt lat="44.0738" lon="3.40706">
        <ele>957.5</ele>
        <time>2020-08-26T11:20:45.000Z</time>
      </trkpt>
      <trkpt lat="44.07384" lon="3.40693">
        <ele>952</ele>
        <time>2020-08-26T11:20:35.000Z</time>
      </trkpt>
      <trkpt lat="44.07389" lon="3.40682">
        <ele>959.2</ele>
        <time>2020-08-26T11:20:45.000Z</time>
      </trkpt>
      <trkpt lat="44.07392" lon="3.40666">
        <ele>948</ele>
        <time>2020-08-26T11:20:35.000Z</time>
      </trkpt>
      <trkpt lat="44.07403" lon="3.4065">
        <ele>951.1</ele>
        <time>2020-08-26T11:20:45.000Z</time>
      </trkpt>
      <trkpt lat="44.07411" lon="3.40629">
        <ele>944</ele>
        <time>2020-08-26T11:20:35.000Z</time>
      </trkpt>
      <trkpt lat="44.07419" lon="3.40619">
        <ele>946.3</ele>
        <time>2020-08-26T11:20:45.000Z</time>
      </trkpt>
      <trkpt lat="44.07426" lon="3.4059">
        <ele>938</ele>
        <time>2020-08-26T11:20:35.000Z</time>
      </trkpt>
      <trkpt lat="44.07431" lon="3.40577">
        <ele>937.6</ele>
        <time>2020-08-26T11:20:45.000Z</time>
      </trkpt>
      <trkpt lat="44.07445" lon="3.40568">
        <ele>933</ele>
        <time>2020-08-26T11:20:35.000Z</time>
      </trkpt>
      <trkpt lat="44.07453" lon="3.40554">
        <ele>933.8</ele>
        <time>2020-08-26T11:20:45.000Z</time>
      </trkpt>
      <trkpt lat="44.07461" lon="3.40539">
        <ele>925</ele>
        <time>2020-08-26T11:20:35.000Z</time>
      </trkpt>
      <trkpt lat="44.0747" lon="3.40512">
        <ele>918</ele>
        <time>2020-08-26T11:20:35.000Z</time>
      </trkpt>
      <trkpt lat="44.07476" lon="3.40499">
        <ele>919</ele>
        <time>2020-08-26T11:20:45.000Z</time>
      </trkpt>
      <trkpt lat="44.07489" lon="3.40475">
        <ele>908</ele>
        <time>2020-08-26T11:20:35.000Z</time>
      </trkpt>
      <trkpt lat="44.07494" lon="3.40463">
        <ele>909.8</ele>
        <time>2020-08-26T11:20:45.000Z</time>
      </trkpt>
      <trkpt lat="44.07501" lon="3.40451">
        <ele>902</ele>
        <time>2020-08-26T11:20:35.000Z</time>
      </trkpt>
      <trkpt lat="44.07511" lon="3.40436">
        <ele>903.8</ele>
        <time>2020-08-26T11:20:45.000Z</time>
      </trkpt>
      <trkpt lat="44.07516" lon="3.40421">
        <ele>899</ele>
        <time>2020-08-26T11:20:35.000Z</time>
      </trkpt>
      <trkpt lat="44.07508" lon="3.40404">
        <ele>900.2</ele>
        <time>2020-08-26T11:20:45.000Z</time>
      </trkpt>
      <trkpt lat="44.07511" lon="3.4039">
        <ele>897</ele>
        <time>2020-08-26T11:20:35.000Z</time>
      </trkpt>
      <trkpt lat="44.07527" lon="3.40379">
        <ele>903.4</ele>
        <time>2020-08-26T11:20:45.000Z</time>
      </trkpt>
      <trkpt lat="44.07534" lon="3.40368">
        <ele>900</ele>
        <time>2020-08-26T11:20:35.000Z</time>
      </trkpt>
      <trkpt lat="44.07536" lon="3.40354">
        <ele>907.8</ele>
        <time>2020-08-26T11:20:45.000Z</time>
      </trkpt>
      <trkpt lat="44.07544" lon="3.40331">
        <ele>903</ele>
        <time>2020-08-26T11:20:35.000Z</time>
      </trkpt>
      <trkpt lat="44.07547" lon="3.4031">
        <ele>909.3</ele>
        <time>2020-08-26T11:20:45.000Z</time>
      </trkpt>
      <trkpt lat="44.07551" lon="3.40291">
        <ele>909</ele>
        <time>2020-08-26T11:20:35.000Z</time>
      </trkpt>
      <trkpt lat="44.07559" lon="3.40271">
        <ele>909.8</ele>
        <time>2020-08-26T11:20:45.000Z</time>
      </trkpt>
      <trkpt lat="44.07568" lon="3.40266">
        <ele>909</ele>
        <time>2020-08-26T11:20:35.000Z</time>
      </trkpt>
      <trkpt lat="44.07575" lon="3.40258">
        <ele>907.5</ele>
        <time>2020-08-26T11:20:45.000Z</time>
      </trkpt>
      <trkpt lat="44.07582" lon="3.40243">
        <ele>909</ele>
        <time>2020-08-26T11:20:35.000Z</time>
      </trkpt>
      <trkpt lat="44.07586" lon="3.40231">
        <ele>908.4</ele>
        <time>2020-08-26T11:20:45.000Z</time>
      </trkpt>
      <trkpt lat="44.07593" lon="3.40222">
        <ele>907.9</ele>
        <time>2020-08-26T11:20:55.000Z</time>
      </trkpt>
      <trkpt lat="44.07614" lon="3.40175">
        <ele>907</ele>
        <time>2020-08-26T11:20:35.000Z</time>
      </trkpt>
      <trkpt lat="44.07624" lon="3.40159">
        <ele>905.6</ele>
        <time>2020-08-26T11:20:45.000Z</time>
      </trkpt>
      <trkpt lat="44.07629" lon="3.40143">
        <ele>905</ele>
        <time>2020-08-26T11:20:35.000Z</time>
      </trkpt>
      <trkpt lat="44.07631" lon="3.4012">
        <ele>907.4</ele>
        <time>2020-08-26T11:20:45.000Z</time>
      </trkpt>
      <trkpt lat="44.0762" lon="3.40096">
        <ele>904</ele>
        <time>2020-08-26T11:20:35.000Z</time>
      </trkpt>
      <trkpt lat="44.07617" lon="3.40084">
        <ele>911.1</ele>
        <time>2020-08-26T11:20:45.000Z</time>
      </trkpt>
      <trkpt lat="44.07615" lon="3.40064">
        <ele>904</ele>
        <time>2020-08-26T11:20:35.000Z</time>
      </trkpt>
      <trkpt lat="44.0762" lon="3.40045">
        <ele>910.3</ele>
        <time>2020-08-26T11:20:45.000Z</time>
      </trkpt>
      <trkpt lat="44.07623" lon="3.40028">
        <ele>904</ele>
        <time>2020-08-26T11:20:35.000Z</time>
      </trkpt>
      <trkpt lat="44.07623" lon="3.40015">
        <ele>908.6</ele>
        <time>2020-08-26T11:20:45.000Z</time>
      </trkpt>
      <trkpt lat="44.07611" lon="3.39977">
        <ele>903</ele>
        <time>2020-08-26T11:20:35.000Z</time>
      </trkpt>
      <trkpt lat="44.07605" lon="3.39964">
        <ele>907.6</ele>
        <time>2020-08-26T11:20:45.000Z</time>
      </trkpt>
      <trkpt lat="44.07598" lon="3.39956">
        <ele>902</ele>
        <time>2020-08-26T11:20:35.000Z</time>
      </trkpt>
      <trkpt lat="44.07589" lon="3.39954">
        <ele>908.8</ele>
        <time>2020-08-26T11:20:45.000Z</time>
      </trkpt>
      <trkpt lat="44.07586" lon="3.39938">
        <ele>891</ele>
        <time>2020-08-26T11:20:35.000Z</time>
      </trkpt>
      <trkpt lat="44.07575" lon="3.39894">
        <ele>870</ele>
        <time>2020-08-26T11:20:35.000Z</time>
      </trkpt>
      <trkpt lat="44.07586" lon="3.3989">
        <ele>904.5</ele>
        <time>2020-08-26T11:20:45.000Z</time>
      </trkpt>
      <trkpt lat="44.07594" lon="3.39895">
        <ele>870</ele>
        <time>2020-08-26T11:20:35.000Z</time>
      </trkpt>
      <trkpt lat="44.07597" lon="3.39907">
        <ele>903.4</ele>
        <time>2020-08-26T11:20:45.000Z</time>
      </trkpt>
      <trkpt lat="44.07643" lon="3.39891">
        <ele>870</ele>
        <time>2020-08-26T11:20:35.000Z</time>
      </trkpt>
      <trkpt lat="44.07651" lon="3.39898">
        <ele>894.3</ele>
        <time>2020-08-26T11:20:45.000Z</time>
      </trkpt>
      <trkpt lat="44.07664" lon="3.39895">
        <ele>870</ele>
        <time>2020-08-26T11:20:35.000Z</time>
      </trkpt>
      <trkpt lat="44.0768" lon="3.39896">
        <ele>887.9</ele>
        <time>2020-08-26T11:20:45.000Z</time>
      </trkpt>
      <trkpt lat="44.07689" lon="3.399">
        <ele>870</ele>
        <time>2020-08-26T11:20:35.000Z</time>
      </trkpt>
      <trkpt lat="44.07705" lon="3.39904">
        <ele>883.1</ele>
        <time>2020-08-26T11:20:45.000Z</time>
      </trkpt>
      <trkpt lat="44.07718" lon="3.39913">
        <ele>864</ele>
        <time>2020-08-26T11:20:35.000Z</time>
      </trkpt>
      <trkpt lat="44.07745" lon="3.39919">
        <ele>866</ele>
        <time>2020-08-26T11:20:35.000Z</time>
      </trkpt>
      <trkpt lat="44.07756" lon="3.39928">
        <ele>873.3</ele>
        <time>2020-08-26T11:20:45.000Z</time>
      </trkpt>
      <trkpt lat="44.07767" lon="3.39941">
        <ele>868</ele>
        <time>2020-08-26T11:20:35.000Z</time>
      </trkpt>
      <trkpt lat="44.07784" lon="3.39952">
        <ele>871.1</ele>
        <time>2020-08-26T11:20:45.000Z</time>
      </trkpt>
      <trkpt lat="44.07794" lon="3.39964">
        <ele>857</ele>
        <time>2020-08-26T11:20:35.000Z</time>
      </trkpt>
      <trkpt lat="44.07809" lon="3.39978">
        <ele>868.8</ele>
        <time>2020-08-26T11:20:45.000Z</time>
      </trkpt>
      <trkpt lat="44.07821" lon="3.39986">
        <ele>860</ele>
        <time>2020-08-26T11:20:35.000Z</time>
      </trkpt>
      <trkpt lat="44.07826" lon="3.40001">
        <ele>866.6</ele>
        <time>2020-08-26T11:20:45.000Z</time>
      </trkpt>
      <trkpt lat="44.07836" lon="3.40027">
        <ele>860</ele>
        <time>2020-08-26T11:20:35.000Z</time>
      </trkpt>
      <trkpt lat="44.07848" lon="3.40039">
        <ele>860.6</ele>
        <time>2020-08-26T11:20:45.000Z</time>
      </trkpt>
      <trkpt lat="44.07856" lon="3.40052">
        <ele>860</ele>
        <time>2020-08-26T11:20:35.000Z</time>
      </trkpt>
      <trkpt lat="44.07866" lon="3.40043">
        <ele>853.9</ele>
        <time>2020-08-26T11:20:45.000Z</time>
      </trkpt>
      <trkpt lat="44.0788" lon="3.40064">
        <ele>854</ele>
        <time>2020-08-26T11:20:35.000Z</time>
      </trkpt>
      <trkpt lat="44.07892" lon="3.40075">
        <ele>844.2</ele>
        <time>2020-08-26T11:20:45.000Z</time>
      </trkpt>
      <trkpt lat="44.07904" lon="3.40084">
        <ele>848</ele>
        <time>2020-08-26T11:20:35.000Z</time>
      </trkpt>
      <trkpt lat="44.07914" lon="3.40081">
        <ele>841.2</ele>
        <time>2020-08-26T11:20:45.000Z</time>
      </trkpt>
      <trkpt lat="44.07924" lon="3.40074">
        <ele>837</ele>
        <time>2020-08-26T11:20:35.000Z</time>
      </trkpt>
      <trkpt lat="44.07943" lon="3.40075">
        <ele>846.7</ele>
        <time>2020-08-26T11:20:45.000Z</time>
      </trkpt>
      <trkpt lat="44.07959" lon="3.40066">
        <ele>825</ele>
        <time>2020-08-26T11:20:35.000Z</time>
      </trkpt>
      <trkpt lat="44.07976" lon="3.40053">
        <ele>823</ele>
        <time>2020-08-26T11:20:35.000Z</time>
      </trkpt>
      <trkpt lat="44.07993" lon="3.40051">
        <ele>849.3</ele>
        <time>2020-08-26T11:20:45.000Z</time>
      </trkpt>
      <trkpt lat="44.08009" lon="3.40052">
        <ele>816</ele>
        <time>2020-08-26T11:20:35.000Z</time>
      </trkpt>
      <trkpt lat="44.08031" lon="3.4006">
        <ele>816</ele>
        <time>2020-08-26T11:20:35.000Z</time>
      </trkpt>
      <trkpt lat="44.08057" lon="3.40081">
        <ele>809</ele>
        <time>2020-08-26T11:20:35.000Z</time>
      </trkpt>
      <trkpt lat="44.08078" lon="3.40099">
        <ele>811</ele>
        <time>2020-08-26T11:20:35.000Z</time>
      </trkpt>
      <trkpt lat="44.08108" lon="3.4012">
        <ele>813</ele>
        <time>2020-08-26T11:20:35.000Z</time>
      </trkpt>
      <trkpt lat="44.0812" lon="3.4013">
        <ele>829.6</ele>
        <time>2020-08-26T11:20:45.000Z</time>
      </trkpt>
      <trkpt lat="44.08127" lon="3.40142">
        <ele>812</ele>
        <time>2020-08-26T11:20:35.000Z</time>
      </trkpt>
      <trkpt lat="44.08136" lon="3.40154">
        <ele>826</ele>
        <time>2020-08-26T11:20:45.000Z</time>
      </trkpt>
      <trkpt lat="44.08153" lon="3.40155">
        <ele>812</ele>
        <time>2020-08-26T11:20:35.000Z</time>
      </trkpt>
      <trkpt lat="44.08157" lon="3.40138">
        <ele>813.1</ele>
        <time>2020-08-26T11:20:45.000Z</time>
      </trkpt>
      <trkpt lat="44.08152" lon="3.4012">
        <ele>803</ele>
        <time>2020-08-26T11:20:35.000Z</time>
      </trkpt>
      <trkpt lat="44.0815" lon="3.40105">
        <ele>810.9</ele>
        <time>2020-08-26T11:20:45.000Z</time>
      </trkpt>
      <trkpt lat="44.08152" lon="3.40092">
        <ele>798</ele>
        <time>2020-08-26T11:20:35.000Z</time>
      </trkpt>
      <trkpt lat="44.08159" lon="3.40105">
        <ele>806.2</ele>
        <time>2020-08-26T11:20:45.000Z</time>
      </trkpt>
      <trkpt lat="44.08193" lon="3.40117">
        <ele>794</ele>
        <time>2020-08-26T11:20:35.000Z</time>
      </trkpt>
      <trkpt lat="44.08204" lon="3.40106">
        <ele>814.1</ele>
        <time>2020-08-26T11:20:45.000Z</time>
      </trkpt>
      <trkpt lat="44.08208" lon="3.4009">
        <ele>775</ele>
        <time>2020-08-26T11:20:35.000Z</time>
      </trkpt>
      <trkpt lat="44.0821" lon="3.40072">
        <ele>808.5</ele>
        <time>2020-08-26T11:20:45.000Z</time>
      </trkpt>
      <trkpt lat="44.08217" lon="3.40062">
        <ele>771</ele>
        <time>2020-08-26T11:20:35.000Z</time>
      </trkpt>
      <trkpt lat="44.08225" lon="3.40054">
        <ele>818.6</ele>
        <time>2020-08-26T11:20:45.000Z</time>
      </trkpt>
      <trkpt lat="44.0824" lon="3.40046">
        <ele>775</ele>
        <time>2020-08-26T11:20:35.000Z</time>
      </trkpt>
      <trkpt lat="44.08249" lon="3.40047">
        <ele>832.9</ele>
        <time>2020-08-26T11:20:45.000Z</time>
      </trkpt>
      <trkpt lat="44.08248" lon="3.40063">
        <ele>780</ele>
        <time>2020-08-26T11:20:35.000Z</time>
      </trkpt>
      <trkpt lat="44.08256" lon="3.40067">
        <ele>841.6</ele>
        <time>2020-08-26T11:20:45.000Z</time>
      </trkpt>
      <trkpt lat="44.08263" lon="3.40053">
        <ele>780</ele>
        <time>2020-08-26T11:20:35.000Z</time>
      </trkpt>
      <trkpt lat="44.08276" lon="3.40039">
        <ele>843.3</ele>
        <time>2020-08-26T11:20:45.000Z</time>
      </trkpt>
      <trkpt lat="44.08297" lon="3.40027">
        <ele>789</ele>
        <time>2020-08-26T11:20:35.000Z</time>
      </trkpt>
      <trkpt lat="44.08313" lon="3.40021">
        <ele>853.2</ele>
        <time>2020-08-26T11:20:45.000Z</time>
      </trkpt>
      <trkpt lat="44.08327" lon="3.4002">
        <ele>807</ele>
        <time>2020-08-26T11:20:35.000Z</time>
      </trkpt>
      <trkpt lat="44.0834" lon="3.40016">
        <ele>857.5</ele>
        <time>2020-08-26T11:20:45.000Z</time>
      </trkpt>
      <trkpt lat="44.08347" lon="3.40009">
        <ele>826</ele>
        <time>2020-08-26T11:20:35.000Z</time>
      </trkpt>
      <trkpt lat="44.08356" lon="3.40004">
        <ele>855.4</ele>
        <time>2020-08-26T11:20:45.000Z</time>
      </trkpt>
      <trkpt lat="44.08368" lon="3.40002">
        <ele>837</ele>
        <time>2020-08-26T11:20:35.000Z</time>
      </trkpt>
      <trkpt lat="44.08392" lon="3.4">
        <ele>834</ele>
        <time>2020-08-26T11:20:35.000Z</time>
      </trkpt>
      <trkpt lat="44.08409" lon="3.39986">
        <ele>832</ele>
        <time>2020-08-26T11:20:35.000Z</time>
      </trkpt>
      <trkpt lat="44.08428" lon="3.39972">
        <ele>833</ele>
        <time>2020-08-26T11:20:35.000Z</time>
      </trkpt>
      <trkpt lat="44.08446" lon="3.39962">
        <ele>822</ele>
        <time>2020-08-26T11:20:35.000Z</time>
      </trkpt>
      <trkpt lat="44.08462" lon="3.39957">
        <ele>835.5</ele>
        <time>2020-08-26T11:20:45.000Z</time>
      </trkpt>
      <trkpt lat="44.08479" lon="3.39957">
        <ele>825</ele>
        <time>2020-08-26T11:20:35.000Z</time>
      </trkpt>
      <trkpt lat="44.085" lon="3.39968">
        <ele>828</ele>
        <time>2020-08-26T11:20:35.000Z</time>
      </trkpt>
      <trkpt lat="44.08519" lon="3.39993">
        <ele>830</ele>
        <time>2020-08-26T11:20:35.000Z</time>
      </trkpt>
      <trkpt lat="44.08522" lon="3.40005">
        <ele>830.4</ele>
        <time>2020-08-26T11:20:45.000Z</time>
      </trkpt>
      <trkpt lat="44.08536" lon="3.4003">
        <ele>832</ele>
        <time>2020-08-26T11:20:35.000Z</time>
      </trkpt>
      <trkpt lat="44.08542" lon="3.40043">
        <ele>823.7</ele>
        <time>2020-08-26T11:20:45.000Z</time>
      </trkpt>
      <trkpt lat="44.08548" lon="3.40053">
        <ele>826</ele>
        <time>2020-08-26T11:20:35.000Z</time>
      </trkpt>
      <trkpt lat="44.08559" lon="3.40066">
        <ele>817.8</ele>
        <time>2020-08-26T11:20:45.000Z</time>
      </trkpt>
      <trkpt lat="44.08569" lon="3.40075">
        <ele>820</ele>
        <time>2020-08-26T11:20:35.000Z</time>
      </trkpt>
      <trkpt lat="44.08583" lon="3.40097">
        <ele>814</ele>
        <time>2020-08-26T11:20:35.000Z</time>
      </trkpt>
      <trkpt lat="44.0859" lon="3.40106">
        <ele>807.4</ele>
        <time>2020-08-26T11:20:45.000Z</time>
      </trkpt>
      <trkpt lat="44.08597" lon="3.40122">
        <ele>808</ele>
        <time>2020-08-26T11:20:35.000Z</time>
      </trkpt>
      <trkpt lat="44.08609" lon="3.40122">
        <ele>802.2</ele>
        <time>2020-08-26T11:20:45.000Z</time>
      </trkpt>
      <trkpt lat="44.08617" lon="3.40111">
        <ele>798</ele>
        <time>2020-08-26T11:20:35.000Z</time>
      </trkpt>
      <trkpt lat="44.08626" lon="3.40082">
        <ele>789</ele>
        <time>2020-08-26T11:20:35.000Z</time>
      </trkpt>
      <trkpt lat="44.08635" lon="3.40061">
        <ele>789.2</ele>
        <time>2020-08-26T11:20:45.000Z</time>
      </trkpt>
      <trkpt lat="44.08642" lon="3.40047">
        <ele>774</ele>
        <time>2020-08-26T11:20:35.000Z</time>
      </trkpt>
      <trkpt lat="44.08657" lon="3.40028">
        <ele>774</ele>
        <time>2020-08-26T11:20:35.000Z</time>
      </trkpt>
      <trkpt lat="44.08674" lon="3.40025">
        <ele>785.9</ele>
        <time>2020-08-26T11:20:45.000Z</time>
      </trkpt>
      <trkpt lat="44.08696" lon="3.40037">
        <ele>755</ele>
        <time>2020-08-26T11:20:35.000Z</time>
      </trkpt>
      <trkpt lat="44.08708" lon="3.4005">
        <ele>788.6</ele>
        <time>2020-08-26T11:20:45.000Z</time>
      </trkpt>
      <trkpt lat="44.08715" lon="3.40063">
        <ele>754</ele>
        <time>2020-08-26T11:20:35.000Z</time>
      </trkpt>
      <trkpt lat="44.08724" lon="3.40068">
        <ele>788.4</ele>
        <time>2020-08-26T11:20:45.000Z</time>
      </trkpt>
      <trkpt lat="44.08751" lon="3.40079">
        <ele>748</ele>
        <time>2020-08-26T11:20:35.000Z</time>
      </trkpt>
      <trkpt lat="44.08767" lon="3.40091">
        <ele>764.9</ele>
        <time>2020-08-26T11:20:45.000Z</time>
      </trkpt>
      <trkpt lat="44.08779" lon="3.40116">
        <ele>749</ele>
        <time>2020-08-26T11:20:35.000Z</time>
      </trkpt>
      <trkpt lat="44.08781" lon="3.40141">
        <ele>762.3</ele>
        <time>2020-08-26T11:20:45.000Z</time>
      </trkpt>
      <trkpt lat="44.08784" lon="3.40166">
        <ele>751</ele>
        <time>2020-08-26T11:20:35.000Z</time>
      </trkpt>
      <trkpt lat="44.08791" lon="3.40178">
        <ele>755.7</ele>
        <time>2020-08-26T11:20:45.000Z</time>
      </trkpt>
      <trkpt lat="44.08797" lon="3.40201">
        <ele>746</ele>
        <time>2020-08-26T11:20:35.000Z</time>
      </trkpt>
      <trkpt lat="44.08799" lon="3.40213">
        <ele>750.6</ele>
        <time>2020-08-26T11:20:45.000Z</time>
      </trkpt>
      <trkpt lat="44.08811" lon="3.40223">
        <ele>741</ele>
        <time>2020-08-26T11:20:35.000Z</time>
      </trkpt>
      <trkpt lat="44.08812" lon="3.40204">
        <ele>738.4</ele>
        <time>2020-08-26T11:20:45.000Z</time>
      </trkpt>
      <trkpt lat="44.08822" lon="3.40194">
        <ele>726</ele>
        <time>2020-08-26T11:20:35.000Z</time>
      </trkpt>
      <trkpt lat="44.08815" lon="3.40164">
        <ele>712</ele>
        <time>2020-08-26T11:20:35.000Z</time>
      </trkpt>
      <trkpt lat="44.08822" lon="3.40161">
        <ele>721.7</ele>
        <time>2020-08-26T11:20:45.000Z</time>
      </trkpt>
      <trkpt lat="44.08832" lon="3.40158">
        <ele>711.4</ele>
        <time>2020-08-26T11:20:55.000Z</time>
      </trkpt>
      <trkpt lat="44.08843" lon="3.40172">
        <ele>700</ele>
        <time>2020-08-26T11:20:35.000Z</time>
      </trkpt>
      <trkpt lat="44.08855" lon="3.40181">
        <ele>700.9</ele>
        <time>2020-08-26T11:20:45.000Z</time>
      </trkpt>
      <trkpt lat="44.08866" lon="3.40183">
        <ele>691</ele>
        <time>2020-08-26T11:20:35.000Z</time>
      </trkpt>
      <trkpt lat="44.08873" lon="3.40195">
        <ele>688.7</ele>
        <time>2020-08-26T11:20:45.000Z</time>
      </trkpt>
      <trkpt lat="44.08883" lon="3.40218">
        <ele>686</ele>
        <time>2020-08-26T11:20:35.000Z</time>
      </trkpt>
      <trkpt lat="44.0889" lon="3.40235">
        <ele>682.3</ele>
        <time>2020-08-26T11:20:45.000Z</time>
      </trkpt>
      <trkpt lat="44.08896" lon="3.40254">
        <ele>682</ele>
        <time>2020-08-26T11:20:35.000Z</time>
      </trkpt>
      <trkpt lat="44.08906" lon="3.4025">
        <ele>672.8</ele>
        <time>2020-08-26T11:20:45.000Z</time>
      </trkpt>
      <trkpt lat="44.08914" lon="3.40241">
        <ele>669</ele>
        <time>2020-08-26T11:20:35.000Z</time>
      </trkpt>
      <trkpt lat="44.08926" lon="3.40233">
        <ele>654</ele>
        <time>2020-08-26T11:20:45.000Z</time>
      </trkpt>
      <trkpt lat="44.08936" lon="3.40234">
        <ele>664</ele>
        <time>2020-08-26T11:20:35.000Z</time>
      </trkpt>
      <trkpt lat="44.08952" lon="3.40229">
        <ele>633.1</ele>
        <time>2020-08-26T11:20:45.000Z</time>
      </trkpt>
      <trkpt lat="44.08957" lon="3.40218">
        <ele>642</ele>
        <time>2020-08-26T11:20:35.000Z</time>
      </trkpt>
      <trkpt lat="44.08954" lon="3.40195">
        <ele>624.8</ele>
        <time>2020-08-26T11:20:45.000Z</time>
      </trkpt>
      <trkpt lat="44.08952" lon="3.40174">
        <ele>631</ele>
        <time>2020-08-26T11:20:35.000Z</time>
      </trkpt>
      <trkpt lat="44.08946" lon="3.40158">
        <ele>622.5</ele>
        <time>2020-08-26T11:20:45.000Z</time>
      </trkpt>
      <trkpt lat="44.08941" lon="3.40142">
        <ele>634</ele>
        <time>2020-08-26T11:20:35.000Z</time>
      </trkpt>
      <trkpt lat="44.0894" lon="3.4013">
        <ele>622.3</ele>
        <time>2020-08-26T11:20:45.000Z</time>
      </trkpt>
      <trkpt lat="44.08934" lon="3.40108">
        <ele>626</ele>
        <time>2020-08-26T11:20:35.000Z</time>
      </trkpt>
      <trkpt lat="44.08932" lon="3.40094">
        <ele>620.9</ele>
        <time>2020-08-26T11:20:45.000Z</time>
      </trkpt>
      <trkpt lat="44.08922" lon="3.40057">
        <ele>618</ele>
        <time>2020-08-26T11:20:35.000Z</time>
      </trkpt>
      <trkpt lat="44.08918" lon="3.40044">
        <ele>617.7</ele>
        <time>2020-08-26T11:20:45.000Z</time>
      </trkpt>
      <trkpt lat="44.08916" lon="3.40031">
        <ele>618</ele>
        <time>2020-08-26T11:20:35.000Z</time>
      </trkpt>
      <trkpt lat="44.08912" lon="3.40019">
        <ele>615.1</ele>
        <time>2020-08-26T11:20:45.000Z</time>
      </trkpt>
      <trkpt lat="44.08905" lon="3.39973">
        <ele>618</ele>
        <time>2020-08-26T11:20:35.000Z</time>
      </trkpt>
      <trkpt lat="44.08902" lon="3.3996">
        <ele>607.9</ele>
        <time>2020-08-26T11:20:45.000Z</time>
      </trkpt>
      <trkpt lat="44.08896" lon="3.39942">
        <ele>612</ele>
        <time>2020-08-26T11:20:35.000Z</time>
      </trkpt>
      <trkpt lat="44.08887" lon="3.39929">
        <ele>611.3</ele>
        <time>2020-08-26T11:20:45.000Z</time>
      </trkpt>
      <trkpt lat="44.08882" lon="3.39918">
        <ele>611</ele>
        <time>2020-08-26T11:20:35.000Z</time>
      </trkpt>
      <trkpt lat="44.08876" lon="3.39908">
        <ele>612.8</ele>
        <time>2020-08-26T11:20:45.000Z</time>
      </trkpt>
      <trkpt lat="44.08873" lon="3.39891">
        <ele>610</ele>
        <time>2020-08-26T11:20:35.000Z</time>
      </trkpt>
      <trkpt lat="44.08864" lon="3.39865">
        <ele>608</ele>
        <time>2020-08-26T11:20:35.000Z</time>
      </trkpt>
      <trkpt lat="44.08856" lon="3.3985">
        <ele>599.3</ele>
        <time>2020-08-26T11:20:45.000Z</time>
      </trkpt>
      <trkpt lat="44.08849" lon="3.39833">
        <ele>606</ele>
        <time>2020-08-26T11:20:35.000Z</time>
      </trkpt>
      <trkpt lat="44.08838" lon="3.39815">
        <ele>601</ele>
        <time>2020-08-26T11:20:45.000Z</time>
      </trkpt>
      <trkpt lat="44.08829" lon="3.3979">
        <ele>594</ele>
        <time>2020-08-26T11:20:35.000Z</time>
      </trkpt>
      <trkpt lat="44.08827" lon="3.39777">
        <ele>601.5</ele>
        <time>2020-08-26T11:20:45.000Z</time>
      </trkpt>
      <trkpt lat="44.08813" lon="3.39752">
        <ele>593</ele>
        <time>2020-08-26T11:20:35.000Z</time>
      </trkpt>
      <trkpt lat="44.08783" lon="3.39726">
        <ele>590</ele>
        <time>2020-08-26T11:20:35.000Z</time>
      </trkpt>
      <trkpt lat="44.08777" lon="3.39716">
        <ele>597.6</ele>
        <time>2020-08-26T11:20:45.000Z</time>
      </trkpt>
      <trkpt lat="44.08763" lon="3.39708">
        <ele>586</ele>
        <time>2020-08-26T11:20:35.000Z</time>
      </trkpt>
      <trkpt lat="44.08755" lon="3.39696">
        <ele>592.8</ele>
        <time>2020-08-26T11:20:45.000Z</time>
      </trkpt>
      <trkpt lat="44.08748" lon="3.39687">
        <ele>590</ele>
        <time>2020-08-26T11:20:35.000Z</time>
      </trkpt>
      <trkpt lat="44.08747" lon="3.39674">
        <ele>590.6</ele>
        <time>2020-08-26T11:20:45.000Z</time>
      </trkpt>
      <trkpt lat="44.08738" lon="3.39663">
        <ele>591</ele>
        <time>2020-08-26T11:20:35.000Z</time>
      </trkpt>
      <trkpt lat="44.08725" lon="3.39645">
        <ele>593.3</ele>
        <time>2020-08-26T11:20:45.000Z</time>
      </trkpt>
      <trkpt lat="44.08706" lon="3.39635">
        <ele>589</ele>
        <time>2020-08-26T11:20:35.000Z</time>
      </trkpt>
      <trkpt lat="44.08671" lon="3.39603">
        <ele>587</ele>
        <time>2020-08-26T11:20:35.000Z</time>
      </trkpt>
      <trkpt lat="44.08656" lon="3.39591">
        <ele>592.1</ele>
        <time>2020-08-26T11:20:45.000Z</time>
      </trkpt>
      <trkpt lat="44.08646" lon="3.39589">
        <ele>586</ele>
        <time>2020-08-26T11:20:35.000Z</time>
      </trkpt>
      <trkpt lat="44.08635" lon="3.3958">
        <ele>588.9</ele>
        <time>2020-08-26T11:20:45.000Z</time>
      </trkpt>
      <trkpt lat="44.08618" lon="3.39564">
        <ele>587</ele>
        <time>2020-08-26T11:20:35.000Z</time>
      </trkpt>
      <trkpt lat="44.08607" lon="3.39558">
        <ele>582.3</ele>
        <time>2020-08-26T11:20:45.000Z</time>
      </trkpt>
      <trkpt lat="44.08598" lon="3.39552">
        <ele>585</ele>
        <time>2020-08-26T11:20:35.000Z</time>
      </trkpt>
      <trkpt lat="44.08584" lon="3.39548">
        <ele>584.8</ele>
        <time>2020-08-26T11:20:45.000Z</time>
      </trkpt>
      <trkpt lat="44.08568" lon="3.39541">
        <ele>584</ele>
        <time>2020-08-26T11:20:35.000Z</time>
      </trkpt>
      <trkpt lat="44.08538" lon="3.39522">
        <ele>584</ele>
        <time>2020-08-26T11:20:35.000Z</time>
      </trkpt>
      <trkpt lat="44.08525" lon="3.39519">
        <ele>590.6</ele>
        <time>2020-08-26T11:20:45.000Z</time>
      </trkpt>
      <trkpt lat="44.08509" lon="3.39521">
        <ele>583</ele>
        <time>2020-08-26T11:20:35.000Z</time>
      </trkpt>
      <trkpt lat="44.08492" lon="3.39517">
        <ele>591.7</ele>
        <time>2020-08-26T11:20:45.000Z</time>
      </trkpt>
      <trkpt lat="44.08468" lon="3.39508">
        <ele>575</ele>
        <time>2020-08-26T11:20:35.000Z</time>
      </trkpt>
      <trkpt lat="44.08455" lon="3.39507">
        <ele>592.4</ele>
        <time>2020-08-26T11:20:45.000Z</time>
      </trkpt>
      <trkpt lat="44.08435" lon="3.39504">
        <ele>572</ele>
        <time>2020-08-26T11:20:35.000Z</time>
      </trkpt>
      <trkpt lat="44.08404" lon="3.39505">
        <ele>573</ele>
        <time>2020-08-26T11:20:35.000Z</time>
      </trkpt>
      <trkpt lat="44.08389" lon="3.395">
        <ele>597</ele>
        <time>2020-08-26T11:20:45.000Z</time>
      </trkpt>
      <trkpt lat="44.08378" lon="3.39501">
        <ele>575</ele>
        <time>2020-08-26T11:20:35.000Z</time>
      </trkpt>
      <trkpt lat="44.08367" lon="3.39501">
        <ele>597.9</ele>
        <time>2020-08-26T11:20:45.000Z</time>
      </trkpt>
      <trkpt lat="44.08351" lon="3.39497">
        <ele>575</ele>
        <time>2020-08-26T11:20:35.000Z</time>
      </trkpt>
      <trkpt lat="44.08336" lon="3.39495">
        <ele>595.7</ele>
        <time>2020-08-26T11:20:45.000Z</time>
      </trkpt>
      <trkpt lat="44.08323" lon="3.39498">
        <ele>578</ele>
        <time>2020-08-26T11:20:35.000Z</time>
      </trkpt>
      <trkpt lat="44.08304" lon="3.39499">
        <ele>592.7</ele>
        <time>2020-08-26T11:20:45.000Z</time>
      </trkpt>
      <trkpt lat="44.08291" lon="3.39501">
        <ele>577</ele>
        <time>2020-08-26T11:20:35.000Z</time>
      </trkpt>
      <trkpt lat="44.08278" lon="3.39507">
        <ele>591.5</ele>
        <time>2020-08-26T11:20:45.000Z</time>
      </trkpt>
      <trkpt lat="44.08266" lon="3.39509">
        <ele>577</ele>
        <time>2020-08-26T11:20:35.000Z</time>
      </trkpt>
      <trkpt lat="44.08252" lon="3.39513">
        <ele>589.6</ele>
        <time>2020-08-26T11:20:45.000Z</time>
      </trkpt>
      <trkpt lat="44.08237" lon="3.39514">
        <ele>576</ele>
        <time>2020-08-26T11:20:35.000Z</time>
      </trkpt>
      <trkpt lat="44.0822" lon="3.3951">
        <ele>587.6</ele>
        <time>2020-08-26T11:20:45.000Z</time>
      </trkpt>
      <trkpt lat="44.08209" lon="3.3951">
        <ele>576</ele>
        <time>2020-08-26T11:20:35.000Z</time>
      </trkpt>
      <trkpt lat="44.08195" lon="3.39512">
        <ele>585.5</ele>
        <time>2020-08-26T11:20:45.000Z</time>
      </trkpt>
      <trkpt lat="44.08181" lon="3.39519">
        <ele>576</ele>
        <time>2020-08-26T11:20:35.000Z</time>
      </trkpt>
      <trkpt lat="44.08167" lon="3.39515">
        <ele>580.2</ele>
        <time>2020-08-26T11:20:45.000Z</time>
      </trkpt>
      <trkpt lat="44.08159" lon="3.39509">
        <ele>577</ele>
        <time>2020-08-26T11:20:35.000Z</time>
      </trkpt>
      <trkpt lat="44.08149" lon="3.39509">
        <ele>578.6</ele>
        <time>2020-08-26T11:20:45.000Z</time>
      </trkpt>
      <trkpt lat="44.08149" lon="3.39523">
        <ele>579</ele>
        <time>2020-08-26T11:20:35.000Z</time>
      </trkpt>
      <trkpt lat="44.08136" lon="3.39526">
        <ele>580.3</ele>
        <time>2020-08-26T11:20:45.000Z</time>
      </trkpt>
      <trkpt lat="44.08124" lon="3.39504">
        <ele>578</ele>
        <time>2020-08-26T11:20:35.000Z</time>
      </trkpt>
      <trkpt lat="44.08105" lon="3.39485">
        <ele>579</ele>
        <time>2020-08-26T11:20:35.000Z</time>
      </trkpt>
      <trkpt lat="44.08093" lon="3.39479">
        <ele>579.1</ele>
        <time>2020-08-26T11:20:45.000Z</time>
      </trkpt>
      <trkpt lat="44.08078" lon="3.39478">
        <ele>580</ele>
        <time>2020-08-26T11:20:35.000Z</time>
      </trkpt>
      <trkpt lat="44.08065" lon="3.39476">
        <ele>584.6</ele>
        <time>2020-08-26T11:20:45.000Z</time>
      </trkpt>
      <trkpt lat="44.08042" lon="3.39443">
        <ele>581</ele>
        <time>2020-08-26T11:20:35.000Z</time>
      </trkpt>
      <trkpt lat="44.08029" lon="3.39427">
        <ele>585.1</ele>
        <time>2020-08-26T11:20:45.000Z</time>
      </trkpt>
      <trkpt lat="44.08023" lon="3.39413">
        <ele>579</ele>
        <time>2020-08-26T11:20:35.000Z</time>
      </trkpt>
      <trkpt lat="44.0801" lon="3.39379">
        <ele>579</ele>
        <time>2020-08-26T11:20:35.000Z</time>
      </trkpt>
      <trkpt lat="44.08002" lon="3.39366">
        <ele>583.3</ele>
        <time>2020-08-26T11:20:45.000Z</time>
      </trkpt>
      <trkpt lat="44.07988" lon="3.39337">
        <ele>579</ele>
        <time>2020-08-26T11:20:35.000Z</time>
      </trkpt>
      <trkpt lat="44.07979" lon="3.3932">
        <ele>584.4</ele>
        <time>2020-08-26T11:20:45.000Z</time>
      </trkpt>
      <trkpt lat="44.07969" lon="3.3931">
        <ele>580</ele>
        <time>2020-08-26T11:20:35.000Z</time>
      </trkpt>
      <trkpt lat="44.07955" lon="3.393">
        <ele>589.2</ele>
        <time>2020-08-26T11:20:45.000Z</time>
      </trkpt>
      <trkpt lat="44.07946" lon="3.39288">
        <ele>581</ele>
        <time>2020-08-26T11:20:35.000Z</time>
      </trkpt>
      <trkpt lat="44.07933" lon="3.39273">
        <ele>592</ele>
        <time>2020-08-26T11:20:45.000Z</time>
      </trkpt>
      <trkpt lat="44.07918" lon="3.39261">
        <ele>582</ele>
        <time>2020-08-26T11:20:35.000Z</time>
      </trkpt>
      <trkpt lat="44.07912" lon="3.39247">
        <ele>592.2</ele>
        <time>2020-08-26T11:20:45.000Z</time>
      </trkpt>
      <trkpt lat="44.07904" lon="3.39232">
        <ele>581</ele>
        <time>2020-08-26T11:20:35.000Z</time>
      </trkpt>
      <trkpt lat="44.0789" lon="3.39219">
        <ele>588.9</ele>
        <time>2020-08-26T11:20:45.000Z</time>
      </trkpt>
      <trkpt lat="44.07874" lon="3.39199">
        <ele>581</ele>
        <time>2020-08-26T11:20:35.000Z</time>
      </trkpt>
      <trkpt lat="44.0785" lon="3.39172">
        <ele>572</ele>
        <time>2020-08-26T11:20:35.000Z</time>
      </trkpt>
      <trkpt lat="44.07842" lon="3.39159">
        <ele>577.3</ele>
        <time>2020-08-26T11:20:45.000Z</time>
      </trkpt>
      <trkpt lat="44.07831" lon="3.3915">
        <ele>561</ele>
        <time>2020-08-26T11:20:35.000Z</time>
      </trkpt>
      <trkpt lat="44.0782" lon="3.39152">
        <ele>576.4</ele>
        <time>2020-08-26T11:20:45.000Z</time>
      </trkpt>
      <trkpt lat="44.07808" lon="3.39157">
        <ele>561</ele>
        <time>2020-08-26T11:20:35.000Z</time>
      </trkpt>
      <trkpt lat="44.07799" lon="3.39147">
        <ele>576.9</ele>
        <time>2020-08-26T11:20:45.000Z</time>
      </trkpt>
      <trkpt lat="44.07793" lon="3.3913">
        <ele>562</ele>
        <time>2020-08-26T11:20:35.000Z</time>
      </trkpt>
      <trkpt lat="44.0777" lon="3.39123">
        <ele>563</ele>
        <time>2020-08-26T11:20:35.000Z</time>
      </trkpt>
      <trkpt lat="44.07754" lon="3.39122">
        <ele>575.1</ele>
        <time>2020-08-26T11:20:45.000Z</time>
      </trkpt>
      <trkpt lat="44.07744" lon="3.39124">
        <ele>563</ele>
        <time>2020-08-26T11:20:35.000Z</time>
      </trkpt>
      <trkpt lat="44.07728" lon="3.39126">
        <ele>581.2</ele>
        <time>2020-08-26T11:20:45.000Z</time>
      </trkpt>
      <trkpt lat="44.07715" lon="3.39112">
        <ele>567</ele>
        <time>2020-08-26T11:20:35.000Z</time>
      </trkpt>
      <trkpt lat="44.07691" lon="3.39074">
        <ele>568</ele>
        <time>2020-08-26T11:20:35.000Z</time>
      </trkpt>
      <trkpt lat="44.07664" lon="3.39057">
        <ele>568</ele>
        <time>2020-08-26T11:20:35.000Z</time>
      </trkpt>
      <trkpt lat="44.07649" lon="3.3905">
        <ele>577.5</ele>
        <time>2020-08-26T11:20:45.000Z</time>
      </trkpt>
      <trkpt lat="44.07602" lon="3.39033">
        <ele>566</ele>
        <time>2020-08-26T11:20:35.000Z</time>
      </trkpt>
      <trkpt lat="44.07589" lon="3.39022">
        <ele>569.1</ele>
        <time>2020-08-26T11:20:45.000Z</time>
      </trkpt>
      <trkpt lat="44.07588" lon="3.39002">
        <ele>565</ele>
        <time>2020-08-26T11:20:35.000Z</time>
      </trkpt>
      <trkpt lat="44.0759" lon="3.38989">
        <ele>565</ele>
        <time>2020-08-26T11:20:45.000Z</time>
      </trkpt>
      <trkpt lat="44.07595" lon="3.3897">
        <ele>565</ele>
        <time>2020-08-26T11:20:35.000Z</time>
      </trkpt>
      <trkpt lat="44.07605" lon="3.38952">
        <ele>564.1</ele>
        <time>2020-08-26T11:20:45.000Z</time>
      </trkpt>
      <trkpt lat="44.07619" lon="3.38942">
        <ele>562</ele>
        <time>2020-08-26T11:20:35.000Z</time>
      </trkpt>
      <trkpt lat="44.07638" lon="3.38935">
        <ele>557</ele>
        <time>2020-08-26T11:20:35.000Z</time>
      </trkpt>
      <trkpt lat="44.07659" lon="3.38926">
        <ele>557</ele>
        <time>2020-08-26T11:20:35.000Z</time>
      </trkpt>
      <trkpt lat="44.07682" lon="3.38914">
        <ele>558</ele>
        <time>2020-08-26T11:20:35.000Z</time>
      </trkpt>
      <trkpt lat="44.07705" lon="3.38906">
        <ele>558</ele>
        <time>2020-08-26T11:20:35.000Z</time>
      </trkpt>
      <trkpt lat="44.0772" lon="3.38904">
        <ele>563</ele>
        <time>2020-08-26T11:20:45.000Z</time>
      </trkpt>
      <trkpt lat="44.07734" lon="3.389">
        <ele>558</ele>
        <time>2020-08-26T11:20:35.000Z</time>
      </trkpt>
      <trkpt lat="44.07766" lon="3.38884">
        <ele>557</ele>
        <time>2020-08-26T11:20:35.000Z</time>
      </trkpt>
      <trkpt lat="44.07778" lon="3.38881">
        <ele>565</ele>
        <time>2020-08-26T11:20:45.000Z</time>
      </trkpt>
      <trkpt lat="44.0779" lon="3.3888">
        <ele>557</ele>
        <time>2020-08-26T11:20:35.000Z</time>
      </trkpt>
      <trkpt lat="44.07819" lon="3.38874">
        <ele>558</ele>
        <time>2020-08-26T11:20:35.000Z</time>
      </trkpt>
      <trkpt lat="44.07829" lon="3.38873">
        <ele>567.6</ele>
        <time>2020-08-26T11:20:45.000Z</time>
      </trkpt>
      <trkpt lat="44.07837" lon="3.38881">
        <ele>561</ele>
        <time>2020-08-26T11:20:35.000Z</time>
      </trkpt>
      <trkpt lat="44.07849" lon="3.38895">
        <ele>569.5</ele>
        <time>2020-08-26T11:20:45.000Z</time>
      </trkpt>
      <trkpt lat="44.07852" lon="3.3892">
        <ele>563</ele>
        <time>2020-08-26T11:20:35.000Z</time>
      </trkpt>
      <trkpt lat="44.07861" lon="3.38904">
        <ele>571</ele>
        <time>2020-08-26T11:20:45.000Z</time>
      </trkpt>
      <trkpt lat="44.07854" lon="3.38894">
        <ele>562</ele>
        <time>2020-08-26T11:20:35.000Z</time>
      </trkpt>
      <trkpt lat="44.07847" lon="3.38886">
        <ele>569.6</ele>
        <time>2020-08-26T11:20:45.000Z</time>
      </trkpt>
      <trkpt lat="44.07832" lon="3.38875">
        <ele>561</ele>
        <time>2020-08-26T11:20:35.000Z</time>
      </trkpt>
      <trkpt lat="44.07813" lon="3.38868">
        <ele>558</ele>
        <time>2020-08-26T11:20:35.000Z</time>
      </trkpt>
      <trkpt lat="44.07799" lon="3.38864">
        <ele>565.7</ele>
        <time>2020-08-26T11:20:45.000Z</time>
      </trkpt>
      <trkpt lat="44.07788" lon="3.38864">
        <ele>558</ele>
        <time>2020-08-26T11:20:35.000Z</time>
      </trkpt>
      <trkpt lat="44.07773" lon="3.38858">
        <ele>564.7</ele>
        <time>2020-08-26T11:20:45.000Z</time>
      </trkpt>
      <trkpt lat="44.07741" lon="3.38853">
        <ele>557</ele>
        <time>2020-08-26T11:20:35.000Z</time>
      </trkpt>
      <trkpt lat="44.07723" lon="3.38839">
        <ele>557</ele>
        <time>2020-08-26T11:20:35.000Z</time>
      </trkpt>
      <trkpt lat="44.07724" lon="3.38825">
        <ele>562.7</ele>
        <time>2020-08-26T11:20:45.000Z</time>
      </trkpt>
      <trkpt lat="44.0773" lon="3.38797">
        <ele>553</ele>
        <time>2020-08-26T11:20:35.000Z</time>
      </trkpt>
      <trkpt lat="44.07736" lon="3.38765">
        <ele>553</ele>
        <time>2020-08-26T11:20:35.000Z</time>
      </trkpt>
      <trkpt lat="44.0774" lon="3.3873">
        <ele>551</ele>
        <time>2020-08-26T11:20:35.000Z</time>
      </trkpt>
      <trkpt lat="44.07745" lon="3.38713">
        <ele>559.5</ele>
        <time>2020-08-26T11:20:45.000Z</time>
      </trkpt>
      <trkpt lat="44.07751" lon="3.38687">
        <ele>550</ele>
        <time>2020-08-26T11:20:35.000Z</time>
      </trkpt>
      <trkpt lat="44.07757" lon="3.38666">
        <ele>559.3</ele>
        <time>2020-08-26T11:20:45.000Z</time>
      </trkpt>
      <trkpt lat="44.07763" lon="3.38648">
        <ele>550</ele>
        <time>2020-08-26T11:20:35.000Z</time>
      </trkpt>
      <trkpt lat="44.07766" lon="3.38633">
        <ele>559.8</ele>
        <time>2020-08-26T11:20:45.000Z</time>
      </trkpt>
      <trkpt lat="44.07773" lon="3.38612">
        <ele>550</ele>
        <time>2020-08-26T11:20:35.000Z</time>
      </trkpt>
      <trkpt lat="44.07785" lon="3.38583">
        <ele>550</ele>
        <time>2020-08-26T11:20:35.000Z</time>
      </trkpt>
      <trkpt lat="44.078" lon="3.38535">
        <ele>550</ele>
        <time>2020-08-26T11:20:35.000Z</time>
      </trkpt>
      <trkpt lat="44.07805" lon="3.38516">
        <ele>555</ele>
        <time>2020-08-26T11:20:45.000Z</time>
      </trkpt>
      <trkpt lat="44.07807" lon="3.3848">
        <ele>550</ele>
        <time>2020-08-26T11:20:35.000Z</time>
      </trkpt>
      <trkpt lat="44.07807" lon="3.38463">
        <ele>555.2</ele>
        <time>2020-08-26T11:20:45.000Z</time>
      </trkpt>
      <trkpt lat="44.07804" lon="3.38442">
        <ele>552</ele>
        <time>2020-08-26T11:20:35.000Z</time>
      </trkpt>
      <trkpt lat="44.07804" lon="3.38405">
        <ele>552</ele>
        <time>2020-08-26T11:20:35.000Z</time>
      </trkpt>
      <trkpt lat="44.07806" lon="3.38373">
        <ele>553</ele>
        <time>2020-08-26T11:20:35.000Z</time>
      </trkpt>
      <trkpt lat="44.07817" lon="3.38361">
        <ele>554</ele>
        <time>2020-08-26T11:20:45.000Z</time>
      </trkpt>
      <trkpt lat="44.07825" lon="3.38348">
        <ele>552</ele>
        <time>2020-08-26T11:20:35.000Z</time>
      </trkpt>
      <trkpt lat="44.07835" lon="3.38337">
        <ele>555.1</ele>
        <time>2020-08-26T11:20:45.000Z</time>
      </trkpt>
      <trkpt lat="44.07857" lon="3.3829">
        <ele>552</ele>
        <time>2020-08-26T11:20:35.000Z</time>
      </trkpt>
      <trkpt lat="44.07865" lon="3.38272">
        <ele>562.5</ele>
        <time>2020-08-26T11:20:45.000Z</time>
      </trkpt>
      <trkpt lat="44.07873" lon="3.38242">
        <ele>553</ele>
        <time>2020-08-26T11:20:35.000Z</time>
      </trkpt>
      <trkpt lat="44.07879" lon="3.38211">
        <ele>558</ele>
        <time>2020-08-26T11:20:35.000Z</time>
      </trkpt>
      <trkpt lat="44.07881" lon="3.38192">
        <ele>564.5</ele>
        <time>2020-08-26T11:20:45.000Z</time>
      </trkpt>
      <trkpt lat="44.07877" lon="3.38158">
        <ele>560</ele>
        <time>2020-08-26T11:20:35.000Z</time>
      </trkpt>
      <trkpt lat="44.07878" lon="3.38136">
        <ele>565.3</ele>
        <time>2020-08-26T11:20:45.000Z</time>
      </trkpt>
      <trkpt lat="44.07875" lon="3.38121">
        <ele>560</ele>
        <time>2020-08-26T11:20:35.000Z</time>
      </trkpt>
      <trkpt lat="44.07873" lon="3.38106">
        <ele>565.3</ele>
        <time>2020-08-26T11:20:45.000Z</time>
      </trkpt>
      <trkpt lat="44.0787" lon="3.38091">
        <ele>558</ele>
        <time>2020-08-26T11:20:35.000Z</time>
      </trkpt>
      <trkpt lat="44.07867" lon="3.38069">
        <ele>564.1</ele>
        <time>2020-08-26T11:20:45.000Z</time>
      </trkpt>
      <trkpt lat="44.07864" lon="3.38034">
        <ele>556</ele>
        <time>2020-08-26T11:20:35.000Z</time>
      </trkpt>
      <trkpt lat="44.07871" lon="3.38008">
        <ele>554</ele>
        <time>2020-08-26T11:20:35.000Z</time>
      </trkpt>
      <trkpt lat="44.07882" lon="3.37988">
        <ele>560.9</ele>
        <time>2020-08-26T11:20:45.000Z</time>
      </trkpt>
      <trkpt lat="44.0789" lon="3.37967">
        <ele>551</ele>
        <time>2020-08-26T11:20:35.000Z</time>
      </trkpt>
      <trkpt lat="44.079" lon="3.37945">
        <ele>558.5</ele>
        <time>2020-08-26T11:20:45.000Z</time>
      </trkpt>
      <trkpt lat="44.07929" lon="3.37935">
        <ele>553</ele>
        <time>2020-08-26T11:20:35.000Z</time>
      </trkpt>
      <trkpt lat="44.07947" lon="3.3793">
        <ele>564.9</ele>
        <time>2020-08-26T11:20:45.000Z</time>
      </trkpt>
      <trkpt lat="44.07958" lon="3.37912">
        <ele>555</ele>
        <time>2020-08-26T11:20:35.000Z</time>
      </trkpt>
      <trkpt lat="44.07963" lon="3.37901">
        <ele>567.8</ele>
        <time>2020-08-26T11:20:45.000Z</time>
      </trkpt>
      <trkpt lat="44.07969" lon="3.37879">
        <ele>559</ele>
        <time>2020-08-26T11:20:35.000Z</time>
      </trkpt>
      <trkpt lat="44.07975" lon="3.37889">
        <ele>572.5</ele>
        <time>2020-08-26T11:20:45.000Z</time>
      </trkpt>
      <trkpt lat="44.07978" lon="3.37907">
        <ele>564</ele>
        <time>2020-08-26T11:20:35.000Z</time>
      </trkpt>
      <trkpt lat="44.07973" lon="3.37923">
        <ele>573.7</ele>
        <time>2020-08-26T11:20:45.000Z</time>
      </trkpt>
      <trkpt lat="44.0797" lon="3.3794">
        <ele>568</ele>
        <time>2020-08-26T11:20:35.000Z</time>
      </trkpt>
      <trkpt lat="44.07959" lon="3.37953">
        <ele>575.7</ele>
        <time>2020-08-26T11:20:45.000Z</time>
      </trkpt>
      <trkpt lat="44.07952" lon="3.37964">
        <ele>570</ele>
        <time>2020-08-26T11:20:35.000Z</time>
      </trkpt>
      <trkpt lat="44.07941" lon="3.37984">
        <ele>578.6</ele>
        <time>2020-08-26T11:20:45.000Z</time>
      </trkpt>
      <trkpt lat="44.07951" lon="3.37985">
        <ele>570</ele>
        <time>2020-08-26T11:20:35.000Z</time>
      </trkpt>
      <trkpt lat="44.07965" lon="3.37978">
        <ele>587.3</ele>
        <time>2020-08-26T11:20:45.000Z</time>
      </trkpt>
      <trkpt lat="44.07971" lon="3.37965">
        <ele>581</ele>
        <time>2020-08-26T11:20:35.000Z</time>
      </trkpt>
      <trkpt lat="44.07979" lon="3.37958">
        <ele>585.6</ele>
        <time>2020-08-26T11:20:45.000Z</time>
      </trkpt>
      <trkpt lat="44.07999" lon="3.37952">
        <ele>582</ele>
        <time>2020-08-26T11:20:35.000Z</time>
      </trkpt>
      <trkpt lat="44.07994" lon="3.37926">
        <ele>583.7</ele>
        <time>2020-08-26T11:20:45.000Z</time>
      </trkpt>
      <trkpt lat="44.07995" lon="3.37911">
        <ele>581</ele>
        <time>2020-08-26T11:20:35.000Z</time>
      </trkpt>
      <trkpt lat="44.07995" lon="3.37898">
        <ele>583.1</ele>
        <time>2020-08-26T11:20:45.000Z</time>
      </trkpt>
      <trkpt lat="44.07992" lon="3.37883">
        <ele>581</ele>
        <time>2020-08-26T11:20:35.000Z</time>
      </trkpt>
      <trkpt lat="44.07991" lon="3.37868">
        <ele>582.4</ele>
        <time>2020-08-26T11:20:45.000Z</time>
      </trkpt>
      <trkpt lat="44.07989" lon="3.37853">
        <ele>573</ele>
        <time>2020-08-26T11:20:35.000Z</time>
      </trkpt>
      <trkpt lat="44.07981" lon="3.37826">
        <ele>573</ele>
        <time>2020-08-26T11:20:35.000Z</time>
      </trkpt>
      <trkpt lat="44.07973" lon="3.37804">
        <ele>576</ele>
        <time>2020-08-26T11:20:45.000Z</time>
      </trkpt>
      <trkpt lat="44.0797" lon="3.3778">
        <ele>573</ele>
        <time>2020-08-26T11:20:35.000Z</time>
      </trkpt>
      <trkpt lat="44.07973" lon="3.37765">
        <ele>583.4</ele>
        <time>2020-08-26T11:20:45.000Z</time>
      </trkpt>
      <trkpt lat="44.07967" lon="3.37745">
        <ele>583</ele>
        <time>2020-08-26T11:20:35.000Z</time>
      </trkpt>
      <trkpt lat="44.07965" lon="3.37723">
        <ele>589.3</ele>
        <time>2020-08-26T11:20:45.000Z</time>
      </trkpt>
      <trkpt lat="44.07961" lon="3.37708">
        <ele>583</ele>
        <time>2020-08-26T11:20:35.000Z</time>
      </trkpt>
      <trkpt lat="44.07954" lon="3.37697">
        <ele>588.8</ele>
        <time>2020-08-26T11:20:45.000Z</time>
      </trkpt>
      <trkpt lat="44.07943" lon="3.37693">
        <ele>583</ele>
        <time>2020-08-26T11:20:35.000Z</time>
      </trkpt>
      <trkpt lat="44.07933" lon="3.37683">
        <ele>578.2</ele>
        <time>2020-08-26T11:20:45.000Z</time>
      </trkpt>
      <trkpt lat="44.07925" lon="3.37672">
        <ele>572</ele>
        <time>2020-08-26T11:20:35.000Z</time>
      </trkpt>
      <trkpt lat="44.07907" lon="3.37641">
        <ele>580</ele>
        <time>2020-08-26T11:20:35.000Z</time>
      </trkpt>
      <trkpt lat="44.07887" lon="3.37627">
        <ele>582</ele>
        <time>2020-08-26T11:20:35.000Z</time>
      </trkpt>
      <trkpt lat="44.07872" lon="3.3762">
        <ele>585.4</ele>
        <time>2020-08-26T11:20:45.000Z</time>
      </trkpt>
      <trkpt lat="44.07861" lon="3.37611">
        <ele>585</ele>
        <time>2020-08-26T11:20:35.000Z</time>
      </trkpt>
      <trkpt lat="44.07848" lon="3.37602">
        <ele>588</ele>
        <time>2020-08-26T11:20:45.000Z</time>
      </trkpt>
      <trkpt lat="44.07834" lon="3.37596">
        <ele>582</ele>
        <time>2020-08-26T11:20:35.000Z</time>
      </trkpt>
      <trkpt lat="44.0782" lon="3.37586">
        <ele>586.8</ele>
        <time>2020-08-26T11:20:45.000Z</time>
      </trkpt>
      <trkpt lat="44.07811" lon="3.37578">
        <ele>580</ele>
        <time>2020-08-26T11:20:35.000Z</time>
      </trkpt>
      <trkpt lat="44.07795" lon="3.37568">
        <ele>583.2</ele>
        <time>2020-08-26T11:20:45.000Z</time>
      </trkpt>
      <trkpt lat="44.07791" lon="3.37551">
        <ele>580</ele>
        <time>2020-08-26T11:20:35.000Z</time>
      </trkpt>
      <trkpt lat="44.07784" lon="3.37539">
        <ele>583.5</ele>
        <time>2020-08-26T11:20:45.000Z</time>
      </trkpt>
      <trkpt lat="44.07789" lon="3.3751">
        <ele>580</ele>
        <time>2020-08-26T11:20:35.000Z</time>
      </trkpt>
      <trkpt lat="44.07791" lon="3.37491">
        <ele>592.6</ele>
        <time>2020-08-26T11:20:45.000Z</time>
      </trkpt>
      <trkpt lat="44.07791" lon="3.37437">
        <ele>580</ele>
        <time>2020-08-26T11:20:35.000Z</time>
      </trkpt>
      <trkpt lat="44.07787" lon="3.37411">
        <ele>594.8</ele>
        <time>2020-08-26T11:20:45.000Z</time>
      </trkpt>
      <trkpt lat="44.07783" lon="3.37391">
        <ele>581</ele>
        <time>2020-08-26T11:20:35.000Z</time>
      </trkpt>
      <trkpt lat="44.07778" lon="3.37371">
        <ele>592.1</ele>
        <time>2020-08-26T11:20:45.000Z</time>
      </trkpt>
      <trkpt lat="44.07777" lon="3.37357">
        <ele>578</ele>
        <time>2020-08-26T11:20:35.000Z</time>
      </trkpt>
      <trkpt lat="44.07773" lon="3.37334">
        <ele>594.3</ele>
        <time>2020-08-26T11:20:45.000Z</time>
      </trkpt>
      <trkpt lat="44.07766" lon="3.37316">
        <ele>580</ele>
        <time>2020-08-26T11:20:35.000Z</time>
      </trkpt>
      <trkpt lat="44.07757" lon="3.37282">
        <ele>583</ele>
        <time>2020-08-26T11:20:45.000Z</time>
      </trkpt>
      <trkpt lat="44.07747" lon="3.37243">
        <ele>582</ele>
        <time>2020-08-26T11:20:35.000Z</time>
      </trkpt>
      <trkpt lat="44.07745" lon="3.37227">
        <ele>595.9</ele>
        <time>2020-08-26T11:20:45.000Z</time>
      </trkpt>
      <trkpt lat="44.07739" lon="3.37201">
        <ele>582</ele>
        <time>2020-08-26T11:20:35.000Z</time>
      </trkpt>
      <trkpt lat="44.07736" lon="3.3718">
        <ele>596.7</ele>
        <time>2020-08-26T11:20:45.000Z</time>
      </trkpt>
      <trkpt lat="44.07737" lon="3.37165">
        <ele>582</ele>
        <time>2020-08-26T11:20:35.000Z</time>
      </trkpt>
      <trkpt lat="44.07747" lon="3.37143">
        <ele>601.6</ele>
        <time>2020-08-26T11:20:45.000Z</time>
      </trkpt>
      <trkpt lat="44.07756" lon="3.37118">
        <ele>598</ele>
        <time>2020-08-26T11:20:35.000Z</time>
      </trkpt>
      <trkpt lat="44.07752" lon="3.37092">
        <ele>600.9</ele>
        <time>2020-08-26T11:20:45.000Z</time>
      </trkpt>
      <trkpt lat="44.0774" lon="3.37077">
        <ele>592</ele>
        <time>2020-08-26T11:20:35.000Z</time>
      </trkpt>
      <trkpt lat="44.07722" lon="3.37061">
        <ele>586</ele>
        <time>2020-08-26T11:20:35.000Z</time>
      </trkpt>
      <trkpt lat="44.07714" lon="3.37053">
        <ele>592</ele>
        <time>2020-08-26T11:20:45.000Z</time>
      </trkpt>
      <trkpt lat="44.07703" lon="3.37025">
        <ele>587</ele>
        <time>2020-08-26T11:20:35.000Z</time>
      </trkpt>
      <trkpt lat="44.07698" lon="3.3701">
        <ele>596.5</ele>
        <time>2020-08-26T11:20:45.000Z</time>
      </trkpt>
      <trkpt lat="44.07695" lon="3.36997">
        <ele>586</ele>
        <time>2020-08-26T11:20:35.000Z</time>
      </trkpt>
      <trkpt lat="44.0769" lon="3.3698">
        <ele>600.6</ele>
        <time>2020-08-26T11:20:45.000Z</time>
      </trkpt>
      <trkpt lat="44.0768" lon="3.36956">
        <ele>591</ele>
        <time>2020-08-26T11:20:35.000Z</time>
      </trkpt>
      <trkpt lat="44.07668" lon="3.36934">
        <ele>588</ele>
        <time>2020-08-26T11:20:35.000Z</time>
      </trkpt>
      <trkpt lat="44.07657" lon="3.36916">
        <ele>598.6</ele>
        <time>2020-08-26T11:20:45.000Z</time>
      </trkpt>
      <trkpt lat="44.07648" lon="3.36907">
        <ele>589</ele>
        <time>2020-08-26T11:20:35.000Z</time>
      </trkpt>
      <trkpt lat="44.07641" lon="3.36891">
        <ele>594.8</ele>
        <time>2020-08-26T11:20:45.000Z</time>
      </trkpt>
      <trkpt lat="44.07637" lon="3.36868">
        <ele>591</ele>
        <time>2020-08-26T11:20:35.000Z</time>
      </trkpt>
      <trkpt lat="44.07645" lon="3.36849">
        <ele>605.8</ele>
        <time>2020-08-26T11:20:45.000Z</time>
      </trkpt>
      <trkpt lat="44.07645" lon="3.36831">
        <ele>594</ele>
        <time>2020-08-26T11:20:35.000Z</time>
      </trkpt>
      <trkpt lat="44.07646" lon="3.36817">
        <ele>610.4</ele>
        <time>2020-08-26T11:20:45.000Z</time>
      </trkpt>
      <trkpt lat="44.0764" lon="3.36782">
        <ele>599</ele>
        <time>2020-08-26T11:20:35.000Z</time>
      </trkpt>
      <trkpt lat="44.07656" lon="3.3677">
        <ele>621</ele>
        <time>2020-08-26T11:20:45.000Z</time>
      </trkpt>
      <trkpt lat="44.07658" lon="3.36757">
        <ele>602</ele>
        <time>2020-08-26T11:20:35.000Z</time>
      </trkpt>
      <trkpt lat="44.0765" lon="3.36733">
        <ele>620</ele>
        <time>2020-08-26T11:20:45.000Z</time>
      </trkpt>
      <trkpt lat="44.07646" lon="3.3671">
        <ele>604</ele>
        <time>2020-08-26T11:20:35.000Z</time>
      </trkpt>
      <trkpt lat="44.07643" lon="3.36698">
        <ele>617.4</ele>
        <time>2020-08-26T11:20:45.000Z</time>
      </trkpt>
      <trkpt lat="44.07643" lon="3.36674">
        <ele>604</ele>
        <time>2020-08-26T11:20:35.000Z</time>
      </trkpt>
      <trkpt lat="44.07648" lon="3.36653">
        <ele>619.9</ele>
        <time>2020-08-26T11:20:45.000Z</time>
      </trkpt>
      <trkpt lat="44.07655" lon="3.36635">
        <ele>605</ele>
        <time>2020-08-26T11:20:35.000Z</time>
      </trkpt>
      <trkpt lat="44.07679" lon="3.36602">
        <ele>619</ele>
        <time>2020-08-26T11:20:35.000Z</time>
      </trkpt>
      <trkpt lat="44.07689" lon="3.36581">
        <ele>635.5</ele>
        <time>2020-08-26T11:20:45.000Z</time>
      </trkpt>
      <trkpt lat="44.07693" lon="3.36564">
        <ele>615</ele>
        <time>2020-08-26T11:20:35.000Z</time>
      </trkpt>
      <trkpt lat="44.07685" lon="3.36547">
        <ele>629.9</ele>
        <time>2020-08-26T11:20:45.000Z</time>
      </trkpt>
      <trkpt lat="44.07675" lon="3.36533">
        <ele>614</ele>
        <time>2020-08-26T11:20:35.000Z</time>
      </trkpt>
      <trkpt lat="44.07668" lon="3.36517">
        <ele>623.8</ele>
        <time>2020-08-26T11:20:45.000Z</time>
      </trkpt>
      <trkpt lat="44.07665" lon="3.36483">
        <ele>614</ele>
        <time>2020-08-26T11:20:35.000Z</time>
      </trkpt>
      <trkpt lat="44.07667" lon="3.36464">
        <ele>627.7</ele>
        <time>2020-08-26T11:20:45.000Z</time>
      </trkpt>
      <trkpt lat="44.07674" lon="3.36454">
        <ele>609</ele>
        <time>2020-08-26T11:20:35.000Z</time>
      </trkpt>
      <trkpt lat="44.07684" lon="3.36444">
        <ele>639</ele>
        <time>2020-08-26T11:20:45.000Z</time>
      </trkpt>
      <trkpt lat="44.07686" lon="3.3643">
        <ele>613</ele>
        <time>2020-08-26T11:20:35.000Z</time>
      </trkpt>
      <trkpt lat="44.0769" lon="3.36409">
        <ele>634.1</ele>
        <time>2020-08-26T11:20:45.000Z</time>
      </trkpt>
      <trkpt lat="44.07695" lon="3.36376">
        <ele>613</ele>
        <time>2020-08-26T11:20:35.000Z</time>
      </trkpt>
      <trkpt lat="44.07701" lon="3.36351">
        <ele>629.3</ele>
        <time>2020-08-26T11:20:45.000Z</time>
      </trkpt>
      <trkpt lat="44.07698" lon="3.36334">
        <ele>613</ele>
        <time>2020-08-26T11:20:35.000Z</time>
      </trkpt>
      <trkpt lat="44.07706" lon="3.36314">
        <ele>624.4</ele>
        <time>2020-08-26T11:20:45.000Z</time>
      </trkpt>
      <trkpt lat="44.0771" lon="3.363">
        <ele>615</ele>
        <time>2020-08-26T11:20:35.000Z</time>
      </trkpt>
      <trkpt lat="44.07715" lon="3.36289">
        <ele>623.9</ele>
        <time>2020-08-26T11:20:45.000Z</time>
      </trkpt>
      <trkpt lat="44.07726" lon="3.36279">
        <ele>617</ele>
        <time>2020-08-26T11:20:35.000Z</time>
      </trkpt>
      <trkpt lat="44.07735" lon="3.36268">
        <ele>630.6</ele>
        <time>2020-08-26T11:20:45.000Z</time>
      </trkpt>
      <trkpt lat="44.07745" lon="3.36262">
        <ele>620</ele>
        <time>2020-08-26T11:20:35.000Z</time>
      </trkpt>
      <trkpt lat="44.07747" lon="3.36245">
        <ele>630.5</ele>
        <time>2020-08-26T11:20:45.000Z</time>
      </trkpt>
      <trkpt lat="44.07754" lon="3.36232">
        <ele>624</ele>
        <time>2020-08-26T11:20:35.000Z</time>
      </trkpt>
      <trkpt lat="44.0775" lon="3.3622">
        <ele>624.7</ele>
        <time>2020-08-26T11:20:45.000Z</time>
      </trkpt>
      <trkpt lat="44.0775" lon="3.36206">
        <ele>624</ele>
        <time>2020-08-26T11:20:35.000Z</time>
      </trkpt>
      <trkpt lat="44.07744" lon="3.36189">
        <ele>617.3</ele>
        <time>2020-08-26T11:20:45.000Z</time>
      </trkpt>
      <trkpt lat="44.07736" lon="3.36179">
        <ele>618</ele>
        <time>2020-08-26T11:20:35.000Z</time>
      </trkpt>
      <trkpt lat="44.07722" lon="3.36164">
        <ele>602.9</ele>
        <time>2020-08-26T11:20:45.000Z</time>
      </trkpt>
      <trkpt lat="44.07716" lon="3.36152">
        <ele>616</ele>
        <time>2020-08-26T11:20:35.000Z</time>
      </trkpt>
      <trkpt lat="44.07711" lon="3.36138">
        <ele>596</ele>
        <time>2020-08-26T11:20:45.000Z</time>
      </trkpt>
      <trkpt lat="44.07714" lon="3.36113">
        <ele>616</ele>
        <time>2020-08-26T11:20:35.000Z</time>
      </trkpt>
      <trkpt lat="44.07715" lon="3.36089">
        <ele>601.9</ele>
        <time>2020-08-26T11:20:45.000Z</time>
      </trkpt>
      <trkpt lat="44.07718" lon="3.36063">
        <ele>616</ele>
        <time>2020-08-26T11:20:35.000Z</time>
      </trkpt>
      <trkpt lat="44.07716" lon="3.36044">
        <ele>604.7</ele>
        <time>2020-08-26T11:20:45.000Z</time>
      </trkpt>
      <trkpt lat="44.07713" lon="3.36024">
        <ele>613</ele>
        <time>2020-08-26T11:20:35.000Z</time>
      </trkpt>
      <trkpt lat="44.07714" lon="3.36002">
        <ele>604.2</ele>
        <time>2020-08-26T11:20:45.000Z</time>
      </trkpt>
      <trkpt lat="44.07721" lon="3.35982">
        <ele>607</ele>
        <time>2020-08-26T11:20:35.000Z</time>
      </trkpt>
      <trkpt lat="44.07728" lon="3.35949">
        <ele>615</ele>
        <time>2020-08-26T11:20:35.000Z</time>
      </trkpt>
      <trkpt lat="44.07741" lon="3.35922">
        <ele>617</ele>
        <time>2020-08-26T11:20:35.000Z</time>
      </trkpt>
      <trkpt lat="44.07746" lon="3.35907">
        <ele>621.8</ele>
        <time>2020-08-26T11:20:45.000Z</time>
      </trkpt>
      <trkpt lat="44.07746" lon="3.3589">
        <ele>616</ele>
        <time>2020-08-26T11:20:35.000Z</time>
      </trkpt>
      <trkpt lat="44.0775" lon="3.35873">
        <ele>619.7</ele>
        <time>2020-08-26T11:20:45.000Z</time>
      </trkpt>
      <trkpt lat="44.07748" lon="3.3585">
        <ele>615</ele>
        <time>2020-08-26T11:20:35.000Z</time>
      </trkpt>
      <trkpt lat="44.07741" lon="3.35819">
        <ele>609</ele>
        <time>2020-08-26T11:20:35.000Z</time>
      </trkpt>
      <trkpt lat="44.07734" lon="3.35797">
        <ele>597.8</ele>
        <time>2020-08-26T11:20:45.000Z</time>
      </trkpt>
      <trkpt lat="44.07739" lon="3.35761">
        <ele>572</ele>
        <time>2020-08-26T11:20:35.000Z</time>
      </trkpt>
      <trkpt lat="44.07737" lon="3.35742">
        <ele>587.5</ele>
        <time>2020-08-26T11:20:45.000Z</time>
      </trkpt>
      <trkpt lat="44.07734" lon="3.35725">
        <ele>569</ele>
        <time>2020-08-26T11:20:35.000Z</time>
      </trkpt>
      <trkpt lat="44.07741" lon="3.35702">
        <ele>578.7</ele>
        <time>2020-08-26T11:20:45.000Z</time>
      </trkpt>
      <trkpt lat="44.07748" lon="3.35683">
        <ele>567</ele>
        <time>2020-08-26T11:20:35.000Z</time>
      </trkpt>
      <trkpt lat="44.07748" lon="3.35668">
        <ele>570.7</ele>
        <time>2020-08-26T11:20:45.000Z</time>
      </trkpt>
      <trkpt lat="44.07746" lon="3.35648">
        <ele>556</ele>
        <time>2020-08-26T11:20:35.000Z</time>
      </trkpt>
      <trkpt lat="44.07739" lon="3.35632">
        <ele>557.3</ele>
        <time>2020-08-26T11:20:45.000Z</time>
      </trkpt>
      <trkpt lat="44.07743" lon="3.35616">
        <ele>545</ele>
        <time>2020-08-26T11:20:35.000Z</time>
      </trkpt>
      <trkpt lat="44.07734" lon="3.35605">
        <ele>550.3</ele>
        <time>2020-08-26T11:20:45.000Z</time>
      </trkpt>
      <trkpt lat="44.07738" lon="3.35588">
        <ele>538</ele>
        <time>2020-08-26T11:20:35.000Z</time>
      </trkpt>
      <trkpt lat="44.07752" lon="3.35585">
        <ele>548.6</ele>
        <time>2020-08-26T11:20:45.000Z</time>
      </trkpt>
      <trkpt lat="44.0777" lon="3.35592">
        <ele>532</ele>
        <time>2020-08-26T11:20:35.000Z</time>
      </trkpt>
      <trkpt lat="44.07775" lon="3.35572">
        <ele>547.7</ele>
        <time>2020-08-26T11:20:45.000Z</time>
      </trkpt>
      <trkpt lat="44.07773" lon="3.35552">
        <ele>529</ele>
        <time>2020-08-26T11:20:35.000Z</time>
      </trkpt>
      <trkpt lat="44.07775" lon="3.35539">
        <ele>541.6</ele>
        <time>2020-08-26T11:20:45.000Z</time>
      </trkpt>
      <trkpt lat="44.0778" lon="3.35524">
        <ele>524</ele>
        <time>2020-08-26T11:20:35.000Z</time>
      </trkpt>
      <trkpt lat="44.07788" lon="3.35508">
        <ele>540.2</ele>
        <time>2020-08-26T11:20:45.000Z</time>
      </trkpt>
      <trkpt lat="44.07804" lon="3.35484">
        <ele>523</ele>
        <time>2020-08-26T11:20:35.000Z</time>
      </trkpt>
      <trkpt lat="44.07811" lon="3.35464">
        <ele>544.4</ele>
        <time>2020-08-26T11:20:45.000Z</time>
      </trkpt>
      <trkpt lat="44.07814" lon="3.35445">
        <ele>530</ele>
        <time>2020-08-26T11:20:35.000Z</time>
      </trkpt>
      <trkpt lat="44.07821" lon="3.35428">
        <ele>545.8</ele>
        <time>2020-08-26T11:20:45.000Z</time>
      </trkpt>
      <trkpt lat="44.07831" lon="3.35392">
        <ele>532</ele>
        <time>2020-08-26T11:20:35.000Z</time>
      </trkpt>
      <trkpt lat="44.07834" lon="3.35365">
        <ele>534</ele>
        <time>2020-08-26T11:20:35.000Z</time>
      </trkpt>
      <trkpt lat="44.07839" lon="3.35342">
        <ele>546.9</ele>
        <time>2020-08-26T11:20:45.000Z</time>
      </trkpt>
      <trkpt lat="44.07835" lon="3.35315">
        <ele>539</ele>
        <time>2020-08-26T11:20:35.000Z</time>
      </trkpt>
      <trkpt lat="44.07836" lon="3.35297">
        <ele>547.9</ele>
        <time>2020-08-26T11:20:45.000Z</time>
      </trkpt>
      <trkpt lat="44.07832" lon="3.35255">
        <ele>541</ele>
        <time>2020-08-26T11:20:35.000Z</time>
      </trkpt>
      <trkpt lat="44.07825" lon="3.35233">
        <ele>554.5</ele>
        <time>2020-08-26T11:20:45.000Z</time>
      </trkpt>
      <trkpt lat="44.07818" lon="3.35221">
        <ele>540</ele>
        <time>2020-08-26T11:20:35.000Z</time>
      </trkpt>
      <trkpt lat="44.07811" lon="3.35203">
        <ele>553.3</ele>
        <time>2020-08-26T11:20:45.000Z</time>
      </trkpt>
      <trkpt lat="44.07796" lon="3.35175">
        <ele>540</ele>
        <time>2020-08-26T11:20:35.000Z</time>
      </trkpt>
      <trkpt lat="44.07791" lon="3.35164">
        <ele>551.3</ele>
        <time>2020-08-26T11:20:45.000Z</time>
      </trkpt>
      <trkpt lat="44.07783" lon="3.35151">
        <ele>539</ele>
        <time>2020-08-26T11:20:35.000Z</time>
      </trkpt>
      <trkpt lat="44.07773" lon="3.35133">
        <ele>549.2</ele>
        <time>2020-08-26T11:20:45.000Z</time>
      </trkpt>
      <trkpt lat="44.07766" lon="3.35117">
        <ele>539</ele>
        <time>2020-08-26T11:20:35.000Z</time>
      </trkpt>
      <trkpt lat="44.07755" lon="3.35087">
        <ele>548</ele>
        <time>2020-08-26T11:20:35.000Z</time>
      </trkpt>
      <trkpt lat="44.0775" lon="3.35072">
        <ele>552.9</ele>
        <time>2020-08-26T11:20:45.000Z</time>
      </trkpt>
      <trkpt lat="44.07747" lon="3.3506">
        <ele>549</ele>
        <time>2020-08-26T11:20:35.000Z</time>
      </trkpt>
      <trkpt lat="44.07737" lon="3.3504">
        <ele>553.9</ele>
        <time>2020-08-26T11:20:45.000Z</time>
      </trkpt>
      <trkpt lat="44.07723" lon="3.35025">
        <ele>547</ele>
        <time>2020-08-26T11:20:35.000Z</time>
      </trkpt>
      <trkpt lat="44.07703" lon="3.34999">
        <ele>545</ele>
        <time>2020-08-26T11:20:35.000Z</time>
      </trkpt>
      <trkpt lat="44.07696" lon="3.34986">
        <ele>546.4</ele>
        <time>2020-08-26T11:20:45.000Z</time>
      </trkpt>
      <trkpt lat="44.07689" lon="3.34969">
        <ele>542</ele>
        <time>2020-08-26T11:20:35.000Z</time>
      </trkpt>
      <trkpt lat="44.07676" lon="3.34911">
        <ele>544</ele>
        <time>2020-08-26T11:20:35.000Z</time>
      </trkpt>
      <trkpt lat="44.07671" lon="3.34893">
        <ele>551.7</ele>
        <time>2020-08-26T11:20:45.000Z</time>
      </trkpt>
      <trkpt lat="44.07668" lon="3.34859">
        <ele>544</ele>
        <time>2020-08-26T11:20:35.000Z</time>
      </trkpt>
      <trkpt lat="44.07668" lon="3.34844">
        <ele>552</ele>
        <time>2020-08-26T11:20:45.000Z</time>
      </trkpt>
      <trkpt lat="44.07674" lon="3.34823">
        <ele>544</ele>
        <time>2020-08-26T11:20:35.000Z</time>
      </trkpt>
      <trkpt lat="44.07689" lon="3.34795">
        <ele>546</ele>
        <time>2020-08-26T11:20:35.000Z</time>
      </trkpt>
      <trkpt lat="44.07698" lon="3.34782">
        <ele>552.3</ele>
        <time>2020-08-26T11:20:45.000Z</time>
      </trkpt>
      <trkpt lat="44.07721" lon="3.34743">
        <ele>541</ele>
        <time>2020-08-26T11:20:35.000Z</time>
      </trkpt>
      <trkpt lat="44.0773" lon="3.34725">
        <ele>550.7</ele>
        <time>2020-08-26T11:20:45.000Z</time>
      </trkpt>
      <trkpt lat="44.07737" lon="3.34709">
        <ele>542</ele>
        <time>2020-08-26T11:20:35.000Z</time>
      </trkpt>
      <trkpt lat="44.07745" lon="3.34694">
        <ele>550.8</ele>
        <time>2020-08-26T11:20:45.000Z</time>
      </trkpt>
      <trkpt lat="44.07758" lon="3.34664">
        <ele>539</ele>
        <time>2020-08-26T11:20:35.000Z</time>
      </trkpt>
      <trkpt lat="44.07765" lon="3.34654">
        <ele>550.7</ele>
        <time>2020-08-26T11:20:45.000Z</time>
      </trkpt>
      <trkpt lat="44.07763" lon="3.34622">
        <ele>543</ele>
        <time>2020-08-26T11:20:35.000Z</time>
      </trkpt>
      <trkpt lat="44.07765" lon="3.34606">
        <ele>545.8</ele>
        <time>2020-08-26T11:20:45.000Z</time>
      </trkpt>
      <trkpt lat="44.07771" lon="3.34575">
        <ele>538</ele>
        <time>2020-08-26T11:20:35.000Z</time>
      </trkpt>
      <trkpt lat="44.0778" lon="3.34549">
        <ele>534</ele>
        <time>2020-08-26T11:20:35.000Z</time>
      </trkpt>
      <trkpt lat="44.07787" lon="3.34532">
        <ele>546.6</ele>
        <time>2020-08-26T11:20:45.000Z</time>
      </trkpt>
      <trkpt lat="44.07795" lon="3.34503">
        <ele>542</ele>
        <time>2020-08-26T11:20:35.000Z</time>
      </trkpt>
      <trkpt lat="44.07804" lon="3.34474">
        <ele>543</ele>
        <time>2020-08-26T11:20:35.000Z</time>
      </trkpt>
      <trkpt lat="44.07808" lon="3.34458">
        <ele>548.4</ele>
        <time>2020-08-26T11:20:45.000Z</time>
      </trkpt>
      <trkpt lat="44.07809" lon="3.34439">
        <ele>542</ele>
        <time>2020-08-26T11:20:35.000Z</time>
      </trkpt>
      <trkpt lat="44.07813" lon="3.34407">
        <ele>541</ele>
        <time>2020-08-26T11:20:35.000Z</time>
      </trkpt>
      <trkpt lat="44.07814" lon="3.34375">
        <ele>540</ele>
        <time>2020-08-26T11:20:35.000Z</time>
      </trkpt>
      <trkpt lat="44.07816" lon="3.34335">
        <ele>544</ele>
        <time>2020-08-26T11:20:35.000Z</time>
      </trkpt>
      <trkpt lat="44.07818" lon="3.34311">
        <ele>542.9</ele>
        <time>2020-08-26T11:20:45.000Z</time>
      </trkpt>
      <trkpt lat="44.07825" lon="3.34293">
        <ele>548</ele>
        <time>2020-08-26T11:20:35.000Z</time>
      </trkpt>
      <trkpt lat="44.07843" lon="3.34282">
        <ele>548</ele>
        <time>2020-08-26T11:20:35.000Z</time>
      </trkpt>
      <trkpt lat="44.0784" lon="3.34262">
        <ele>542</ele>
        <time>2020-08-26T11:20:45.000Z</time>
      </trkpt>
      <trkpt lat="44.07817" lon="3.34228">
        <ele>542</ele>
        <time>2020-08-26T11:20:35.000Z</time>
      </trkpt>
      <trkpt lat="44.07808" lon="3.34216">
        <ele>538.8</ele>
        <time>2020-08-26T11:20:45.000Z</time>
      </trkpt>
      <trkpt lat="44.07804" lon="3.34203">
        <ele>536</ele>
        <time>2020-08-26T11:20:35.000Z</time>
      </trkpt>
      <trkpt lat="44.078" lon="3.34187">
        <ele>538.9</ele>
        <time>2020-08-26T11:20:45.000Z</time>
      </trkpt>
      <trkpt lat="44.07798" lon="3.3417">
        <ele>536</ele>
        <time>2020-08-26T11:20:35.000Z</time>
      </trkpt>
      <trkpt lat="44.07798" lon="3.34151">
        <ele>538.6</ele>
        <time>2020-08-26T11:20:45.000Z</time>
      </trkpt>
      <trkpt lat="44.07802" lon="3.3413">
        <ele>536</ele>
        <time>2020-08-26T11:20:35.000Z</time>
      </trkpt>
      <trkpt lat="44.07801" lon="3.34117">
        <ele>537.8</ele>
        <time>2020-08-26T11:20:45.000Z</time>
      </trkpt>
      <trkpt lat="44.07799" lon="3.34102">
        <ele>528</ele>
        <time>2020-08-26T11:20:35.000Z</time>
      </trkpt>
      <trkpt lat="44.07799" lon="3.34088">
        <ele>534.5</ele>
        <time>2020-08-26T11:20:45.000Z</time>
      </trkpt>
      <trkpt lat="44.078" lon="3.3407">
        <ele>521</ele>
        <time>2020-08-26T11:20:35.000Z</time>
      </trkpt>
      <trkpt lat="44.07803" lon="3.34055">
        <ele>532.1</ele>
        <time>2020-08-26T11:20:45.000Z</time>
      </trkpt>
      <trkpt lat="44.0781" lon="3.3404">
        <ele>513</ele>
        <time>2020-08-26T11:20:35.000Z</time>
      </trkpt>
      <trkpt lat="44.07819" lon="3.34011">
        <ele>513</ele>
        <time>2020-08-26T11:20:35.000Z</time>
      </trkpt>
      <trkpt lat="44.07819" lon="3.3399">
        <ele>530.4</ele>
        <time>2020-08-26T11:20:45.000Z</time>
      </trkpt>
      <trkpt lat="44.07827" lon="3.33946">
        <ele>526</ele>
        <time>2020-08-26T11:20:35.000Z</time>
      </trkpt>
      <trkpt lat="44.07823" lon="3.33902">
        <ele>528</ele>
        <time>2020-08-26T11:20:35.000Z</time>
      </trkpt>
      <trkpt lat="44.07823" lon="3.33888">
        <ele>525.6</ele>
        <time>2020-08-26T11:20:45.000Z</time>
      </trkpt>
      <trkpt lat="44.07825" lon="3.33868">
        <ele>522</ele>
        <time>2020-08-26T11:20:35.000Z</time>
      </trkpt>
      <trkpt lat="44.07815" lon="3.33841">
        <ele>517</ele>
        <time>2020-08-26T11:20:35.000Z</time>
      </trkpt>
      <trkpt lat="44.07805" lon="3.33823">
        <ele>527.4</ele>
        <time>2020-08-26T11:20:45.000Z</time>
      </trkpt>
      <trkpt lat="44.07792" lon="3.33809">
        <ele>522</ele>
        <time>2020-08-26T11:20:35.000Z</time>
      </trkpt>
      <trkpt lat="44.0777" lon="3.33782">
        <ele>528</ele>
        <time>2020-08-26T11:20:35.000Z</time>
      </trkpt>
      <trkpt lat="44.07758" lon="3.33775">
        <ele>531.5</ele>
        <time>2020-08-26T11:20:45.000Z</time>
      </trkpt>
      <trkpt lat="44.07749" lon="3.33772">
        <ele>528</ele>
        <time>2020-08-26T11:20:35.000Z</time>
      </trkpt>
      <trkpt lat="44.07735" lon="3.33771">
        <ele>531.7</ele>
        <time>2020-08-26T11:20:45.000Z</time>
      </trkpt>
      <trkpt lat="44.07712" lon="3.33776">
        <ele>527</ele>
        <time>2020-08-26T11:20:35.000Z</time>
      </trkpt>
      <trkpt lat="44.07703" lon="3.33776">
        <ele>532.2</ele>
        <time>2020-08-26T11:20:45.000Z</time>
      </trkpt>
      <trkpt lat="44.07693" lon="3.33777">
        <ele>533.4</ele>
        <time>2020-08-26T11:20:55.000Z</time>
      </trkpt>
      <trkpt lat="44.07682" lon="3.33779">
        <ele>527</ele>
        <time>2020-08-26T11:20:35.000Z</time>
      </trkpt>
      <trkpt lat="44.07668" lon="3.33769">
        <ele>536.2</ele>
        <time>2020-08-26T11:20:45.000Z</time>
      </trkpt>
      <trkpt lat="44.07662" lon="3.33748">
        <ele>530</ele>
        <time>2020-08-26T11:20:35.000Z</time>
      </trkpt>
      <trkpt lat="44.07662" lon="3.33717">
        <ele>528</ele>
        <time>2020-08-26T11:20:35.000Z</time>
      </trkpt>
      <trkpt lat="44.07665" lon="3.337">
        <ele>539.5</ele>
        <time>2020-08-26T11:20:45.000Z</time>
      </trkpt>
      <trkpt lat="44.07669" lon="3.33689">
        <ele>527</ele>
        <time>2020-08-26T11:20:35.000Z</time>
      </trkpt>
      <trkpt lat="44.07678" lon="3.33686">
        <ele>542.3</ele>
        <time>2020-08-26T11:20:45.000Z</time>
      </trkpt>
      <trkpt lat="44.07689" lon="3.33681">
        <ele>527</ele>
        <time>2020-08-26T11:20:35.000Z</time>
      </trkpt>
      <trkpt lat="44.07705" lon="3.33669">
        <ele>547.1</ele>
        <time>2020-08-26T11:20:45.000Z</time>
      </trkpt>
      <trkpt lat="44.07728" lon="3.33636">
        <ele>529</ele>
        <time>2020-08-26T11:20:35.000Z</time>
      </trkpt>
      <trkpt lat="44.07734" lon="3.33624">
        <ele>538.5</ele>
        <time>2020-08-26T11:20:45.000Z</time>
      </trkpt>
      <trkpt lat="44.07727" lon="3.33604">
        <ele>527</ele>
        <time>2020-08-26T11:20:35.000Z</time>
      </trkpt>
      <trkpt lat="44.07715" lon="3.33592">
        <ele>535.1</ele>
        <time>2020-08-26T11:20:45.000Z</time>
      </trkpt>
      <trkpt lat="44.07706" lon="3.3358">
        <ele>528</ele>
        <time>2020-08-26T11:20:35.000Z</time>
      </trkpt>
      <trkpt lat="44.07695" lon="3.33539">
        <ele>530</ele>
        <time>2020-08-26T11:20:35.000Z</time>
      </trkpt>
      <trkpt lat="44.07695" lon="3.33523">
        <ele>534.8</ele>
        <time>2020-08-26T11:20:45.000Z</time>
      </trkpt>
      <trkpt lat="44.07697" lon="3.33487">
        <ele>528</ele>
        <time>2020-08-26T11:20:35.000Z</time>
      </trkpt>
      <trkpt lat="44.07691" lon="3.33475">
        <ele>533.6</ele>
        <time>2020-08-26T11:20:45.000Z</time>
      </trkpt>
      <trkpt lat="44.07668" lon="3.33419">
        <ele>526</ele>
        <time>2020-08-26T11:20:35.000Z</time>
      </trkpt>
      <trkpt lat="44.0766" lon="3.33396">
        <ele>534.3</ele>
        <time>2020-08-26T11:20:45.000Z</time>
      </trkpt>
      <trkpt lat="44.07655" lon="3.33384">
        <ele>517</ele>
        <time>2020-08-26T11:20:35.000Z</time>
      </trkpt>
      <trkpt lat="44.07643" lon="3.33378">
        <ele>528.7</ele>
        <time>2020-08-26T11:20:45.000Z</time>
      </trkpt>
      <trkpt lat="44.07632" lon="3.33382">
        <ele>517</ele>
        <time>2020-08-26T11:20:35.000Z</time>
      </trkpt>
      <trkpt lat="44.07615" lon="3.33386">
        <ele>514.4</ele>
        <time>2020-08-26T11:20:45.000Z</time>
      </trkpt>
      <trkpt lat="44.07589" lon="3.3337">
        <ele>510</ele>
        <time>2020-08-26T11:20:35.000Z</time>
      </trkpt>
      <trkpt lat="44.07579" lon="3.33362">
        <ele>508.6</ele>
        <time>2020-08-26T11:20:45.000Z</time>
      </trkpt>
      <trkpt lat="44.07567" lon="3.33349">
        <ele>507</ele>
        <time>2020-08-26T11:20:35.000Z</time>
      </trkpt>
      <trkpt lat="44.07551" lon="3.33316">
        <ele>506</ele>
        <time>2020-08-26T11:20:35.000Z</time>
      </trkpt>
      <trkpt lat="44.07549" lon="3.33294">
        <ele>507.6</ele>
        <time>2020-08-26T11:20:45.000Z</time>
      </trkpt>
      <trkpt lat="44.07533" lon="3.33273">
        <ele>506</ele>
        <time>2020-08-26T11:20:35.000Z</time>
      </trkpt>
      <trkpt lat="44.07522" lon="3.33263">
        <ele>505.2</ele>
        <time>2020-08-26T11:20:45.000Z</time>
      </trkpt>
      <trkpt lat="44.07508" lon="3.33254">
        <ele>506</ele>
        <time>2020-08-26T11:20:35.000Z</time>
      </trkpt>
      <trkpt lat="44.07497" lon="3.33238">
        <ele>506.5</ele>
        <time>2020-08-26T11:20:45.000Z</time>
      </trkpt>
      <trkpt lat="44.07488" lon="3.33233">
        <ele>505</ele>
        <time>2020-08-26T11:20:35.000Z</time>
      </trkpt>
      <trkpt lat="44.07475" lon="3.33238">
        <ele>509</ele>
        <time>2020-08-26T11:20:45.000Z</time>
      </trkpt>
      <trkpt lat="44.07472" lon="3.3325">
        <ele>504</ele>
        <time>2020-08-26T11:20:35.000Z</time>
      </trkpt>
      <trkpt lat="44.07463" lon="3.33263">
        <ele>508</ele>
        <time>2020-08-26T11:20:45.000Z</time>
      </trkpt>
      <trkpt lat="44.07446" lon="3.33293">
        <ele>498</ele>
        <time>2020-08-26T11:20:35.000Z</time>
      </trkpt>
      <trkpt lat="44.07441" lon="3.33314">
        <ele>506.5</ele>
        <time>2020-08-26T11:20:45.000Z</time>
      </trkpt>
      <trkpt lat="44.0743" lon="3.33335">
        <ele>499</ele>
        <time>2020-08-26T11:20:35.000Z</time>
      </trkpt>
      <trkpt lat="44.07415" lon="3.33335">
        <ele>508.3</ele>
        <time>2020-08-26T11:20:45.000Z</time>
      </trkpt>
      <trkpt lat="44.0741" lon="3.33316">
        <ele>497</ele>
        <time>2020-08-26T11:20:35.000Z</time>
      </trkpt>
      <trkpt lat="44.0741" lon="3.33297">
        <ele>508.2</ele>
        <time>2020-08-26T11:20:45.000Z</time>
      </trkpt>
      <trkpt lat="44.07416" lon="3.33274">
        <ele>498</ele>
        <time>2020-08-26T11:20:35.000Z</time>
      </trkpt>
      <trkpt lat="44.07422" lon="3.33254">
        <ele>505.7</ele>
        <time>2020-08-26T11:20:45.000Z</time>
      </trkpt>
      <trkpt lat="44.07423" lon="3.33232">
        <ele>500</ele>
        <time>2020-08-26T11:20:35.000Z</time>
      </trkpt>
      <trkpt lat="44.07434" lon="3.33216">
        <ele>504.2</ele>
        <time>2020-08-26T11:20:45.000Z</time>
      </trkpt>
      <trkpt lat="44.07445" lon="3.33214">
        <ele>502</ele>
        <time>2020-08-26T11:20:35.000Z</time>
      </trkpt>
      <trkpt lat="44.07457" lon="3.33205">
        <ele>509.2</ele>
        <time>2020-08-26T11:20:45.000Z</time>
      </trkpt>
      <trkpt lat="44.07471" lon="3.33203">
        <ele>508</ele>
        <time>2020-08-26T11:20:35.000Z</time>
      </trkpt>
      <trkpt lat="44.07484" lon="3.33189">
        <ele>518.8</ele>
        <time>2020-08-26T11:20:45.000Z</time>
      </trkpt>
      <trkpt lat="44.07496" lon="3.33179">
        <ele>518</ele>
        <time>2020-08-26T11:20:35.000Z</time>
      </trkpt>
      <trkpt lat="44.07536" lon="3.33167">
        <ele>529</ele>
        <time>2020-08-26T11:20:35.000Z</time>
      </trkpt>
      <trkpt lat="44.0755" lon="3.3317">
        <ele>542.7</ele>
        <time>2020-08-26T11:20:45.000Z</time>
      </trkpt>
      <trkpt lat="44.07563" lon="3.33164">
        <ele>544</ele>
        <time>2020-08-26T11:20:35.000Z</time>
      </trkpt>
      <trkpt lat="44.07585" lon="3.33142">
        <ele>554</ele>
        <time>2020-08-26T11:20:35.000Z</time>
      </trkpt>
      <trkpt lat="44.07582" lon="3.33121">
        <ele>565.2</ele>
        <time>2020-08-26T11:20:45.000Z</time>
      </trkpt>
      <trkpt lat="44.07581" lon="3.33108">
        <ele>556</ele>
        <time>2020-08-26T11:20:35.000Z</time>
      </trkpt>
      <trkpt lat="44.07584" lon="3.33096">
        <ele>571</ele>
        <time>2020-08-26T11:20:45.000Z</time>
      </trkpt>
      <trkpt lat="44.0759" lon="3.3308">
        <ele>557</ele>
        <time>2020-08-26T11:20:35.000Z</time>
      </trkpt>
      <trkpt lat="44.07599" lon="3.33043">
        <ele>566</ele>
        <time>2020-08-26T11:20:35.000Z</time>
      </trkpt>
      <trkpt lat="44.07605" lon="3.33031">
        <ele>584.3</ele>
        <time>2020-08-26T11:20:45.000Z</time>
      </trkpt>
      <trkpt lat="44.07613" lon="3.33013">
        <ele>588</ele>
        <time>2020-08-26T11:20:35.000Z</time>
      </trkpt>
      <trkpt lat="44.07616" lon="3.32989">
        <ele>591.2</ele>
        <time>2020-08-26T11:20:45.000Z</time>
      </trkpt>
      <trkpt lat="44.07623" lon="3.32969">
        <ele>590</ele>
        <time>2020-08-26T11:20:35.000Z</time>
      </trkpt>
      <trkpt lat="44.0763" lon="3.32953">
        <ele>601.8</ele>
        <time>2020-08-26T11:20:45.000Z</time>
      </trkpt>
      <trkpt lat="44.07636" lon="3.32933">
        <ele>597</ele>
        <time>2020-08-26T11:20:35.000Z</time>
      </trkpt>
      <trkpt lat="44.07638" lon="3.3292">
        <ele>605.7</ele>
        <time>2020-08-26T11:20:45.000Z</time>
      </trkpt>
      <trkpt lat="44.07636" lon="3.32907">
        <ele>606.9</ele>
        <time>2020-08-26T11:20:55.000Z</time>
      </trkpt>
      <trkpt lat="44.07628" lon="3.32891">
        <ele>605</ele>
        <time>2020-08-26T11:20:35.000Z</time>
      </trkpt>
      <trkpt lat="44.07622" lon="3.32875">
        <ele>611.3</ele>
        <time>2020-08-26T11:20:45.000Z</time>
      </trkpt>
      <trkpt lat="44.0762" lon="3.32857">
        <ele>610</ele>
        <time>2020-08-26T11:20:35.000Z</time>
      </trkpt>
      <trkpt lat="44.07622" lon="3.32844">
        <ele>620.7</ele>
        <time>2020-08-26T11:20:45.000Z</time>
      </trkpt>
      <trkpt lat="44.07623" lon="3.32825">
        <ele>617</ele>
        <time>2020-08-26T11:20:35.000Z</time>
      </trkpt>
      <trkpt lat="44.07612" lon="3.32793">
        <ele>636</ele>
        <time>2020-08-26T11:20:35.000Z</time>
      </trkpt>
      <trkpt lat="44.07618" lon="3.32765">
        <ele>641</ele>
        <time>2020-08-26T11:20:35.000Z</time>
      </trkpt>
      <trkpt lat="44.07615" lon="3.32739">
        <ele>642.6</ele>
        <time>2020-08-26T11:20:45.000Z</time>
      </trkpt>
      <trkpt lat="44.07609" lon="3.32727">
        <ele>641</ele>
        <time>2020-08-26T11:20:35.000Z</time>
      </trkpt>
      <trkpt lat="44.07603" lon="3.32708">
        <ele>644.2</ele>
        <time>2020-08-26T11:20:45.000Z</time>
      </trkpt>
      <trkpt lat="44.07601" lon="3.32692">
        <ele>646</ele>
        <time>2020-08-26T11:20:35.000Z</time>
      </trkpt>
      <trkpt lat="44.07601" lon="3.3267">
        <ele>649.3</ele>
        <time>2020-08-26T11:20:45.000Z</time>
      </trkpt>
      <trkpt lat="44.07606" lon="3.32652">
        <ele>647</ele>
        <time>2020-08-26T11:20:35.000Z</time>
      </trkpt>
      <trkpt lat="44.0761" lon="3.32633">
        <ele>656.6</ele>
        <time>2020-08-26T11:20:45.000Z</time>
      </trkpt>
      <trkpt lat="44.07612" lon="3.32613">
        <ele>649</ele>
        <time>2020-08-26T11:20:35.000Z</time>
      </trkpt>
      <trkpt lat="44.07615" lon="3.32597">
        <ele>661.6</ele>
        <time>2020-08-26T11:20:45.000Z</time>
      </trkpt>
      <trkpt lat="44.0762" lon="3.32582">
        <ele>650</ele>
        <time>2020-08-26T11:20:35.000Z</time>
      </trkpt>
      <trkpt lat="44.07624" lon="3.32562">
        <ele>664.2</ele>
        <time>2020-08-26T11:20:45.000Z</time>
      </trkpt>
      <trkpt lat="44.07625" lon="3.32549">
        <ele>657</ele>
        <time>2020-08-26T11:20:35.000Z</time>
      </trkpt>
      <trkpt lat="44.0762" lon="3.32528">
        <ele>667.4</ele>
        <time>2020-08-26T11:20:45.000Z</time>
      </trkpt>
      <trkpt lat="44.07613" lon="3.3251">
        <ele>653</ele>
        <time>2020-08-26T11:20:35.000Z</time>
      </trkpt>
      <trkpt lat="44.07608" lon="3.32488">
        <ele>672.1</ele>
        <time>2020-08-26T11:20:45.000Z</time>
      </trkpt>
      <trkpt lat="44.07598" lon="3.32464">
        <ele>653</ele>
        <time>2020-08-26T11:20:35.000Z</time>
      </trkpt>
      <trkpt lat="44.07596" lon="3.3244">
        <ele>668.9</ele>
        <time>2020-08-26T11:20:45.000Z</time>
      </trkpt>
      <trkpt lat="44.07592" lon="3.32426">
        <ele>653</ele>
        <time>2020-08-26T11:20:35.000Z</time>
      </trkpt>
      <trkpt lat="44.07585" lon="3.32418">
        <ele>663.9</ele>
        <time>2020-08-26T11:20:45.000Z</time>
      </trkpt>
      <trkpt lat="44.07585" lon="3.32405">
        <ele>663</ele>
        <time>2020-08-26T11:20:55.000Z</time>
      </trkpt>
      <trkpt lat="44.07596" lon="3.32399">
        <ele>655</ele>
        <time>2020-08-26T11:20:35.000Z</time>
      </trkpt>
      <trkpt lat="44.0761" lon="3.32393">
        <ele>670.4</ele>
        <time>2020-08-26T11:20:45.000Z</time>
      </trkpt>
      <trkpt lat="44.07626" lon="3.32382">
        <ele>657</ele>
        <time>2020-08-26T11:20:35.000Z</time>
      </trkpt>
      <trkpt lat="44.07633" lon="3.32367">
        <ele>669.3</ele>
        <time>2020-08-26T11:20:45.000Z</time>
      </trkpt>
      <trkpt lat="44.07643" lon="3.32358">
        <ele>653</ele>
        <time>2020-08-26T11:20:35.000Z</time>
      </trkpt>
      <trkpt lat="44.0766" lon="3.32348">
        <ele>668.5</ele>
        <time>2020-08-26T11:20:45.000Z</time>
      </trkpt>
      <trkpt lat="44.07673" lon="3.32342">
        <ele>650</ele>
        <time>2020-08-26T11:20:35.000Z</time>
      </trkpt>
      <trkpt lat="44.07696" lon="3.32315">
        <ele>637</ele>
        <time>2020-08-26T11:20:35.000Z</time>
      </trkpt>
      <trkpt lat="44.07706" lon="3.32308">
        <ele>659.3</ele>
        <time>2020-08-26T11:20:45.000Z</time>
      </trkpt>
      <trkpt lat="44.07733" lon="3.32308">
        <ele>637</ele>
        <time>2020-08-26T11:20:35.000Z</time>
      </trkpt>
      <trkpt lat="44.07772" lon="3.32295">
        <ele>628</ele>
        <time>2020-08-26T11:20:35.000Z</time>
      </trkpt>
      <trkpt lat="44.07784" lon="3.32285">
        <ele>649</ele>
        <time>2020-08-26T11:20:45.000Z</time>
      </trkpt>
      <trkpt lat="44.07796" lon="3.32294">
        <ele>628</ele>
        <time>2020-08-26T11:20:35.000Z</time>
      </trkpt>
      <trkpt lat="44.07805" lon="3.32308">
        <ele>648</ele>
        <time>2020-08-26T11:20:45.000Z</time>
      </trkpt>
      <trkpt lat="44.07817" lon="3.32308">
        <ele>643</ele>
        <time>2020-08-26T11:20:35.000Z</time>
      </trkpt>
      <trkpt lat="44.07829" lon="3.32315">
        <ele>649.7</ele>
        <time>2020-08-26T11:20:45.000Z</time>
      </trkpt>
      <trkpt lat="44.07841" lon="3.32323">
        <ele>645</ele>
        <time>2020-08-26T11:20:35.000Z</time>
      </trkpt>
      <trkpt lat="44.07836" lon="3.32306">
        <ele>652.9</ele>
        <time>2020-08-26T11:20:45.000Z</time>
      </trkpt>
      <trkpt lat="44.07831" lon="3.32294">
        <ele>641</ele>
        <time>2020-08-26T11:20:35.000Z</time>
      </trkpt>
      <trkpt lat="44.07828" lon="3.32282">
        <ele>653.5</ele>
        <time>2020-08-26T11:20:45.000Z</time>
      </trkpt>
      <trkpt lat="44.07813" lon="3.32256">
        <ele>643</ele>
        <time>2020-08-26T11:20:35.000Z</time>
      </trkpt>
      <trkpt lat="44.0781" lon="3.32235">
        <ele>644.3</ele>
        <time>2020-08-26T11:20:45.000Z</time>
      </trkpt>
      <trkpt lat="44.07803" lon="3.32206">
        <ele>645</ele>
        <time>2020-08-26T11:20:35.000Z</time>
      </trkpt>
      <trkpt lat="44.07804" lon="3.32183">
        <ele>659.9</ele>
        <time>2020-08-26T11:20:45.000Z</time>
      </trkpt>
      <trkpt lat="44.07806" lon="3.32169">
        <ele>652</ele>
        <time>2020-08-26T11:20:35.000Z</time>
      </trkpt>
      <trkpt lat="44.07805" lon="3.32157">
        <ele>660.5</ele>
        <time>2020-08-26T11:20:45.000Z</time>
      </trkpt>
      <trkpt lat="44.0781" lon="3.32142">
        <ele>659</ele>
        <time>2020-08-26T11:20:35.000Z</time>
      </trkpt>
      <trkpt lat="44.07817" lon="3.32139">
        <ele>669.7</ele>
        <time>2020-08-26T11:20:45.000Z</time>
      </trkpt>
      <trkpt lat="44.07822" lon="3.32164">
        <ele>659</ele>
        <time>2020-08-26T11:20:35.000Z</time>
      </trkpt>
      <trkpt lat="44.0783" lon="3.32187">
        <ele>676.1</ele>
        <time>2020-08-26T11:20:45.000Z</time>
      </trkpt>
      <trkpt lat="44.07836" lon="3.32211">
        <ele>659</ele>
        <time>2020-08-26T11:20:35.000Z</time>
      </trkpt>
      <trkpt lat="44.07846" lon="3.32241">
        <ele>665</ele>
        <time>2020-08-26T11:20:35.000Z</time>
      </trkpt>
      <trkpt lat="44.07853" lon="3.32253">
        <ele>671.7</ele>
        <time>2020-08-26T11:20:45.000Z</time>
      </trkpt>
      <trkpt lat="44.07862" lon="3.32264">
        <ele>672</ele>
        <time>2020-08-26T11:20:35.000Z</time>
      </trkpt>
      <trkpt lat="44.07872" lon="3.32274">
        <ele>674.7</ele>
        <time>2020-08-26T11:20:45.000Z</time>
      </trkpt>
      <trkpt lat="44.0788" lon="3.32281">
        <ele>673</ele>
        <time>2020-08-26T11:20:35.000Z</time>
      </trkpt>
      <trkpt lat="44.07884" lon="3.32307">
        <ele>673.4</ele>
        <time>2020-08-26T11:20:45.000Z</time>
      </trkpt>
      <trkpt lat="44.07887" lon="3.32319">
        <ele>670</ele>
        <time>2020-08-26T11:20:35.000Z</time>
      </trkpt>
      <trkpt lat="44.07892" lon="3.32334">
        <ele>672.3</ele>
        <time>2020-08-26T11:20:45.000Z</time>
      </trkpt>
      <trkpt lat="44.07903" lon="3.32355">
        <ele>676</ele>
        <time>2020-08-26T11:20:35.000Z</time>
      </trkpt>
      <trkpt lat="44.07911" lon="3.32361">
        <ele>670.4</ele>
        <time>2020-08-26T11:20:45.000Z</time>
      </trkpt>
      <trkpt lat="44.0792" lon="3.32359">
        <ele>673.5</ele>
        <time>2020-08-26T11:20:55.000Z</time>
      </trkpt>
      <trkpt lat="44.07915" lon="3.32344">
        <ele>682</ele>
        <time>2020-08-26T11:20:35.000Z</time>
      </trkpt>
      <trkpt lat="44.0791" lon="3.32321">
        <ele>684.2</ele>
        <time>2020-08-26T11:20:45.000Z</time>
      </trkpt>
      <trkpt lat="44.07923" lon="3.32317">
        <ele>689</ele>
        <time>2020-08-26T11:20:35.000Z</time>
      </trkpt>
      <trkpt lat="44.07939" lon="3.32318">
        <ele>697.6</ele>
        <time>2020-08-26T11:20:45.000Z</time>
      </trkpt>
      <trkpt lat="44.07952" lon="3.32309">
        <ele>691</ele>
        <time>2020-08-26T11:20:35.000Z</time>
      </trkpt>
      <trkpt lat="44.07961" lon="3.32304">
        <ele>708.8</ele>
        <time>2020-08-26T11:20:45.000Z</time>
      </trkpt>
      <trkpt lat="44.07975" lon="3.32298">
        <ele>697</ele>
        <time>2020-08-26T11:20:35.000Z</time>
      </trkpt>
      <trkpt lat="44.07985" lon="3.32296">
        <ele>714.7</ele>
        <time>2020-08-26T11:20:45.000Z</time>
      </trkpt>
      <trkpt lat="44.07998" lon="3.3229">
        <ele>698</ele>
        <time>2020-08-26T11:20:35.000Z</time>
      </trkpt>
      <trkpt lat="44.08006" lon="3.32281">
        <ele>718.7</ele>
        <time>2020-08-26T11:20:45.000Z</time>
      </trkpt>
      <trkpt lat="44.08016" lon="3.32275">
        <ele>698</ele>
        <time>2020-08-26T11:20:35.000Z</time>
      </trkpt>
      <trkpt lat="44.08028" lon="3.3226">
        <ele>719</ele>
        <time>2020-08-26T11:20:45.000Z</time>
      </trkpt>
      <trkpt lat="44.08043" lon="3.32256">
        <ele>703</ele>
        <time>2020-08-26T11:20:35.000Z</time>
      </trkpt>
      <trkpt lat="44.08053" lon="3.32242">
        <ele>718.6</ele>
        <time>2020-08-26T11:20:45.000Z</time>
      </trkpt>
      <trkpt lat="44.08057" lon="3.32227">
        <ele>722</ele>
        <time>2020-08-26T11:20:35.000Z</time>
      </trkpt>
      <trkpt lat="44.08065" lon="3.32213">
        <ele>725</ele>
        <time>2020-08-26T11:20:45.000Z</time>
      </trkpt>
      <trkpt lat="44.0807" lon="3.32202">
        <ele>726</ele>
        <time>2020-08-26T11:20:35.000Z</time>
      </trkpt>
      <trkpt lat="44.08081" lon="3.3219">
        <ele>722.1</ele>
        <time>2020-08-26T11:20:45.000Z</time>
      </trkpt>
      <trkpt lat="44.0809" lon="3.32175">
        <ele>736</ele>
        <time>2020-08-26T11:20:35.000Z</time>
      </trkpt>
      <trkpt lat="44.0809" lon="3.3216">
        <ele>725.9</ele>
        <time>2020-08-26T11:20:45.000Z</time>
      </trkpt>
      <trkpt lat="44.08095" lon="3.32129">
        <ele>735</ele>
        <time>2020-08-26T11:20:35.000Z</time>
      </trkpt>
      <trkpt lat="44.08096" lon="3.32112">
        <ele>730.4</ele>
        <time>2020-08-26T11:20:45.000Z</time>
      </trkpt>
      <trkpt lat="44.08098" lon="3.32098">
        <ele>737</ele>
        <time>2020-08-26T11:20:35.000Z</time>
      </trkpt>
      <trkpt lat="44.08104" lon="3.32084">
        <ele>730.3</ele>
        <time>2020-08-26T11:20:45.000Z</time>
      </trkpt>
      <trkpt lat="44.08112" lon="3.32059">
        <ele>740</ele>
        <time>2020-08-26T11:20:35.000Z</time>
      </trkpt>
      <trkpt lat="44.08113" lon="3.3204">
        <ele>729.3</ele>
        <time>2020-08-26T11:20:45.000Z</time>
      </trkpt>
      <trkpt lat="44.08107" lon="3.32021">
        <ele>741</ele>
        <time>2020-08-26T11:20:35.000Z</time>
      </trkpt>
      <trkpt lat="44.08116" lon="3.32011">
        <ele>734.2</ele>
        <time>2020-08-26T11:20:45.000Z</time>
      </trkpt>
      <trkpt lat="44.08114" lon="3.31996">
        <ele>744</ele>
        <time>2020-08-26T11:20:35.000Z</time>
      </trkpt>
      <trkpt lat="44.08119" lon="3.31981">
        <ele>740.6</ele>
        <time>2020-08-26T11:20:45.000Z</time>
      </trkpt>
      <trkpt lat="44.08127" lon="3.31964">
        <ele>747</ele>
        <time>2020-08-26T11:20:35.000Z</time>
      </trkpt>
      <trkpt lat="44.0812" lon="3.3195">
        <ele>749.1</ele>
        <time>2020-08-26T11:20:45.000Z</time>
      </trkpt>
      <trkpt lat="44.08107" lon="3.31952">
        <ele>753</ele>
        <time>2020-08-26T11:20:35.000Z</time>
      </trkpt>
      <trkpt lat="44.08101" lon="3.31939">
        <ele>759.6</ele>
        <time>2020-08-26T11:20:45.000Z</time>
      </trkpt>
      <trkpt lat="44.08088" lon="3.31941">
        <ele>763</ele>
        <time>2020-08-26T11:20:35.000Z</time>
      </trkpt>
      <trkpt lat="44.08095" lon="3.31923">
        <ele>767.5</ele>
        <time>2020-08-26T11:20:45.000Z</time>
      </trkpt>
      <trkpt lat="44.08084" lon="3.31915">
        <ele>772</ele>
        <time>2020-08-26T11:20:35.000Z</time>
      </trkpt>
      <trkpt lat="44.08072" lon="3.31909">
        <ele>779.7</ele>
        <time>2020-08-26T11:20:45.000Z</time>
      </trkpt>
      <trkpt lat="44.0806" lon="3.31897">
        <ele>788</ele>
        <time>2020-08-26T11:20:35.000Z</time>
      </trkpt>
      <trkpt lat="44.08038" lon="3.31889">
        <ele>792</ele>
        <time>2020-08-26T11:20:35.000Z</time>
      </trkpt>
      <trkpt lat="44.08023" lon="3.31887">
        <ele>799.4</ele>
        <time>2020-08-26T11:20:45.000Z</time>
      </trkpt>
      <trkpt lat="44.08013" lon="3.31888">
        <ele>798</ele>
        <time>2020-08-26T11:20:35.000Z</time>
      </trkpt>
      <trkpt lat="44.07996" lon="3.31891">
        <ele>804.7</ele>
        <time>2020-08-26T11:20:45.000Z</time>
      </trkpt>
      <trkpt lat="44.07979" lon="3.31896">
        <ele>799</ele>
        <time>2020-08-26T11:20:35.000Z</time>
      </trkpt>
      <trkpt lat="44.07957" lon="3.31912">
        <ele>800</ele>
        <time>2020-08-26T11:20:35.000Z</time>
      </trkpt>
      <trkpt lat="44.07944" lon="3.31916">
        <ele>813</ele>
        <time>2020-08-26T11:20:45.000Z</time>
      </trkpt>
      <trkpt lat="44.07931" lon="3.31882">
        <ele>810</ele>
        <time>2020-08-26T11:20:35.000Z</time>
      </trkpt>
      <trkpt lat="44.0791" lon="3.31835">
        <ele>818</ele>
        <time>2020-08-26T11:20:35.000Z</time>
      </trkpt>
      <trkpt lat="44.07905" lon="3.3182">
        <ele>829.2</ele>
        <time>2020-08-26T11:20:45.000Z</time>
      </trkpt>
      <trkpt lat="44.07897" lon="3.31801">
        <ele>820</ele>
        <time>2020-08-26T11:20:35.000Z</time>
      </trkpt>
      <trkpt lat="44.07885" lon="3.31789">
        <ele>836.1</ele>
        <time>2020-08-26T11:20:45.000Z</time>
      </trkpt>
      <trkpt lat="44.07876" lon="3.31784">
        <ele>826</ele>
        <time>2020-08-26T11:20:35.000Z</time>
      </trkpt>
      <trkpt lat="44.07865" lon="3.3177">
        <ele>840</ele>
        <time>2020-08-26T11:20:45.000Z</time>
      </trkpt>
      <trkpt lat="44.07837" lon="3.31731">
        <ele>826</ele>
        <time>2020-08-26T11:20:35.000Z</time>
      </trkpt>
      <trkpt lat="44.07829" lon="3.31724">
        <ele>844.5</ele>
        <time>2020-08-26T11:20:45.000Z</time>
      </trkpt>
      <trkpt lat="44.07806" lon="3.31709">
        <ele>825</ele>
        <time>2020-08-26T11:20:35.000Z</time>
      </trkpt>
      <trkpt lat="44.07795" lon="3.317">
        <ele>843.5</ele>
        <time>2020-08-26T11:20:45.000Z</time>
      </trkpt>
      <trkpt lat="44.07786" lon="3.31694">
        <ele>825</ele>
        <time>2020-08-26T11:20:35.000Z</time>
      </trkpt>
      <trkpt lat="44.07778" lon="3.31683">
        <ele>842.4</ele>
        <time>2020-08-26T11:20:45.000Z</time>
      </trkpt>
      <trkpt lat="44.07773" lon="3.31671">
        <ele>822</ele>
        <time>2020-08-26T11:20:35.000Z</time>
      </trkpt>
      <trkpt lat="44.07768" lon="3.31657">
        <ele>841.2</ele>
        <time>2020-08-26T11:20:45.000Z</time>
      </trkpt>
      <trkpt lat="44.07764" lon="3.31641">
        <ele>821</ele>
        <time>2020-08-26T11:20:35.000Z</time>
      </trkpt>
      <trkpt lat="44.07766" lon="3.31612">
        <ele>820</ele>
        <time>2020-08-26T11:20:35.000Z</time>
      </trkpt>
      <trkpt lat="44.07768" lon="3.31595">
        <ele>839.5</ele>
        <time>2020-08-26T11:20:45.000Z</time>
      </trkpt>
      <trkpt lat="44.07769" lon="3.31576">
        <ele>818</ele>
        <time>2020-08-26T11:20:35.000Z</time>
      </trkpt>
      <trkpt lat="44.07769" lon="3.31563">
        <ele>837.6</ele>
        <time>2020-08-26T11:20:45.000Z</time>
      </trkpt>
      <trkpt lat="44.07767" lon="3.31544">
        <ele>816</ele>
        <time>2020-08-26T11:20:35.000Z</time>
      </trkpt>
      <trkpt lat="44.07764" lon="3.31528">
        <ele>834</ele>
        <time>2020-08-26T11:20:45.000Z</time>
      </trkpt>
      <trkpt lat="44.07758" lon="3.31512">
        <ele>818</ele>
        <time>2020-08-26T11:20:35.000Z</time>
      </trkpt>
      <trkpt lat="44.07738" lon="3.31484">
        <ele>820</ele>
        <time>2020-08-26T11:20:35.000Z</time>
      </trkpt>
      <trkpt lat="44.07731" lon="3.31473">
        <ele>833.2</ele>
        <time>2020-08-26T11:20:45.000Z</time>
      </trkpt>
      <trkpt lat="44.07721" lon="3.31461">
        <ele>820</ele>
        <time>2020-08-26T11:20:35.000Z</time>
      </trkpt>
      <trkpt lat="44.07703" lon="3.31442">
        <ele>821</ele>
        <time>2020-08-26T11:20:35.000Z</time>
      </trkpt>
      <trkpt lat="44.07692" lon="3.31429">
        <ele>831</ele>
        <time>2020-08-26T11:20:45.000Z</time>
      </trkpt>
      <trkpt lat="44.07676" lon="3.31414">
        <ele>821</ele>
        <time>2020-08-26T11:20:35.000Z</time>
      </trkpt>
      <trkpt lat="44.07666" lon="3.31412">
        <ele>829.2</ele>
        <time>2020-08-26T11:20:45.000Z</time>
      </trkpt>
      <trkpt lat="44.07651" lon="3.314">
        <ele>821</ele>
        <time>2020-08-26T11:20:35.000Z</time>
      </trkpt>
      <trkpt lat="44.07642" lon="3.31395">
        <ele>827.2</ele>
        <time>2020-08-26T11:20:45.000Z</time>
      </trkpt>
      <trkpt lat="44.07631" lon="3.31393">
        <ele>821</ele>
        <time>2020-08-26T11:20:35.000Z</time>
      </trkpt>
      <trkpt lat="44.0762" lon="3.31386">
        <ele>825.2</ele>
        <time>2020-08-26T11:20:45.000Z</time>
      </trkpt>
      <trkpt lat="44.07611" lon="3.31378">
        <ele>820</ele>
        <time>2020-08-26T11:20:35.000Z</time>
      </trkpt>
      <trkpt lat="44.07595" lon="3.31373">
        <ele>823.3</ele>
        <time>2020-08-26T11:20:45.000Z</time>
      </trkpt>
      <trkpt lat="44.07583" lon="3.31368">
        <ele>819</ele>
        <time>2020-08-26T11:20:35.000Z</time>
      </trkpt>
      <trkpt lat="44.07573" lon="3.31369">
        <ele>822.6</ele>
        <time>2020-08-26T11:20:45.000Z</time>
      </trkpt>
      <trkpt lat="44.07555" lon="3.31373">
        <ele>818</ele>
        <time>2020-08-26T11:20:35.000Z</time>
      </trkpt>
      <trkpt lat="44.07545" lon="3.31366">
        <ele>820.5</ele>
        <time>2020-08-26T11:20:45.000Z</time>
      </trkpt>
      <trkpt lat="44.07534" lon="3.3136">
        <ele>819</ele>
        <time>2020-08-26T11:20:35.000Z</time>
      </trkpt>
      <trkpt lat="44.07523" lon="3.31356">
        <ele>822.4</ele>
        <time>2020-08-26T11:20:45.000Z</time>
      </trkpt>
      <trkpt lat="44.07501" lon="3.31344">
        <ele>819</ele>
        <time>2020-08-26T11:20:35.000Z</time>
      </trkpt>
      <trkpt lat="44.07473" lon="3.31337">
        <ele>818</ele>
        <time>2020-08-26T11:20:35.000Z</time>
      </trkpt>
      <trkpt lat="44.07455" lon="3.31338">
        <ele>824.9</ele>
        <time>2020-08-26T11:20:45.000Z</time>
      </trkpt>
      <trkpt lat="44.07443" lon="3.31324">
        <ele>819</ele>
        <time>2020-08-26T11:20:35.000Z</time>
      </trkpt>
      <trkpt lat="44.07438" lon="3.31307">
        <ele>827.6</ele>
        <time>2020-08-26T11:20:45.000Z</time>
      </trkpt>
      <trkpt lat="44.0743" lon="3.31295">
        <ele>821</ele>
        <time>2020-08-26T11:20:35.000Z</time>
      </trkpt>
      <trkpt lat="44.07412" lon="3.31284">
        <ele>821</ele>
        <time>2020-08-26T11:20:35.000Z</time>
      </trkpt>
      <trkpt lat="44.07401" lon="3.31284">
        <ele>827.2</ele>
        <time>2020-08-26T11:20:45.000Z</time>
      </trkpt>
      <trkpt lat="44.0739" lon="3.31283">
        <ele>821</ele>
        <time>2020-08-26T11:20:35.000Z</time>
      </trkpt>
      <trkpt lat="44.07367" lon="3.31283">
        <ele>818</ele>
        <time>2020-08-26T11:20:35.000Z</time>
      </trkpt>
      <trkpt lat="44.07356" lon="3.31281">
        <ele>825</ele>
        <time>2020-08-26T11:20:45.000Z</time>
      </trkpt>
      <trkpt lat="44.07341" lon="3.31276">
        <ele>819</ele>
        <time>2020-08-26T11:20:35.000Z</time>
      </trkpt>
      <trkpt lat="44.07324" lon="3.3126">
        <ele>814</ele>
        <time>2020-08-26T11:20:35.000Z</time>
      </trkpt>
      <trkpt lat="44.07316" lon="3.31255">
        <ele>821.5</ele>
        <time>2020-08-26T11:20:45.000Z</time>
      </trkpt>
      <trkpt lat="44.07309" lon="3.31244">
        <ele>822.1</ele>
        <time>2020-08-26T11:20:55.000Z</time>
      </trkpt>
      <trkpt lat="44.07309" lon="3.31226">
        <ele>810</ele>
        <time>2020-08-26T11:20:35.000Z</time>
      </trkpt>
      <trkpt lat="44.0731" lon="3.31212">
        <ele>823.7</ele>
        <time>2020-08-26T11:20:45.000Z</time>
      </trkpt>
      <trkpt lat="44.07299" lon="3.31197">
        <ele>810</ele>
        <time>2020-08-26T11:20:35.000Z</time>
      </trkpt>
      <trkpt lat="44.07293" lon="3.31187">
        <ele>818.8</ele>
        <time>2020-08-26T11:20:45.000Z</time>
      </trkpt>
      <trkpt lat="44.07283" lon="3.31162">
        <ele>811</ele>
        <time>2020-08-26T11:20:35.000Z</time>
      </trkpt>
      <trkpt lat="44.07279" lon="3.31147">
        <ele>824.9</ele>
        <time>2020-08-26T11:20:45.000Z</time>
      </trkpt>
      <trkpt lat="44.07275" lon="3.31135">
        <ele>813</ele>
        <time>2020-08-26T11:20:35.000Z</time>
      </trkpt>
      <trkpt lat="44.0727" lon="3.31124">
        <ele>824.8</ele>
        <time>2020-08-26T11:20:45.000Z</time>
      </trkpt>
      <trkpt lat="44.07244" lon="3.311">
        <ele>814</ele>
        <time>2020-08-26T11:20:35.000Z</time>
      </trkpt>
      <trkpt lat="44.07232" lon="3.31088">
        <ele>825.4</ele>
        <time>2020-08-26T11:20:45.000Z</time>
      </trkpt>
      <trkpt lat="44.07223" lon="3.31078">
        <ele>815</ele>
        <time>2020-08-26T11:20:35.000Z</time>
      </trkpt>
      <trkpt lat="44.07215" lon="3.31068">
        <ele>825.4</ele>
        <time>2020-08-26T11:20:45.000Z</time>
      </trkpt>
      <trkpt lat="44.07197" lon="3.31041">
        <ele>815</ele>
        <time>2020-08-26T11:20:35.000Z</time>
      </trkpt>
      <trkpt lat="44.07181" lon="3.31023">
        <ele>816</ele>
        <time>2020-08-26T11:20:35.000Z</time>
      </trkpt>
      <trkpt lat="44.07174" lon="3.31011">
        <ele>824.8</ele>
        <time>2020-08-26T11:20:45.000Z</time>
      </trkpt>
      <trkpt lat="44.07168" lon="3.30996">
        <ele>818</ele>
        <time>2020-08-26T11:20:35.000Z</time>
      </trkpt>
      <trkpt lat="44.07147" lon="3.30966">
        <ele>815</ele>
        <time>2020-08-26T11:20:35.000Z</time>
      </trkpt>
      <trkpt lat="44.07134" lon="3.30953">
        <ele>820</ele>
        <time>2020-08-26T11:20:45.000Z</time>
      </trkpt>
      <trkpt lat="44.07124" lon="3.30934">
        <ele>816</ele>
        <time>2020-08-26T11:20:35.000Z</time>
      </trkpt>
      <trkpt lat="44.07117" lon="3.30922">
        <ele>819.4</ele>
        <time>2020-08-26T11:20:45.000Z</time>
      </trkpt>
      <trkpt lat="44.07106" lon="3.30906">
        <ele>809</ele>
        <time>2020-08-26T11:20:35.000Z</time>
      </trkpt>
      <trkpt lat="44.07094" lon="3.30896">
        <ele>815.1</ele>
        <time>2020-08-26T11:20:45.000Z</time>
      </trkpt>
      <trkpt lat="44.07087" lon="3.30882">
        <ele>803</ele>
        <time>2020-08-26T11:20:35.000Z</time>
      </trkpt>
      <trkpt lat="44.07077" lon="3.30872">
        <ele>811.9</ele>
        <time>2020-08-26T11:20:45.000Z</time>
      </trkpt>
      <trkpt lat="44.0707" lon="3.30863">
        <ele>802</ele>
        <time>2020-08-26T11:20:35.000Z</time>
      </trkpt>
      <trkpt lat="44.07057" lon="3.30851">
        <ele>809.8</ele>
        <time>2020-08-26T11:20:45.000Z</time>
      </trkpt>
      <trkpt lat="44.07046" lon="3.30835">
        <ele>801</ele>
        <time>2020-08-26T11:20:35.000Z</time>
      </trkpt>
      <trkpt lat="44.07037" lon="3.3083">
        <ele>813.6</ele>
        <time>2020-08-26T11:20:45.000Z</time>
      </trkpt>
      <trkpt lat="44.07016" lon="3.30826">
        <ele>802</ele>
        <time>2020-08-26T11:20:35.000Z</time>
      </trkpt>
      <trkpt lat="44.07006" lon="3.30825">
        <ele>810.9</ele>
        <time>2020-08-26T11:20:45.000Z</time>
      </trkpt>
      <trkpt lat="44.06998" lon="3.30819">
        <ele>810.9</ele>
        <time>2020-08-26T11:20:55.000Z</time>
      </trkpt>
      <trkpt lat="44.06991" lon="3.30807">
        <ele>804</ele>
        <time>2020-08-26T11:20:35.000Z</time>
      </trkpt>
      <trkpt lat="44.06982" lon="3.30798">
        <ele>812.3</ele>
        <time>2020-08-26T11:20:45.000Z</time>
      </trkpt>
      <trkpt lat="44.06944" lon="3.30748">
        <ele>804</ele>
        <time>2020-08-26T11:20:35.000Z</time>
      </trkpt>
      <trkpt lat="44.06936" lon="3.3074">
        <ele>813</ele>
        <time>2020-08-26T11:20:45.000Z</time>
      </trkpt>
      <trkpt lat="44.06925" lon="3.30732">
        <ele>801</ele>
        <time>2020-08-26T11:20:35.000Z</time>
      </trkpt>
      <trkpt lat="44.06896" lon="3.30719">
        <ele>799</ele>
        <time>2020-08-26T11:20:35.000Z</time>
      </trkpt>
      <trkpt lat="44.06884" lon="3.30718">
        <ele>811.5</ele>
        <time>2020-08-26T11:20:45.000Z</time>
      </trkpt>
      <trkpt lat="44.06873" lon="3.30723">
        <ele>798</ele>
        <time>2020-08-26T11:20:35.000Z</time>
      </trkpt>
      <trkpt lat="44.06858" lon="3.30716">
        <ele>807.4</ele>
        <time>2020-08-26T11:20:45.000Z</time>
      </trkpt>
      <trkpt lat="44.06836" lon="3.30719">
        <ele>791</ele>
        <time>2020-08-26T11:20:35.000Z</time>
      </trkpt>
      <trkpt lat="44.06827" lon="3.30725">
        <ele>799.9</ele>
        <time>2020-08-26T11:20:45.000Z</time>
      </trkpt>
      <trkpt lat="44.06816" lon="3.30726">
        <ele>786</ele>
        <time>2020-08-26T11:20:35.000Z</time>
      </trkpt>
      <trkpt lat="44.06791" lon="3.30708">
        <ele>785</ele>
        <time>2020-08-26T11:20:35.000Z</time>
      </trkpt>
      <trkpt lat="44.06776" lon="3.30707">
        <ele>794.8</ele>
        <time>2020-08-26T11:20:45.000Z</time>
      </trkpt>
      <trkpt lat="44.06759" lon="3.30708">
        <ele>780</ele>
        <time>2020-08-26T11:20:35.000Z</time>
      </trkpt>
      <trkpt lat="44.06742" lon="3.307">
        <ele>789.1</ele>
        <time>2020-08-26T11:20:45.000Z</time>
      </trkpt>
      <trkpt lat="44.06723" lon="3.30697">
        <ele>778</ele>
        <time>2020-08-26T11:20:35.000Z</time>
      </trkpt>
      <trkpt lat="44.06712" lon="3.30699">
        <ele>784.2</ele>
        <time>2020-08-26T11:20:45.000Z</time>
      </trkpt>
      <trkpt lat="44.06694" lon="3.30698">
        <ele>776</ele>
        <time>2020-08-26T11:20:35.000Z</time>
      </trkpt>
      <trkpt lat="44.06675" lon="3.30704">
        <ele>771</ele>
        <time>2020-08-26T11:20:35.000Z</time>
      </trkpt>
      <trkpt lat="44.06662" lon="3.30711">
        <ele>774.8</ele>
        <time>2020-08-26T11:20:45.000Z</time>
      </trkpt>
      <trkpt lat="44.06646" lon="3.30713">
        <ele>761</ele>
        <time>2020-08-26T11:20:35.000Z</time>
      </trkpt>
      <trkpt lat="44.0663" lon="3.30713">
        <ele>768.4</ele>
        <time>2020-08-26T11:20:45.000Z</time>
      </trkpt>
      <trkpt lat="44.0661" lon="3.30707">
        <ele>750</ele>
        <time>2020-08-26T11:20:35.000Z</time>
      </trkpt>
      <trkpt lat="44.06596" lon="3.30707">
        <ele>761.3</ele>
        <time>2020-08-26T11:20:45.000Z</time>
      </trkpt>
      <trkpt lat="44.06609" lon="3.30696">
        <ele>750</ele>
        <time>2020-08-26T11:20:35.000Z</time>
      </trkpt>
      <trkpt lat="44.06622" lon="3.30692">
        <ele>766.2</ele>
        <time>2020-08-26T11:20:45.000Z</time>
      </trkpt>
      <trkpt lat="44.06634" lon="3.30679">
        <ele>748</ele>
        <time>2020-08-26T11:20:35.000Z</time>
      </trkpt>
      <trkpt lat="44.06655" lon="3.30654">
        <ele>752</ele>
        <time>2020-08-26T11:20:35.000Z</time>
      </trkpt>
      <trkpt lat="44.06667" lon="3.30652">
        <ele>769.4</ele>
        <time>2020-08-26T11:20:45.000Z</time>
      </trkpt>
      <trkpt lat="44.06679" lon="3.30651">
        <ele>756</ele>
        <time>2020-08-26T11:20:35.000Z</time>
      </trkpt>
      <trkpt lat="44.06694" lon="3.30643">
        <ele>770.4</ele>
        <time>2020-08-26T11:20:45.000Z</time>
      </trkpt>
      <trkpt lat="44.06708" lon="3.30645">
        <ele>757</ele>
        <time>2020-08-26T11:20:35.000Z</time>
      </trkpt>
      <trkpt lat="44.0672" lon="3.30638">
        <ele>770.5</ele>
        <time>2020-08-26T11:20:45.000Z</time>
      </trkpt>
      <trkpt lat="44.06732" lon="3.30628">
        <ele>756</ele>
        <time>2020-08-26T11:20:35.000Z</time>
      </trkpt>
      <trkpt lat="44.0675" lon="3.30612">
        <ele>755</ele>
        <time>2020-08-26T11:20:35.000Z</time>
      </trkpt>
      <trkpt lat="44.06763" lon="3.30596">
        <ele>760.4</ele>
        <time>2020-08-26T11:20:45.000Z</time>
      </trkpt>
      <trkpt lat="44.06773" lon="3.3059">
        <ele>744</ele>
        <time>2020-08-26T11:20:35.000Z</time>
      </trkpt>
      <trkpt lat="44.06749" lon="3.30592">
        <ele>743</ele>
        <time>2020-08-26T11:20:35.000Z</time>
      </trkpt>
      <trkpt lat="44.06732" lon="3.30592">
        <ele>750.6</ele>
        <time>2020-08-26T11:20:45.000Z</time>
      </trkpt>
      <trkpt lat="44.06705" lon="3.30589">
        <ele>737</ele>
        <time>2020-08-26T11:20:35.000Z</time>
      </trkpt>
      <trkpt lat="44.0669" lon="3.30586">
        <ele>742.2</ele>
        <time>2020-08-26T11:20:45.000Z</time>
      </trkpt>
      <trkpt lat="44.06678" lon="3.30589">
        <ele>736</ele>
        <time>2020-08-26T11:20:35.000Z</time>
      </trkpt>
      <trkpt lat="44.06657" lon="3.30602">
        <ele>736</ele>
        <time>2020-08-26T11:20:35.000Z</time>
      </trkpt>
      <trkpt lat="44.06643" lon="3.30609">
        <ele>733.8</ele>
        <time>2020-08-26T11:20:45.000Z</time>
      </trkpt>
      <trkpt lat="44.06614" lon="3.30626">
        <ele>729</ele>
        <time>2020-08-26T11:20:35.000Z</time>
      </trkpt>
      <trkpt lat="44.06586" lon="3.30634">
        <ele>723</ele>
        <time>2020-08-26T11:20:35.000Z</time>
      </trkpt>
      <trkpt lat="44.06566" lon="3.30638">
        <ele>709</ele>
        <time>2020-08-26T11:20:35.000Z</time>
      </trkpt>
      <trkpt lat="44.06549" lon="3.3064">
        <ele>723.3</ele>
        <time>2020-08-26T11:20:45.000Z</time>
      </trkpt>
      <trkpt lat="44.06533" lon="3.30631">
        <ele>707</ele>
        <time>2020-08-26T11:20:35.000Z</time>
      </trkpt>
      <trkpt lat="44.06522" lon="3.30621">
        <ele>716.7</ele>
        <time>2020-08-26T11:20:45.000Z</time>
      </trkpt>
      <trkpt lat="44.0651" lon="3.30615">
        <ele>706</ele>
        <time>2020-08-26T11:20:35.000Z</time>
      </trkpt>
      <trkpt lat="44.06499" lon="3.30611">
        <ele>715.8</ele>
        <time>2020-08-26T11:20:45.000Z</time>
      </trkpt>
      <trkpt lat="44.06482" lon="3.30614">
        <ele>705</ele>
        <time>2020-08-26T11:20:35.000Z</time>
      </trkpt>
      <trkpt lat="44.06468" lon="3.30621">
        <ele>711.7</ele>
        <time>2020-08-26T11:20:45.000Z</time>
      </trkpt>
      <trkpt lat="44.06457" lon="3.30625">
        <ele>702</ele>
        <time>2020-08-26T11:20:35.000Z</time>
      </trkpt>
      <trkpt lat="44.06444" lon="3.30642">
        <ele>706.3</ele>
        <time>2020-08-26T11:20:45.000Z</time>
      </trkpt>
      <trkpt lat="44.06445" lon="3.3066">
        <ele>701</ele>
        <time>2020-08-26T11:20:35.000Z</time>
      </trkpt>
      <trkpt lat="44.06455" lon="3.30696">
        <ele>696</ele>
        <time>2020-08-26T11:20:35.000Z</time>
      </trkpt>
      <trkpt lat="44.06459" lon="3.30718">
        <ele>694.3</ele>
        <time>2020-08-26T11:20:45.000Z</time>
      </trkpt>
      <trkpt lat="44.06465" lon="3.30737">
        <ele>695</ele>
        <time>2020-08-26T11:20:35.000Z</time>
      </trkpt>
      <trkpt lat="44.06474" lon="3.30774">
        <ele>686</ele>
        <time>2020-08-26T11:20:35.000Z</time>
      </trkpt>
      <trkpt lat="44.0647" lon="3.30777">
        <ele>683.1</ele>
        <time>2020-08-26T11:20:45.000Z</time>
      </trkpt>
      <trkpt lat="44.0646" lon="3.30769">
        <ele>680.2</ele>
        <time>2020-08-26T11:20:55.000Z</time>
      </trkpt>
      <trkpt lat="44.06448" lon="3.30762">
        <ele>677</ele>
        <time>2020-08-26T11:20:35.000Z</time>
      </trkpt>
      <trkpt lat="44.06438" lon="3.30754">
        <ele>674.2</ele>
        <time>2020-08-26T11:20:45.000Z</time>
      </trkpt>
      <trkpt lat="44.06429" lon="3.30749">
        <ele>665</ele>
        <time>2020-08-26T11:20:35.000Z</time>
      </trkpt>
      <trkpt lat="44.0642" lon="3.30743">
        <ele>670.6</ele>
        <time>2020-08-26T11:20:45.000Z</time>
      </trkpt>
      <trkpt lat="44.06406" lon="3.30736">
        <ele>663</ele>
        <time>2020-08-26T11:20:35.000Z</time>
      </trkpt>
      <trkpt lat="44.06396" lon="3.30733">
        <ele>664.8</ele>
        <time>2020-08-26T11:20:45.000Z</time>
      </trkpt>
      <trkpt lat="44.06367" lon="3.30727">
        <ele>658</ele>
        <time>2020-08-26T11:20:35.000Z</time>
      </trkpt>
      <trkpt lat="44.06349" lon="3.30717">
        <ele>655</ele>
        <time>2020-08-26T11:20:35.000Z</time>
      </trkpt>
      <trkpt lat="44.06334" lon="3.30713">
        <ele>655.5</ele>
        <time>2020-08-26T11:20:45.000Z</time>
      </trkpt>
      <trkpt lat="44.06308" lon="3.30716">
        <ele>649</ele>
        <time>2020-08-26T11:20:35.000Z</time>
      </trkpt>
      <trkpt lat="44.06281" lon="3.30713">
        <ele>639</ele>
        <time>2020-08-26T11:20:35.000Z</time>
      </trkpt>
      <trkpt lat="44.06261" lon="3.30716">
        <ele>623</ele>
        <time>2020-08-26T11:20:35.000Z</time>
      </trkpt>
      <trkpt lat="44.06252" lon="3.30715">
        <ele>638.6</ele>
        <time>2020-08-26T11:20:45.000Z</time>
      </trkpt>
      <trkpt lat="44.06243" lon="3.30712">
        <ele>637</ele>
        <time>2020-08-26T11:20:55.000Z</time>
      </trkpt>
      <trkpt lat="44.06247" lon="3.30727">
        <ele>623</ele>
        <time>2020-08-26T11:20:35.000Z</time>
      </trkpt>
      <trkpt lat="44.06258" lon="3.3074">
        <ele>628.9</ele>
        <time>2020-08-26T11:20:45.000Z</time>
      </trkpt>
      <trkpt lat="44.06266" lon="3.30747">
        <ele>622</ele>
        <time>2020-08-26T11:20:35.000Z</time>
      </trkpt>
      <trkpt lat="44.06244" lon="3.30749">
        <ele>622</ele>
        <time>2020-08-26T11:20:35.000Z</time>
      </trkpt>
      <trkpt lat="44.06231" lon="3.30743">
        <ele>622.1</ele>
        <time>2020-08-26T11:20:45.000Z</time>
      </trkpt>
      <trkpt lat="44.06229" lon="3.3075">
        <ele>619.2</ele>
        <time>2020-08-26T11:20:55.000Z</time>
      </trkpt>
      <trkpt lat="44.06216" lon="3.30748">
        <ele>612</ele>
        <time>2020-08-26T11:20:35.000Z</time>
      </trkpt>
      <trkpt lat="44.06199" lon="3.30743">
        <ele>614.2</ele>
        <time>2020-08-26T11:20:45.000Z</time>
      </trkpt>
      <trkpt lat="44.06204" lon="3.30757">
        <ele>601</ele>
        <time>2020-08-26T11:20:35.000Z</time>
      </trkpt>
      <trkpt lat="44.06204" lon="3.30764">
        <ele>609.2</ele>
        <time>2020-08-26T11:20:45.000Z</time>
      </trkpt>
      <trkpt lat="44.06186" lon="3.3076">
        <ele>599</ele>
        <time>2020-08-26T11:20:35.000Z</time>
      </trkpt>
      <trkpt lat="44.06191" lon="3.3078">
        <ele>601.5</ele>
        <time>2020-08-26T11:20:45.000Z</time>
      </trkpt>
      <trkpt lat="44.06199" lon="3.30786">
        <ele>597</ele>
        <time>2020-08-26T11:20:35.000Z</time>
      </trkpt>
      <trkpt lat="44.06191" lon="3.30793">
        <ele>596.4</ele>
        <time>2020-08-26T11:20:45.000Z</time>
      </trkpt>
      <trkpt lat="44.06176" lon="3.30799">
        <ele>581</ele>
        <time>2020-08-26T11:20:35.000Z</time>
      </trkpt>
      <trkpt lat="44.06163" lon="3.30797">
        <ele>589.8</ele>
        <time>2020-08-26T11:20:45.000Z</time>
      </trkpt>
      <trkpt lat="44.06152" lon="3.30788">
        <ele>569</ele>
        <time>2020-08-26T11:20:35.000Z</time>
      </trkpt>
      <trkpt lat="44.06147" lon="3.30774">
        <ele>588.1</ele>
        <time>2020-08-26T11:20:45.000Z</time>
      </trkpt>
      <trkpt lat="44.06141" lon="3.30792">
        <ele>569</ele>
        <time>2020-08-26T11:20:35.000Z</time>
      </trkpt>
      <trkpt lat="44.06131" lon="3.30802">
        <ele>575.8</ele>
        <time>2020-08-26T11:20:45.000Z</time>
      </trkpt>
      <trkpt lat="44.06129" lon="3.3082">
        <ele>560</ele>
        <time>2020-08-26T11:20:35.000Z</time>
      </trkpt>
      <trkpt lat="44.06135" lon="3.30836">
        <ele>570.9</ele>
        <time>2020-08-26T11:20:45.000Z</time>
      </trkpt>
      <trkpt lat="44.06138" lon="3.30853">
        <ele>551</ele>
        <time>2020-08-26T11:20:35.000Z</time>
      </trkpt>
      <trkpt lat="44.06139" lon="3.30872">
        <ele>562.1</ele>
        <time>2020-08-26T11:20:45.000Z</time>
      </trkpt>
      <trkpt lat="44.06135" lon="3.30893">
        <ele>550</ele>
        <time>2020-08-26T11:20:35.000Z</time>
      </trkpt>
      <trkpt lat="44.06129" lon="3.30904">
        <ele>548.4</ele>
        <time>2020-08-26T11:20:45.000Z</time>
      </trkpt>
      <trkpt lat="44.06143" lon="3.3091">
        <ele>549</ele>
        <time>2020-08-26T11:20:35.000Z</time>
      </trkpt>
      <trkpt lat="44.06158" lon="3.30911">
        <ele>547.5</ele>
        <time>2020-08-26T11:20:45.000Z</time>
      </trkpt>
      <trkpt lat="44.06167" lon="3.30916">
        <ele>549</ele>
        <time>2020-08-26T11:20:35.000Z</time>
      </trkpt>
      <trkpt lat="44.0618" lon="3.30921">
        <ele>542.6</ele>
        <time>2020-08-26T11:20:45.000Z</time>
      </trkpt>
      <trkpt lat="44.06192" lon="3.30931">
        <ele>544</ele>
        <time>2020-08-26T11:20:35.000Z</time>
      </trkpt>
      <trkpt lat="44.06205" lon="3.30937">
        <ele>534.8</ele>
        <time>2020-08-26T11:20:45.000Z</time>
      </trkpt>
      <trkpt lat="44.06213" lon="3.30943">
        <ele>540</ele>
        <time>2020-08-26T11:20:35.000Z</time>
      </trkpt>
      <trkpt lat="44.06214" lon="3.30958">
        <ele>525.8</ele>
        <time>2020-08-26T11:20:45.000Z</time>
      </trkpt>
      <trkpt lat="44.06199" lon="3.3097">
        <ele>534</ele>
        <time>2020-08-26T11:20:35.000Z</time>
      </trkpt>
      <trkpt lat="44.0619" lon="3.30972">
        <ele>519.3</ele>
        <time>2020-08-26T11:20:45.000Z</time>
      </trkpt>
      <trkpt lat="44.06174" lon="3.30977">
        <ele>528</ele>
        <time>2020-08-26T11:20:35.000Z</time>
      </trkpt>
      <trkpt lat="44.06162" lon="3.30979">
        <ele>516.5</ele>
        <time>2020-08-26T11:20:45.000Z</time>
      </trkpt>
      <trkpt lat="44.06148" lon="3.30976">
        <ele>528</ele>
        <time>2020-08-26T11:20:35.000Z</time>
      </trkpt>
      <trkpt lat="44.06112" lon="3.30987">
        <ele>508</ele>
        <time>2020-08-26T11:20:35.000Z</time>
      </trkpt>
      <trkpt lat="44.06101" lon="3.30985">
        <ele>503.1</ele>
        <time>2020-08-26T11:20:45.000Z</time>
      </trkpt>
      <trkpt lat="44.06091" lon="3.30998">
        <ele>477</ele>
        <time>2020-08-26T11:20:35.000Z</time>
      </trkpt>
      <trkpt lat="44.06079" lon="3.31007">
        <ele>489.2</ele>
        <time>2020-08-26T11:20:45.000Z</time>
      </trkpt>
      <trkpt lat="44.06066" lon="3.31015">
        <ele>464</ele>
        <time>2020-08-26T11:20:35.000Z</time>
      </trkpt>
      <trkpt lat="44.06054" lon="3.31021">
        <ele>483.7</ele>
        <time>2020-08-26T11:20:45.000Z</time>
      </trkpt>
      <trkpt lat="44.06043" lon="3.31033">
        <ele>459</ele>
        <time>2020-08-26T11:20:35.000Z</time>
      </trkpt>
      <trkpt lat="44.06031" lon="3.31031">
        <ele>463.6</ele>
        <time>2020-08-26T11:20:45.000Z</time>
      </trkpt>
      <trkpt lat="44.06028" lon="3.31047">
        <ele>459</ele>
        <time>2020-08-26T11:20:35.000Z</time>
      </trkpt>
      <trkpt lat="44.06016" lon="3.31055">
        <ele>455.2</ele>
        <time>2020-08-26T11:20:45.000Z</time>
      </trkpt>
      <trkpt lat="44.06007" lon="3.31045">
        <ele>459</ele>
        <time>2020-08-26T11:20:35.000Z</time>
      </trkpt>
      <trkpt lat="44.06006" lon="3.31022">
        <ele>456.5</ele>
        <time>2020-08-26T11:20:45.000Z</time>
      </trkpt>
      <trkpt lat="44.05998" lon="3.30997">
        <ele>456</ele>
        <time>2020-08-26T11:20:35.000Z</time>
      </trkpt>
      <trkpt lat="44.05986" lon="3.3097">
        <ele>458</ele>
        <time>2020-08-26T11:20:35.000Z</time>
      </trkpt>
      <trkpt lat="44.05979" lon="3.30939">
        <ele>460</ele>
        <time>2020-08-26T11:20:35.000Z</time>
      </trkpt>
      <trkpt lat="44.05978" lon="3.30923">
        <ele>452.2</ele>
        <time>2020-08-26T11:20:45.000Z</time>
      </trkpt>
      <trkpt lat="44.05976" lon="3.30907">
        <ele>461</ele>
        <time>2020-08-26T11:20:35.000Z</time>
      </trkpt>
      <trkpt lat="44.05976" lon="3.30894">
        <ele>452.5</ele>
        <time>2020-08-26T11:20:45.000Z</time>
      </trkpt>
      <trkpt lat="44.05981" lon="3.30864">
        <ele>461</ele>
        <time>2020-08-26T11:20:35.000Z</time>
      </trkpt>
      <trkpt lat="44.05986" lon="3.3085">
        <ele>457.2</ele>
        <time>2020-08-26T11:20:45.000Z</time>
      </trkpt>
      <trkpt lat="44.05983" lon="3.30833">
        <ele>459</ele>
        <time>2020-08-26T11:20:35.000Z</time>
      </trkpt>
      <trkpt lat="44.0597" lon="3.30802">
        <ele>458</ele>
        <time>2020-08-26T11:20:35.000Z</time>
      </trkpt>
      <trkpt lat="44.05954" lon="3.30796">
        <ele>453.1</ele>
        <time>2020-08-26T11:20:45.000Z</time>
      </trkpt>
      <trkpt lat="44.05948" lon="3.30783">
        <ele>452</ele>
        <time>2020-08-26T11:20:35.000Z</time>
      </trkpt>
      <trkpt lat="44.05945" lon="3.30764">
        <ele>451.2</ele>
        <time>2020-08-26T11:20:45.000Z</time>
      </trkpt>
      <trkpt lat="44.05937" lon="3.3075">
        <ele>449</ele>
        <time>2020-08-26T11:20:35.000Z</time>
      </trkpt>
      <trkpt lat="44.05931" lon="3.30736">
        <ele>451.8</ele>
        <time>2020-08-26T11:20:45.000Z</time>
      </trkpt>
      <trkpt lat="44.05925" lon="3.30714">
        <ele>449</ele>
        <time>2020-08-26T11:20:35.000Z</time>
      </trkpt>
      <trkpt lat="44.0592" lon="3.30698">
        <ele>449.8</ele>
        <time>2020-08-26T11:20:45.000Z</time>
      </trkpt>
      <trkpt lat="44.05918" lon="3.3068">
        <ele>447</ele>
        <time>2020-08-26T11:20:35.000Z</time>
      </trkpt>
      <trkpt lat="44.05917" lon="3.30661">
        <ele>451</ele>
        <time>2020-08-26T11:20:45.000Z</time>
      </trkpt>
      <trkpt lat="44.05914" lon="3.30647">
        <ele>445</ele>
        <time>2020-08-26T11:20:35.000Z</time>
      </trkpt>
      <trkpt lat="44.05912" lon="3.30629">
        <ele>450.2</ele>
        <time>2020-08-26T11:20:45.000Z</time>
      </trkpt>
      <trkpt lat="44.05917" lon="3.30612">
        <ele>443</ele>
        <time>2020-08-26T11:20:35.000Z</time>
      </trkpt>
      <trkpt lat="44.05923" lon="3.30596">
        <ele>450.6</ele>
        <time>2020-08-26T11:20:45.000Z</time>
      </trkpt>
      <trkpt lat="44.05929" lon="3.30568">
        <ele>443</ele>
        <time>2020-08-26T11:20:35.000Z</time>
      </trkpt>
      <trkpt lat="44.0594" lon="3.30537">
        <ele>444</ele>
        <time>2020-08-26T11:20:35.000Z</time>
      </trkpt>
      <trkpt lat="44.05948" lon="3.30519">
        <ele>449.7</ele>
        <time>2020-08-26T11:20:45.000Z</time>
      </trkpt>
      <trkpt lat="44.05965" lon="3.3049">
        <ele>444</ele>
        <time>2020-08-26T11:20:35.000Z</time>
      </trkpt>
      <trkpt lat="44.0597" lon="3.30479">
        <ele>449.4</ele>
        <time>2020-08-26T11:20:45.000Z</time>
      </trkpt>
      <trkpt lat="44.05968" lon="3.30456">
        <ele>443</ele>
        <time>2020-08-26T11:20:35.000Z</time>
      </trkpt>
      <trkpt lat="44.0596" lon="3.3044">
        <ele>448.6</ele>
        <time>2020-08-26T11:20:45.000Z</time>
      </trkpt>
      <trkpt lat="44.0595" lon="3.30451">
        <ele>443</ele>
        <time>2020-08-26T11:20:35.000Z</time>
      </trkpt>
      <trkpt lat="44.0594" lon="3.3046">
        <ele>451.3</ele>
        <time>2020-08-26T11:20:45.000Z</time>
      </trkpt>
      <trkpt lat="44.05927" lon="3.30452">
        <ele>446</ele>
        <time>2020-08-26T11:20:35.000Z</time>
      </trkpt>
      <trkpt lat="44.05916" lon="3.30437">
        <ele>460</ele>
        <time>2020-08-26T11:20:45.000Z</time>
      </trkpt>
      <trkpt lat="44.05906" lon="3.30422">
        <ele>462</ele>
        <time>2020-08-26T11:20:35.000Z</time>
      </trkpt>
      <trkpt lat="44.05897" lon="3.30425">
        <ele>467.7</ele>
        <time>2020-08-26T11:20:45.000Z</time>
      </trkpt>
      <trkpt lat="44.05895" lon="3.30444">
        <ele>463</ele>
        <time>2020-08-26T11:20:35.000Z</time>
      </trkpt>
      <trkpt lat="44.05892" lon="3.3046">
        <ele>473.1</ele>
        <time>2020-08-26T11:20:45.000Z</time>
      </trkpt>
      <trkpt lat="44.05878" lon="3.30439">
        <ele>468</ele>
        <time>2020-08-26T11:20:35.000Z</time>
      </trkpt>
      <trkpt lat="44.05872" lon="3.30402">
        <ele>468</ele>
        <time>2020-08-26T11:20:35.000Z</time>
      </trkpt>
      <trkpt lat="44.05865" lon="3.30388">
        <ele>476.4</ele>
        <time>2020-08-26T11:20:45.000Z</time>
      </trkpt>
      <trkpt lat="44.05862" lon="3.30374">
        <ele>469</ele>
        <time>2020-08-26T11:20:35.000Z</time>
      </trkpt>
      <trkpt lat="44.05853" lon="3.30359">
        <ele>478.9</ele>
        <time>2020-08-26T11:20:45.000Z</time>
      </trkpt>
      <trkpt lat="44.05846" lon="3.30346">
        <ele>479</ele>
        <time>2020-08-26T11:20:35.000Z</time>
      </trkpt>
      <trkpt lat="44.0583" lon="3.30333">
        <ele>486.4</ele>
        <time>2020-08-26T11:20:45.000Z</time>
      </trkpt>
      <trkpt lat="44.05807" lon="3.30325">
        <ele>492</ele>
        <time>2020-08-26T11:20:35.000Z</time>
      </trkpt>
      <trkpt lat="44.05795" lon="3.30328">
        <ele>503.3</ele>
        <time>2020-08-26T11:20:45.000Z</time>
      </trkpt>
      <trkpt lat="44.0579" lon="3.30344">
        <ele>495</ele>
        <time>2020-08-26T11:20:35.000Z</time>
      </trkpt>
      <trkpt lat="44.05781" lon="3.30357">
        <ele>520.6</ele>
        <time>2020-08-26T11:20:45.000Z</time>
      </trkpt>
      <trkpt lat="44.05774" lon="3.30352">
        <ele>502</ele>
        <time>2020-08-26T11:20:35.000Z</time>
      </trkpt>
      <trkpt lat="44.05768" lon="3.30339">
        <ele>518.7</ele>
        <time>2020-08-26T11:20:45.000Z</time>
      </trkpt>
      <trkpt lat="44.05765" lon="3.30358">
        <ele>502</ele>
        <time>2020-08-26T11:20:35.000Z</time>
      </trkpt>
      <trkpt lat="44.05766" lon="3.30375">
        <ele>530.2</ele>
        <time>2020-08-26T11:20:45.000Z</time>
      </trkpt>
      <trkpt lat="44.05774" lon="3.30398">
        <ele>507</ele>
        <time>2020-08-26T11:20:35.000Z</time>
      </trkpt>
      <trkpt lat="44.05775" lon="3.30418">
        <ele>529.5</ele>
        <time>2020-08-26T11:20:45.000Z</time>
      </trkpt>
      <trkpt lat="44.05784" lon="3.30437">
        <ele>514</ele>
        <time>2020-08-26T11:20:35.000Z</time>
      </trkpt>
      <trkpt lat="44.05796" lon="3.30453">
        <ele>529.2</ele>
        <time>2020-08-26T11:20:45.000Z</time>
      </trkpt>
      <trkpt lat="44.05801" lon="3.30484">
        <ele>523</ele>
        <time>2020-08-26T11:20:35.000Z</time>
      </trkpt>
      <trkpt lat="44.05802" lon="3.30505">
        <ele>533.3</ele>
        <time>2020-08-26T11:20:45.000Z</time>
      </trkpt>
      <trkpt lat="44.05793" lon="3.30511">
        <ele>524</ele>
        <time>2020-08-26T11:20:35.000Z</time>
      </trkpt>
      <trkpt lat="44.05772" lon="3.30519">
        <ele>524</ele>
        <time>2020-08-26T11:20:35.000Z</time>
      </trkpt>
      <trkpt lat="44.05756" lon="3.30514">
        <ele>531.8</ele>
        <time>2020-08-26T11:20:45.000Z</time>
      </trkpt>
      <trkpt lat="44.05757" lon="3.30535">
        <ele>517</ele>
        <time>2020-08-26T11:20:35.000Z</time>
      </trkpt>
      <trkpt lat="44.05751" lon="3.30556">
        <ele>528.5</ele>
        <time>2020-08-26T11:20:45.000Z</time>
      </trkpt>
      <trkpt lat="44.0573" lon="3.30558">
        <ele>513</ele>
        <time>2020-08-26T11:20:35.000Z</time>
      </trkpt>
      <trkpt lat="44.05734" lon="3.30526">
        <ele>514</ele>
        <time>2020-08-26T11:20:35.000Z</time>
      </trkpt>
      <trkpt lat="44.0574" lon="3.30539">
        <ele>520.9</ele>
        <time>2020-08-26T11:20:45.000Z</time>
      </trkpt>
      <trkpt lat="44.05749" lon="3.30552">
        <ele>516</ele>
        <time>2020-08-26T11:20:35.000Z</time>
      </trkpt>
      <trkpt lat="44.0575" lon="3.30568">
        <ele>527.6</ele>
        <time>2020-08-26T11:20:45.000Z</time>
      </trkpt>
      <trkpt lat="44.05749" lon="3.30589">
        <ele>516</ele>
        <time>2020-08-26T11:20:35.000Z</time>
      </trkpt>
      <trkpt lat="44.05744" lon="3.30605">
        <ele>525.6</ele>
        <time>2020-08-26T11:20:45.000Z</time>
      </trkpt>
      <trkpt lat="44.05721" lon="3.30611">
        <ele>510</ele>
        <time>2020-08-26T11:20:35.000Z</time>
      </trkpt>
      <trkpt lat="44.05701" lon="3.3062">
        <ele>505</ele>
        <time>2020-08-26T11:20:35.000Z</time>
      </trkpt>
      <trkpt lat="44.05674" lon="3.30643">
        <ele>500</ele>
        <time>2020-08-26T11:20:35.000Z</time>
      </trkpt>
      <trkpt lat="44.05662" lon="3.3065">
        <ele>506.7</ele>
        <time>2020-08-26T11:20:45.000Z</time>
      </trkpt>
      <trkpt lat="44.05652" lon="3.30658">
        <ele>486</ele>
        <time>2020-08-26T11:20:35.000Z</time>
      </trkpt>
      <trkpt lat="44.05643" lon="3.30653">
        <ele>498.6</ele>
        <time>2020-08-26T11:20:45.000Z</time>
      </trkpt>
      <trkpt lat="44.05649" lon="3.30638">
        <ele>486</ele>
        <time>2020-08-26T11:20:35.000Z</time>
      </trkpt>
      <trkpt lat="44.05654" lon="3.30621">
        <ele>492.9</ele>
        <time>2020-08-26T11:20:45.000Z</time>
      </trkpt>
      <trkpt lat="44.05656" lon="3.30584">
        <ele>478</ele>
        <time>2020-08-26T11:20:35.000Z</time>
      </trkpt>
      <trkpt lat="44.05654" lon="3.30545">
        <ele>465</ele>
        <time>2020-08-26T11:20:35.000Z</time>
      </trkpt>
      <trkpt lat="44.05657" lon="3.30519">
        <ele>475</ele>
        <time>2020-08-26T11:20:45.000Z</time>
      </trkpt>
      <trkpt lat="44.05646" lon="3.30521">
        <ele>465</ele>
        <time>2020-08-26T11:20:35.000Z</time>
      </trkpt>
      <trkpt lat="44.0564" lon="3.30538">
        <ele>470.6</ele>
        <time>2020-08-26T11:20:45.000Z</time>
      </trkpt>
      <trkpt lat="44.05636" lon="3.3056">
        <ele>473</ele>
        <time>2020-08-26T11:20:35.000Z</time>
      </trkpt>
      <trkpt lat="44.05631" lon="3.3057">
        <ele>474.9</ele>
        <time>2020-08-26T11:20:45.000Z</time>
      </trkpt>
      <trkpt lat="44.05618" lon="3.30577">
        <ele>474</ele>
        <time>2020-08-26T11:20:35.000Z</time>
      </trkpt>
      <trkpt lat="44.05607" lon="3.30591">
        <ele>479.2</ele>
        <time>2020-08-26T11:20:45.000Z</time>
      </trkpt>
      <trkpt lat="44.05593" lon="3.30626">
        <ele>472</ele>
        <time>2020-08-26T11:20:35.000Z</time>
      </trkpt>
      <trkpt lat="44.05591" lon="3.30644">
        <ele>480.6</ele>
        <time>2020-08-26T11:20:45.000Z</time>
      </trkpt>
      <trkpt lat="44.05587" lon="3.30655">
        <ele>470</ele>
        <time>2020-08-26T11:20:35.000Z</time>
      </trkpt>
      <trkpt lat="44.05581" lon="3.30665">
        <ele>480.9</ele>
        <time>2020-08-26T11:20:45.000Z</time>
      </trkpt>
      <trkpt lat="44.05571" lon="3.30687">
        <ele>472</ele>
        <time>2020-08-26T11:20:35.000Z</time>
      </trkpt>
      <trkpt lat="44.05552" lon="3.30714">
        <ele>474</ele>
        <time>2020-08-26T11:20:35.000Z</time>
      </trkpt>
      <trkpt lat="44.05539" lon="3.30728">
        <ele>489.9</ele>
        <time>2020-08-26T11:20:45.000Z</time>
      </trkpt>
      <trkpt lat="44.05529" lon="3.30737">
        <ele>480</ele>
        <time>2020-08-26T11:20:35.000Z</time>
      </trkpt>
      <trkpt lat="44.05522" lon="3.30758">
        <ele>493.4</ele>
        <time>2020-08-26T11:20:45.000Z</time>
      </trkpt>
      <trkpt lat="44.05514" lon="3.30774">
        <ele>486</ele>
        <time>2020-08-26T11:20:35.000Z</time>
      </trkpt>
      <trkpt lat="44.05503" lon="3.30788">
        <ele>495.5</ele>
        <time>2020-08-26T11:20:45.000Z</time>
      </trkpt>
      <trkpt lat="44.05494" lon="3.30806">
        <ele>486</ele>
        <time>2020-08-26T11:20:35.000Z</time>
      </trkpt>
      <trkpt lat="44.05482" lon="3.30819">
        <ele>500.5</ele>
        <time>2020-08-26T11:20:45.000Z</time>
      </trkpt>
      <trkpt lat="44.05469" lon="3.30817">
        <ele>493</ele>
        <time>2020-08-26T11:20:35.000Z</time>
      </trkpt>
      <trkpt lat="44.05465" lon="3.30836">
        <ele>501.5</ele>
        <time>2020-08-26T11:20:45.000Z</time>
      </trkpt>
      <trkpt lat="44.05462" lon="3.30854">
        <ele>497</ele>
        <time>2020-08-26T11:20:35.000Z</time>
      </trkpt>
      <trkpt lat="44.05456" lon="3.30872">
        <ele>509.5</ele>
        <time>2020-08-26T11:20:45.000Z</time>
      </trkpt>
      <trkpt lat="44.05445" lon="3.30861">
        <ele>497</ele>
        <time>2020-08-26T11:20:35.000Z</time>
      </trkpt>
      <trkpt lat="44.05436" lon="3.30853">
        <ele>512.4</ele>
        <time>2020-08-26T11:20:45.000Z</time>
      </trkpt>
      <trkpt lat="44.05442" lon="3.30836">
        <ele>498</ele>
        <time>2020-08-26T11:20:35.000Z</time>
      </trkpt>
      <trkpt lat="44.05451" lon="3.30821">
        <ele>506.9</ele>
        <time>2020-08-26T11:20:45.000Z</time>
      </trkpt>
      <trkpt lat="44.05458" lon="3.30811">
        <ele>507</ele>
        <time>2020-08-26T11:20:35.000Z</time>
      </trkpt>
      <trkpt lat="44.05467" lon="3.30794">
        <ele>505.8</ele>
        <time>2020-08-26T11:20:45.000Z</time>
      </trkpt>
      <trkpt lat="44.05471" lon="3.30769">
        <ele>511</ele>
        <time>2020-08-26T11:20:35.000Z</time>
      </trkpt>
      <trkpt lat="44.05478" lon="3.3075">
        <ele>510.9</ele>
        <time>2020-08-26T11:20:45.000Z</time>
      </trkpt>
      <trkpt lat="44.05483" lon="3.30731">
        <ele>511</ele>
        <time>2020-08-26T11:20:35.000Z</time>
      </trkpt>
      <trkpt lat="44.05489" lon="3.30713">
        <ele>516.6</ele>
        <time>2020-08-26T11:20:45.000Z</time>
      </trkpt>
      <trkpt lat="44.05488" lon="3.307">
        <ele>510</ele>
        <time>2020-08-26T11:20:35.000Z</time>
      </trkpt>
      <trkpt lat="44.05481" lon="3.30684">
        <ele>528.5</ele>
        <time>2020-08-26T11:20:45.000Z</time>
      </trkpt>
      <trkpt lat="44.05474" lon="3.30671">
        <ele>510</ele>
        <time>2020-08-26T11:20:35.000Z</time>
      </trkpt>
      <trkpt lat="44.05472" lon="3.30656">
        <ele>535.9</ele>
        <time>2020-08-26T11:20:45.000Z</time>
      </trkpt>
      <trkpt lat="44.0546" lon="3.30662">
        <ele>517</ele>
        <time>2020-08-26T11:20:35.000Z</time>
      </trkpt>
      <trkpt lat="44.05446" lon="3.30663">
        <ele>546.2</ele>
        <time>2020-08-26T11:20:45.000Z</time>
      </trkpt>
      <trkpt lat="44.05434" lon="3.30667">
        <ele>532</ele>
        <time>2020-08-26T11:20:35.000Z</time>
      </trkpt>
      <trkpt lat="44.05421" lon="3.30673">
        <ele>556</ele>
        <time>2020-08-26T11:20:45.000Z</time>
      </trkpt>
      <trkpt lat="44.05411" lon="3.30681">
        <ele>532</ele>
        <time>2020-08-26T11:20:35.000Z</time>
      </trkpt>
      <trkpt lat="44.05398" lon="3.3071">
        <ele>551</ele>
        <time>2020-08-26T11:20:35.000Z</time>
      </trkpt>
      <trkpt lat="44.05385" lon="3.30733">
        <ele>551</ele>
        <time>2020-08-26T11:20:35.000Z</time>
      </trkpt>
      <trkpt lat="44.05372" lon="3.30759">
        <ele>567</ele>
        <time>2020-08-26T11:20:35.000Z</time>
      </trkpt>
      <trkpt lat="44.05355" lon="3.30768">
        <ele>581.6</ele>
        <time>2020-08-26T11:20:45.000Z</time>
      </trkpt>
      <trkpt lat="44.05335" lon="3.30777">
        <ele>581</ele>
        <time>2020-08-26T11:20:35.000Z</time>
      </trkpt>
      <trkpt lat="44.05314" lon="3.30788">
        <ele>595</ele>
        <time>2020-08-26T11:20:35.000Z</time>
      </trkpt>
      <trkpt lat="44.05292" lon="3.30823">
        <ele>604</ele>
        <time>2020-08-26T11:20:35.000Z</time>
      </trkpt>
      <trkpt lat="44.05269" lon="3.3084">
        <ele>612</ele>
        <time>2020-08-26T11:20:35.000Z</time>
      </trkpt>
      <trkpt lat="44.05237" lon="3.30869">
        <ele>622</ele>
        <time>2020-08-26T11:20:35.000Z</time>
      </trkpt>
      <trkpt lat="44.05237" lon="3.30852">
        <ele>631.9</ele>
        <time>2020-08-26T11:20:45.000Z</time>
      </trkpt>
      <trkpt lat="44.0523" lon="3.30827">
        <ele>625</ele>
        <time>2020-08-26T11:20:35.000Z</time>
      </trkpt>
      <trkpt lat="44.05211" lon="3.30842">
        <ele>625</ele>
        <time>2020-08-26T11:20:35.000Z</time>
      </trkpt>
      <trkpt lat="44.05194" lon="3.30861">
        <ele>638</ele>
        <time>2020-08-26T11:20:35.000Z</time>
      </trkpt>
      <trkpt lat="44.05177" lon="3.30868">
        <ele>652.2</ele>
        <time>2020-08-26T11:20:45.000Z</time>
      </trkpt>
      <trkpt lat="44.05159" lon="3.3089">
        <ele>640</ele>
        <time>2020-08-26T11:20:35.000Z</time>
      </trkpt>
      <trkpt lat="44.05138" lon="3.30903">
        <ele>640</ele>
        <time>2020-08-26T11:20:35.000Z</time>
      </trkpt>
      <trkpt lat="44.05129" lon="3.30903">
        <ele>666.3</ele>
        <time>2020-08-26T11:20:45.000Z</time>
      </trkpt>
      <trkpt lat="44.05123" lon="3.30921">
        <ele>643</ele>
        <time>2020-08-26T11:20:35.000Z</time>
      </trkpt>
      <trkpt lat="44.05111" lon="3.30937">
        <ele>674.2</ele>
        <time>2020-08-26T11:20:45.000Z</time>
      </trkpt>
      <trkpt lat="44.05103" lon="3.30952">
        <ele>649</ele>
        <time>2020-08-26T11:20:35.000Z</time>
      </trkpt>
      <trkpt lat="44.05087" lon="3.30989">
        <ele>670</ele>
        <time>2020-08-26T11:20:35.000Z</time>
      </trkpt>
      <trkpt lat="44.05075" lon="3.30997">
        <ele>688.4</ele>
        <time>2020-08-26T11:20:45.000Z</time>
      </trkpt>
      <trkpt lat="44.0506" lon="3.31003">
        <ele>688</ele>
        <time>2020-08-26T11:20:35.000Z</time>
      </trkpt>
      <trkpt lat="44.05042" lon="3.31014">
        <ele>688</ele>
        <time>2020-08-26T11:20:35.000Z</time>
      </trkpt>
      <trkpt lat="44.05024" lon="3.31019">
        <ele>703.3</ele>
        <time>2020-08-26T11:20:45.000Z</time>
      </trkpt>
      <trkpt lat="44.05017" lon="3.31027">
        <ele>693</ele>
        <time>2020-08-26T11:20:35.000Z</time>
      </trkpt>
      <trkpt lat="44.05012" lon="3.31038">
        <ele>707.4</ele>
        <time>2020-08-26T11:20:45.000Z</time>
      </trkpt>
      <trkpt lat="44.05009" lon="3.31058">
        <ele>700</ele>
        <time>2020-08-26T11:20:35.000Z</time>
      </trkpt>
      <trkpt lat="44.04995" lon="3.31071">
        <ele>711.9</ele>
        <time>2020-08-26T11:20:45.000Z</time>
      </trkpt>
      <trkpt lat="44.04986" lon="3.31074">
        <ele>710</ele>
        <time>2020-08-26T11:20:35.000Z</time>
      </trkpt>
      <trkpt lat="44.04974" lon="3.31084">
        <ele>715.7</ele>
        <time>2020-08-26T11:20:45.000Z</time>
      </trkpt>
      <trkpt lat="44.04963" lon="3.31096">
        <ele>710</ele>
        <time>2020-08-26T11:20:35.000Z</time>
      </trkpt>
      <trkpt lat="44.04955" lon="3.31103">
        <ele>718.4</ele>
        <time>2020-08-26T11:20:45.000Z</time>
      </trkpt>
      <trkpt lat="44.04944" lon="3.3111">
        <ele>712</ele>
        <time>2020-08-26T11:20:35.000Z</time>
      </trkpt>
      <trkpt lat="44.04935" lon="3.31105">
        <ele>721.8</ele>
        <time>2020-08-26T11:20:45.000Z</time>
      </trkpt>
      <trkpt lat="44.04919" lon="3.31092">
        <ele>715</ele>
        <time>2020-08-26T11:20:35.000Z</time>
      </trkpt>
      <trkpt lat="44.04899" lon="3.31108">
        <ele>721</ele>
        <time>2020-08-26T11:20:35.000Z</time>
      </trkpt>
      <trkpt lat="44.04888" lon="3.31112">
        <ele>729</ele>
        <time>2020-08-26T11:20:45.000Z</time>
      </trkpt>
      <trkpt lat="44.04874" lon="3.31119">
        <ele>728</ele>
        <time>2020-08-26T11:20:35.000Z</time>
      </trkpt>
      <trkpt lat="44.04859" lon="3.3113">
        <ele>731.5</ele>
        <time>2020-08-26T11:20:45.000Z</time>
      </trkpt>
      <trkpt lat="44.04832" lon="3.31123">
        <ele>728</ele>
        <time>2020-08-26T11:20:35.000Z</time>
      </trkpt>
      <trkpt lat="44.0482" lon="3.31128">
        <ele>735.8</ele>
        <time>2020-08-26T11:20:45.000Z</time>
      </trkpt>
      <trkpt lat="44.04807" lon="3.31141">
        <ele>730</ele>
        <time>2020-08-26T11:20:35.000Z</time>
      </trkpt>
      <trkpt lat="44.04793" lon="3.31137">
        <ele>738.9</ele>
        <time>2020-08-26T11:20:45.000Z</time>
      </trkpt>
      <trkpt lat="44.04779" lon="3.31145">
        <ele>730</ele>
        <time>2020-08-26T11:20:35.000Z</time>
      </trkpt>
      <trkpt lat="44.04767" lon="3.31147">
        <ele>742.4</ele>
        <time>2020-08-26T11:20:45.000Z</time>
      </trkpt>
      <trkpt lat="44.04735" lon="3.31162">
        <ele>740</ele>
        <time>2020-08-26T11:20:35.000Z</time>
      </trkpt>
      <trkpt lat="44.04721" lon="3.31173">
        <ele>749.5</ele>
        <time>2020-08-26T11:20:45.000Z</time>
      </trkpt>
      <trkpt lat="44.04708" lon="3.31176">
        <ele>744</ele>
        <time>2020-08-26T11:20:35.000Z</time>
      </trkpt>
      <trkpt lat="44.04694" lon="3.31188">
        <ele>753</ele>
        <time>2020-08-26T11:20:45.000Z</time>
      </trkpt>
      <trkpt lat="44.04682" lon="3.31202">
        <ele>751</ele>
        <time>2020-08-26T11:20:35.000Z</time>
      </trkpt>
      <trkpt lat="44.04671" lon="3.31212">
        <ele>755.5</ele>
        <time>2020-08-26T11:20:45.000Z</time>
      </trkpt>
      <trkpt lat="44.04662" lon="3.31225">
        <ele>753</ele>
        <time>2020-08-26T11:20:35.000Z</time>
      </trkpt>
      <trkpt lat="44.04654" lon="3.31232">
        <ele>757.5</ele>
        <time>2020-08-26T11:20:45.000Z</time>
      </trkpt>
      <trkpt lat="44.04644" lon="3.31242">
        <ele>753</ele>
        <time>2020-08-26T11:20:35.000Z</time>
      </trkpt>
      <trkpt lat="44.04632" lon="3.31251">
        <ele>761.4</ele>
        <time>2020-08-26T11:20:45.000Z</time>
      </trkpt>
      <trkpt lat="44.0461" lon="3.31276">
        <ele>753</ele>
        <time>2020-08-26T11:20:35.000Z</time>
      </trkpt>
      <trkpt lat="44.04599" lon="3.31285">
        <ele>766.5</ele>
        <time>2020-08-26T11:20:45.000Z</time>
      </trkpt>
      <trkpt lat="44.04587" lon="3.31292">
        <ele>755</ele>
        <time>2020-08-26T11:20:35.000Z</time>
      </trkpt>
      <trkpt lat="44.04578" lon="3.31296">
        <ele>770.3</ele>
        <time>2020-08-26T11:20:45.000Z</time>
      </trkpt>
      <trkpt lat="44.0457" lon="3.31304">
        <ele>771.2</ele>
        <time>2020-08-26T11:20:55.000Z</time>
      </trkpt>
      <trkpt lat="44.04557" lon="3.31319">
        <ele>764</ele>
        <time>2020-08-26T11:20:35.000Z</time>
      </trkpt>
      <trkpt lat="44.04544" lon="3.31326">
        <ele>774.8</ele>
        <time>2020-08-26T11:20:45.000Z</time>
      </trkpt>
      <trkpt lat="44.04532" lon="3.31331">
        <ele>765</ele>
        <time>2020-08-26T11:20:35.000Z</time>
      </trkpt>
      <trkpt lat="44.0452" lon="3.31337">
        <ele>782.3</ele>
        <time>2020-08-26T11:20:45.000Z</time>
      </trkpt>
      <trkpt lat="44.04513" lon="3.31348">
        <ele>765</ele>
        <time>2020-08-26T11:20:35.000Z</time>
      </trkpt>
      <trkpt lat="44.045" lon="3.31362">
        <ele>786</ele>
        <time>2020-08-26T11:20:45.000Z</time>
      </trkpt>
      <trkpt lat="44.04474" lon="3.31387">
        <ele>773</ele>
        <time>2020-08-26T11:20:35.000Z</time>
      </trkpt>
      <trkpt lat="44.04459" lon="3.31394">
        <ele>791.2</ele>
        <time>2020-08-26T11:20:45.000Z</time>
      </trkpt>
      <trkpt lat="44.04447" lon="3.31402">
        <ele>779</ele>
        <time>2020-08-26T11:20:35.000Z</time>
      </trkpt>
      <trkpt lat="44.04434" lon="3.31415">
        <ele>795</ele>
        <time>2020-08-26T11:20:45.000Z</time>
      </trkpt>
      <trkpt lat="44.04425" lon="3.31427">
        <ele>788</ele>
        <time>2020-08-26T11:20:35.000Z</time>
      </trkpt>
      <trkpt lat="44.04413" lon="3.31437">
        <ele>797.4</ele>
        <time>2020-08-26T11:20:45.000Z</time>
      </trkpt>
      <trkpt lat="44.04406" lon="3.31445">
        <ele>793</ele>
        <time>2020-08-26T11:20:35.000Z</time>
      </trkpt>
      <trkpt lat="44.04395" lon="3.31467">
        <ele>800.9</ele>
        <time>2020-08-26T11:20:45.000Z</time>
      </trkpt>
      <trkpt lat="44.04387" lon="3.31481">
        <ele>795</ele>
        <time>2020-08-26T11:20:35.000Z</time>
      </trkpt>
      <trkpt lat="44.04376" lon="3.31484">
        <ele>803.8</ele>
        <time>2020-08-26T11:20:45.000Z</time>
      </trkpt>
      <trkpt lat="44.04363" lon="3.3149">
        <ele>798</ele>
        <time>2020-08-26T11:20:35.000Z</time>
      </trkpt>
      <trkpt lat="44.04347" lon="3.31503">
        <ele>807.7</ele>
        <time>2020-08-26T11:20:45.000Z</time>
      </trkpt>
      <trkpt lat="44.0433" lon="3.31514">
        <ele>803</ele>
        <time>2020-08-26T11:20:35.000Z</time>
      </trkpt>
      <trkpt lat="44.04323" lon="3.31529">
        <ele>812.2</ele>
        <time>2020-08-26T11:20:45.000Z</time>
      </trkpt>
      <trkpt lat="44.04316" lon="3.3154">
        <ele>809</ele>
        <time>2020-08-26T11:20:35.000Z</time>
      </trkpt>
      <trkpt lat="44.04308" lon="3.3156">
        <ele>815.9</ele>
        <time>2020-08-26T11:20:45.000Z</time>
      </trkpt>
      <trkpt lat="44.04296" lon="3.3157">
        <ele>815</ele>
        <time>2020-08-26T11:20:35.000Z</time>
      </trkpt>
      <trkpt lat="44.04284" lon="3.31569">
        <ele>819.2</ele>
        <time>2020-08-26T11:20:45.000Z</time>
      </trkpt>
      <trkpt lat="44.04273" lon="3.31583">
        <ele>815</ele>
        <time>2020-08-26T11:20:35.000Z</time>
      </trkpt>
      <trkpt lat="44.04251" lon="3.31606">
        <ele>822</ele>
        <time>2020-08-26T11:20:35.000Z</time>
      </trkpt>
      <trkpt lat="44.04239" lon="3.31625">
        <ele>826.4</ele>
        <time>2020-08-26T11:20:45.000Z</time>
      </trkpt>
      <trkpt lat="44.04226" lon="3.31643">
        <ele>826</ele>
        <time>2020-08-26T11:20:35.000Z</time>
      </trkpt>
      <trkpt lat="44.04217" lon="3.31653">
        <ele>829.5</ele>
        <time>2020-08-26T11:20:45.000Z</time>
      </trkpt>
      <trkpt lat="44.04205" lon="3.31662">
        <ele>828</ele>
        <time>2020-08-26T11:20:35.000Z</time>
      </trkpt>
      <trkpt lat="44.04193" lon="3.31669">
        <ele>832.1</ele>
        <time>2020-08-26T11:20:45.000Z</time>
      </trkpt>
      <trkpt lat="44.04174" lon="3.3169">
        <ele>826</ele>
        <time>2020-08-26T11:20:35.000Z</time>
      </trkpt>
      <trkpt lat="44.04168" lon="3.317">
        <ele>832.8</ele>
        <time>2020-08-26T11:20:45.000Z</time>
      </trkpt>
      <trkpt lat="44.04149" lon="3.31725">
        <ele>825</ele>
        <time>2020-08-26T11:20:35.000Z</time>
      </trkpt>
      <trkpt lat="44.04134" lon="3.31734">
        <ele>831.8</ele>
        <time>2020-08-26T11:20:45.000Z</time>
      </trkpt>
      <trkpt lat="44.04125" lon="3.31736">
        <ele>824</ele>
        <time>2020-08-26T11:20:35.000Z</time>
      </trkpt>
      <trkpt lat="44.04108" lon="3.31744">
        <ele>831</ele>
        <time>2020-08-26T11:20:45.000Z</time>
      </trkpt>
      <trkpt lat="44.04101" lon="3.31753">
        <ele>824</ele>
        <time>2020-08-26T11:20:35.000Z</time>
      </trkpt>
      <trkpt lat="44.04077" lon="3.31763">
        <ele>824</ele>
        <time>2020-08-26T11:20:35.000Z</time>
      </trkpt>
      <trkpt lat="44.04067" lon="3.3177">
        <ele>829.4</ele>
        <time>2020-08-26T11:20:45.000Z</time>
      </trkpt>
      <trkpt lat="44.04059" lon="3.31759">
        <ele>822</ele>
        <time>2020-08-26T11:20:35.000Z</time>
      </trkpt>
      <trkpt lat="44.04014" lon="3.31744">
        <ele>820</ele>
        <time>2020-08-26T11:20:35.000Z</time>
      </trkpt>
      <trkpt lat="44.04001" lon="3.31742">
        <ele>826.8</ele>
        <time>2020-08-26T11:20:45.000Z</time>
      </trkpt>
      <trkpt lat="44.03989" lon="3.31744">
        <ele>818</ele>
        <time>2020-08-26T11:20:35.000Z</time>
      </trkpt>
      <trkpt lat="44.03979" lon="3.31743">
        <ele>826.2</ele>
        <time>2020-08-26T11:20:45.000Z</time>
      </trkpt>
      <trkpt lat="44.03955" lon="3.31737">
        <ele>818</ele>
        <time>2020-08-26T11:20:35.000Z</time>
      </trkpt>
      <trkpt lat="44.03945" lon="3.31732">
        <ele>827.6</ele>
        <time>2020-08-26T11:20:45.000Z</time>
      </trkpt>
      <trkpt lat="44.03927" lon="3.31725">
        <ele>818</ele>
        <time>2020-08-26T11:20:35.000Z</time>
      </trkpt>
      <trkpt lat="44.03916" lon="3.31724">
        <ele>830</ele>
        <time>2020-08-26T11:20:45.000Z</time>
      </trkpt>
      <trkpt lat="44.03907" lon="3.31722">
        <ele>819</ele>
        <time>2020-08-26T11:20:35.000Z</time>
      </trkpt>
      <trkpt lat="44.03899" lon="3.31716">
        <ele>832.8</ele>
        <time>2020-08-26T11:20:45.000Z</time>
      </trkpt>
      <trkpt lat="44.03889" lon="3.31714">
        <ele>834.3</ele>
        <time>2020-08-26T11:20:55.000Z</time>
      </trkpt>
      <trkpt lat="44.03866" lon="3.31711">
        <ele>823</ele>
        <time>2020-08-26T11:20:35.000Z</time>
      </trkpt>
      <trkpt lat="44.03855" lon="3.31715">
        <ele>837.7</ele>
        <time>2020-08-26T11:20:45.000Z</time>
      </trkpt>
      <trkpt lat="44.03846" lon="3.31713">
        <ele>828</ele>
        <time>2020-08-26T11:20:35.000Z</time>
      </trkpt>
      <trkpt lat="44.03837" lon="3.31706">
        <ele>839.3</ele>
        <time>2020-08-26T11:20:45.000Z</time>
      </trkpt>
      <trkpt lat="44.03816" lon="3.317">
        <ele>831</ele>
        <time>2020-08-26T11:20:35.000Z</time>
      </trkpt>
      <trkpt lat="44.03798" lon="3.31694">
        <ele>842.3</ele>
        <time>2020-08-26T11:20:45.000Z</time>
      </trkpt>
      <trkpt lat="44.03784" lon="3.31696">
        <ele>831</ele>
        <time>2020-08-26T11:20:35.000Z</time>
      </trkpt>
      <trkpt lat="44.03773" lon="3.31694">
        <ele>843.3</ele>
        <time>2020-08-26T11:20:45.000Z</time>
      </trkpt>
      <trkpt lat="44.03761" lon="3.31686">
        <ele>838</ele>
        <time>2020-08-26T11:20:35.000Z</time>
      </trkpt>
      <trkpt lat="44.03749" lon="3.31685">
        <ele>845.1</ele>
        <time>2020-08-26T11:20:45.000Z</time>
      </trkpt>
      <trkpt lat="44.03729" lon="3.31694">
        <ele>838</ele>
        <time>2020-08-26T11:20:35.000Z</time>
      </trkpt>
      <trkpt lat="44.03718" lon="3.31696">
        <ele>847.1</ele>
        <time>2020-08-26T11:20:45.000Z</time>
      </trkpt>
      <trkpt lat="44.03704" lon="3.31683">
        <ele>838</ele>
        <time>2020-08-26T11:20:35.000Z</time>
      </trkpt>
      <trkpt lat="44.03697" lon="3.31665">
        <ele>847.8</ele>
        <time>2020-08-26T11:20:45.000Z</time>
      </trkpt>
      <trkpt lat="44.03692" lon="3.31649">
        <ele>838</ele>
        <time>2020-08-26T11:20:35.000Z</time>
      </trkpt>
      <trkpt lat="44.03687" lon="3.31637">
        <ele>847.3</ele>
        <time>2020-08-26T11:20:45.000Z</time>
      </trkpt>
      <trkpt lat="44.0368" lon="3.31628">
        <ele>840</ele>
        <time>2020-08-26T11:20:35.000Z</time>
      </trkpt>
      <trkpt lat="44.03667" lon="3.31616">
        <ele>846.5</ele>
        <time>2020-08-26T11:20:45.000Z</time>
      </trkpt>
      <trkpt lat="44.03649" lon="3.31586">
        <ele>840</ele>
        <time>2020-08-26T11:20:35.000Z</time>
      </trkpt>
      <trkpt lat="44.0364" lon="3.31577">
        <ele>847.4</ele>
        <time>2020-08-26T11:20:45.000Z</time>
      </trkpt>
      <trkpt lat="44.03632" lon="3.31567">
        <ele>840</ele>
        <time>2020-08-26T11:20:35.000Z</time>
      </trkpt>
      <trkpt lat="44.03605" lon="3.3154">
        <ele>838</ele>
        <time>2020-08-26T11:20:35.000Z</time>
      </trkpt>
      <trkpt lat="44.03597" lon="3.3153">
        <ele>848.2</ele>
        <time>2020-08-26T11:20:45.000Z</time>
      </trkpt>
      <trkpt lat="44.03573" lon="3.31517">
        <ele>838</ele>
        <time>2020-08-26T11:20:35.000Z</time>
      </trkpt>
      <trkpt lat="44.03559" lon="3.31512">
        <ele>849.6</ele>
        <time>2020-08-26T11:20:45.000Z</time>
      </trkpt>
      <trkpt lat="44.03547" lon="3.31509">
        <ele>838</ele>
        <time>2020-08-26T11:20:35.000Z</time>
      </trkpt>
      <trkpt lat="44.03522" lon="3.31513">
        <ele>838</ele>
        <time>2020-08-26T11:20:35.000Z</time>
      </trkpt>
      <trkpt lat="44.03511" lon="3.31516">
        <ele>849.8</ele>
        <time>2020-08-26T11:20:45.000Z</time>
      </trkpt>
      <trkpt lat="44.03492" lon="3.31525">
        <ele>840</ele>
        <time>2020-08-26T11:20:35.000Z</time>
      </trkpt>
      <trkpt lat="44.03477" lon="3.3153">
        <ele>849.3</ele>
        <time>2020-08-26T11:20:45.000Z</time>
      </trkpt>
      <trkpt lat="44.03452" lon="3.31544">
        <ele>840</ele>
        <time>2020-08-26T11:20:35.000Z</time>
      </trkpt>
      <trkpt lat="44.03441" lon="3.31549">
        <ele>849.8</ele>
        <time>2020-08-26T11:20:45.000Z</time>
      </trkpt>
      <trkpt lat="44.03431" lon="3.31556">
        <ele>841</ele>
        <time>2020-08-26T11:20:35.000Z</time>
      </trkpt>
      <trkpt lat="44.0342" lon="3.31567">
        <ele>850</ele>
        <time>2020-08-26T11:20:45.000Z</time>
      </trkpt>
      <trkpt lat="44.03406" lon="3.31572">
        <ele>844</ele>
        <time>2020-08-26T11:20:35.000Z</time>
      </trkpt>
      <trkpt lat="44.03392" lon="3.31575">
        <ele>849.1</ele>
        <time>2020-08-26T11:20:45.000Z</time>
      </trkpt>
      <trkpt lat="44.03375" lon="3.31577">
        <ele>845</ele>
        <time>2020-08-26T11:20:35.000Z</time>
      </trkpt>
      <trkpt lat="44.03355" lon="3.31577">
        <ele>845</ele>
        <time>2020-08-26T11:20:35.000Z</time>
      </trkpt>
      <trkpt lat="44.03326" lon="3.31586">
        <ele>843</ele>
        <time>2020-08-26T11:20:35.000Z</time>
      </trkpt>
      <trkpt lat="44.03313" lon="3.31579">
        <ele>849</ele>
        <time>2020-08-26T11:20:45.000Z</time>
      </trkpt>
      <trkpt lat="44.03307" lon="3.3157">
        <ele>843</ele>
        <time>2020-08-26T11:20:35.000Z</time>
      </trkpt>
      <trkpt lat="44.03295" lon="3.31562">
        <ele>848.5</ele>
        <time>2020-08-26T11:20:45.000Z</time>
      </trkpt>
      <trkpt lat="44.03285" lon="3.31552">
        <ele>843</ele>
        <time>2020-08-26T11:20:35.000Z</time>
      </trkpt>
      <trkpt lat="44.0326" lon="3.31546">
        <ele>840</ele>
        <time>2020-08-26T11:20:35.000Z</time>
      </trkpt>
      <trkpt lat="44.03234" lon="3.31548">
        <ele>841</ele>
        <time>2020-08-26T11:20:35.000Z</time>
      </trkpt>
      <trkpt lat="44.03191" lon="3.3154">
        <ele>841</ele>
        <time>2020-08-26T11:20:35.000Z</time>
      </trkpt>
      <trkpt lat="44.0318" lon="3.31532">
        <ele>847.1</ele>
        <time>2020-08-26T11:20:45.000Z</time>
      </trkpt>
      <trkpt lat="44.03175" lon="3.3152">
        <ele>841</ele>
        <time>2020-08-26T11:20:35.000Z</time>
      </trkpt>
      <trkpt lat="44.03157" lon="3.31516">
        <ele>846.4</ele>
        <time>2020-08-26T11:20:45.000Z</time>
      </trkpt>
      <trkpt lat="44.03145" lon="3.31519">
        <ele>840</ele>
        <time>2020-08-26T11:20:35.000Z</time>
      </trkpt>
      <trkpt lat="44.03136" lon="3.31529">
        <ele>847</ele>
        <time>2020-08-26T11:20:45.000Z</time>
      </trkpt>
      <trkpt lat="44.03111" lon="3.31539">
        <ele>840</ele>
        <time>2020-08-26T11:20:35.000Z</time>
      </trkpt>
      <trkpt lat="44.03097" lon="3.31542">
        <ele>848.5</ele>
        <time>2020-08-26T11:20:45.000Z</time>
      </trkpt>
      <trkpt lat="44.03083" lon="3.31541">
        <ele>839</ele>
        <time>2020-08-26T11:20:35.000Z</time>
      </trkpt>
      <trkpt lat="44.03068" lon="3.31532">
        <ele>850.2</ele>
        <time>2020-08-26T11:20:45.000Z</time>
      </trkpt>
      <trkpt lat="44.03051" lon="3.31511">
        <ele>839</ele>
        <time>2020-08-26T11:20:35.000Z</time>
      </trkpt>
      <trkpt lat="44.03039" lon="3.3149">
        <ele>846.6</ele>
        <time>2020-08-26T11:20:45.000Z</time>
      </trkpt>
      <trkpt lat="44.03038" lon="3.31477">
        <ele>835</ele>
        <time>2020-08-26T11:20:35.000Z</time>
      </trkpt>
      <trkpt lat="44.03042" lon="3.31462">
        <ele>846.1</ele>
        <time>2020-08-26T11:20:45.000Z</time>
      </trkpt>
      <trkpt lat="44.03038" lon="3.31438">
        <ele>831</ele>
        <time>2020-08-26T11:20:35.000Z</time>
      </trkpt>
      <trkpt lat="44.03039" lon="3.31424">
        <ele>845.9</ele>
        <time>2020-08-26T11:20:45.000Z</time>
      </trkpt>
      <trkpt lat="44.03034" lon="3.31411">
        <ele>831</ele>
        <time>2020-08-26T11:20:35.000Z</time>
      </trkpt>
      <trkpt lat="44.0304" lon="3.31391">
        <ele>844.9</ele>
        <time>2020-08-26T11:20:45.000Z</time>
      </trkpt>
      <trkpt lat="44.0305" lon="3.31376">
        <ele>832</ele>
        <time>2020-08-26T11:20:35.000Z</time>
      </trkpt>
      <trkpt lat="44.03056" lon="3.31362">
        <ele>841.9</ele>
        <time>2020-08-26T11:20:45.000Z</time>
      </trkpt>
      <trkpt lat="44.03063" lon="3.31334">
        <ele>830</ele>
        <time>2020-08-26T11:20:35.000Z</time>
      </trkpt>
      <trkpt lat="44.03066" lon="3.31314">
        <ele>836.9</ele>
        <time>2020-08-26T11:20:45.000Z</time>
      </trkpt>
      <trkpt lat="44.03062" lon="3.31302">
        <ele>828</ele>
        <time>2020-08-26T11:20:35.000Z</time>
      </trkpt>
      <trkpt lat="44.03066" lon="3.31282">
        <ele>834.6</ele>
        <time>2020-08-26T11:20:45.000Z</time>
      </trkpt>
      <trkpt lat="44.0307" lon="3.3127">
        <ele>821</ele>
        <time>2020-08-26T11:20:35.000Z</time>
      </trkpt>
      <trkpt lat="44.03093" lon="3.3125">
        <ele>815</ele>
        <time>2020-08-26T11:20:35.000Z</time>
      </trkpt>
      <trkpt lat="44.031" lon="3.31237">
        <ele>826.9</ele>
        <time>2020-08-26T11:20:45.000Z</time>
      </trkpt>
      <trkpt lat="44.03112" lon="3.31228">
        <ele>813</ele>
        <time>2020-08-26T11:20:35.000Z</time>
      </trkpt>
      <trkpt lat="44.03117" lon="3.31204">
        <ele>820.3</ele>
        <time>2020-08-26T11:20:45.000Z</time>
      </trkpt>
      <trkpt lat="44.03123" lon="3.31191">
        <ele>809</ele>
        <time>2020-08-26T11:20:35.000Z</time>
      </trkpt>
      <trkpt lat="44.03127" lon="3.31169">
        <ele>814.8</ele>
        <time>2020-08-26T11:20:45.000Z</time>
      </trkpt>
      <trkpt lat="44.03137" lon="3.3115">
        <ele>788</ele>
        <time>2020-08-26T11:20:35.000Z</time>
      </trkpt>
      <trkpt lat="44.03149" lon="3.31146">
        <ele>816.6</ele>
        <time>2020-08-26T11:20:45.000Z</time>
      </trkpt>
      <trkpt lat="44.03157" lon="3.31132">
        <ele>788</ele>
        <time>2020-08-26T11:20:35.000Z</time>
      </trkpt>
      <trkpt lat="44.03157" lon="3.31118">
        <ele>812.9</ele>
        <time>2020-08-26T11:20:45.000Z</time>
      </trkpt>
      <trkpt lat="44.0316" lon="3.31097">
        <ele>785</ele>
        <time>2020-08-26T11:20:35.000Z</time>
      </trkpt>
      <trkpt lat="44.0318" lon="3.31077">
        <ele>785</ele>
        <time>2020-08-26T11:20:35.000Z</time>
      </trkpt>
      <trkpt lat="44.03188" lon="3.31068">
        <ele>810.6</ele>
        <time>2020-08-26T11:20:45.000Z</time>
      </trkpt>
      <trkpt lat="44.03194" lon="3.31054">
        <ele>788</ele>
        <time>2020-08-26T11:20:35.000Z</time>
      </trkpt>
      <trkpt lat="44.03202" lon="3.31019">
        <ele>797</ele>
        <time>2020-08-26T11:20:35.000Z</time>
      </trkpt>
      <trkpt lat="44.03211" lon="3.31012">
        <ele>814.3</ele>
        <time>2020-08-26T11:20:45.000Z</time>
      </trkpt>
      <trkpt lat="44.0321" lon="3.30996">
        <ele>798</ele>
        <time>2020-08-26T11:20:35.000Z</time>
      </trkpt>
      <trkpt lat="44.03207" lon="3.30972">
        <ele>814.2</ele>
        <time>2020-08-26T11:20:45.000Z</time>
      </trkpt>
      <trkpt lat="44.03213" lon="3.30959">
        <ele>805</ele>
        <time>2020-08-26T11:20:35.000Z</time>
      </trkpt>
      <trkpt lat="44.03214" lon="3.30937">
        <ele>815.2</ele>
        <time>2020-08-26T11:20:45.000Z</time>
      </trkpt>
      <trkpt lat="44.03217" lon="3.30917">
        <ele>807</ele>
        <time>2020-08-26T11:20:35.000Z</time>
      </trkpt>
      <trkpt lat="44.03208" lon="3.30886">
        <ele>804</ele>
        <time>2020-08-26T11:20:35.000Z</time>
      </trkpt>
      <trkpt lat="44.03195" lon="3.30861">
        <ele>801</ele>
        <time>2020-08-26T11:20:35.000Z</time>
      </trkpt>
      <trkpt lat="44.0319" lon="3.30849">
        <ele>811.6</ele>
        <time>2020-08-26T11:20:45.000Z</time>
      </trkpt>
      <trkpt lat="44.03193" lon="3.30825">
        <ele>798</ele>
        <time>2020-08-26T11:20:35.000Z</time>
      </trkpt>
      <trkpt lat="44.03201" lon="3.30813">
        <ele>809.6</ele>
        <time>2020-08-26T11:20:45.000Z</time>
      </trkpt>
      <trkpt lat="44.03218" lon="3.30809">
        <ele>793</ele>
        <time>2020-08-26T11:20:35.000Z</time>
      </trkpt>
      <trkpt lat="44.03224" lon="3.30799">
        <ele>806.5</ele>
        <time>2020-08-26T11:20:45.000Z</time>
      </trkpt>
      <trkpt lat="44.03234" lon="3.3079">
        <ele>789</ele>
        <time>2020-08-26T11:20:35.000Z</time>
      </trkpt>
      <trkpt lat="44.03237" lon="3.30771">
        <ele>798.8</ele>
        <time>2020-08-26T11:20:45.000Z</time>
      </trkpt>
      <trkpt lat="44.03239" lon="3.30748">
        <ele>784</ele>
        <time>2020-08-26T11:20:35.000Z</time>
      </trkpt>
      <trkpt lat="44.03246" lon="3.30736">
        <ele>792.1</ele>
        <time>2020-08-26T11:20:45.000Z</time>
      </trkpt>
      <trkpt lat="44.03252" lon="3.30718">
        <ele>779</ele>
        <time>2020-08-26T11:20:35.000Z</time>
      </trkpt>
      <trkpt lat="44.03258" lon="3.30706">
        <ele>785.1</ele>
        <time>2020-08-26T11:20:45.000Z</time>
      </trkpt>
      <trkpt lat="44.03258" lon="3.30693">
        <ele>778</ele>
        <time>2020-08-26T11:20:35.000Z</time>
      </trkpt>
      <trkpt lat="44.03259" lon="3.30676">
        <ele>778.2</ele>
        <time>2020-08-26T11:20:45.000Z</time>
      </trkpt>
      <trkpt lat="44.03259" lon="3.30646">
        <ele>769</ele>
        <time>2020-08-26T11:20:35.000Z</time>
      </trkpt>
      <trkpt lat="44.0326" lon="3.30627">
        <ele>771.5</ele>
        <time>2020-08-26T11:20:45.000Z</time>
      </trkpt>
      <trkpt lat="44.03251" lon="3.30593">
        <ele>761</ele>
        <time>2020-08-26T11:20:35.000Z</time>
      </trkpt>
      <trkpt lat="44.03252" lon="3.30575">
        <ele>766.5</ele>
        <time>2020-08-26T11:20:45.000Z</time>
      </trkpt>
      <trkpt lat="44.03258" lon="3.30559">
        <ele>740</ele>
        <time>2020-08-26T11:20:35.000Z</time>
      </trkpt>
      <trkpt lat="44.03264" lon="3.30548">
        <ele>753</ele>
        <time>2020-08-26T11:20:45.000Z</time>
      </trkpt>
      <trkpt lat="44.0326" lon="3.30529">
        <ele>732</ele>
        <time>2020-08-26T11:20:35.000Z</time>
      </trkpt>
      <trkpt lat="44.03265" lon="3.30518">
        <ele>744.3</ele>
        <time>2020-08-26T11:20:45.000Z</time>
      </trkpt>
      <trkpt lat="44.03267" lon="3.30492">
        <ele>722</ele>
        <time>2020-08-26T11:20:35.000Z</time>
      </trkpt>
      <trkpt lat="44.03258" lon="3.3047">
        <ele>728.2</ele>
        <time>2020-08-26T11:20:45.000Z</time>
      </trkpt>
      <trkpt lat="44.03245" lon="3.30442">
        <ele>705</ele>
        <time>2020-08-26T11:20:35.000Z</time>
      </trkpt>
      <trkpt lat="44.03238" lon="3.30433">
        <ele>717.4</ele>
        <time>2020-08-26T11:20:45.000Z</time>
      </trkpt>
      <trkpt lat="44.03235" lon="3.30421">
        <ele>713.3</ele>
        <time>2020-08-26T11:20:55.000Z</time>
      </trkpt>
      <trkpt lat="44.03247" lon="3.3041">
        <ele>695</ele>
        <time>2020-08-26T11:20:35.000Z</time>
      </trkpt>
      <trkpt lat="44.0324" lon="3.3039">
        <ele>703.1</ele>
        <time>2020-08-26T11:20:45.000Z</time>
      </trkpt>
      <trkpt lat="44.03233" lon="3.30378">
        <ele>692</ele>
        <time>2020-08-26T11:20:35.000Z</time>
      </trkpt>
      <trkpt lat="44.03226" lon="3.30364">
        <ele>699</ele>
        <time>2020-08-26T11:20:45.000Z</time>
      </trkpt>
      <trkpt lat="44.0322" lon="3.3035">
        <ele>692</ele>
        <time>2020-08-26T11:20:35.000Z</time>
      </trkpt>
      <trkpt lat="44.03204" lon="3.30345">
        <ele>689.7</ele>
        <time>2020-08-26T11:20:45.000Z</time>
      </trkpt>
      <trkpt lat="44.03189" lon="3.30355">
        <ele>675</ele>
        <time>2020-08-26T11:20:35.000Z</time>
      </trkpt>
      <trkpt lat="44.03178" lon="3.30365">
        <ele>682.5</ele>
        <time>2020-08-26T11:20:45.000Z</time>
      </trkpt>
      <trkpt lat="44.03169" lon="3.30372">
        <ele>675</ele>
        <time>2020-08-26T11:20:35.000Z</time>
      </trkpt>
      <trkpt lat="44.03159" lon="3.30383">
        <ele>676.3</ele>
        <time>2020-08-26T11:20:45.000Z</time>
      </trkpt>
      <trkpt lat="44.03141" lon="3.30409">
        <ele>657</ele>
        <time>2020-08-26T11:20:35.000Z</time>
      </trkpt>
      <trkpt lat="44.03108" lon="3.30435">
        <ele>653</ele>
        <time>2020-08-26T11:20:35.000Z</time>
      </trkpt>
      <trkpt lat="44.0309" lon="3.3045">
        <ele>653</ele>
        <time>2020-08-26T11:20:35.000Z</time>
      </trkpt>
      <trkpt lat="44.0308" lon="3.30461">
        <ele>656</ele>
        <time>2020-08-26T11:20:45.000Z</time>
      </trkpt>
      <trkpt lat="44.03074" lon="3.30473">
        <ele>650</ele>
        <time>2020-08-26T11:20:35.000Z</time>
      </trkpt>
      <trkpt lat="44.03071" lon="3.30486">
        <ele>652.5</ele>
        <time>2020-08-26T11:20:45.000Z</time>
      </trkpt>
      <trkpt lat="44.03071" lon="3.30499">
        <ele>652.6</ele>
        <time>2020-08-26T11:20:55.000Z</time>
      </trkpt>
      <trkpt lat="44.03066" lon="3.30522">
        <ele>647</ele>
        <time>2020-08-26T11:20:35.000Z</time>
      </trkpt>
      <trkpt lat="44.03061" lon="3.30532">
        <ele>644.9</ele>
        <time>2020-08-26T11:20:45.000Z</time>
      </trkpt>
      <trkpt lat="44.03049" lon="3.30542">
        <ele>627</ele>
        <time>2020-08-26T11:20:35.000Z</time>
      </trkpt>
      <trkpt lat="44.03038" lon="3.30545">
        <ele>637.1</ele>
        <time>2020-08-26T11:20:45.000Z</time>
      </trkpt>
      <trkpt lat="44.03028" lon="3.30544">
        <ele>627</ele>
        <time>2020-08-26T11:20:35.000Z</time>
      </trkpt>
      <trkpt lat="44.03019" lon="3.30545">
        <ele>630.2</ele>
        <time>2020-08-26T11:20:45.000Z</time>
      </trkpt>
      <trkpt lat="44.03009" lon="3.30548">
        <ele>628.4</ele>
        <time>2020-08-26T11:20:55.000Z</time>
      </trkpt>
      <trkpt lat="44.02997" lon="3.30549">
        <ele>620</ele>
        <time>2020-08-26T11:20:35.000Z</time>
      </trkpt>
      <trkpt lat="44.02977" lon="3.30554">
        <ele>613</ele>
        <time>2020-08-26T11:20:35.000Z</time>
      </trkpt>
      <trkpt lat="44.02965" lon="3.30558">
        <ele>620.8</ele>
        <time>2020-08-26T11:20:45.000Z</time>
      </trkpt>
      <trkpt lat="44.02934" lon="3.30574">
        <ele>603</ele>
        <time>2020-08-26T11:20:35.000Z</time>
      </trkpt>
      <trkpt lat="44.02923" lon="3.30583">
        <ele>613.1</ele>
        <time>2020-08-26T11:20:45.000Z</time>
      </trkpt>
      <trkpt lat="44.02906" lon="3.30587">
        <ele>599</ele>
        <time>2020-08-26T11:20:35.000Z</time>
      </trkpt>
      <trkpt lat="44.02896" lon="3.30594">
        <ele>604.3</ele>
        <time>2020-08-26T11:20:45.000Z</time>
      </trkpt>
      <trkpt lat="44.02882" lon="3.30602">
        <ele>596</ele>
        <time>2020-08-26T11:20:35.000Z</time>
      </trkpt>
      <trkpt lat="44.02872" lon="3.30609">
        <ele>597.2</ele>
        <time>2020-08-26T11:20:45.000Z</time>
      </trkpt>
      <trkpt lat="44.02864" lon="3.30619">
        <ele>583</ele>
        <time>2020-08-26T11:20:35.000Z</time>
      </trkpt>
      <trkpt lat="44.02832" lon="3.30642">
        <ele>577</ele>
        <time>2020-08-26T11:20:35.000Z</time>
      </trkpt>
      <trkpt lat="44.02803" lon="3.30658">
        <ele>564</ele>
        <time>2020-08-26T11:20:35.000Z</time>
      </trkpt>
      <trkpt lat="44.02786" lon="3.30661">
        <ele>569.9</ele>
        <time>2020-08-26T11:20:45.000Z</time>
      </trkpt>
      <trkpt lat="44.02777" lon="3.30667">
        <ele>556</ele>
        <time>2020-08-26T11:20:35.000Z</time>
      </trkpt>
      <trkpt lat="44.02758" lon="3.30671">
        <ele>561.1</ele>
        <time>2020-08-26T11:20:45.000Z</time>
      </trkpt>
      <trkpt lat="44.02749" lon="3.3067">
        <ele>545</ele>
        <time>2020-08-26T11:20:35.000Z</time>
      </trkpt>
      <trkpt lat="44.02738" lon="3.30676">
        <ele>555.1</ele>
        <time>2020-08-26T11:20:45.000Z</time>
      </trkpt>
      <trkpt lat="44.02724" lon="3.30678">
        <ele>538</ele>
        <time>2020-08-26T11:20:35.000Z</time>
      </trkpt>
      <trkpt lat="44.02714" lon="3.30677">
        <ele>547.9</ele>
        <time>2020-08-26T11:20:45.000Z</time>
      </trkpt>
      <trkpt lat="44.02703" lon="3.30675">
        <ele>529</ele>
        <time>2020-08-26T11:20:35.000Z</time>
      </trkpt>
      <trkpt lat="44.02688" lon="3.30666">
        <ele>538.5</ele>
        <time>2020-08-26T11:20:45.000Z</time>
      </trkpt>
      <trkpt lat="44.02675" lon="3.30655">
        <ele>514</ele>
        <time>2020-08-26T11:20:35.000Z</time>
      </trkpt>
      <trkpt lat="44.02666" lon="3.30641">
        <ele>525.2</ele>
        <time>2020-08-26T11:20:45.000Z</time>
      </trkpt>
      <trkpt lat="44.0266" lon="3.30628">
        <ele>510</ele>
        <time>2020-08-26T11:20:35.000Z</time>
      </trkpt>
      <trkpt lat="44.02651" lon="3.30617">
        <ele>516.4</ele>
        <time>2020-08-26T11:20:45.000Z</time>
      </trkpt>
      <trkpt lat="44.0263" lon="3.30595">
        <ele>497</ele>
        <time>2020-08-26T11:20:35.000Z</time>
      </trkpt>
      <trkpt lat="44.02621" lon="3.30584">
        <ele>507.1</ele>
        <time>2020-08-26T11:20:45.000Z</time>
      </trkpt>
      <trkpt lat="44.02606" lon="3.30586">
        <ele>497</ele>
        <time>2020-08-26T11:20:35.000Z</time>
      </trkpt>
      <trkpt lat="44.02598" lon="3.30591">
        <ele>504</ele>
        <time>2020-08-26T11:20:45.000Z</time>
      </trkpt>
      <trkpt lat="44.0259" lon="3.30585">
        <ele>502.3</ele>
        <time>2020-08-26T11:20:55.000Z</time>
      </trkpt>
      <trkpt lat="44.02578" lon="3.30579">
        <ele>493</ele>
        <time>2020-08-26T11:20:35.000Z</time>
      </trkpt>
      <trkpt lat="44.02557" lon="3.30554">
        <ele>488</ele>
        <time>2020-08-26T11:20:35.000Z</time>
      </trkpt>
      <trkpt lat="44.02547" lon="3.30557">
        <ele>494.9</ele>
        <time>2020-08-26T11:20:45.000Z</time>
      </trkpt>
      <trkpt lat="44.02535" lon="3.30563">
        <ele>485</ele>
        <time>2020-08-26T11:20:35.000Z</time>
      </trkpt>
      <trkpt lat="44.0251" lon="3.3058">
        <ele>485</ele>
        <time>2020-08-26T11:20:35.000Z</time>
      </trkpt>
      <trkpt lat="44.02483" lon="3.30589">
        <ele>482</ele>
        <time>2020-08-26T11:20:35.000Z</time>
      </trkpt>
      <trkpt lat="44.02472" lon="3.30588">
        <ele>488.5</ele>
        <time>2020-08-26T11:20:45.000Z</time>
      </trkpt>
      <trkpt lat="44.02446" lon="3.30549">
        <ele>479</ele>
        <time>2020-08-26T11:20:35.000Z</time>
      </trkpt>
      <trkpt lat="44.02431" lon="3.30533">
        <ele>483.4</ele>
        <time>2020-08-26T11:20:45.000Z</time>
      </trkpt>
      <trkpt lat="44.02372" lon="3.30454">
        <ele>477</ele>
        <time>2020-08-26T11:20:35.000Z</time>
      </trkpt>
      <trkpt lat="44.02363" lon="3.30444">
        <ele>478.9</ele>
        <time>2020-08-26T11:20:45.000Z</time>
      </trkpt>
      <trkpt lat="44.02343" lon="3.30452">
        <ele>474</ele>
        <time>2020-08-26T11:20:35.000Z</time>
      </trkpt>
      <trkpt lat="44.02339" lon="3.30464">
        <ele>480.5</ele>
        <time>2020-08-26T11:20:45.000Z</time>
      </trkpt>
      <trkpt lat="44.02331" lon="3.30474">
        <ele>473</ele>
        <time>2020-08-26T11:20:35.000Z</time>
      </trkpt>
      <trkpt lat="44.02322" lon="3.30457">
        <ele>478.3</ele>
        <time>2020-08-26T11:20:45.000Z</time>
      </trkpt>
      <trkpt lat="44.02308" lon="3.30446">
        <ele>473</ele>
        <time>2020-08-26T11:20:35.000Z</time>
      </trkpt>
      <trkpt lat="44.02291" lon="3.30442">
        <ele>474.8</ele>
        <time>2020-08-26T11:20:45.000Z</time>
      </trkpt>
      <trkpt lat="44.02282" lon="3.30444">
        <ele>473</ele>
        <time>2020-08-26T11:20:35.000Z</time>
      </trkpt>
      <trkpt lat="44.0227" lon="3.30445">
        <ele>474.9</ele>
        <time>2020-08-26T11:20:45.000Z</time>
      </trkpt>
      <trkpt lat="44.02257" lon="3.30445">
        <ele>473</ele>
        <time>2020-08-26T11:20:35.000Z</time>
      </trkpt>
      <trkpt lat="44.02248" lon="3.30443">
        <ele>477.9</ele>
        <time>2020-08-26T11:20:45.000Z</time>
      </trkpt>
      <trkpt lat="44.02246" lon="3.30429">
        <ele>480.4</ele>
        <time>2020-08-26T11:20:55.000Z</time>
      </trkpt>
      <trkpt lat="44.0225" lon="3.30406">
        <ele>473</ele>
        <time>2020-08-26T11:20:35.000Z</time>
      </trkpt>
      <trkpt lat="44.02247" lon="3.30389">
        <ele>479.7</ele>
        <time>2020-08-26T11:20:45.000Z</time>
      </trkpt>
      <trkpt lat="44.02237" lon="3.30381">
        <ele>478</ele>
        <time>2020-08-26T11:20:35.000Z</time>
      </trkpt>
      <trkpt lat="44.02228" lon="3.30376">
        <ele>482.2</ele>
        <time>2020-08-26T11:20:45.000Z</time>
      </trkpt>
      <trkpt lat="44.02218" lon="3.30369">
        <ele>481</ele>
        <time>2020-08-26T11:20:35.000Z</time>
      </trkpt>
      <trkpt lat="44.02204" lon="3.30344">
        <ele>486</ele>
        <time>2020-08-26T11:20:35.000Z</time>
      </trkpt>
      <trkpt lat="44.02197" lon="3.30322">
        <ele>489.7</ele>
        <time>2020-08-26T11:20:45.000Z</time>
      </trkpt>
      <trkpt lat="44.02196" lon="3.30308">
        <ele>488</ele>
        <time>2020-08-26T11:20:35.000Z</time>
      </trkpt>
      <trkpt lat="44.02208" lon="3.30284">
        <ele>487</ele>
        <time>2020-08-26T11:20:35.000Z</time>
      </trkpt>
      <trkpt lat="44.02215" lon="3.30275">
        <ele>490.3</ele>
        <time>2020-08-26T11:20:45.000Z</time>
      </trkpt>
      <trkpt lat="44.02228" lon="3.30276">
        <ele>486</ele>
        <time>2020-08-26T11:20:35.000Z</time>
      </trkpt>
      <trkpt lat="44.02243" lon="3.3029">
        <ele>487.8</ele>
        <time>2020-08-26T11:20:45.000Z</time>
      </trkpt>
      <trkpt lat="44.02252" lon="3.30293">
        <ele>486</ele>
        <time>2020-08-26T11:20:35.000Z</time>
      </trkpt>
      <trkpt lat="44.02267" lon="3.30283">
        <ele>487.1</ele>
        <time>2020-08-26T11:20:45.000Z</time>
      </trkpt>
      <trkpt lat="44.02275" lon="3.30269">
        <ele>487</ele>
        <time>2020-08-26T11:20:35.000Z</time>
      </trkpt>
      <trkpt lat="44.02278" lon="3.30247">
        <ele>489.1</ele>
        <time>2020-08-26T11:20:45.000Z</time>
      </trkpt>
      <trkpt lat="44.02278" lon="3.30234">
        <ele>488</ele>
        <time>2020-08-26T11:20:35.000Z</time>
      </trkpt>
      <trkpt lat="44.02276" lon="3.30221">
        <ele>490.1</ele>
        <time>2020-08-26T11:20:45.000Z</time>
      </trkpt>
      <trkpt lat="44.02249" lon="3.30229">
        <ele>489</ele>
        <time>2020-08-26T11:20:35.000Z</time>
      </trkpt>
    </trkseg>
  </trk>
</gpx>